<?xml version="1.0" encoding="UTF-8" standalone="no" ?>
<gpx xmlns="http://www.topografix.com/GPX/1/1" xmlns:xsi="http://www.w3.org/2001/XMLSchema-instance" xsi:schemaLocation="http://www.topografix.com/GPX/1/1 http://www.topografix.com/GPX/1/1/gpx.xsd" version="1.1" creator="VisuGPX - https://www.visugpx.com">
  <metadata>
    <name>Arête de Tricot - pte centrale </name>
  </metadata>
  <trk>
    <name><![CDATA[2017-08-02 16:28:56-Course TT]]></name>
    <extensions>
      <line xmlns="http://www.topografix.com/GPX/gpx_style/0/2">
        <color>0000FF</color>
        <width>4</width>
      </line>
    </extensions>
    <trkseg>
      <trkpt lat="45.8685" lon="6.76104">
        <ele>1416.64</ele>
        <time>2017-08-02T08:22:55Z</time>
      </trkpt>
      <trkpt lat="45.86852" lon="6.76104">
        <ele>1331.08</ele>
        <time>2017-08-02T08:22:56Z</time>
      </trkpt>
      <trkpt lat="45.86853" lon="6.76104">
        <ele>1331.08</ele>
        <time>2017-08-02T08:22:57Z</time>
      </trkpt>
      <trkpt lat="45.86858" lon="6.76102">
        <ele>1417.12</ele>
        <time>2017-08-02T08:23:00Z</time>
      </trkpt>
      <trkpt lat="45.8686" lon="6.761">
        <ele>1417.12</ele>
        <time>2017-08-02T08:23:01Z</time>
      </trkpt>
      <trkpt lat="45.86862" lon="6.76096">
        <ele>1417.12</ele>
        <time>2017-08-02T08:23:03Z</time>
      </trkpt>
      <trkpt lat="45.86862" lon="6.76092">
        <ele>1416.64</ele>
        <time>2017-08-02T08:23:04Z</time>
      </trkpt>
      <trkpt lat="45.86862" lon="6.76089">
        <ele>1416.64</ele>
        <time>2017-08-02T08:23:05Z</time>
      </trkpt>
      <trkpt lat="45.86861" lon="6.76086">
        <ele>1416.16</ele>
        <time>2017-08-02T08:23:06Z</time>
      </trkpt>
      <trkpt lat="45.86858" lon="6.76083">
        <ele>1415.68</ele>
        <time>2017-08-02T08:23:07Z</time>
      </trkpt>
      <trkpt lat="45.86855" lon="6.76081">
        <ele>1415.2</ele>
        <time>2017-08-02T08:23:08Z</time>
      </trkpt>
      <trkpt lat="45.86852" lon="6.76078">
        <ele>1415.2</ele>
        <time>2017-08-02T08:23:09Z</time>
      </trkpt>
      <trkpt lat="45.86849" lon="6.76076">
        <ele>1415.2</ele>
        <time>2017-08-02T08:23:10Z</time>
      </trkpt>
      <trkpt lat="45.86845" lon="6.76074">
        <ele>1414.72</ele>
        <time>2017-08-02T08:23:11Z</time>
      </trkpt>
      <trkpt lat="45.86843" lon="6.76071">
        <ele>1414.24</ele>
        <time>2017-08-02T08:23:12Z</time>
      </trkpt>
      <trkpt lat="45.86839" lon="6.76068">
        <ele>1413.76</ele>
        <time>2017-08-02T08:23:13Z</time>
      </trkpt>
      <trkpt lat="45.86837" lon="6.76064">
        <ele>1413.76</ele>
        <time>2017-08-02T08:23:14Z</time>
      </trkpt>
      <trkpt lat="45.8683" lon="6.76057">
        <ele>1412.79</ele>
        <time>2017-08-02T08:23:17Z</time>
      </trkpt>
      <trkpt lat="45.86824" lon="6.7605">
        <ele>1411.83</ele>
        <time>2017-08-02T08:23:20Z</time>
      </trkpt>
      <trkpt lat="45.86805" lon="6.76032">
        <ele>1409.43</ele>
        <time>2017-08-02T08:23:29Z</time>
      </trkpt>
      <trkpt lat="45.86803" lon="6.76034">
        <ele>1408.95</ele>
        <time>2017-08-02T08:23:30Z</time>
      </trkpt>
      <trkpt lat="45.86802" lon="6.76036">
        <ele>1409.43</ele>
        <time>2017-08-02T08:23:31Z</time>
      </trkpt>
      <trkpt lat="45.86801" lon="6.76038">
        <ele>1409.43</ele>
        <time>2017-08-02T08:23:32Z</time>
      </trkpt>
      <trkpt lat="45.868" lon="6.7604">
        <ele>1409.91</ele>
        <time>2017-08-02T08:23:33Z</time>
      </trkpt>
      <trkpt lat="45.86799" lon="6.76043">
        <ele>1409.91</ele>
        <time>2017-08-02T08:23:34Z</time>
      </trkpt>
      <trkpt lat="45.86799" lon="6.76045">
        <ele>1410.39</ele>
        <time>2017-08-02T08:23:35Z</time>
      </trkpt>
      <trkpt lat="45.86798" lon="6.76046">
        <ele>1410.39</ele>
        <time>2017-08-02T08:23:36Z</time>
      </trkpt>
      <trkpt lat="45.86797" lon="6.76048">
        <ele>1410.87</ele>
        <time>2017-08-02T08:23:37Z</time>
      </trkpt>
      <trkpt lat="45.86796" lon="6.76049">
        <ele>1411.35</ele>
        <time>2017-08-02T08:23:38Z</time>
      </trkpt>
      <trkpt lat="45.86796" lon="6.76051">
        <ele>1411.83</ele>
        <time>2017-08-02T08:23:39Z</time>
      </trkpt>
      <trkpt lat="45.86794" lon="6.76053">
        <ele>1412.31</ele>
        <time>2017-08-02T08:23:40Z</time>
      </trkpt>
      <trkpt lat="45.86793" lon="6.76056">
        <ele>1412.79</ele>
        <time>2017-08-02T08:23:41Z</time>
      </trkpt>
      <trkpt lat="45.86792" lon="6.76075">
        <ele>1416.16</ele>
        <time>2017-08-02T08:23:50Z</time>
      </trkpt>
      <trkpt lat="45.86797" lon="6.76084">
        <ele>1417.12</ele>
        <time>2017-08-02T08:23:54Z</time>
      </trkpt>
      <trkpt lat="45.86801" lon="6.76094">
        <ele>1418.56</ele>
        <time>2017-08-02T08:23:59Z</time>
      </trkpt>
      <trkpt lat="45.86802" lon="6.76119">
        <ele>1421.93</ele>
        <time>2017-08-02T08:24:09Z</time>
      </trkpt>
      <trkpt lat="45.86801" lon="6.7612">
        <ele>1421.93</ele>
        <time>2017-08-02T08:24:10Z</time>
      </trkpt>
      <trkpt lat="45.86802" lon="6.76122">
        <ele>1422.41</ele>
        <time>2017-08-02T08:24:11Z</time>
      </trkpt>
      <trkpt lat="45.86802" lon="6.76125">
        <ele>1422.41</ele>
        <time>2017-08-02T08:24:12Z</time>
      </trkpt>
      <trkpt lat="45.86804" lon="6.76128">
        <ele>1422.41</ele>
        <time>2017-08-02T08:24:13Z</time>
      </trkpt>
      <trkpt lat="45.86804" lon="6.76136">
        <ele>1423.37</ele>
        <time>2017-08-02T08:24:16Z</time>
      </trkpt>
      <trkpt lat="45.86803" lon="6.76139">
        <ele>1423.37</ele>
        <time>2017-08-02T08:24:17Z</time>
      </trkpt>
      <trkpt lat="45.86803" lon="6.76141">
        <ele>1423.37</ele>
        <time>2017-08-02T08:24:18Z</time>
      </trkpt>
      <trkpt lat="45.86803" lon="6.76144">
        <ele>1423.85</ele>
        <time>2017-08-02T08:24:19Z</time>
      </trkpt>
      <trkpt lat="45.86802" lon="6.76146">
        <ele>1423.85</ele>
        <time>2017-08-02T08:24:20Z</time>
      </trkpt>
      <trkpt lat="45.86802" lon="6.76149">
        <ele>1424.33</ele>
        <time>2017-08-02T08:24:21Z</time>
      </trkpt>
      <trkpt lat="45.868" lon="6.76152">
        <ele>1424.33</ele>
        <time>2017-08-02T08:24:22Z</time>
      </trkpt>
      <trkpt lat="45.86799" lon="6.76155">
        <ele>1424.81</ele>
        <time>2017-08-02T08:24:23Z</time>
      </trkpt>
      <trkpt lat="45.868" lon="6.76157">
        <ele>1424.81</ele>
        <time>2017-08-02T08:24:24Z</time>
      </trkpt>
      <trkpt lat="45.86801" lon="6.76159">
        <ele>1424.81</ele>
        <time>2017-08-02T08:24:25Z</time>
      </trkpt>
      <trkpt lat="45.86799" lon="6.76192">
        <ele>1427.7</ele>
        <time>2017-08-02T08:24:37Z</time>
      </trkpt>
      <trkpt lat="45.86798" lon="6.76195">
        <ele>1428.18</ele>
        <time>2017-08-02T08:24:38Z</time>
      </trkpt>
      <trkpt lat="45.86798" lon="6.76198">
        <ele>1428.18</ele>
        <time>2017-08-02T08:24:39Z</time>
      </trkpt>
      <trkpt lat="45.86799" lon="6.76201">
        <ele>1428.18</ele>
        <time>2017-08-02T08:24:40Z</time>
      </trkpt>
      <trkpt lat="45.868" lon="6.76204">
        <ele>1428.66</ele>
        <time>2017-08-02T08:24:41Z</time>
      </trkpt>
      <trkpt lat="45.86801" lon="6.76207">
        <ele>1429.14</ele>
        <time>2017-08-02T08:24:42Z</time>
      </trkpt>
      <trkpt lat="45.86802" lon="6.76211">
        <ele>1429.14</ele>
        <time>2017-08-02T08:24:43Z</time>
      </trkpt>
      <trkpt lat="45.86805" lon="6.76214">
        <ele>1429.62</ele>
        <time>2017-08-02T08:24:44Z</time>
      </trkpt>
      <trkpt lat="45.86807" lon="6.76218">
        <ele>1429.62</ele>
        <time>2017-08-02T08:24:45Z</time>
      </trkpt>
      <trkpt lat="45.86809" lon="6.76221">
        <ele>1429.62</ele>
        <time>2017-08-02T08:24:46Z</time>
      </trkpt>
      <trkpt lat="45.8681" lon="6.76223">
        <ele>1430.1</ele>
        <time>2017-08-02T08:24:47Z</time>
      </trkpt>
      <trkpt lat="45.86811" lon="6.76226">
        <ele>1430.58</ele>
        <time>2017-08-02T08:24:48Z</time>
      </trkpt>
      <trkpt lat="45.86813" lon="6.76229">
        <ele>1430.58</ele>
        <time>2017-08-02T08:24:49Z</time>
      </trkpt>
      <trkpt lat="45.86814" lon="6.76232">
        <ele>1430.58</ele>
        <time>2017-08-02T08:24:50Z</time>
      </trkpt>
      <trkpt lat="45.86816" lon="6.76234">
        <ele>1431.06</ele>
        <time>2017-08-02T08:24:51Z</time>
      </trkpt>
      <trkpt lat="45.86817" lon="6.76236">
        <ele>1431.06</ele>
        <time>2017-08-02T08:24:52Z</time>
      </trkpt>
      <trkpt lat="45.8682" lon="6.76238">
        <ele>1431.54</ele>
        <time>2017-08-02T08:24:53Z</time>
      </trkpt>
      <trkpt lat="45.86821" lon="6.76241">
        <ele>1432.02</ele>
        <time>2017-08-02T08:24:54Z</time>
      </trkpt>
      <trkpt lat="45.86822" lon="6.76244">
        <ele>1432.02</ele>
        <time>2017-08-02T08:24:55Z</time>
      </trkpt>
      <trkpt lat="45.86823" lon="6.76247">
        <ele>1432.02</ele>
        <time>2017-08-02T08:24:56Z</time>
      </trkpt>
      <trkpt lat="45.86823" lon="6.7625">
        <ele>1432.5</ele>
        <time>2017-08-02T08:24:57Z</time>
      </trkpt>
      <trkpt lat="45.86823" lon="6.76253">
        <ele>1432.98</ele>
        <time>2017-08-02T08:24:58Z</time>
      </trkpt>
      <trkpt lat="45.86824" lon="6.76256">
        <ele>1432.98</ele>
        <time>2017-08-02T08:24:59Z</time>
      </trkpt>
      <trkpt lat="45.8682" lon="6.76292">
        <ele>1435.39</ele>
        <time>2017-08-02T08:25:10Z</time>
      </trkpt>
      <trkpt lat="45.8682" lon="6.76303">
        <ele>1436.83</ele>
        <time>2017-08-02T08:25:13Z</time>
      </trkpt>
      <trkpt lat="45.8682" lon="6.76314">
        <ele>1437.79</ele>
        <time>2017-08-02T08:25:17Z</time>
      </trkpt>
      <trkpt lat="45.86821" lon="6.76317">
        <ele>1437.79</ele>
        <time>2017-08-02T08:25:18Z</time>
      </trkpt>
      <trkpt lat="45.86821" lon="6.7632">
        <ele>1438.27</ele>
        <time>2017-08-02T08:25:19Z</time>
      </trkpt>
      <trkpt lat="45.86822" lon="6.76322">
        <ele>1438.27</ele>
        <time>2017-08-02T08:25:20Z</time>
      </trkpt>
      <trkpt lat="45.86822" lon="6.76325">
        <ele>1438.75</ele>
        <time>2017-08-02T08:25:21Z</time>
      </trkpt>
      <trkpt lat="45.86823" lon="6.76327">
        <ele>1439.23</ele>
        <time>2017-08-02T08:25:22Z</time>
      </trkpt>
      <trkpt lat="45.86821" lon="6.76355">
        <ele>1441.15</ele>
        <time>2017-08-02T08:25:32Z</time>
      </trkpt>
      <trkpt lat="45.86817" lon="6.76367">
        <ele>1442.6</ele>
        <time>2017-08-02T08:25:37Z</time>
      </trkpt>
      <trkpt lat="45.86818" lon="6.76368">
        <ele>1442.6</ele>
        <time>2017-08-02T08:25:38Z</time>
      </trkpt>
      <trkpt lat="45.86817" lon="6.76371">
        <ele>1443.08</ele>
        <time>2017-08-02T08:25:39Z</time>
      </trkpt>
      <trkpt lat="45.86814" lon="6.76379">
        <ele>1444.04</ele>
        <time>2017-08-02T08:25:43Z</time>
      </trkpt>
      <trkpt lat="45.86814" lon="6.76382">
        <ele>1444.04</ele>
        <time>2017-08-02T08:25:44Z</time>
      </trkpt>
      <trkpt lat="45.86814" lon="6.76385">
        <ele>1444.04</ele>
        <time>2017-08-02T08:25:45Z</time>
      </trkpt>
      <trkpt lat="45.86813" lon="6.76388">
        <ele>1444.52</ele>
        <time>2017-08-02T08:25:46Z</time>
      </trkpt>
      <trkpt lat="45.86813" lon="6.76391">
        <ele>1444.52</ele>
        <time>2017-08-02T08:25:47Z</time>
      </trkpt>
      <trkpt lat="45.86813" lon="6.76394">
        <ele>1445</ele>
        <time>2017-08-02T08:25:48Z</time>
      </trkpt>
      <trkpt lat="45.86813" lon="6.76398">
        <ele>1445</ele>
        <time>2017-08-02T08:25:49Z</time>
      </trkpt>
      <trkpt lat="45.86814" lon="6.76401">
        <ele>1445</ele>
        <time>2017-08-02T08:25:50Z</time>
      </trkpt>
      <trkpt lat="45.86814" lon="6.76405">
        <ele>1445</ele>
        <time>2017-08-02T08:25:51Z</time>
      </trkpt>
      <trkpt lat="45.86814" lon="6.76408">
        <ele>1445</ele>
        <time>2017-08-02T08:25:52Z</time>
      </trkpt>
      <trkpt lat="45.86815" lon="6.76412">
        <ele>1445.48</ele>
        <time>2017-08-02T08:25:53Z</time>
      </trkpt>
      <trkpt lat="45.86815" lon="6.76415">
        <ele>1445.48</ele>
        <time>2017-08-02T08:25:54Z</time>
      </trkpt>
      <trkpt lat="45.86816" lon="6.76418">
        <ele>1445.48</ele>
        <time>2017-08-02T08:25:55Z</time>
      </trkpt>
      <trkpt lat="45.86816" lon="6.76428">
        <ele>1445.96</ele>
        <time>2017-08-02T08:25:58Z</time>
      </trkpt>
      <trkpt lat="45.86816" lon="6.76431">
        <ele>1445.96</ele>
        <time>2017-08-02T08:25:59Z</time>
      </trkpt>
      <trkpt lat="45.86817" lon="6.76459">
        <ele>1449.32</ele>
        <time>2017-08-02T08:26:10Z</time>
      </trkpt>
      <trkpt lat="45.86815" lon="6.76472">
        <ele>1451.25</ele>
        <time>2017-08-02T08:26:16Z</time>
      </trkpt>
      <trkpt lat="45.86815" lon="6.76474">
        <ele>1451.25</ele>
        <time>2017-08-02T08:26:17Z</time>
      </trkpt>
      <trkpt lat="45.86813" lon="6.76504">
        <ele>1454.13</ele>
        <time>2017-08-02T08:26:29Z</time>
      </trkpt>
      <trkpt lat="45.8681" lon="6.76531">
        <ele>1457.02</ele>
        <time>2017-08-02T08:26:41Z</time>
      </trkpt>
      <trkpt lat="45.86809" lon="6.76547">
        <ele>1459.42</ele>
        <time>2017-08-02T08:26:49Z</time>
      </trkpt>
      <trkpt lat="45.86809" lon="6.76549">
        <ele>1459.42</ele>
        <time>2017-08-02T08:26:50Z</time>
      </trkpt>
      <trkpt lat="45.8681" lon="6.76561">
        <ele>1461.34</ele>
        <time>2017-08-02T08:26:56Z</time>
      </trkpt>
      <trkpt lat="45.86811" lon="6.76563">
        <ele>1461.82</ele>
        <time>2017-08-02T08:26:57Z</time>
      </trkpt>
      <trkpt lat="45.86811" lon="6.76565">
        <ele>1461.82</ele>
        <time>2017-08-02T08:26:58Z</time>
      </trkpt>
      <trkpt lat="45.86812" lon="6.76567">
        <ele>1462.3</ele>
        <time>2017-08-02T08:26:59Z</time>
      </trkpt>
      <trkpt lat="45.86811" lon="6.76569">
        <ele>1462.78</ele>
        <time>2017-08-02T08:27:00Z</time>
      </trkpt>
      <trkpt lat="45.86811" lon="6.76571">
        <ele>1462.78</ele>
        <time>2017-08-02T08:27:01Z</time>
      </trkpt>
      <trkpt lat="45.86811" lon="6.76573">
        <ele>1463.26</ele>
        <time>2017-08-02T08:27:02Z</time>
      </trkpt>
      <trkpt lat="45.86811" lon="6.76584">
        <ele>1465.19</ele>
        <time>2017-08-02T08:27:08Z</time>
      </trkpt>
      <trkpt lat="45.86811" lon="6.76586">
        <ele>1465.19</ele>
        <time>2017-08-02T08:27:09Z</time>
      </trkpt>
      <trkpt lat="45.86807" lon="6.76598">
        <ele>1467.11</ele>
        <time>2017-08-02T08:27:16Z</time>
      </trkpt>
      <trkpt lat="45.86807" lon="6.76601">
        <ele>1467.59</ele>
        <time>2017-08-02T08:27:18Z</time>
      </trkpt>
      <trkpt lat="45.86806" lon="6.76603">
        <ele>1467.59</ele>
        <time>2017-08-02T08:27:19Z</time>
      </trkpt>
      <trkpt lat="45.86806" lon="6.76605">
        <ele>1468.07</ele>
        <time>2017-08-02T08:27:20Z</time>
      </trkpt>
      <trkpt lat="45.86805" lon="6.76606">
        <ele>1468.55</ele>
        <time>2017-08-02T08:27:21Z</time>
      </trkpt>
      <trkpt lat="45.86805" lon="6.76608">
        <ele>1468.55</ele>
        <time>2017-08-02T08:27:22Z</time>
      </trkpt>
      <trkpt lat="45.86805" lon="6.7661">
        <ele>1469.03</ele>
        <time>2017-08-02T08:27:23Z</time>
      </trkpt>
      <trkpt lat="45.86805" lon="6.76639">
        <ele>1471.44</ele>
        <time>2017-08-02T08:27:35Z</time>
      </trkpt>
      <trkpt lat="45.86802" lon="6.76668">
        <ele>1473.36</ele>
        <time>2017-08-02T08:27:46Z</time>
      </trkpt>
      <trkpt lat="45.86803" lon="6.76695">
        <ele>1474.8</ele>
        <time>2017-08-02T08:27:56Z</time>
      </trkpt>
      <trkpt lat="45.86803" lon="6.76705">
        <ele>1475.76</ele>
        <time>2017-08-02T08:28:00Z</time>
      </trkpt>
      <trkpt lat="45.86803" lon="6.76717">
        <ele>1477.2</ele>
        <time>2017-08-02T08:28:05Z</time>
      </trkpt>
      <trkpt lat="45.86803" lon="6.76719">
        <ele>1477.2</ele>
        <time>2017-08-02T08:28:06Z</time>
      </trkpt>
      <trkpt lat="45.86803" lon="6.76721">
        <ele>1477.68</ele>
        <time>2017-08-02T08:28:07Z</time>
      </trkpt>
      <trkpt lat="45.86802" lon="6.76724">
        <ele>1478.16</ele>
        <time>2017-08-02T08:28:08Z</time>
      </trkpt>
      <trkpt lat="45.86802" lon="6.76726">
        <ele>1478.16</ele>
        <time>2017-08-02T08:28:09Z</time>
      </trkpt>
      <trkpt lat="45.86802" lon="6.76728">
        <ele>1478.65</ele>
        <time>2017-08-02T08:28:10Z</time>
      </trkpt>
      <trkpt lat="45.86802" lon="6.76731">
        <ele>1479.13</ele>
        <time>2017-08-02T08:28:11Z</time>
      </trkpt>
      <trkpt lat="45.86801" lon="6.76733">
        <ele>1479.13</ele>
        <time>2017-08-02T08:28:12Z</time>
      </trkpt>
      <trkpt lat="45.868" lon="6.76736">
        <ele>1479.61</ele>
        <time>2017-08-02T08:28:13Z</time>
      </trkpt>
      <trkpt lat="45.868" lon="6.76738">
        <ele>1479.61</ele>
        <time>2017-08-02T08:28:14Z</time>
      </trkpt>
      <trkpt lat="45.86799" lon="6.76741">
        <ele>1480.09</ele>
        <time>2017-08-02T08:28:15Z</time>
      </trkpt>
      <trkpt lat="45.868" lon="6.76743">
        <ele>1480.09</ele>
        <time>2017-08-02T08:28:16Z</time>
      </trkpt>
      <trkpt lat="45.86799" lon="6.76746">
        <ele>1480.09</ele>
        <time>2017-08-02T08:28:17Z</time>
      </trkpt>
      <trkpt lat="45.86795" lon="6.76773">
        <ele>1482.01</ele>
        <time>2017-08-02T08:28:27Z</time>
      </trkpt>
      <trkpt lat="45.86795" lon="6.76776">
        <ele>1482.01</ele>
        <time>2017-08-02T08:28:28Z</time>
      </trkpt>
      <trkpt lat="45.86794" lon="6.76779">
        <ele>1482.49</ele>
        <time>2017-08-02T08:28:29Z</time>
      </trkpt>
      <trkpt lat="45.86794" lon="6.76782">
        <ele>1482.49</ele>
        <time>2017-08-02T08:28:30Z</time>
      </trkpt>
      <trkpt lat="45.86793" lon="6.76785">
        <ele>1482.97</ele>
        <time>2017-08-02T08:28:31Z</time>
      </trkpt>
      <trkpt lat="45.86793" lon="6.76788">
        <ele>1482.97</ele>
        <time>2017-08-02T08:28:32Z</time>
      </trkpt>
      <trkpt lat="45.86792" lon="6.7679">
        <ele>1482.97</ele>
        <time>2017-08-02T08:28:33Z</time>
      </trkpt>
      <trkpt lat="45.86791" lon="6.76793">
        <ele>1483.45</ele>
        <time>2017-08-02T08:28:34Z</time>
      </trkpt>
      <trkpt lat="45.86791" lon="6.76796">
        <ele>1483.45</ele>
        <time>2017-08-02T08:28:35Z</time>
      </trkpt>
      <trkpt lat="45.86789" lon="6.7682">
        <ele>1486.82</ele>
        <time>2017-08-02T08:28:46Z</time>
      </trkpt>
      <trkpt lat="45.86788" lon="6.76821">
        <ele>1486.82</ele>
        <time>2017-08-02T08:28:47Z</time>
      </trkpt>
      <trkpt lat="45.86787" lon="6.76824">
        <ele>1487.3</ele>
        <time>2017-08-02T08:28:48Z</time>
      </trkpt>
      <trkpt lat="45.86787" lon="6.76835">
        <ele>1489.22</ele>
        <time>2017-08-02T08:28:54Z</time>
      </trkpt>
      <trkpt lat="45.86787" lon="6.76837">
        <ele>1489.22</ele>
        <time>2017-08-02T08:28:55Z</time>
      </trkpt>
      <trkpt lat="45.86787" lon="6.76839">
        <ele>1489.7</ele>
        <time>2017-08-02T08:28:56Z</time>
      </trkpt>
      <trkpt lat="45.86786" lon="6.76841">
        <ele>1490.18</ele>
        <time>2017-08-02T08:28:57Z</time>
      </trkpt>
      <trkpt lat="45.86785" lon="6.76843">
        <ele>1490.18</ele>
        <time>2017-08-02T08:28:58Z</time>
      </trkpt>
      <trkpt lat="45.86785" lon="6.76846">
        <ele>1490.66</ele>
        <time>2017-08-02T08:28:59Z</time>
      </trkpt>
      <trkpt lat="45.86782" lon="6.76861">
        <ele>1493.55</ele>
        <time>2017-08-02T08:29:09Z</time>
      </trkpt>
      <trkpt lat="45.86781" lon="6.7688">
        <ele>1496.91</ele>
        <time>2017-08-02T08:29:20Z</time>
      </trkpt>
      <trkpt lat="45.86781" lon="6.76882">
        <ele>1497.39</ele>
        <time>2017-08-02T08:29:21Z</time>
      </trkpt>
      <trkpt lat="45.8678" lon="6.76887">
        <ele>1498.35</ele>
        <time>2017-08-02T08:29:24Z</time>
      </trkpt>
      <trkpt lat="45.8678" lon="6.76889">
        <ele>1498.83</ele>
        <time>2017-08-02T08:29:25Z</time>
      </trkpt>
      <trkpt lat="45.86779" lon="6.76893">
        <ele>1498.83</ele>
        <time>2017-08-02T08:29:27Z</time>
      </trkpt>
      <trkpt lat="45.86778" lon="6.76895">
        <ele>1499.79</ele>
        <time>2017-08-02T08:29:29Z</time>
      </trkpt>
      <trkpt lat="45.86778" lon="6.76897">
        <ele>1499.79</ele>
        <time>2017-08-02T08:29:30Z</time>
      </trkpt>
      <trkpt lat="45.86778" lon="6.76907">
        <ele>1501.72</ele>
        <time>2017-08-02T08:29:36Z</time>
      </trkpt>
      <trkpt lat="45.86778" lon="6.7691">
        <ele>1501.72</ele>
        <time>2017-08-02T08:29:37Z</time>
      </trkpt>
      <trkpt lat="45.86778" lon="6.76912">
        <ele>1502.2</ele>
        <time>2017-08-02T08:29:38Z</time>
      </trkpt>
      <trkpt lat="45.86778" lon="6.76914">
        <ele>1502.2</ele>
        <time>2017-08-02T08:29:39Z</time>
      </trkpt>
      <trkpt lat="45.86777" lon="6.76916">
        <ele>1502.2</ele>
        <time>2017-08-02T08:29:40Z</time>
      </trkpt>
      <trkpt lat="45.86775" lon="6.76933">
        <ele>1505.08</ele>
        <time>2017-08-02T08:29:50Z</time>
      </trkpt>
      <trkpt lat="45.86774" lon="6.76935">
        <ele>1505.56</ele>
        <time>2017-08-02T08:29:51Z</time>
      </trkpt>
      <trkpt lat="45.86774" lon="6.76937">
        <ele>1505.56</ele>
        <time>2017-08-02T08:29:52Z</time>
      </trkpt>
      <trkpt lat="45.86774" lon="6.7694">
        <ele>1506.04</ele>
        <time>2017-08-02T08:29:53Z</time>
      </trkpt>
      <trkpt lat="45.86774" lon="6.76942">
        <ele>1506.52</ele>
        <time>2017-08-02T08:29:54Z</time>
      </trkpt>
      <trkpt lat="45.86774" lon="6.76944">
        <ele>1506.52</ele>
        <time>2017-08-02T08:29:55Z</time>
      </trkpt>
      <trkpt lat="45.86775" lon="6.76945">
        <ele>1507</ele>
        <time>2017-08-02T08:29:56Z</time>
      </trkpt>
      <trkpt lat="45.86775" lon="6.76947">
        <ele>1507.48</ele>
        <time>2017-08-02T08:29:57Z</time>
      </trkpt>
      <trkpt lat="45.86776" lon="6.76949">
        <ele>1507.48</ele>
        <time>2017-08-02T08:29:58Z</time>
      </trkpt>
      <trkpt lat="45.86776" lon="6.7695">
        <ele>1507.97</ele>
        <time>2017-08-02T08:29:59Z</time>
      </trkpt>
      <trkpt lat="45.86775" lon="6.76952">
        <ele>1507.97</ele>
        <time>2017-08-02T08:30:00Z</time>
      </trkpt>
      <trkpt lat="45.86776" lon="6.76953">
        <ele>1508.45</ele>
        <time>2017-08-02T08:30:01Z</time>
      </trkpt>
      <trkpt lat="45.86777" lon="6.76954">
        <ele>1508.45</ele>
        <time>2017-08-02T08:30:02Z</time>
      </trkpt>
      <trkpt lat="45.86777" lon="6.76956">
        <ele>1508.93</ele>
        <time>2017-08-02T08:30:03Z</time>
      </trkpt>
      <trkpt lat="45.86777" lon="6.76957">
        <ele>1508.93</ele>
        <time>2017-08-02T08:30:04Z</time>
      </trkpt>
      <trkpt lat="45.86777" lon="6.76959">
        <ele>1508.93</ele>
        <time>2017-08-02T08:30:05Z</time>
      </trkpt>
      <trkpt lat="45.86784" lon="6.76978">
        <ele>1511.81</ele>
        <time>2017-08-02T08:30:18Z</time>
      </trkpt>
      <trkpt lat="45.86788" lon="6.76988">
        <ele>1512.77</ele>
        <time>2017-08-02T08:30:23Z</time>
      </trkpt>
      <trkpt lat="45.86795" lon="6.77006">
        <ele>1515.18</ele>
        <time>2017-08-02T08:30:33Z</time>
      </trkpt>
      <trkpt lat="45.86797" lon="6.77024">
        <ele>1518.54</ele>
        <time>2017-08-02T08:30:43Z</time>
      </trkpt>
      <trkpt lat="45.868" lon="6.77029">
        <ele>1519.02</ele>
        <time>2017-08-02T08:30:46Z</time>
      </trkpt>
      <trkpt lat="45.86801" lon="6.7703">
        <ele>1519.5</ele>
        <time>2017-08-02T08:30:47Z</time>
      </trkpt>
      <trkpt lat="45.86802" lon="6.77031">
        <ele>1519.5</ele>
        <time>2017-08-02T08:30:48Z</time>
      </trkpt>
      <trkpt lat="45.86803" lon="6.77033">
        <ele>1519.5</ele>
        <time>2017-08-02T08:30:49Z</time>
      </trkpt>
      <trkpt lat="45.86805" lon="6.77034">
        <ele>1519.98</ele>
        <time>2017-08-02T08:30:50Z</time>
      </trkpt>
      <trkpt lat="45.86806" lon="6.77035">
        <ele>1520.46</ele>
        <time>2017-08-02T08:30:51Z</time>
      </trkpt>
      <trkpt lat="45.86814" lon="6.77041">
        <ele>1522.39</ele>
        <time>2017-08-02T08:30:58Z</time>
      </trkpt>
      <trkpt lat="45.86815" lon="6.77043">
        <ele>1522.39</ele>
        <time>2017-08-02T08:30:59Z</time>
      </trkpt>
      <trkpt lat="45.86816" lon="6.77044">
        <ele>1522.87</ele>
        <time>2017-08-02T08:31:00Z</time>
      </trkpt>
      <trkpt lat="45.86817" lon="6.77045">
        <ele>1522.87</ele>
        <time>2017-08-02T08:31:01Z</time>
      </trkpt>
      <trkpt lat="45.86818" lon="6.77046">
        <ele>1523.35</ele>
        <time>2017-08-02T08:31:02Z</time>
      </trkpt>
      <trkpt lat="45.86819" lon="6.77047">
        <ele>1523.35</ele>
        <time>2017-08-02T08:31:03Z</time>
      </trkpt>
      <trkpt lat="45.86825" lon="6.77056">
        <ele>1523.83</ele>
        <time>2017-08-02T08:31:09Z</time>
      </trkpt>
      <trkpt lat="45.86825" lon="6.77058">
        <ele>1524.31</ele>
        <time>2017-08-02T08:31:10Z</time>
      </trkpt>
      <trkpt lat="45.86826" lon="6.77059">
        <ele>1524.31</ele>
        <time>2017-08-02T08:31:11Z</time>
      </trkpt>
      <trkpt lat="45.86828" lon="6.77065">
        <ele>1524.31</ele>
        <time>2017-08-02T08:31:14Z</time>
      </trkpt>
      <trkpt lat="45.86836" lon="6.7709">
        <ele>1525.27</ele>
        <time>2017-08-02T08:31:28Z</time>
      </trkpt>
      <trkpt lat="45.86838" lon="6.77093">
        <ele>1525.75</ele>
        <time>2017-08-02T08:31:29Z</time>
      </trkpt>
      <trkpt lat="45.86838" lon="6.77095">
        <ele>1525.75</ele>
        <time>2017-08-02T08:31:30Z</time>
      </trkpt>
      <trkpt lat="45.86838" lon="6.77112">
        <ele>1526.71</ele>
        <time>2017-08-02T08:31:38Z</time>
      </trkpt>
      <trkpt lat="45.86839" lon="6.77114">
        <ele>1526.71</ele>
        <time>2017-08-02T08:31:39Z</time>
      </trkpt>
      <trkpt lat="45.86839" lon="6.77116">
        <ele>1526.71</ele>
        <time>2017-08-02T08:31:40Z</time>
      </trkpt>
      <trkpt lat="45.8684" lon="6.77119">
        <ele>1527.19</ele>
        <time>2017-08-02T08:31:41Z</time>
      </trkpt>
      <trkpt lat="45.86841" lon="6.77146">
        <ele>1528.63</ele>
        <time>2017-08-02T08:31:52Z</time>
      </trkpt>
      <trkpt lat="45.86844" lon="6.77175">
        <ele>1530.08</ele>
        <time>2017-08-02T08:32:03Z</time>
      </trkpt>
      <trkpt lat="45.86844" lon="6.77178">
        <ele>1530.08</ele>
        <time>2017-08-02T08:32:04Z</time>
      </trkpt>
      <trkpt lat="45.86845" lon="6.77181">
        <ele>1530.56</ele>
        <time>2017-08-02T08:32:05Z</time>
      </trkpt>
      <trkpt lat="45.86847" lon="6.77191">
        <ele>1531.04</ele>
        <time>2017-08-02T08:32:09Z</time>
      </trkpt>
      <trkpt lat="45.86848" lon="6.77193">
        <ele>1531.04</ele>
        <time>2017-08-02T08:32:10Z</time>
      </trkpt>
      <trkpt lat="45.86849" lon="6.77195">
        <ele>1531.52</ele>
        <time>2017-08-02T08:32:11Z</time>
      </trkpt>
      <trkpt lat="45.8685" lon="6.77198">
        <ele>1532</ele>
        <time>2017-08-02T08:32:12Z</time>
      </trkpt>
      <trkpt lat="45.8685" lon="6.77201">
        <ele>1532</ele>
        <time>2017-08-02T08:32:13Z</time>
      </trkpt>
      <trkpt lat="45.86851" lon="6.77204">
        <ele>1532</ele>
        <time>2017-08-02T08:32:14Z</time>
      </trkpt>
      <trkpt lat="45.86851" lon="6.77206">
        <ele>1532.48</ele>
        <time>2017-08-02T08:32:15Z</time>
      </trkpt>
      <trkpt lat="45.86852" lon="6.77209">
        <ele>1532.48</ele>
        <time>2017-08-02T08:32:16Z</time>
      </trkpt>
      <trkpt lat="45.86852" lon="6.77211">
        <ele>1532.96</ele>
        <time>2017-08-02T08:32:17Z</time>
      </trkpt>
      <trkpt lat="45.86853" lon="6.77214">
        <ele>1532.96</ele>
        <time>2017-08-02T08:32:18Z</time>
      </trkpt>
      <trkpt lat="45.86852" lon="6.77217">
        <ele>1533.44</ele>
        <time>2017-08-02T08:32:19Z</time>
      </trkpt>
      <trkpt lat="45.86852" lon="6.7722">
        <ele>1533.44</ele>
        <time>2017-08-02T08:32:20Z</time>
      </trkpt>
      <trkpt lat="45.86852" lon="6.77222">
        <ele>1533.44</ele>
        <time>2017-08-02T08:32:21Z</time>
      </trkpt>
      <trkpt lat="45.86853" lon="6.77225">
        <ele>1533.92</ele>
        <time>2017-08-02T08:32:22Z</time>
      </trkpt>
      <trkpt lat="45.86854" lon="6.77227">
        <ele>1534.4</ele>
        <time>2017-08-02T08:32:23Z</time>
      </trkpt>
      <trkpt lat="45.86855" lon="6.7723">
        <ele>1534.4</ele>
        <time>2017-08-02T08:32:24Z</time>
      </trkpt>
      <trkpt lat="45.86856" lon="6.77232">
        <ele>1534.4</ele>
        <time>2017-08-02T08:32:25Z</time>
      </trkpt>
      <trkpt lat="45.86857" lon="6.77235">
        <ele>1534.4</ele>
        <time>2017-08-02T08:32:26Z</time>
      </trkpt>
      <trkpt lat="45.86857" lon="6.77238">
        <ele>1534.88</ele>
        <time>2017-08-02T08:32:27Z</time>
      </trkpt>
      <trkpt lat="45.86858" lon="6.77241">
        <ele>1534.88</ele>
        <time>2017-08-02T08:32:28Z</time>
      </trkpt>
      <trkpt lat="45.86859" lon="6.77243">
        <ele>1535.36</ele>
        <time>2017-08-02T08:32:29Z</time>
      </trkpt>
      <trkpt lat="45.86859" lon="6.77246">
        <ele>1535.36</ele>
        <time>2017-08-02T08:32:30Z</time>
      </trkpt>
      <trkpt lat="45.86861" lon="6.77248">
        <ele>1535.36</ele>
        <time>2017-08-02T08:32:31Z</time>
      </trkpt>
      <trkpt lat="45.86862" lon="6.77251">
        <ele>1535.84</ele>
        <time>2017-08-02T08:32:32Z</time>
      </trkpt>
      <trkpt lat="45.86864" lon="6.77254">
        <ele>1536.32</ele>
        <time>2017-08-02T08:32:33Z</time>
      </trkpt>
      <trkpt lat="45.86866" lon="6.77257">
        <ele>1536.32</ele>
        <time>2017-08-02T08:32:34Z</time>
      </trkpt>
      <trkpt lat="45.86867" lon="6.77259">
        <ele>1536.8</ele>
        <time>2017-08-02T08:32:35Z</time>
      </trkpt>
      <trkpt lat="45.86868" lon="6.77261">
        <ele>1536.8</ele>
        <time>2017-08-02T08:32:36Z</time>
      </trkpt>
      <trkpt lat="45.86869" lon="6.77263">
        <ele>1536.8</ele>
        <time>2017-08-02T08:32:37Z</time>
      </trkpt>
      <trkpt lat="45.86883" lon="6.77283">
        <ele>1538.25</ele>
        <time>2017-08-02T08:32:47Z</time>
      </trkpt>
      <trkpt lat="45.86883" lon="6.77285">
        <ele>1538.25</ele>
        <time>2017-08-02T08:32:48Z</time>
      </trkpt>
      <trkpt lat="45.86885" lon="6.77286">
        <ele>1538.25</ele>
        <time>2017-08-02T08:32:49Z</time>
      </trkpt>
      <trkpt lat="45.8689" lon="6.77297">
        <ele>1539.21</ele>
        <time>2017-08-02T08:32:54Z</time>
      </trkpt>
      <trkpt lat="45.8689" lon="6.773">
        <ele>1539.21</ele>
        <time>2017-08-02T08:32:55Z</time>
      </trkpt>
      <trkpt lat="45.8689" lon="6.77303">
        <ele>1539.21</ele>
        <time>2017-08-02T08:32:56Z</time>
      </trkpt>
      <trkpt lat="45.86894" lon="6.77326">
        <ele>1540.65</ele>
        <time>2017-08-02T08:33:08Z</time>
      </trkpt>
      <trkpt lat="45.86894" lon="6.77333">
        <ele>1540.65</ele>
        <time>2017-08-02T08:33:14Z</time>
      </trkpt>
      <trkpt lat="45.86895" lon="6.77336">
        <ele>1540.65</ele>
        <time>2017-08-02T08:33:19Z</time>
      </trkpt>
      <trkpt lat="45.86893" lon="6.77332">
        <ele>1541.13</ele>
        <time>2017-08-02T08:33:23Z</time>
      </trkpt>
      <trkpt lat="45.86892" lon="6.77331">
        <ele>1540.65</ele>
        <time>2017-08-02T08:33:24Z</time>
      </trkpt>
      <trkpt lat="45.8689" lon="6.77323">
        <ele>1540.65</ele>
        <time>2017-08-02T08:33:30Z</time>
      </trkpt>
      <trkpt lat="45.86887" lon="6.77322">
        <ele>1540.17</ele>
        <time>2017-08-02T08:33:33Z</time>
      </trkpt>
      <trkpt lat="45.86885" lon="6.77323">
        <ele>1540.17</ele>
        <time>2017-08-02T08:33:34Z</time>
      </trkpt>
      <trkpt lat="45.86885" lon="6.77323">
        <ele>1540.17</ele>
        <time>2017-08-02T08:33:35Z</time>
      </trkpt>
      <trkpt lat="45.86884" lon="6.77324">
        <ele>1540.17</ele>
        <time>2017-08-02T08:33:36Z</time>
      </trkpt>
      <trkpt lat="45.86883" lon="6.77324">
        <ele>1540.17</ele>
        <time>2017-08-02T08:33:37Z</time>
      </trkpt>
      <trkpt lat="45.86881" lon="6.77326">
        <ele>1539.69</ele>
        <time>2017-08-02T08:33:38Z</time>
      </trkpt>
      <trkpt lat="45.86879" lon="6.77327">
        <ele>1539.21</ele>
        <time>2017-08-02T08:33:39Z</time>
      </trkpt>
      <trkpt lat="45.86878" lon="6.77328">
        <ele>1538.73</ele>
        <time>2017-08-02T08:33:40Z</time>
      </trkpt>
      <trkpt lat="45.86874" lon="6.7735">
        <ele>1535.84</ele>
        <time>2017-08-02T08:33:47Z</time>
      </trkpt>
      <trkpt lat="45.86867" lon="6.77372">
        <ele>1532.96</ele>
        <time>2017-08-02T08:33:54Z</time>
      </trkpt>
      <trkpt lat="45.8686" lon="6.77379">
        <ele>1531.04</ele>
        <time>2017-08-02T08:33:58Z</time>
      </trkpt>
      <trkpt lat="45.86858" lon="6.7739">
        <ele>1528.63</ele>
        <time>2017-08-02T08:34:02Z</time>
      </trkpt>
      <trkpt lat="45.86858" lon="6.77393">
        <ele>1528.15</ele>
        <time>2017-08-02T08:34:03Z</time>
      </trkpt>
      <trkpt lat="45.86859" lon="6.77396">
        <ele>1527.67</ele>
        <time>2017-08-02T08:34:04Z</time>
      </trkpt>
      <trkpt lat="45.86859" lon="6.77399">
        <ele>1526.71</ele>
        <time>2017-08-02T08:34:05Z</time>
      </trkpt>
      <trkpt lat="45.8686" lon="6.77402">
        <ele>1526.23</ele>
        <time>2017-08-02T08:34:06Z</time>
      </trkpt>
      <trkpt lat="45.86861" lon="6.77406">
        <ele>1525.75</ele>
        <time>2017-08-02T08:34:07Z</time>
      </trkpt>
      <trkpt lat="45.86857" lon="6.77416">
        <ele>1524.31</ele>
        <time>2017-08-02T08:34:09Z</time>
      </trkpt>
      <trkpt lat="45.86852" lon="6.77432">
        <ele>1521.42</ele>
        <time>2017-08-02T08:34:14Z</time>
      </trkpt>
      <trkpt lat="45.86845" lon="6.7745">
        <ele>1519.02</ele>
        <time>2017-08-02T08:34:19Z</time>
      </trkpt>
      <trkpt lat="45.86838" lon="6.77464">
        <ele>1516.14</ele>
        <time>2017-08-02T08:34:25Z</time>
      </trkpt>
      <trkpt lat="45.86834" lon="6.77471">
        <ele>1513.73</ele>
        <time>2017-08-02T08:34:29Z</time>
      </trkpt>
      <trkpt lat="45.86832" lon="6.77472">
        <ele>1513.25</ele>
        <time>2017-08-02T08:34:30Z</time>
      </trkpt>
      <trkpt lat="45.86831" lon="6.77474">
        <ele>1512.29</ele>
        <time>2017-08-02T08:34:31Z</time>
      </trkpt>
      <trkpt lat="45.8683" lon="6.77476">
        <ele>1511.81</ele>
        <time>2017-08-02T08:34:32Z</time>
      </trkpt>
      <trkpt lat="45.86829" lon="6.77478">
        <ele>1511.81</ele>
        <time>2017-08-02T08:34:33Z</time>
      </trkpt>
      <trkpt lat="45.86827" lon="6.7748">
        <ele>1511.33</ele>
        <time>2017-08-02T08:34:34Z</time>
      </trkpt>
      <trkpt lat="45.86825" lon="6.77483">
        <ele>1509.89</ele>
        <time>2017-08-02T08:34:35Z</time>
      </trkpt>
      <trkpt lat="45.86821" lon="6.77492">
        <ele>1507.97</ele>
        <time>2017-08-02T08:34:38Z</time>
      </trkpt>
      <trkpt lat="45.86821" lon="6.77495">
        <ele>1507.48</ele>
        <time>2017-08-02T08:34:39Z</time>
      </trkpt>
      <trkpt lat="45.86817" lon="6.77509">
        <ele>1505.56</ele>
        <time>2017-08-02T08:34:44Z</time>
      </trkpt>
      <trkpt lat="45.86811" lon="6.77526">
        <ele>1502.2</ele>
        <time>2017-08-02T08:34:51Z</time>
      </trkpt>
      <trkpt lat="45.8681" lon="6.77528">
        <ele>1501.72</ele>
        <time>2017-08-02T08:34:52Z</time>
      </trkpt>
      <trkpt lat="45.86812" lon="6.7753">
        <ele>1501.24</ele>
        <time>2017-08-02T08:34:53Z</time>
      </trkpt>
      <trkpt lat="45.86812" lon="6.77531">
        <ele>1501.24</ele>
        <time>2017-08-02T08:34:54Z</time>
      </trkpt>
      <trkpt lat="45.86808" lon="6.77534">
        <ele>1499.79</ele>
        <time>2017-08-02T08:34:58Z</time>
      </trkpt>
      <trkpt lat="45.86804" lon="6.7754">
        <ele>1499.31</ele>
        <time>2017-08-02T08:35:00Z</time>
      </trkpt>
      <trkpt lat="45.86802" lon="6.77542">
        <ele>1498.83</ele>
        <time>2017-08-02T08:35:01Z</time>
      </trkpt>
      <trkpt lat="45.868" lon="6.77543">
        <ele>1498.35</ele>
        <time>2017-08-02T08:35:02Z</time>
      </trkpt>
      <trkpt lat="45.86794" lon="6.77545">
        <ele>1496.91</ele>
        <time>2017-08-02T08:35:07Z</time>
      </trkpt>
      <trkpt lat="45.86793" lon="6.77545">
        <ele>1496.91</ele>
        <time>2017-08-02T08:35:08Z</time>
      </trkpt>
      <trkpt lat="45.86792" lon="6.77545">
        <ele>1496.43</ele>
        <time>2017-08-02T08:35:09Z</time>
      </trkpt>
      <trkpt lat="45.8679" lon="6.77545">
        <ele>1496.43</ele>
        <time>2017-08-02T08:35:10Z</time>
      </trkpt>
      <trkpt lat="45.86789" lon="6.77544">
        <ele>1496.43</ele>
        <time>2017-08-02T08:35:11Z</time>
      </trkpt>
      <trkpt lat="45.86787" lon="6.77543">
        <ele>1495.47</ele>
        <time>2017-08-02T08:35:12Z</time>
      </trkpt>
      <trkpt lat="45.86785" lon="6.77543">
        <ele>1494.99</ele>
        <time>2017-08-02T08:35:13Z</time>
      </trkpt>
      <trkpt lat="45.86782" lon="6.77542">
        <ele>1494.03</ele>
        <time>2017-08-02T08:35:17Z</time>
      </trkpt>
      <trkpt lat="45.86779" lon="6.77543">
        <ele>1493.55</ele>
        <time>2017-08-02T08:35:20Z</time>
      </trkpt>
      <trkpt lat="45.86777" lon="6.77546">
        <ele>1493.06</ele>
        <time>2017-08-02T08:35:22Z</time>
      </trkpt>
      <trkpt lat="45.86776" lon="6.77548">
        <ele>1493.06</ele>
        <time>2017-08-02T08:35:23Z</time>
      </trkpt>
      <trkpt lat="45.86774" lon="6.77553">
        <ele>1492.58</ele>
        <time>2017-08-02T08:35:26Z</time>
      </trkpt>
      <trkpt lat="45.86763" lon="6.77572">
        <ele>1492.58</ele>
        <time>2017-08-02T08:35:36Z</time>
      </trkpt>
      <trkpt lat="45.86757" lon="6.7758">
        <ele>1492.1</ele>
        <time>2017-08-02T08:35:40Z</time>
      </trkpt>
      <trkpt lat="45.86749" lon="6.77592">
        <ele>1491.62</ele>
        <time>2017-08-02T08:35:45Z</time>
      </trkpt>
      <trkpt lat="45.86744" lon="6.77606">
        <ele>1491.14</ele>
        <time>2017-08-02T08:35:51Z</time>
      </trkpt>
      <trkpt lat="45.86745" lon="6.77611">
        <ele>1491.14</ele>
        <time>2017-08-02T08:35:56Z</time>
      </trkpt>
      <trkpt lat="45.86745" lon="6.7761">
        <ele>1491.14</ele>
        <time>2017-08-02T08:35:58Z</time>
      </trkpt>
      <trkpt lat="45.86746" lon="6.7761">
        <ele>1491.14</ele>
        <time>2017-08-02T08:35:59Z</time>
      </trkpt>
      <trkpt lat="45.86745" lon="6.7761">
        <ele>1491.14</ele>
        <time>2017-08-02T08:36:00Z</time>
      </trkpt>
      <trkpt lat="45.86746" lon="6.77608">
        <ele>1490.66</ele>
        <time>2017-08-02T08:36:03Z</time>
      </trkpt>
      <trkpt lat="45.86747" lon="6.77607">
        <ele>1490.66</ele>
        <time>2017-08-02T08:36:04Z</time>
      </trkpt>
      <trkpt lat="45.86748" lon="6.77606">
        <ele>1491.14</ele>
        <time>2017-08-02T08:36:06Z</time>
      </trkpt>
      <trkpt lat="45.86749" lon="6.776">
        <ele>1491.62</ele>
        <time>2017-08-02T08:36:12Z</time>
      </trkpt>
      <trkpt lat="45.86752" lon="6.77598">
        <ele>1491.62</ele>
        <time>2017-08-02T08:36:14Z</time>
      </trkpt>
      <trkpt lat="45.86756" lon="6.77592">
        <ele>1492.1</ele>
        <time>2017-08-02T08:36:20Z</time>
      </trkpt>
      <trkpt lat="45.8676" lon="6.77585">
        <ele>1492.58</ele>
        <time>2017-08-02T08:36:26Z</time>
      </trkpt>
      <trkpt lat="45.8676" lon="6.77583">
        <ele>1492.58</ele>
        <time>2017-08-02T08:36:27Z</time>
      </trkpt>
      <trkpt lat="45.86759" lon="6.77581">
        <ele>1492.58</ele>
        <time>2017-08-02T08:36:28Z</time>
      </trkpt>
      <trkpt lat="45.86759" lon="6.77579">
        <ele>1492.58</ele>
        <time>2017-08-02T08:36:29Z</time>
      </trkpt>
      <trkpt lat="45.86758" lon="6.77577">
        <ele>1492.1</ele>
        <time>2017-08-02T08:36:30Z</time>
      </trkpt>
      <trkpt lat="45.86759" lon="6.77574">
        <ele>1492.1</ele>
        <time>2017-08-02T08:36:31Z</time>
      </trkpt>
      <trkpt lat="45.86759" lon="6.77572">
        <ele>1492.1</ele>
        <time>2017-08-02T08:36:32Z</time>
      </trkpt>
      <trkpt lat="45.86759" lon="6.7757">
        <ele>1491.62</ele>
        <time>2017-08-02T08:36:33Z</time>
      </trkpt>
      <trkpt lat="45.86759" lon="6.77567">
        <ele>1491.62</ele>
        <time>2017-08-02T08:36:34Z</time>
      </trkpt>
      <trkpt lat="45.86759" lon="6.77565">
        <ele>1491.62</ele>
        <time>2017-08-02T08:36:35Z</time>
      </trkpt>
      <trkpt lat="45.8676" lon="6.77563">
        <ele>1491.14</ele>
        <time>2017-08-02T08:36:36Z</time>
      </trkpt>
      <trkpt lat="45.86761" lon="6.77561">
        <ele>1490.66</ele>
        <time>2017-08-02T08:36:37Z</time>
      </trkpt>
      <trkpt lat="45.86761" lon="6.77559">
        <ele>1490.18</ele>
        <time>2017-08-02T08:36:38Z</time>
      </trkpt>
      <trkpt lat="45.86761" lon="6.77557">
        <ele>1490.18</ele>
        <time>2017-08-02T08:36:39Z</time>
      </trkpt>
      <trkpt lat="45.8676" lon="6.77555">
        <ele>1489.7</ele>
        <time>2017-08-02T08:36:40Z</time>
      </trkpt>
      <trkpt lat="45.86761" lon="6.77553">
        <ele>1489.7</ele>
        <time>2017-08-02T08:36:41Z</time>
      </trkpt>
      <trkpt lat="45.86761" lon="6.77551">
        <ele>1489.22</ele>
        <time>2017-08-02T08:36:42Z</time>
      </trkpt>
      <trkpt lat="45.86762" lon="6.77544">
        <ele>1489.22</ele>
        <time>2017-08-02T08:36:45Z</time>
      </trkpt>
      <trkpt lat="45.86764" lon="6.77536">
        <ele>1489.22</ele>
        <time>2017-08-02T08:36:49Z</time>
      </trkpt>
      <trkpt lat="45.86764" lon="6.77534">
        <ele>1489.22</ele>
        <time>2017-08-02T08:36:50Z</time>
      </trkpt>
      <trkpt lat="45.86764" lon="6.77533">
        <ele>1489.22</ele>
        <time>2017-08-02T08:36:51Z</time>
      </trkpt>
      <trkpt lat="45.86763" lon="6.77508">
        <ele>1489.22</ele>
        <time>2017-08-02T08:37:03Z</time>
      </trkpt>
      <trkpt lat="45.86762" lon="6.77507">
        <ele>1489.22</ele>
        <time>2017-08-02T08:37:04Z</time>
      </trkpt>
      <trkpt lat="45.86762" lon="6.77505">
        <ele>1489.22</ele>
        <time>2017-08-02T08:37:05Z</time>
      </trkpt>
      <trkpt lat="45.86761" lon="6.77503">
        <ele>1489.22</ele>
        <time>2017-08-02T08:37:06Z</time>
      </trkpt>
      <trkpt lat="45.8676" lon="6.77501">
        <ele>1489.22</ele>
        <time>2017-08-02T08:37:07Z</time>
      </trkpt>
      <trkpt lat="45.86759" lon="6.775">
        <ele>1489.22</ele>
        <time>2017-08-02T08:37:08Z</time>
      </trkpt>
      <trkpt lat="45.86758" lon="6.77498">
        <ele>1489.22</ele>
        <time>2017-08-02T08:37:09Z</time>
      </trkpt>
      <trkpt lat="45.86758" lon="6.77497">
        <ele>1488.74</ele>
        <time>2017-08-02T08:37:15Z</time>
      </trkpt>
      <trkpt lat="45.86761" lon="6.77495">
        <ele>1488.74</ele>
        <time>2017-08-02T08:37:46Z</time>
      </trkpt>
      <trkpt lat="45.86763" lon="6.77495">
        <ele>1488.74</ele>
        <time>2017-08-02T08:37:53Z</time>
      </trkpt>
      <trkpt lat="45.86759" lon="6.77501">
        <ele>1488.74</ele>
        <time>2017-08-02T08:38:10Z</time>
      </trkpt>
      <trkpt lat="45.86758" lon="6.77501">
        <ele>1488.74</ele>
        <time>2017-08-02T08:38:12Z</time>
      </trkpt>
      <trkpt lat="45.86756" lon="6.77502">
        <ele>1488.74</ele>
        <time>2017-08-02T08:38:16Z</time>
      </trkpt>
      <trkpt lat="45.86752" lon="6.77509">
        <ele>1488.74</ele>
        <time>2017-08-02T08:38:23Z</time>
      </trkpt>
      <trkpt lat="45.86762" lon="6.77523">
        <ele>1489.22</ele>
        <time>2017-08-02T08:38:33Z</time>
      </trkpt>
      <trkpt lat="45.86764" lon="6.77524">
        <ele>1489.22</ele>
        <time>2017-08-02T08:38:34Z</time>
      </trkpt>
      <trkpt lat="45.86769" lon="6.7753">
        <ele>1490.18</ele>
        <time>2017-08-02T08:38:38Z</time>
      </trkpt>
      <trkpt lat="45.86771" lon="6.77533">
        <ele>1490.18</ele>
        <time>2017-08-02T08:38:40Z</time>
      </trkpt>
      <trkpt lat="45.86771" lon="6.77535">
        <ele>1490.18</ele>
        <time>2017-08-02T08:38:41Z</time>
      </trkpt>
      <trkpt lat="45.86775" lon="6.77545">
        <ele>1491.62</ele>
        <time>2017-08-02T08:38:47Z</time>
      </trkpt>
      <trkpt lat="45.86776" lon="6.77546">
        <ele>1492.1</ele>
        <time>2017-08-02T08:38:49Z</time>
      </trkpt>
      <trkpt lat="45.86777" lon="6.77547">
        <ele>1492.1</ele>
        <time>2017-08-02T08:38:50Z</time>
      </trkpt>
      <trkpt lat="45.86778" lon="6.77549">
        <ele>1492.58</ele>
        <time>2017-08-02T08:38:51Z</time>
      </trkpt>
      <trkpt lat="45.86779" lon="6.7755">
        <ele>1492.58</ele>
        <time>2017-08-02T08:38:52Z</time>
      </trkpt>
      <trkpt lat="45.86779" lon="6.77551">
        <ele>1492.58</ele>
        <time>2017-08-02T08:38:53Z</time>
      </trkpt>
      <trkpt lat="45.8678" lon="6.77553">
        <ele>1492.58</ele>
        <time>2017-08-02T08:38:54Z</time>
      </trkpt>
      <trkpt lat="45.86781" lon="6.77554">
        <ele>1493.06</ele>
        <time>2017-08-02T08:38:55Z</time>
      </trkpt>
      <trkpt lat="45.86782" lon="6.77554">
        <ele>1493.06</ele>
        <time>2017-08-02T08:38:56Z</time>
      </trkpt>
      <trkpt lat="45.86785" lon="6.77555">
        <ele>1494.03</ele>
        <time>2017-08-02T08:38:58Z</time>
      </trkpt>
      <trkpt lat="45.86787" lon="6.77556">
        <ele>1494.51</ele>
        <time>2017-08-02T08:39:00Z</time>
      </trkpt>
      <trkpt lat="45.8679" lon="6.77557">
        <ele>1495.47</ele>
        <time>2017-08-02T08:39:03Z</time>
      </trkpt>
      <trkpt lat="45.86792" lon="6.77558">
        <ele>1496.43</ele>
        <time>2017-08-02T08:39:05Z</time>
      </trkpt>
      <trkpt lat="45.86795" lon="6.7756">
        <ele>1496.91</ele>
        <time>2017-08-02T08:39:08Z</time>
      </trkpt>
      <trkpt lat="45.86799" lon="6.77562">
        <ele>1497.87</ele>
        <time>2017-08-02T08:39:11Z</time>
      </trkpt>
      <trkpt lat="45.86801" lon="6.77561">
        <ele>1497.87</ele>
        <time>2017-08-02T08:39:12Z</time>
      </trkpt>
      <trkpt lat="45.86805" lon="6.7756">
        <ele>1498.83</ele>
        <time>2017-08-02T08:39:16Z</time>
      </trkpt>
      <trkpt lat="45.86812" lon="6.7755">
        <ele>1502.2</ele>
        <time>2017-08-02T08:39:32Z</time>
      </trkpt>
      <trkpt lat="45.86813" lon="6.77548">
        <ele>1502.2</ele>
        <time>2017-08-02T08:39:34Z</time>
      </trkpt>
      <trkpt lat="45.86815" lon="6.77545">
        <ele>1502.68</ele>
        <time>2017-08-02T08:39:36Z</time>
      </trkpt>
      <trkpt lat="45.86817" lon="6.77544">
        <ele>1502.68</ele>
        <time>2017-08-02T08:39:37Z</time>
      </trkpt>
      <trkpt lat="45.86821" lon="6.77539">
        <ele>1503.64</ele>
        <time>2017-08-02T08:39:40Z</time>
      </trkpt>
      <trkpt lat="45.86822" lon="6.77538">
        <ele>1503.64</ele>
        <time>2017-08-02T08:39:41Z</time>
      </trkpt>
      <trkpt lat="45.86826" lon="6.77529">
        <ele>1505.56</ele>
        <time>2017-08-02T08:39:48Z</time>
      </trkpt>
      <trkpt lat="45.86827" lon="6.77524">
        <ele>1506.52</ele>
        <time>2017-08-02T08:39:51Z</time>
      </trkpt>
      <trkpt lat="45.86828" lon="6.77522">
        <ele>1507</ele>
        <time>2017-08-02T08:39:52Z</time>
      </trkpt>
      <trkpt lat="45.86828" lon="6.7752">
        <ele>1507</ele>
        <time>2017-08-02T08:39:53Z</time>
      </trkpt>
      <trkpt lat="45.8683" lon="6.77517">
        <ele>1507.48</ele>
        <time>2017-08-02T08:39:54Z</time>
      </trkpt>
      <trkpt lat="45.8683" lon="6.77515">
        <ele>1507.48</ele>
        <time>2017-08-02T08:39:55Z</time>
      </trkpt>
      <trkpt lat="45.86832" lon="6.77513">
        <ele>1507.97</ele>
        <time>2017-08-02T08:39:56Z</time>
      </trkpt>
      <trkpt lat="45.86833" lon="6.77512">
        <ele>1507.97</ele>
        <time>2017-08-02T08:39:57Z</time>
      </trkpt>
      <trkpt lat="45.86834" lon="6.77511">
        <ele>1508.45</ele>
        <time>2017-08-02T08:39:58Z</time>
      </trkpt>
      <trkpt lat="45.86835" lon="6.77509">
        <ele>1508.45</ele>
        <time>2017-08-02T08:39:59Z</time>
      </trkpt>
      <trkpt lat="45.86835" lon="6.77503">
        <ele>1509.89</ele>
        <time>2017-08-02T08:40:04Z</time>
      </trkpt>
      <trkpt lat="45.86836" lon="6.77501">
        <ele>1510.37</ele>
        <time>2017-08-02T08:40:05Z</time>
      </trkpt>
      <trkpt lat="45.86837" lon="6.77499">
        <ele>1510.37</ele>
        <time>2017-08-02T08:40:06Z</time>
      </trkpt>
      <trkpt lat="45.86839" lon="6.77494">
        <ele>1511.81</ele>
        <time>2017-08-02T08:40:10Z</time>
      </trkpt>
      <trkpt lat="45.86842" lon="6.77485">
        <ele>1513.25</ele>
        <time>2017-08-02T08:40:16Z</time>
      </trkpt>
      <trkpt lat="45.86843" lon="6.77483">
        <ele>1513.73</ele>
        <time>2017-08-02T08:40:17Z</time>
      </trkpt>
      <trkpt lat="45.86844" lon="6.7748">
        <ele>1513.73</ele>
        <time>2017-08-02T08:40:18Z</time>
      </trkpt>
      <trkpt lat="45.86845" lon="6.77479">
        <ele>1514.21</ele>
        <time>2017-08-02T08:40:19Z</time>
      </trkpt>
      <trkpt lat="45.86846" lon="6.77477">
        <ele>1514.21</ele>
        <time>2017-08-02T08:40:20Z</time>
      </trkpt>
      <trkpt lat="45.86847" lon="6.77476">
        <ele>1514.69</ele>
        <time>2017-08-02T08:40:21Z</time>
      </trkpt>
      <trkpt lat="45.86848" lon="6.77474">
        <ele>1515.18</ele>
        <time>2017-08-02T08:40:22Z</time>
      </trkpt>
      <trkpt lat="45.86848" lon="6.77472">
        <ele>1515.18</ele>
        <time>2017-08-02T08:40:23Z</time>
      </trkpt>
      <trkpt lat="45.86849" lon="6.7747">
        <ele>1515.66</ele>
        <time>2017-08-02T08:40:25Z</time>
      </trkpt>
      <trkpt lat="45.86851" lon="6.77468">
        <ele>1515.66</ele>
        <time>2017-08-02T08:40:26Z</time>
      </trkpt>
      <trkpt lat="45.86852" lon="6.77467">
        <ele>1516.14</ele>
        <time>2017-08-02T08:40:27Z</time>
      </trkpt>
      <trkpt lat="45.86855" lon="6.77458">
        <ele>1517.58</ele>
        <time>2017-08-02T08:40:32Z</time>
      </trkpt>
      <trkpt lat="45.86856" lon="6.77451">
        <ele>1518.54</ele>
        <time>2017-08-02T08:40:36Z</time>
      </trkpt>
      <trkpt lat="45.86857" lon="6.77442">
        <ele>1519.98</ele>
        <time>2017-08-02T08:40:45Z</time>
      </trkpt>
      <trkpt lat="45.86858" lon="6.77441">
        <ele>1520.46</ele>
        <time>2017-08-02T08:40:46Z</time>
      </trkpt>
      <trkpt lat="45.86859" lon="6.77439">
        <ele>1520.94</ele>
        <time>2017-08-02T08:40:47Z</time>
      </trkpt>
      <trkpt lat="45.8686" lon="6.77437">
        <ele>1520.94</ele>
        <time>2017-08-02T08:40:48Z</time>
      </trkpt>
      <trkpt lat="45.86861" lon="6.77435">
        <ele>1521.42</ele>
        <time>2017-08-02T08:40:49Z</time>
      </trkpt>
      <trkpt lat="45.86862" lon="6.77433">
        <ele>1521.42</ele>
        <time>2017-08-02T08:40:50Z</time>
      </trkpt>
      <trkpt lat="45.86862" lon="6.7743">
        <ele>1521.42</ele>
        <time>2017-08-02T08:40:51Z</time>
      </trkpt>
      <trkpt lat="45.86862" lon="6.77428">
        <ele>1521.9</ele>
        <time>2017-08-02T08:40:52Z</time>
      </trkpt>
      <trkpt lat="45.86862" lon="6.77427">
        <ele>1522.39</ele>
        <time>2017-08-02T08:40:53Z</time>
      </trkpt>
      <trkpt lat="45.86865" lon="6.77419">
        <ele>1522.87</ele>
        <time>2017-08-02T08:40:56Z</time>
      </trkpt>
      <trkpt lat="45.86866" lon="6.77405">
        <ele>1525.75</ele>
        <time>2017-08-02T08:41:08Z</time>
      </trkpt>
      <trkpt lat="45.86867" lon="6.77402">
        <ele>1525.75</ele>
        <time>2017-08-02T08:41:09Z</time>
      </trkpt>
      <trkpt lat="45.86868" lon="6.774">
        <ele>1526.23</ele>
        <time>2017-08-02T08:41:10Z</time>
      </trkpt>
      <trkpt lat="45.86868" lon="6.77398">
        <ele>1526.23</ele>
        <time>2017-08-02T08:41:11Z</time>
      </trkpt>
      <trkpt lat="45.86869" lon="6.77397">
        <ele>1526.71</ele>
        <time>2017-08-02T08:41:12Z</time>
      </trkpt>
      <trkpt lat="45.86871" lon="6.77395">
        <ele>1527.19</ele>
        <time>2017-08-02T08:41:13Z</time>
      </trkpt>
      <trkpt lat="45.86875" lon="6.77383">
        <ele>1530.08</ele>
        <time>2017-08-02T08:41:24Z</time>
      </trkpt>
      <trkpt lat="45.86875" lon="6.77381">
        <ele>1530.08</ele>
        <time>2017-08-02T08:41:25Z</time>
      </trkpt>
      <trkpt lat="45.86875" lon="6.7738">
        <ele>1530.56</ele>
        <time>2017-08-02T08:41:26Z</time>
      </trkpt>
      <trkpt lat="45.86877" lon="6.77377">
        <ele>1531.04</ele>
        <time>2017-08-02T08:41:28Z</time>
      </trkpt>
      <trkpt lat="45.86878" lon="6.77375">
        <ele>1531.04</ele>
        <time>2017-08-02T08:41:29Z</time>
      </trkpt>
      <trkpt lat="45.86878" lon="6.77374">
        <ele>1531.52</ele>
        <time>2017-08-02T08:41:30Z</time>
      </trkpt>
      <trkpt lat="45.86879" lon="6.77372">
        <ele>1532</ele>
        <time>2017-08-02T08:41:31Z</time>
      </trkpt>
      <trkpt lat="45.8688" lon="6.77371">
        <ele>1532</ele>
        <time>2017-08-02T08:41:32Z</time>
      </trkpt>
      <trkpt lat="45.86881" lon="6.77369">
        <ele>1532</ele>
        <time>2017-08-02T08:41:33Z</time>
      </trkpt>
      <trkpt lat="45.86882" lon="6.77367">
        <ele>1532.48</ele>
        <time>2017-08-02T08:41:34Z</time>
      </trkpt>
      <trkpt lat="45.86882" lon="6.77365">
        <ele>1532.48</ele>
        <time>2017-08-02T08:41:35Z</time>
      </trkpt>
      <trkpt lat="45.86885" lon="6.77356">
        <ele>1533.44</ele>
        <time>2017-08-02T08:41:39Z</time>
      </trkpt>
      <trkpt lat="45.86885" lon="6.77354">
        <ele>1533.44</ele>
        <time>2017-08-02T08:41:40Z</time>
      </trkpt>
      <trkpt lat="45.86884" lon="6.77351">
        <ele>1533.44</ele>
        <time>2017-08-02T08:41:41Z</time>
      </trkpt>
      <trkpt lat="45.86884" lon="6.77349">
        <ele>1533.44</ele>
        <time>2017-08-02T08:41:42Z</time>
      </trkpt>
      <trkpt lat="45.86884" lon="6.77347">
        <ele>1533.92</ele>
        <time>2017-08-02T08:41:43Z</time>
      </trkpt>
      <trkpt lat="45.86885" lon="6.77345">
        <ele>1533.92</ele>
        <time>2017-08-02T08:41:44Z</time>
      </trkpt>
      <trkpt lat="45.86886" lon="6.77342">
        <ele>1534.4</ele>
        <time>2017-08-02T08:41:45Z</time>
      </trkpt>
      <trkpt lat="45.86887" lon="6.7734">
        <ele>1534.4</ele>
        <time>2017-08-02T08:41:46Z</time>
      </trkpt>
      <trkpt lat="45.86892" lon="6.77324">
        <ele>1537.29</ele>
        <time>2017-08-02T08:41:57Z</time>
      </trkpt>
      <trkpt lat="45.86894" lon="6.77324">
        <ele>1537.77</ele>
        <time>2017-08-02T08:41:58Z</time>
      </trkpt>
      <trkpt lat="45.86894" lon="6.77323">
        <ele>1537.77</ele>
        <time>2017-08-02T08:41:59Z</time>
      </trkpt>
      <trkpt lat="45.86895" lon="6.77323">
        <ele>1538.25</ele>
        <time>2017-08-02T08:42:00Z</time>
      </trkpt>
      <trkpt lat="45.86896" lon="6.77322">
        <ele>1538.25</ele>
        <time>2017-08-02T08:42:01Z</time>
      </trkpt>
      <trkpt lat="45.86896" lon="6.77322">
        <ele>1538.73</ele>
        <time>2017-08-02T08:42:02Z</time>
      </trkpt>
      <trkpt lat="45.86897" lon="6.77321">
        <ele>1539.21</ele>
        <time>2017-08-02T08:42:03Z</time>
      </trkpt>
      <trkpt lat="45.86898" lon="6.7732">
        <ele>1539.21</ele>
        <time>2017-08-02T08:42:04Z</time>
      </trkpt>
      <trkpt lat="45.86899" lon="6.77319">
        <ele>1539.21</ele>
        <time>2017-08-02T08:42:05Z</time>
      </trkpt>
      <trkpt lat="45.869" lon="6.77319">
        <ele>1539.21</ele>
        <time>2017-08-02T08:42:06Z</time>
      </trkpt>
      <trkpt lat="45.869" lon="6.77319">
        <ele>1539.69</ele>
        <time>2017-08-02T08:42:08Z</time>
      </trkpt>
      <trkpt lat="45.869" lon="6.7732">
        <ele>1539.69</ele>
        <time>2017-08-02T08:42:09Z</time>
      </trkpt>
      <trkpt lat="45.869" lon="6.77321">
        <ele>1539.69</ele>
        <time>2017-08-02T08:42:10Z</time>
      </trkpt>
      <trkpt lat="45.869" lon="6.77324">
        <ele>1539.69</ele>
        <time>2017-08-02T08:42:11Z</time>
      </trkpt>
      <trkpt lat="45.86901" lon="6.77326">
        <ele>1539.69</ele>
        <time>2017-08-02T08:42:12Z</time>
      </trkpt>
      <trkpt lat="45.86902" lon="6.77355">
        <ele>1540.17</ele>
        <time>2017-08-02T08:42:22Z</time>
      </trkpt>
      <trkpt lat="45.86908" lon="6.77384">
        <ele>1542.09</ele>
        <time>2017-08-02T08:42:33Z</time>
      </trkpt>
      <trkpt lat="45.86912" lon="6.77402">
        <ele>1544.01</ele>
        <time>2017-08-02T08:42:41Z</time>
      </trkpt>
      <trkpt lat="45.86912" lon="6.77405">
        <ele>1544.5</ele>
        <time>2017-08-02T08:42:42Z</time>
      </trkpt>
      <trkpt lat="45.86912" lon="6.77408">
        <ele>1544.5</ele>
        <time>2017-08-02T08:42:43Z</time>
      </trkpt>
      <trkpt lat="45.86911" lon="6.7741">
        <ele>1544.98</ele>
        <time>2017-08-02T08:42:44Z</time>
      </trkpt>
      <trkpt lat="45.86911" lon="6.77413">
        <ele>1544.98</ele>
        <time>2017-08-02T08:42:45Z</time>
      </trkpt>
      <trkpt lat="45.8691" lon="6.77416">
        <ele>1544.98</ele>
        <time>2017-08-02T08:42:46Z</time>
      </trkpt>
      <trkpt lat="45.86909" lon="6.77419">
        <ele>1545.46</ele>
        <time>2017-08-02T08:42:47Z</time>
      </trkpt>
      <trkpt lat="45.86908" lon="6.77421">
        <ele>1545.94</ele>
        <time>2017-08-02T08:42:48Z</time>
      </trkpt>
      <trkpt lat="45.86909" lon="6.77452">
        <ele>1546.9</ele>
        <time>2017-08-02T08:42:58Z</time>
      </trkpt>
      <trkpt lat="45.86912" lon="6.77481">
        <ele>1545.94</ele>
        <time>2017-08-02T08:43:06Z</time>
      </trkpt>
      <trkpt lat="45.86917" lon="6.77511">
        <ele>1545.94</ele>
        <time>2017-08-02T08:43:15Z</time>
      </trkpt>
      <trkpt lat="45.86921" lon="6.77541">
        <ele>1547.38</ele>
        <time>2017-08-02T08:43:25Z</time>
      </trkpt>
      <trkpt lat="45.86925" lon="6.77571">
        <ele>1548.82</ele>
        <time>2017-08-02T08:43:34Z</time>
      </trkpt>
      <trkpt lat="45.86919" lon="6.77602">
        <ele>1548.82</ele>
        <time>2017-08-02T08:43:43Z</time>
      </trkpt>
      <trkpt lat="45.86916" lon="6.77631">
        <ele>1548.82</ele>
        <time>2017-08-02T08:43:51Z</time>
      </trkpt>
      <trkpt lat="45.86917" lon="6.77658">
        <ele>1548.82</ele>
        <time>2017-08-02T08:44:00Z</time>
      </trkpt>
      <trkpt lat="45.86916" lon="6.77681">
        <ele>1550.74</ele>
        <time>2017-08-02T08:44:10Z</time>
      </trkpt>
      <trkpt lat="45.86918" lon="6.77709">
        <ele>1552.19</ele>
        <time>2017-08-02T08:44:19Z</time>
      </trkpt>
      <trkpt lat="45.86913" lon="6.77737">
        <ele>1552.67</ele>
        <time>2017-08-02T08:44:28Z</time>
      </trkpt>
      <trkpt lat="45.86903" lon="6.7776">
        <ele>1554.11</ele>
        <time>2017-08-02T08:44:37Z</time>
      </trkpt>
      <trkpt lat="45.86887" lon="6.77782">
        <ele>1555.07</ele>
        <time>2017-08-02T08:44:46Z</time>
      </trkpt>
      <trkpt lat="45.86875" lon="6.77804">
        <ele>1556.03</ele>
        <time>2017-08-02T08:44:55Z</time>
      </trkpt>
      <trkpt lat="45.86865" lon="6.7783">
        <ele>1557.95</ele>
        <time>2017-08-02T08:45:06Z</time>
      </trkpt>
      <trkpt lat="45.86854" lon="6.77856">
        <ele>1560.36</ele>
        <time>2017-08-02T08:45:16Z</time>
      </trkpt>
      <trkpt lat="45.86843" lon="6.77878">
        <ele>1561.8</ele>
        <time>2017-08-02T08:45:25Z</time>
      </trkpt>
      <trkpt lat="45.8683" lon="6.77905">
        <ele>1563.72</ele>
        <time>2017-08-02T08:45:36Z</time>
      </trkpt>
      <trkpt lat="45.86827" lon="6.77913">
        <ele>1564.2</ele>
        <time>2017-08-02T08:45:39Z</time>
      </trkpt>
      <trkpt lat="45.86825" lon="6.77916">
        <ele>1564.68</ele>
        <time>2017-08-02T08:45:40Z</time>
      </trkpt>
      <trkpt lat="45.86823" lon="6.77918">
        <ele>1564.68</ele>
        <time>2017-08-02T08:45:41Z</time>
      </trkpt>
      <trkpt lat="45.86818" lon="6.7794">
        <ele>1566.61</ele>
        <time>2017-08-02T08:45:50Z</time>
      </trkpt>
      <trkpt lat="45.86814" lon="6.77964">
        <ele>1568.05</ele>
        <time>2017-08-02T08:46:00Z</time>
      </trkpt>
      <trkpt lat="45.86815" lon="6.77992">
        <ele>1569.97</ele>
        <time>2017-08-02T08:46:12Z</time>
      </trkpt>
      <trkpt lat="45.86804" lon="6.78017">
        <ele>1573.33</ele>
        <time>2017-08-02T08:46:25Z</time>
      </trkpt>
      <trkpt lat="45.86797" lon="6.78031">
        <ele>1575.26</ele>
        <time>2017-08-02T08:46:31Z</time>
      </trkpt>
      <trkpt lat="45.86793" lon="6.78032">
        <ele>1575.74</ele>
        <time>2017-08-02T08:46:32Z</time>
      </trkpt>
      <trkpt lat="45.86791" lon="6.78034">
        <ele>1576.22</ele>
        <time>2017-08-02T08:46:33Z</time>
      </trkpt>
      <trkpt lat="45.86789" lon="6.78036">
        <ele>1576.7</ele>
        <time>2017-08-02T08:46:34Z</time>
      </trkpt>
      <trkpt lat="45.86788" lon="6.78037">
        <ele>1577.18</ele>
        <time>2017-08-02T08:46:35Z</time>
      </trkpt>
      <trkpt lat="45.86786" lon="6.78039">
        <ele>1577.18</ele>
        <time>2017-08-02T08:46:36Z</time>
      </trkpt>
      <trkpt lat="45.86785" lon="6.7804">
        <ele>1577.66</ele>
        <time>2017-08-02T08:46:37Z</time>
      </trkpt>
      <trkpt lat="45.86779" lon="6.78048">
        <ele>1579.1</ele>
        <time>2017-08-02T08:46:42Z</time>
      </trkpt>
      <trkpt lat="45.86777" lon="6.78049">
        <ele>1579.1</ele>
        <time>2017-08-02T08:46:43Z</time>
      </trkpt>
      <trkpt lat="45.86775" lon="6.78051">
        <ele>1579.58</ele>
        <time>2017-08-02T08:46:44Z</time>
      </trkpt>
      <trkpt lat="45.86775" lon="6.78053">
        <ele>1579.58</ele>
        <time>2017-08-02T08:46:45Z</time>
      </trkpt>
      <trkpt lat="45.86773" lon="6.78054">
        <ele>1580.06</ele>
        <time>2017-08-02T08:46:46Z</time>
      </trkpt>
      <trkpt lat="45.86773" lon="6.78055">
        <ele>1580.54</ele>
        <time>2017-08-02T08:46:47Z</time>
      </trkpt>
      <trkpt lat="45.8677" lon="6.78057">
        <ele>1581.03</ele>
        <time>2017-08-02T08:46:48Z</time>
      </trkpt>
      <trkpt lat="45.8677" lon="6.78058">
        <ele>1581.03</ele>
        <time>2017-08-02T08:46:49Z</time>
      </trkpt>
      <trkpt lat="45.86767" lon="6.7806">
        <ele>1581.51</ele>
        <time>2017-08-02T08:46:50Z</time>
      </trkpt>
      <trkpt lat="45.86766" lon="6.78061">
        <ele>1581.51</ele>
        <time>2017-08-02T08:46:51Z</time>
      </trkpt>
      <trkpt lat="45.86764" lon="6.78063">
        <ele>1581.99</ele>
        <time>2017-08-02T08:46:52Z</time>
      </trkpt>
      <trkpt lat="45.86763" lon="6.78064">
        <ele>1581.99</ele>
        <time>2017-08-02T08:46:53Z</time>
      </trkpt>
      <trkpt lat="45.86761" lon="6.78065">
        <ele>1581.99</ele>
        <time>2017-08-02T08:46:54Z</time>
      </trkpt>
      <trkpt lat="45.86761" lon="6.78067">
        <ele>1581.99</ele>
        <time>2017-08-02T08:46:55Z</time>
      </trkpt>
      <trkpt lat="45.86759" lon="6.78068">
        <ele>1582.47</ele>
        <time>2017-08-02T08:46:56Z</time>
      </trkpt>
      <trkpt lat="45.8676" lon="6.7807">
        <ele>1582.95</ele>
        <time>2017-08-02T08:46:57Z</time>
      </trkpt>
      <trkpt lat="45.8676" lon="6.78072">
        <ele>1583.43</ele>
        <time>2017-08-02T08:46:58Z</time>
      </trkpt>
      <trkpt lat="45.86761" lon="6.78073">
        <ele>1583.91</ele>
        <time>2017-08-02T08:46:59Z</time>
      </trkpt>
      <trkpt lat="45.86755" lon="6.78085">
        <ele>1586.79</ele>
        <time>2017-08-02T08:47:08Z</time>
      </trkpt>
      <trkpt lat="45.86755" lon="6.78088">
        <ele>1586.79</ele>
        <time>2017-08-02T08:47:10Z</time>
      </trkpt>
      <trkpt lat="45.86756" lon="6.7809">
        <ele>1587.27</ele>
        <time>2017-08-02T08:47:11Z</time>
      </trkpt>
      <trkpt lat="45.86756" lon="6.78092">
        <ele>1587.75</ele>
        <time>2017-08-02T08:47:12Z</time>
      </trkpt>
      <trkpt lat="45.86759" lon="6.78094">
        <ele>1588.24</ele>
        <time>2017-08-02T08:47:13Z</time>
      </trkpt>
      <trkpt lat="45.86759" lon="6.78096">
        <ele>1588.24</ele>
        <time>2017-08-02T08:47:14Z</time>
      </trkpt>
      <trkpt lat="45.86759" lon="6.78098">
        <ele>1588.72</ele>
        <time>2017-08-02T08:47:15Z</time>
      </trkpt>
      <trkpt lat="45.86759" lon="6.781">
        <ele>1588.72</ele>
        <time>2017-08-02T08:47:16Z</time>
      </trkpt>
      <trkpt lat="45.86759" lon="6.78102">
        <ele>1589.2</ele>
        <time>2017-08-02T08:47:17Z</time>
      </trkpt>
      <trkpt lat="45.86758" lon="6.78104">
        <ele>1589.2</ele>
        <time>2017-08-02T08:47:18Z</time>
      </trkpt>
      <trkpt lat="45.86757" lon="6.78106">
        <ele>1589.2</ele>
        <time>2017-08-02T08:47:19Z</time>
      </trkpt>
      <trkpt lat="45.86756" lon="6.78108">
        <ele>1589.68</ele>
        <time>2017-08-02T08:47:20Z</time>
      </trkpt>
      <trkpt lat="45.86756" lon="6.78109">
        <ele>1590.16</ele>
        <time>2017-08-02T08:47:21Z</time>
      </trkpt>
      <trkpt lat="45.86755" lon="6.78109">
        <ele>1590.16</ele>
        <time>2017-08-02T08:47:22Z</time>
      </trkpt>
      <trkpt lat="45.86755" lon="6.7811">
        <ele>1590.64</ele>
        <time>2017-08-02T08:47:23Z</time>
      </trkpt>
      <trkpt lat="45.86755" lon="6.78111">
        <ele>1590.64</ele>
        <time>2017-08-02T08:47:24Z</time>
      </trkpt>
      <trkpt lat="45.86755" lon="6.78112">
        <ele>1591.12</ele>
        <time>2017-08-02T08:47:25Z</time>
      </trkpt>
      <trkpt lat="45.86755" lon="6.78114">
        <ele>1591.6</ele>
        <time>2017-08-02T08:47:27Z</time>
      </trkpt>
      <trkpt lat="45.86756" lon="6.78116">
        <ele>1591.6</ele>
        <time>2017-08-02T08:47:28Z</time>
      </trkpt>
      <trkpt lat="45.86755" lon="6.78122">
        <ele>1593.04</ele>
        <time>2017-08-02T08:47:33Z</time>
      </trkpt>
      <trkpt lat="45.86755" lon="6.78123">
        <ele>1593.52</ele>
        <time>2017-08-02T08:47:34Z</time>
      </trkpt>
      <trkpt lat="45.86755" lon="6.78125">
        <ele>1594</ele>
        <time>2017-08-02T08:47:35Z</time>
      </trkpt>
      <trkpt lat="45.86754" lon="6.78126">
        <ele>1594</ele>
        <time>2017-08-02T08:47:36Z</time>
      </trkpt>
      <trkpt lat="45.86754" lon="6.78127">
        <ele>1594</ele>
        <time>2017-08-02T08:47:37Z</time>
      </trkpt>
      <trkpt lat="45.86759" lon="6.78131">
        <ele>1594.96</ele>
        <time>2017-08-02T08:47:40Z</time>
      </trkpt>
      <trkpt lat="45.86761" lon="6.78132">
        <ele>1594.96</ele>
        <time>2017-08-02T08:47:41Z</time>
      </trkpt>
      <trkpt lat="45.86762" lon="6.78134">
        <ele>1595.45</ele>
        <time>2017-08-02T08:47:42Z</time>
      </trkpt>
      <trkpt lat="45.86762" lon="6.78136">
        <ele>1595.93</ele>
        <time>2017-08-02T08:47:44Z</time>
      </trkpt>
      <trkpt lat="45.86762" lon="6.78139">
        <ele>1596.41</ele>
        <time>2017-08-02T08:47:47Z</time>
      </trkpt>
      <trkpt lat="45.86766" lon="6.78143">
        <ele>1597.37</ele>
        <time>2017-08-02T08:47:50Z</time>
      </trkpt>
      <trkpt lat="45.86769" lon="6.78147">
        <ele>1598.81</ele>
        <time>2017-08-02T08:47:56Z</time>
      </trkpt>
      <trkpt lat="45.8677" lon="6.7815">
        <ele>1600.25</ele>
        <time>2017-08-02T08:47:59Z</time>
      </trkpt>
      <trkpt lat="45.8677" lon="6.78151">
        <ele>1600.25</ele>
        <time>2017-08-02T08:48:01Z</time>
      </trkpt>
      <trkpt lat="45.86771" lon="6.78153">
        <ele>1600.73</ele>
        <time>2017-08-02T08:48:02Z</time>
      </trkpt>
      <trkpt lat="45.86773" lon="6.78163">
        <ele>1603.62</ele>
        <time>2017-08-02T08:48:13Z</time>
      </trkpt>
      <trkpt lat="45.86774" lon="6.78174">
        <ele>1606.5</ele>
        <time>2017-08-02T08:48:23Z</time>
      </trkpt>
      <trkpt lat="45.86773" lon="6.78183">
        <ele>1609.38</ele>
        <time>2017-08-02T08:48:35Z</time>
      </trkpt>
      <trkpt lat="45.86775" lon="6.78183">
        <ele>1610.35</ele>
        <time>2017-08-02T08:48:37Z</time>
      </trkpt>
      <trkpt lat="45.86776" lon="6.78191">
        <ele>1613.23</ele>
        <time>2017-08-02T08:48:47Z</time>
      </trkpt>
      <trkpt lat="45.86769" lon="6.78203">
        <ele>1615.15</ele>
        <time>2017-08-02T08:48:55Z</time>
      </trkpt>
      <trkpt lat="45.86757" lon="6.78215">
        <ele>1618.04</ele>
        <time>2017-08-02T08:49:03Z</time>
      </trkpt>
      <trkpt lat="45.86743" lon="6.78233">
        <ele>1620.92</ele>
        <time>2017-08-02T08:49:16Z</time>
      </trkpt>
      <trkpt lat="45.86741" lon="6.78243">
        <ele>1622.36</ele>
        <time>2017-08-02T08:49:21Z</time>
      </trkpt>
      <trkpt lat="45.8674" lon="6.78245">
        <ele>1622.36</ele>
        <time>2017-08-02T08:49:22Z</time>
      </trkpt>
      <trkpt lat="45.8674" lon="6.78247">
        <ele>1622.84</ele>
        <time>2017-08-02T08:49:23Z</time>
      </trkpt>
      <trkpt lat="45.8674" lon="6.7825">
        <ele>1623.32</ele>
        <time>2017-08-02T08:49:24Z</time>
      </trkpt>
      <trkpt lat="45.86741" lon="6.78252">
        <ele>1623.32</ele>
        <time>2017-08-02T08:49:25Z</time>
      </trkpt>
      <trkpt lat="45.86741" lon="6.78253">
        <ele>1623.8</ele>
        <time>2017-08-02T08:49:26Z</time>
      </trkpt>
      <trkpt lat="45.86741" lon="6.78256">
        <ele>1623.8</ele>
        <time>2017-08-02T08:49:27Z</time>
      </trkpt>
      <trkpt lat="45.86739" lon="6.78258">
        <ele>1624.28</ele>
        <time>2017-08-02T08:49:28Z</time>
      </trkpt>
      <trkpt lat="45.86739" lon="6.7826">
        <ele>1624.28</ele>
        <time>2017-08-02T08:49:29Z</time>
      </trkpt>
      <trkpt lat="45.86737" lon="6.78287">
        <ele>1627.17</ele>
        <time>2017-08-02T08:49:41Z</time>
      </trkpt>
      <trkpt lat="45.86739" lon="6.78295">
        <ele>1628.61</ele>
        <time>2017-08-02T08:49:45Z</time>
      </trkpt>
      <trkpt lat="45.86737" lon="6.78298">
        <ele>1629.09</ele>
        <time>2017-08-02T08:49:46Z</time>
      </trkpt>
      <trkpt lat="45.86729" lon="6.78307">
        <ele>1632.46</ele>
        <time>2017-08-02T08:49:59Z</time>
      </trkpt>
      <trkpt lat="45.86727" lon="6.78307">
        <ele>1632.46</ele>
        <time>2017-08-02T08:50:00Z</time>
      </trkpt>
      <trkpt lat="45.86725" lon="6.78307">
        <ele>1632.94</ele>
        <time>2017-08-02T08:50:01Z</time>
      </trkpt>
      <trkpt lat="45.86723" lon="6.78306">
        <ele>1632.94</ele>
        <time>2017-08-02T08:50:02Z</time>
      </trkpt>
      <trkpt lat="45.86722" lon="6.78307">
        <ele>1633.42</ele>
        <time>2017-08-02T08:50:03Z</time>
      </trkpt>
      <trkpt lat="45.86721" lon="6.78307">
        <ele>1633.42</ele>
        <time>2017-08-02T08:50:04Z</time>
      </trkpt>
      <trkpt lat="45.86711" lon="6.7831">
        <ele>1635.82</ele>
        <time>2017-08-02T08:50:12Z</time>
      </trkpt>
      <trkpt lat="45.86711" lon="6.7831">
        <ele>1636.3</ele>
        <time>2017-08-02T08:50:13Z</time>
      </trkpt>
      <trkpt lat="45.8671" lon="6.7831">
        <ele>1636.3</ele>
        <time>2017-08-02T08:50:14Z</time>
      </trkpt>
      <trkpt lat="45.86709" lon="6.78311">
        <ele>1636.78</ele>
        <time>2017-08-02T08:50:15Z</time>
      </trkpt>
      <trkpt lat="45.86707" lon="6.78311">
        <ele>1637.26</ele>
        <time>2017-08-02T08:50:17Z</time>
      </trkpt>
      <trkpt lat="45.86705" lon="6.78312">
        <ele>1637.74</ele>
        <time>2017-08-02T08:50:18Z</time>
      </trkpt>
      <trkpt lat="45.86704" lon="6.78312">
        <ele>1638.22</ele>
        <time>2017-08-02T08:50:19Z</time>
      </trkpt>
      <trkpt lat="45.86703" lon="6.78313">
        <ele>1638.22</ele>
        <time>2017-08-02T08:50:20Z</time>
      </trkpt>
      <trkpt lat="45.86702" lon="6.78316">
        <ele>1638.22</ele>
        <time>2017-08-02T08:50:21Z</time>
      </trkpt>
      <trkpt lat="45.86701" lon="6.78317">
        <ele>1638.7</ele>
        <time>2017-08-02T08:50:22Z</time>
      </trkpt>
      <trkpt lat="45.86698" lon="6.7832">
        <ele>1639.19</ele>
        <time>2017-08-02T08:50:25Z</time>
      </trkpt>
      <trkpt lat="45.86693" lon="6.7832">
        <ele>1642.07</ele>
        <time>2017-08-02T08:50:35Z</time>
      </trkpt>
      <trkpt lat="45.86688" lon="6.78325">
        <ele>1643.51</ele>
        <time>2017-08-02T08:50:42Z</time>
      </trkpt>
      <trkpt lat="45.86686" lon="6.78328">
        <ele>1644.47</ele>
        <time>2017-08-02T08:50:46Z</time>
      </trkpt>
      <trkpt lat="45.86679" lon="6.78333">
        <ele>1646.88</ele>
        <time>2017-08-02T08:50:52Z</time>
      </trkpt>
      <trkpt lat="45.86677" lon="6.78334">
        <ele>1647.36</ele>
        <time>2017-08-02T08:50:53Z</time>
      </trkpt>
      <trkpt lat="45.86676" lon="6.78334">
        <ele>1647.36</ele>
        <time>2017-08-02T08:50:54Z</time>
      </trkpt>
      <trkpt lat="45.86674" lon="6.78335">
        <ele>1647.84</ele>
        <time>2017-08-02T08:50:55Z</time>
      </trkpt>
      <trkpt lat="45.86672" lon="6.78335">
        <ele>1647.84</ele>
        <time>2017-08-02T08:50:56Z</time>
      </trkpt>
      <trkpt lat="45.86669" lon="6.78336">
        <ele>1648.8</ele>
        <time>2017-08-02T08:51:00Z</time>
      </trkpt>
      <trkpt lat="45.86665" lon="6.78338">
        <ele>1649.76</ele>
        <time>2017-08-02T08:51:03Z</time>
      </trkpt>
      <trkpt lat="45.86664" lon="6.78339">
        <ele>1650.24</ele>
        <time>2017-08-02T08:51:04Z</time>
      </trkpt>
      <trkpt lat="45.86655" lon="6.78339">
        <ele>1652.16</ele>
        <time>2017-08-02T08:51:11Z</time>
      </trkpt>
      <trkpt lat="45.86654" lon="6.7834">
        <ele>1652.64</ele>
        <time>2017-08-02T08:51:13Z</time>
      </trkpt>
      <trkpt lat="45.86652" lon="6.78345">
        <ele>1655.05</ele>
        <time>2017-08-02T08:51:21Z</time>
      </trkpt>
      <trkpt lat="45.86651" lon="6.78346">
        <ele>1655.53</ele>
        <time>2017-08-02T08:51:22Z</time>
      </trkpt>
      <trkpt lat="45.86652" lon="6.7835">
        <ele>1658.41</ele>
        <time>2017-08-02T08:51:31Z</time>
      </trkpt>
      <trkpt lat="45.86658" lon="6.78352">
        <ele>1659.85</ele>
        <time>2017-08-02T08:51:37Z</time>
      </trkpt>
      <trkpt lat="45.86659" lon="6.78353">
        <ele>1659.85</ele>
        <time>2017-08-02T08:51:38Z</time>
      </trkpt>
      <trkpt lat="45.86662" lon="6.78354">
        <ele>1661.3</ele>
        <time>2017-08-02T08:51:42Z</time>
      </trkpt>
      <trkpt lat="45.86664" lon="6.78355">
        <ele>1661.78</ele>
        <time>2017-08-02T08:51:44Z</time>
      </trkpt>
      <trkpt lat="45.86665" lon="6.78355">
        <ele>1662.26</ele>
        <time>2017-08-02T08:51:45Z</time>
      </trkpt>
      <trkpt lat="45.86681" lon="6.78358">
        <ele>1665.62</ele>
        <time>2017-08-02T08:51:58Z</time>
      </trkpt>
      <trkpt lat="45.86684" lon="6.78357">
        <ele>1666.1</ele>
        <time>2017-08-02T08:52:01Z</time>
      </trkpt>
      <trkpt lat="45.86684" lon="6.78357">
        <ele>1666.1</ele>
        <time>2017-08-02T08:52:02Z</time>
      </trkpt>
      <trkpt lat="45.86685" lon="6.78357">
        <ele>1666.58</ele>
        <time>2017-08-02T08:52:03Z</time>
      </trkpt>
      <trkpt lat="45.86687" lon="6.78357">
        <ele>1667.06</ele>
        <time>2017-08-02T08:52:06Z</time>
      </trkpt>
      <trkpt lat="45.86692" lon="6.78357">
        <ele>1668.02</ele>
        <time>2017-08-02T08:52:11Z</time>
      </trkpt>
      <trkpt lat="45.86695" lon="6.78357">
        <ele>1669.47</ele>
        <time>2017-08-02T08:52:16Z</time>
      </trkpt>
      <trkpt lat="45.86696" lon="6.78358">
        <ele>1669.95</ele>
        <time>2017-08-02T08:52:17Z</time>
      </trkpt>
      <trkpt lat="45.86697" lon="6.78358">
        <ele>1669.95</ele>
        <time>2017-08-02T08:52:19Z</time>
      </trkpt>
      <trkpt lat="45.867" lon="6.78362">
        <ele>1671.39</ele>
        <time>2017-08-02T08:52:25Z</time>
      </trkpt>
      <trkpt lat="45.86701" lon="6.78363">
        <ele>1671.39</ele>
        <time>2017-08-02T08:52:26Z</time>
      </trkpt>
      <trkpt lat="45.86698" lon="6.78369">
        <ele>1672.83</ele>
        <time>2017-08-02T08:52:32Z</time>
      </trkpt>
      <trkpt lat="45.86691" lon="6.78376">
        <ele>1675.23</ele>
        <time>2017-08-02T08:52:43Z</time>
      </trkpt>
      <trkpt lat="45.86689" lon="6.78377">
        <ele>1675.23</ele>
        <time>2017-08-02T08:52:44Z</time>
      </trkpt>
      <trkpt lat="45.86688" lon="6.78378">
        <ele>1675.72</ele>
        <time>2017-08-02T08:52:45Z</time>
      </trkpt>
      <trkpt lat="45.86687" lon="6.7838">
        <ele>1676.2</ele>
        <time>2017-08-02T08:52:47Z</time>
      </trkpt>
      <trkpt lat="45.86687" lon="6.78381">
        <ele>1676.2</ele>
        <time>2017-08-02T08:52:48Z</time>
      </trkpt>
      <trkpt lat="45.86688" lon="6.78383">
        <ele>1677.16</ele>
        <time>2017-08-02T08:52:50Z</time>
      </trkpt>
      <trkpt lat="45.86692" lon="6.78385">
        <ele>1678.12</ele>
        <time>2017-08-02T08:52:55Z</time>
      </trkpt>
      <trkpt lat="45.86694" lon="6.78384">
        <ele>1678.6</ele>
        <time>2017-08-02T08:52:56Z</time>
      </trkpt>
      <trkpt lat="45.867" lon="6.78388">
        <ele>1681.96</ele>
        <time>2017-08-02T08:53:09Z</time>
      </trkpt>
      <trkpt lat="45.867" lon="6.78388">
        <ele>1682.93</ele>
        <time>2017-08-02T08:53:13Z</time>
      </trkpt>
      <trkpt lat="45.86703" lon="6.78391">
        <ele>1683.41</ele>
        <time>2017-08-02T08:53:17Z</time>
      </trkpt>
      <trkpt lat="45.86704" lon="6.7839">
        <ele>1683.41</ele>
        <time>2017-08-02T08:53:18Z</time>
      </trkpt>
      <trkpt lat="45.86706" lon="6.78392">
        <ele>1684.37</ele>
        <time>2017-08-02T08:53:21Z</time>
      </trkpt>
      <trkpt lat="45.86706" lon="6.78396">
        <ele>1685.33</ele>
        <time>2017-08-02T08:53:24Z</time>
      </trkpt>
      <trkpt lat="45.86704" lon="6.78404">
        <ele>1687.25</ele>
        <time>2017-08-02T08:53:34Z</time>
      </trkpt>
      <trkpt lat="45.86702" lon="6.78406">
        <ele>1688.21</ele>
        <time>2017-08-02T08:53:37Z</time>
      </trkpt>
      <trkpt lat="45.867" lon="6.78407">
        <ele>1688.69</ele>
        <time>2017-08-02T08:53:38Z</time>
      </trkpt>
      <trkpt lat="45.86698" lon="6.78412">
        <ele>1689.65</ele>
        <time>2017-08-02T08:53:42Z</time>
      </trkpt>
      <trkpt lat="45.86698" lon="6.78413">
        <ele>1690.14</ele>
        <time>2017-08-02T08:53:43Z</time>
      </trkpt>
      <trkpt lat="45.86691" lon="6.78415">
        <ele>1691.58</ele>
        <time>2017-08-02T08:53:50Z</time>
      </trkpt>
      <trkpt lat="45.86682" lon="6.78415">
        <ele>1694.94</ele>
        <time>2017-08-02T08:54:03Z</time>
      </trkpt>
      <trkpt lat="45.86678" lon="6.78419">
        <ele>1697.34</ele>
        <time>2017-08-02T08:54:16Z</time>
      </trkpt>
      <trkpt lat="45.86676" lon="6.78418">
        <ele>1698.79</ele>
        <time>2017-08-02T08:54:22Z</time>
      </trkpt>
      <trkpt lat="45.86675" lon="6.78418">
        <ele>1698.79</ele>
        <time>2017-08-02T08:54:24Z</time>
      </trkpt>
      <trkpt lat="45.86674" lon="6.78421">
        <ele>1699.75</ele>
        <time>2017-08-02T08:54:29Z</time>
      </trkpt>
      <trkpt lat="45.86672" lon="6.78423">
        <ele>1700.23</ele>
        <time>2017-08-02T08:54:32Z</time>
      </trkpt>
      <trkpt lat="45.8667" lon="6.78425">
        <ele>1701.67</ele>
        <time>2017-08-02T08:54:36Z</time>
      </trkpt>
      <trkpt lat="45.86666" lon="6.78429">
        <ele>1703.59</ele>
        <time>2017-08-02T08:54:44Z</time>
      </trkpt>
      <trkpt lat="45.86664" lon="6.7843">
        <ele>1704.07</ele>
        <time>2017-08-02T08:54:46Z</time>
      </trkpt>
      <trkpt lat="45.86661" lon="6.78435">
        <ele>1707.44</ele>
        <time>2017-08-02T08:54:57Z</time>
      </trkpt>
      <trkpt lat="45.8665" lon="6.78438">
        <ele>1708.88</ele>
        <time>2017-08-02T08:55:03Z</time>
      </trkpt>
      <trkpt lat="45.86651" lon="6.78447">
        <ele>1711.76</ele>
        <time>2017-08-02T08:55:16Z</time>
      </trkpt>
      <trkpt lat="45.86657" lon="6.78453">
        <ele>1715.13</ele>
        <time>2017-08-02T08:55:29Z</time>
      </trkpt>
      <trkpt lat="45.86659" lon="6.78459">
        <ele>1716.09</ele>
        <time>2017-08-02T08:55:34Z</time>
      </trkpt>
      <trkpt lat="45.86658" lon="6.7846">
        <ele>1716.57</ele>
        <time>2017-08-02T08:55:35Z</time>
      </trkpt>
      <trkpt lat="45.86655" lon="6.78466">
        <ele>1719.46</ele>
        <time>2017-08-02T08:55:48Z</time>
      </trkpt>
      <trkpt lat="45.86653" lon="6.78474">
        <ele>1722.82</ele>
        <time>2017-08-02T08:56:01Z</time>
      </trkpt>
      <trkpt lat="45.86641" lon="6.7848">
        <ele>1726.18</ele>
        <time>2017-08-02T08:56:15Z</time>
      </trkpt>
      <trkpt lat="45.86639" lon="6.7848">
        <ele>1726.18</ele>
        <time>2017-08-02T08:56:16Z</time>
      </trkpt>
      <trkpt lat="45.86634" lon="6.78485">
        <ele>1728.11</ele>
        <time>2017-08-02T08:56:23Z</time>
      </trkpt>
      <trkpt lat="45.86635" lon="6.78489">
        <ele>1729.07</ele>
        <time>2017-08-02T08:56:26Z</time>
      </trkpt>
      <trkpt lat="45.86637" lon="6.78491">
        <ele>1730.51</ele>
        <time>2017-08-02T08:56:32Z</time>
      </trkpt>
      <trkpt lat="45.86637" lon="6.78491">
        <ele>1730.99</ele>
        <time>2017-08-02T08:56:35Z</time>
      </trkpt>
      <trkpt lat="45.86638" lon="6.78495">
        <ele>1734.36</ele>
        <time>2017-08-02T08:56:47Z</time>
      </trkpt>
      <trkpt lat="45.86639" lon="6.78498">
        <ele>1734.84</ele>
        <time>2017-08-02T08:56:51Z</time>
      </trkpt>
      <trkpt lat="45.86639" lon="6.78499">
        <ele>1735.32</ele>
        <time>2017-08-02T08:56:52Z</time>
      </trkpt>
      <trkpt lat="45.86637" lon="6.78502">
        <ele>1737.24</ele>
        <time>2017-08-02T08:57:02Z</time>
      </trkpt>
      <trkpt lat="45.86635" lon="6.78505">
        <ele>1738.68</ele>
        <time>2017-08-02T08:57:06Z</time>
      </trkpt>
      <trkpt lat="45.86635" lon="6.78505">
        <ele>1738.68</ele>
        <time>2017-08-02T08:57:07Z</time>
      </trkpt>
      <trkpt lat="45.86632" lon="6.78511">
        <ele>1741.08</ele>
        <time>2017-08-02T08:57:15Z</time>
      </trkpt>
      <trkpt lat="45.86629" lon="6.78512">
        <ele>1741.08</ele>
        <time>2017-08-02T08:57:16Z</time>
      </trkpt>
      <trkpt lat="45.86629" lon="6.78512">
        <ele>1741.57</ele>
        <time>2017-08-02T08:57:17Z</time>
      </trkpt>
      <trkpt lat="45.86628" lon="6.78513">
        <ele>1741.57</ele>
        <time>2017-08-02T08:57:18Z</time>
      </trkpt>
      <trkpt lat="45.86628" lon="6.78514">
        <ele>1741.57</ele>
        <time>2017-08-02T08:57:19Z</time>
      </trkpt>
      <trkpt lat="45.86626" lon="6.7852">
        <ele>1743.49</ele>
        <time>2017-08-02T08:57:25Z</time>
      </trkpt>
      <trkpt lat="45.86626" lon="6.78521">
        <ele>1743.49</ele>
        <time>2017-08-02T08:57:26Z</time>
      </trkpt>
      <trkpt lat="45.86625" lon="6.78522">
        <ele>1743.97</ele>
        <time>2017-08-02T08:57:27Z</time>
      </trkpt>
      <trkpt lat="45.86625" lon="6.78524">
        <ele>1744.45</ele>
        <time>2017-08-02T08:57:34Z</time>
      </trkpt>
      <trkpt lat="45.86621" lon="6.78522">
        <ele>1744.45</ele>
        <time>2017-08-02T08:57:37Z</time>
      </trkpt>
      <trkpt lat="45.86619" lon="6.78521">
        <ele>1744.93</ele>
        <time>2017-08-02T08:57:38Z</time>
      </trkpt>
      <trkpt lat="45.86618" lon="6.78521">
        <ele>1744.45</ele>
        <time>2017-08-02T08:57:39Z</time>
      </trkpt>
      <trkpt lat="45.86617" lon="6.7852">
        <ele>1744.45</ele>
        <time>2017-08-02T08:57:40Z</time>
      </trkpt>
      <trkpt lat="45.86616" lon="6.7852">
        <ele>1744.45</ele>
        <time>2017-08-02T08:57:41Z</time>
      </trkpt>
      <trkpt lat="45.86614" lon="6.7852">
        <ele>1744.45</ele>
        <time>2017-08-02T08:57:42Z</time>
      </trkpt>
      <trkpt lat="45.86613" lon="6.7852">
        <ele>1744.93</ele>
        <time>2017-08-02T08:57:43Z</time>
      </trkpt>
      <trkpt lat="45.8661" lon="6.78519">
        <ele>1744.93</ele>
        <time>2017-08-02T08:57:44Z</time>
      </trkpt>
      <trkpt lat="45.8661" lon="6.7852">
        <ele>1744.93</ele>
        <time>2017-08-02T08:57:45Z</time>
      </trkpt>
      <trkpt lat="45.86609" lon="6.7852">
        <ele>1745.41</ele>
        <time>2017-08-02T08:57:46Z</time>
      </trkpt>
      <trkpt lat="45.86607" lon="6.7852">
        <ele>1745.41</ele>
        <time>2017-08-02T08:57:47Z</time>
      </trkpt>
      <trkpt lat="45.86606" lon="6.78521">
        <ele>1745.89</ele>
        <time>2017-08-02T08:57:48Z</time>
      </trkpt>
      <trkpt lat="45.86606" lon="6.78522">
        <ele>1745.89</ele>
        <time>2017-08-02T08:57:49Z</time>
      </trkpt>
      <trkpt lat="45.86605" lon="6.78522">
        <ele>1746.37</ele>
        <time>2017-08-02T08:57:50Z</time>
      </trkpt>
      <trkpt lat="45.86603" lon="6.78523">
        <ele>1746.37</ele>
        <time>2017-08-02T08:57:51Z</time>
      </trkpt>
      <trkpt lat="45.86601" lon="6.78522">
        <ele>1746.85</ele>
        <time>2017-08-02T08:57:52Z</time>
      </trkpt>
      <trkpt lat="45.866" lon="6.78521">
        <ele>1746.85</ele>
        <time>2017-08-02T08:57:53Z</time>
      </trkpt>
      <trkpt lat="45.86598" lon="6.7852">
        <ele>1746.85</ele>
        <time>2017-08-02T08:57:54Z</time>
      </trkpt>
      <trkpt lat="45.86577" lon="6.7852">
        <ele>1747.33</ele>
        <time>2017-08-02T08:58:03Z</time>
      </trkpt>
      <trkpt lat="45.86576" lon="6.78522">
        <ele>1747.81</ele>
        <time>2017-08-02T08:58:04Z</time>
      </trkpt>
      <trkpt lat="45.86575" lon="6.78525">
        <ele>1747.81</ele>
        <time>2017-08-02T08:58:05Z</time>
      </trkpt>
      <trkpt lat="45.86575" lon="6.78528">
        <ele>1747.81</ele>
        <time>2017-08-02T08:58:06Z</time>
      </trkpt>
      <trkpt lat="45.86574" lon="6.7853">
        <ele>1747.81</ele>
        <time>2017-08-02T08:58:07Z</time>
      </trkpt>
      <trkpt lat="45.86573" lon="6.78532">
        <ele>1747.81</ele>
        <time>2017-08-02T08:58:08Z</time>
      </trkpt>
      <trkpt lat="45.86571" lon="6.78534">
        <ele>1747.81</ele>
        <time>2017-08-02T08:58:09Z</time>
      </trkpt>
      <trkpt lat="45.8657" lon="6.78537">
        <ele>1747.81</ele>
        <time>2017-08-02T08:58:10Z</time>
      </trkpt>
      <trkpt lat="45.86566" lon="6.78558">
        <ele>1746.37</ele>
        <time>2017-08-02T08:58:19Z</time>
      </trkpt>
      <trkpt lat="45.86566" lon="6.78562">
        <ele>1746.37</ele>
        <time>2017-08-02T08:58:22Z</time>
      </trkpt>
      <trkpt lat="45.86565" lon="6.78563">
        <ele>1746.37</ele>
        <time>2017-08-02T08:58:23Z</time>
      </trkpt>
      <trkpt lat="45.86557" lon="6.78583">
        <ele>1744.45</ele>
        <time>2017-08-02T08:58:30Z</time>
      </trkpt>
      <trkpt lat="45.86546" lon="6.78611">
        <ele>1745.41</ele>
        <time>2017-08-02T08:58:42Z</time>
      </trkpt>
      <trkpt lat="45.86537" lon="6.78626">
        <ele>1746.37</ele>
        <time>2017-08-02T08:58:49Z</time>
      </trkpt>
      <trkpt lat="45.86537" lon="6.78627">
        <ele>1746.85</ele>
        <time>2017-08-02T08:58:50Z</time>
      </trkpt>
      <trkpt lat="45.86536" lon="6.78628">
        <ele>1746.85</ele>
        <time>2017-08-02T08:58:51Z</time>
      </trkpt>
      <trkpt lat="45.86535" lon="6.78629">
        <ele>1747.81</ele>
        <time>2017-08-02T08:58:52Z</time>
      </trkpt>
      <trkpt lat="45.86533" lon="6.7863">
        <ele>1747.81</ele>
        <time>2017-08-02T08:58:53Z</time>
      </trkpt>
      <trkpt lat="45.86532" lon="6.78631">
        <ele>1748.29</ele>
        <time>2017-08-02T08:58:54Z</time>
      </trkpt>
      <trkpt lat="45.8653" lon="6.78637">
        <ele>1748.78</ele>
        <time>2017-08-02T08:58:57Z</time>
      </trkpt>
      <trkpt lat="45.86528" lon="6.78638">
        <ele>1748.78</ele>
        <time>2017-08-02T08:58:58Z</time>
      </trkpt>
      <trkpt lat="45.86524" lon="6.78644">
        <ele>1750.22</ele>
        <time>2017-08-02T08:59:02Z</time>
      </trkpt>
      <trkpt lat="45.86521" lon="6.78645">
        <ele>1750.22</ele>
        <time>2017-08-02T08:59:03Z</time>
      </trkpt>
      <trkpt lat="45.8652" lon="6.78646">
        <ele>1750.7</ele>
        <time>2017-08-02T08:59:04Z</time>
      </trkpt>
      <trkpt lat="45.8652" lon="6.78649">
        <ele>1750.22</ele>
        <time>2017-08-02T08:59:05Z</time>
      </trkpt>
      <trkpt lat="45.86521" lon="6.78652">
        <ele>1750.22</ele>
        <time>2017-08-02T08:59:06Z</time>
      </trkpt>
      <trkpt lat="45.86521" lon="6.78654">
        <ele>1750.7</ele>
        <time>2017-08-02T08:59:07Z</time>
      </trkpt>
      <trkpt lat="45.86522" lon="6.78656">
        <ele>1750.7</ele>
        <time>2017-08-02T08:59:08Z</time>
      </trkpt>
      <trkpt lat="45.86522" lon="6.78658">
        <ele>1751.18</ele>
        <time>2017-08-02T08:59:09Z</time>
      </trkpt>
      <trkpt lat="45.86522" lon="6.78661">
        <ele>1751.66</ele>
        <time>2017-08-02T08:59:10Z</time>
      </trkpt>
      <trkpt lat="45.86522" lon="6.78663">
        <ele>1752.14</ele>
        <time>2017-08-02T08:59:11Z</time>
      </trkpt>
      <trkpt lat="45.86523" lon="6.78665">
        <ele>1752.62</ele>
        <time>2017-08-02T08:59:12Z</time>
      </trkpt>
      <trkpt lat="45.86523" lon="6.78667">
        <ele>1752.62</ele>
        <time>2017-08-02T08:59:13Z</time>
      </trkpt>
      <trkpt lat="45.86524" lon="6.78676">
        <ele>1754.54</ele>
        <time>2017-08-02T08:59:17Z</time>
      </trkpt>
      <trkpt lat="45.86522" lon="6.78678">
        <ele>1755.02</ele>
        <time>2017-08-02T08:59:18Z</time>
      </trkpt>
      <trkpt lat="45.86521" lon="6.7868">
        <ele>1755.02</ele>
        <time>2017-08-02T08:59:19Z</time>
      </trkpt>
      <trkpt lat="45.86522" lon="6.78683">
        <ele>1755.02</ele>
        <time>2017-08-02T08:59:20Z</time>
      </trkpt>
      <trkpt lat="45.86522" lon="6.78685">
        <ele>1755.5</ele>
        <time>2017-08-02T08:59:21Z</time>
      </trkpt>
      <trkpt lat="45.86522" lon="6.78688">
        <ele>1755.5</ele>
        <time>2017-08-02T08:59:22Z</time>
      </trkpt>
      <trkpt lat="45.86522" lon="6.78691">
        <ele>1755.5</ele>
        <time>2017-08-02T08:59:23Z</time>
      </trkpt>
      <trkpt lat="45.86522" lon="6.78693">
        <ele>1755.99</ele>
        <time>2017-08-02T08:59:24Z</time>
      </trkpt>
      <trkpt lat="45.86521" lon="6.78695">
        <ele>1755.99</ele>
        <time>2017-08-02T08:59:25Z</time>
      </trkpt>
      <trkpt lat="45.86519" lon="6.78697">
        <ele>1755.99</ele>
        <time>2017-08-02T08:59:26Z</time>
      </trkpt>
      <trkpt lat="45.8652" lon="6.787">
        <ele>1756.47</ele>
        <time>2017-08-02T08:59:27Z</time>
      </trkpt>
      <trkpt lat="45.86519" lon="6.78703">
        <ele>1756.95</ele>
        <time>2017-08-02T08:59:28Z</time>
      </trkpt>
      <trkpt lat="45.86506" lon="6.78725">
        <ele>1757.91</ele>
        <time>2017-08-02T08:59:37Z</time>
      </trkpt>
      <trkpt lat="45.86507" lon="6.78728">
        <ele>1757.91</ele>
        <time>2017-08-02T08:59:38Z</time>
      </trkpt>
      <trkpt lat="45.86506" lon="6.78731">
        <ele>1757.91</ele>
        <time>2017-08-02T08:59:39Z</time>
      </trkpt>
      <trkpt lat="45.86506" lon="6.78733">
        <ele>1757.91</ele>
        <time>2017-08-02T08:59:40Z</time>
      </trkpt>
      <trkpt lat="45.86505" lon="6.78735">
        <ele>1757.91</ele>
        <time>2017-08-02T08:59:41Z</time>
      </trkpt>
      <trkpt lat="45.86505" lon="6.78737">
        <ele>1757.91</ele>
        <time>2017-08-02T08:59:42Z</time>
      </trkpt>
      <trkpt lat="45.86504" lon="6.78738">
        <ele>1757.91</ele>
        <time>2017-08-02T08:59:43Z</time>
      </trkpt>
      <trkpt lat="45.86502" lon="6.78738">
        <ele>1757.91</ele>
        <time>2017-08-02T08:59:44Z</time>
      </trkpt>
      <trkpt lat="45.86502" lon="6.78739">
        <ele>1757.91</ele>
        <time>2017-08-02T08:59:45Z</time>
      </trkpt>
      <trkpt lat="45.86501" lon="6.7874">
        <ele>1757.91</ele>
        <time>2017-08-02T08:59:46Z</time>
      </trkpt>
      <trkpt lat="45.865" lon="6.78742">
        <ele>1757.91</ele>
        <time>2017-08-02T08:59:48Z</time>
      </trkpt>
      <trkpt lat="45.86498" lon="6.78746">
        <ele>1758.39</ele>
        <time>2017-08-02T08:59:50Z</time>
      </trkpt>
      <trkpt lat="45.86497" lon="6.78747">
        <ele>1758.39</ele>
        <time>2017-08-02T08:59:51Z</time>
      </trkpt>
      <trkpt lat="45.86497" lon="6.78749">
        <ele>1758.39</ele>
        <time>2017-08-02T08:59:52Z</time>
      </trkpt>
      <trkpt lat="45.86496" lon="6.7875">
        <ele>1758.39</ele>
        <time>2017-08-02T08:59:53Z</time>
      </trkpt>
      <trkpt lat="45.86496" lon="6.78751">
        <ele>1758.39</ele>
        <time>2017-08-02T08:59:54Z</time>
      </trkpt>
      <trkpt lat="45.86496" lon="6.78752">
        <ele>1758.39</ele>
        <time>2017-08-02T08:59:55Z</time>
      </trkpt>
      <trkpt lat="45.86496" lon="6.78753">
        <ele>1758.39</ele>
        <time>2017-08-02T08:59:56Z</time>
      </trkpt>
      <trkpt lat="45.86493" lon="6.78754">
        <ele>1758.87</ele>
        <time>2017-08-02T08:59:59Z</time>
      </trkpt>
      <trkpt lat="45.86493" lon="6.78754">
        <ele>1758.87</ele>
        <time>2017-08-02T09:00:02Z</time>
      </trkpt>
      <trkpt lat="45.8649" lon="6.78752">
        <ele>1757.91</ele>
        <time>2017-08-02T09:00:06Z</time>
      </trkpt>
      <trkpt lat="45.86491" lon="6.78753">
        <ele>1757.91</ele>
        <time>2017-08-02T09:00:08Z</time>
      </trkpt>
      <trkpt lat="45.86491" lon="6.78752">
        <ele>1757.91</ele>
        <time>2017-08-02T09:00:12Z</time>
      </trkpt>
      <trkpt lat="45.86491" lon="6.78752">
        <ele>1757.91</ele>
        <time>2017-08-02T09:00:14Z</time>
      </trkpt>
      <trkpt lat="45.86492" lon="6.78752">
        <ele>1757.43</ele>
        <time>2017-08-02T09:00:16Z</time>
      </trkpt>
      <trkpt lat="45.86492" lon="6.78753">
        <ele>1757.43</ele>
        <time>2017-08-02T09:00:18Z</time>
      </trkpt>
      <trkpt lat="45.86493" lon="6.78754">
        <ele>1757.43</ele>
        <time>2017-08-02T09:00:20Z</time>
      </trkpt>
      <trkpt lat="45.86493" lon="6.78754">
        <ele>1757.91</ele>
        <time>2017-08-02T09:00:22Z</time>
      </trkpt>
      <trkpt lat="45.86493" lon="6.78754">
        <ele>1757.91</ele>
        <time>2017-08-02T09:00:25Z</time>
      </trkpt>
      <trkpt lat="45.86493" lon="6.78754">
        <ele>1757.91</ele>
        <time>2017-08-02T09:00:30Z</time>
      </trkpt>
      <trkpt lat="45.8649" lon="6.78753">
        <ele>1757.91</ele>
        <time>2017-08-02T09:00:34Z</time>
      </trkpt>
      <trkpt lat="45.8649" lon="6.78754">
        <ele>1757.43</ele>
        <time>2017-08-02T09:00:40Z</time>
      </trkpt>
      <trkpt lat="45.86491" lon="6.78753">
        <ele>1757.43</ele>
        <time>2017-08-02T09:00:48Z</time>
      </trkpt>
      <trkpt lat="45.86492" lon="6.78752">
        <ele>1757.43</ele>
        <time>2017-08-02T09:00:51Z</time>
      </trkpt>
      <trkpt lat="45.86492" lon="6.78752">
        <ele>1757.43</ele>
        <time>2017-08-02T09:00:53Z</time>
      </trkpt>
      <trkpt lat="45.86492" lon="6.78751">
        <ele>1757.43</ele>
        <time>2017-08-02T09:01:01Z</time>
      </trkpt>
      <trkpt lat="45.86489" lon="6.78754">
        <ele>1757.43</ele>
        <time>2017-08-02T09:01:21Z</time>
      </trkpt>
      <trkpt lat="45.86491" lon="6.78754">
        <ele>1757.43</ele>
        <time>2017-08-02T09:01:31Z</time>
      </trkpt>
      <trkpt lat="45.8649" lon="6.78753">
        <ele>1757.43</ele>
        <time>2017-08-02T09:01:51Z</time>
      </trkpt>
      <trkpt lat="45.86488" lon="6.78752">
        <ele>1757.43</ele>
        <time>2017-08-02T09:02:06Z</time>
      </trkpt>
      <trkpt lat="45.86487" lon="6.78752">
        <ele>1757.43</ele>
        <time>2017-08-02T09:02:18Z</time>
      </trkpt>
      <trkpt lat="45.86488" lon="6.78752">
        <ele>1757.43</ele>
        <time>2017-08-02T09:02:31Z</time>
      </trkpt>
      <trkpt lat="45.86488" lon="6.78752">
        <ele>1757.43</ele>
        <time>2017-08-02T09:02:46Z</time>
      </trkpt>
      <trkpt lat="45.86487" lon="6.78754">
        <ele>1757.43</ele>
        <time>2017-08-02T09:02:58Z</time>
      </trkpt>
      <trkpt lat="45.86488" lon="6.78753">
        <ele>1756.95</ele>
        <time>2017-08-02T09:03:15Z</time>
      </trkpt>
      <trkpt lat="45.86488" lon="6.78754">
        <ele>1757.43</ele>
        <time>2017-08-02T09:04:00Z</time>
      </trkpt>
      <trkpt lat="45.86488" lon="6.78753">
        <ele>1757.43</ele>
        <time>2017-08-02T09:04:03Z</time>
      </trkpt>
      <trkpt lat="45.86489" lon="6.78754">
        <ele>1757.43</ele>
        <time>2017-08-02T09:04:12Z</time>
      </trkpt>
      <trkpt lat="45.8649" lon="6.78754">
        <ele>1757.43</ele>
        <time>2017-08-02T09:04:18Z</time>
      </trkpt>
      <trkpt lat="45.86489" lon="6.78753">
        <ele>1756.95</ele>
        <time>2017-08-02T09:04:33Z</time>
      </trkpt>
      <trkpt lat="45.86491" lon="6.78754">
        <ele>1756.95</ele>
        <time>2017-08-02T09:05:21Z</time>
      </trkpt>
      <trkpt lat="45.86491" lon="6.78754">
        <ele>1756.95</ele>
        <time>2017-08-02T09:05:42Z</time>
      </trkpt>
      <trkpt lat="45.8649" lon="6.78754">
        <ele>1756.95</ele>
        <time>2017-08-02T09:05:54Z</time>
      </trkpt>
      <trkpt lat="45.8649" lon="6.78754">
        <ele>1756.95</ele>
        <time>2017-08-02T09:05:58Z</time>
      </trkpt>
      <trkpt lat="45.86486" lon="6.78754">
        <ele>1757.91</ele>
        <time>2017-08-02T09:06:06Z</time>
      </trkpt>
      <trkpt lat="45.86484" lon="6.78752">
        <ele>1757.43</ele>
        <time>2017-08-02T09:06:08Z</time>
      </trkpt>
      <trkpt lat="45.86484" lon="6.78751">
        <ele>1757.43</ele>
        <time>2017-08-02T09:06:09Z</time>
      </trkpt>
      <trkpt lat="45.86483" lon="6.7875">
        <ele>1757.43</ele>
        <time>2017-08-02T09:06:10Z</time>
      </trkpt>
      <trkpt lat="45.86482" lon="6.78749">
        <ele>1757.43</ele>
        <time>2017-08-02T09:06:11Z</time>
      </trkpt>
      <trkpt lat="45.86481" lon="6.78748">
        <ele>1757.43</ele>
        <time>2017-08-02T09:06:12Z</time>
      </trkpt>
      <trkpt lat="45.8648" lon="6.78746">
        <ele>1757.43</ele>
        <time>2017-08-02T09:06:15Z</time>
      </trkpt>
      <trkpt lat="45.86477" lon="6.78743">
        <ele>1757.91</ele>
        <time>2017-08-02T09:06:19Z</time>
      </trkpt>
      <trkpt lat="45.86473" lon="6.78739">
        <ele>1758.87</ele>
        <time>2017-08-02T09:06:23Z</time>
      </trkpt>
      <trkpt lat="45.86469" lon="6.78735">
        <ele>1759.35</ele>
        <time>2017-08-02T09:06:27Z</time>
      </trkpt>
      <trkpt lat="45.86467" lon="6.78733">
        <ele>1759.35</ele>
        <time>2017-08-02T09:06:29Z</time>
      </trkpt>
      <trkpt lat="45.86466" lon="6.78732">
        <ele>1759.35</ele>
        <time>2017-08-02T09:06:30Z</time>
      </trkpt>
      <trkpt lat="45.86466" lon="6.7873">
        <ele>1759.35</ele>
        <time>2017-08-02T09:06:31Z</time>
      </trkpt>
      <trkpt lat="45.86465" lon="6.78729">
        <ele>1759.83</ele>
        <time>2017-08-02T09:06:32Z</time>
      </trkpt>
      <trkpt lat="45.86464" lon="6.78728">
        <ele>1759.83</ele>
        <time>2017-08-02T09:06:33Z</time>
      </trkpt>
      <trkpt lat="45.86463" lon="6.78727">
        <ele>1759.83</ele>
        <time>2017-08-02T09:06:34Z</time>
      </trkpt>
      <trkpt lat="45.86462" lon="6.78726">
        <ele>1759.83</ele>
        <time>2017-08-02T09:06:35Z</time>
      </trkpt>
      <trkpt lat="45.86461" lon="6.78725">
        <ele>1760.31</ele>
        <time>2017-08-02T09:06:36Z</time>
      </trkpt>
      <trkpt lat="45.86459" lon="6.78724">
        <ele>1759.83</ele>
        <time>2017-08-02T09:06:37Z</time>
      </trkpt>
      <trkpt lat="45.86458" lon="6.78723">
        <ele>1759.83</ele>
        <time>2017-08-02T09:06:38Z</time>
      </trkpt>
      <trkpt lat="45.86457" lon="6.78722">
        <ele>1759.35</ele>
        <time>2017-08-02T09:06:39Z</time>
      </trkpt>
      <trkpt lat="45.86454" lon="6.78717">
        <ele>1759.35</ele>
        <time>2017-08-02T09:06:44Z</time>
      </trkpt>
      <trkpt lat="45.86454" lon="6.78716">
        <ele>1759.83</ele>
        <time>2017-08-02T09:06:45Z</time>
      </trkpt>
      <trkpt lat="45.86453" lon="6.78716">
        <ele>1759.83</ele>
        <time>2017-08-02T09:06:46Z</time>
      </trkpt>
      <trkpt lat="45.86452" lon="6.78715">
        <ele>1759.83</ele>
        <time>2017-08-02T09:06:47Z</time>
      </trkpt>
      <trkpt lat="45.86451" lon="6.78715">
        <ele>1760.31</ele>
        <time>2017-08-02T09:06:48Z</time>
      </trkpt>
      <trkpt lat="45.8645" lon="6.78714">
        <ele>1760.31</ele>
        <time>2017-08-02T09:06:49Z</time>
      </trkpt>
      <trkpt lat="45.86441" lon="6.78701">
        <ele>1763.2</ele>
        <time>2017-08-02T09:07:01Z</time>
      </trkpt>
      <trkpt lat="45.86435" lon="6.78697">
        <ele>1763.68</ele>
        <time>2017-08-02T09:07:05Z</time>
      </trkpt>
      <trkpt lat="45.86425" lon="6.78694">
        <ele>1763.2</ele>
        <time>2017-08-02T09:07:09Z</time>
      </trkpt>
      <trkpt lat="45.86423" lon="6.78693">
        <ele>1763.2</ele>
        <time>2017-08-02T09:07:10Z</time>
      </trkpt>
      <trkpt lat="45.86421" lon="6.78692">
        <ele>1763.2</ele>
        <time>2017-08-02T09:07:11Z</time>
      </trkpt>
      <trkpt lat="45.86419" lon="6.7869">
        <ele>1763.2</ele>
        <time>2017-08-02T09:07:12Z</time>
      </trkpt>
      <trkpt lat="45.86417" lon="6.78688">
        <ele>1763.68</ele>
        <time>2017-08-02T09:07:13Z</time>
      </trkpt>
      <trkpt lat="45.86416" lon="6.78686">
        <ele>1763.68</ele>
        <time>2017-08-02T09:07:14Z</time>
      </trkpt>
      <trkpt lat="45.86414" lon="6.78684">
        <ele>1764.16</ele>
        <time>2017-08-02T09:07:15Z</time>
      </trkpt>
      <trkpt lat="45.86411" lon="6.78677">
        <ele>1765.6</ele>
        <time>2017-08-02T09:07:18Z</time>
      </trkpt>
      <trkpt lat="45.8641" lon="6.78675">
        <ele>1765.6</ele>
        <time>2017-08-02T09:07:19Z</time>
      </trkpt>
      <trkpt lat="45.86409" lon="6.78667">
        <ele>1767.04</ele>
        <time>2017-08-02T09:07:23Z</time>
      </trkpt>
      <trkpt lat="45.86408" lon="6.78664">
        <ele>1768</ele>
        <time>2017-08-02T09:07:25Z</time>
      </trkpt>
      <trkpt lat="45.86408" lon="6.78662">
        <ele>1768.48</ele>
        <time>2017-08-02T09:07:26Z</time>
      </trkpt>
      <trkpt lat="45.86407" lon="6.7866">
        <ele>1768.48</ele>
        <time>2017-08-02T09:07:27Z</time>
      </trkpt>
      <trkpt lat="45.86405" lon="6.78659">
        <ele>1768.48</ele>
        <time>2017-08-02T09:07:28Z</time>
      </trkpt>
      <trkpt lat="45.86402" lon="6.78658">
        <ele>1768</ele>
        <time>2017-08-02T09:07:29Z</time>
      </trkpt>
      <trkpt lat="45.864" lon="6.78655">
        <ele>1767.52</ele>
        <time>2017-08-02T09:07:30Z</time>
      </trkpt>
      <trkpt lat="45.86398" lon="6.78652">
        <ele>1767.04</ele>
        <time>2017-08-02T09:07:31Z</time>
      </trkpt>
      <trkpt lat="45.86396" lon="6.7865">
        <ele>1766.56</ele>
        <time>2017-08-02T09:07:32Z</time>
      </trkpt>
      <trkpt lat="45.86395" lon="6.78648">
        <ele>1766.56</ele>
        <time>2017-08-02T09:07:33Z</time>
      </trkpt>
      <trkpt lat="45.86394" lon="6.78646">
        <ele>1766.56</ele>
        <time>2017-08-02T09:07:34Z</time>
      </trkpt>
      <trkpt lat="45.86393" lon="6.78645">
        <ele>1767.04</ele>
        <time>2017-08-02T09:07:35Z</time>
      </trkpt>
      <trkpt lat="45.86392" lon="6.78643">
        <ele>1767.04</ele>
        <time>2017-08-02T09:07:36Z</time>
      </trkpt>
      <trkpt lat="45.86392" lon="6.78641">
        <ele>1767.04</ele>
        <time>2017-08-02T09:07:37Z</time>
      </trkpt>
      <trkpt lat="45.86391" lon="6.78639">
        <ele>1766.56</ele>
        <time>2017-08-02T09:07:38Z</time>
      </trkpt>
      <trkpt lat="45.86389" lon="6.78638">
        <ele>1767.04</ele>
        <time>2017-08-02T09:07:39Z</time>
      </trkpt>
      <trkpt lat="45.86387" lon="6.78636">
        <ele>1767.04</ele>
        <time>2017-08-02T09:07:40Z</time>
      </trkpt>
      <trkpt lat="45.86379" lon="6.78628">
        <ele>1767.04</ele>
        <time>2017-08-02T09:07:45Z</time>
      </trkpt>
      <trkpt lat="45.86375" lon="6.78624">
        <ele>1765.6</ele>
        <time>2017-08-02T09:07:51Z</time>
      </trkpt>
      <trkpt lat="45.86374" lon="6.78622">
        <ele>1765.6</ele>
        <time>2017-08-02T09:07:52Z</time>
      </trkpt>
      <trkpt lat="45.86372" lon="6.78619">
        <ele>1763.2</ele>
        <time>2017-08-02T09:07:56Z</time>
      </trkpt>
      <trkpt lat="45.86371" lon="6.78619">
        <ele>1762.71</ele>
        <time>2017-08-02T09:07:57Z</time>
      </trkpt>
      <trkpt lat="45.86369" lon="6.78618">
        <ele>1762.23</ele>
        <time>2017-08-02T09:07:58Z</time>
      </trkpt>
      <trkpt lat="45.86367" lon="6.78615">
        <ele>1760.79</ele>
        <time>2017-08-02T09:08:01Z</time>
      </trkpt>
      <trkpt lat="45.86367" lon="6.78614">
        <ele>1760.31</ele>
        <time>2017-08-02T09:08:02Z</time>
      </trkpt>
      <trkpt lat="45.86366" lon="6.78608">
        <ele>1756.95</ele>
        <time>2017-08-02T09:08:11Z</time>
      </trkpt>
      <trkpt lat="45.86367" lon="6.78606">
        <ele>1756.47</ele>
        <time>2017-08-02T09:08:12Z</time>
      </trkpt>
      <trkpt lat="45.86368" lon="6.78604">
        <ele>1755.5</ele>
        <time>2017-08-02T09:08:14Z</time>
      </trkpt>
      <trkpt lat="45.86371" lon="6.78591">
        <ele>1751.66</ele>
        <time>2017-08-02T09:08:20Z</time>
      </trkpt>
      <trkpt lat="45.86371" lon="6.78589">
        <ele>1751.18</ele>
        <time>2017-08-02T09:08:21Z</time>
      </trkpt>
      <trkpt lat="45.8637" lon="6.78589">
        <ele>1750.7</ele>
        <time>2017-08-02T09:08:22Z</time>
      </trkpt>
      <trkpt lat="45.86369" lon="6.78588">
        <ele>1750.22</ele>
        <time>2017-08-02T09:08:23Z</time>
      </trkpt>
      <trkpt lat="45.86367" lon="6.78587">
        <ele>1750.22</ele>
        <time>2017-08-02T09:08:24Z</time>
      </trkpt>
      <trkpt lat="45.86365" lon="6.78587">
        <ele>1749.26</ele>
        <time>2017-08-02T09:08:25Z</time>
      </trkpt>
      <trkpt lat="45.86363" lon="6.78588">
        <ele>1748.29</ele>
        <time>2017-08-02T09:08:26Z</time>
      </trkpt>
      <trkpt lat="45.86362" lon="6.78586">
        <ele>1747.81</ele>
        <time>2017-08-02T09:08:27Z</time>
      </trkpt>
      <trkpt lat="45.86363" lon="6.78583">
        <ele>1747.33</ele>
        <time>2017-08-02T09:08:28Z</time>
      </trkpt>
      <trkpt lat="45.86364" lon="6.7858">
        <ele>1746.37</ele>
        <time>2017-08-02T09:08:29Z</time>
      </trkpt>
      <trkpt lat="45.86366" lon="6.78578">
        <ele>1745.41</ele>
        <time>2017-08-02T09:08:30Z</time>
      </trkpt>
      <trkpt lat="45.86367" lon="6.78575">
        <ele>1744.93</ele>
        <time>2017-08-02T09:08:31Z</time>
      </trkpt>
      <trkpt lat="45.86375" lon="6.78559">
        <ele>1741.57</ele>
        <time>2017-08-02T09:08:36Z</time>
      </trkpt>
      <trkpt lat="45.86379" lon="6.78541">
        <ele>1741.57</ele>
        <time>2017-08-02T09:08:42Z</time>
      </trkpt>
      <trkpt lat="45.86379" lon="6.78538">
        <ele>1741.57</ele>
        <time>2017-08-02T09:08:43Z</time>
      </trkpt>
      <trkpt lat="45.86378" lon="6.78536">
        <ele>1741.57</ele>
        <time>2017-08-02T09:08:44Z</time>
      </trkpt>
      <trkpt lat="45.86377" lon="6.78534">
        <ele>1741.08</ele>
        <time>2017-08-02T09:08:45Z</time>
      </trkpt>
      <trkpt lat="45.86377" lon="6.78531">
        <ele>1740.6</ele>
        <time>2017-08-02T09:08:46Z</time>
      </trkpt>
      <trkpt lat="45.86377" lon="6.78528">
        <ele>1740.12</ele>
        <time>2017-08-02T09:08:47Z</time>
      </trkpt>
      <trkpt lat="45.86377" lon="6.78525">
        <ele>1740.12</ele>
        <time>2017-08-02T09:08:48Z</time>
      </trkpt>
      <trkpt lat="45.86377" lon="6.78522">
        <ele>1739.64</ele>
        <time>2017-08-02T09:08:49Z</time>
      </trkpt>
      <trkpt lat="45.86377" lon="6.7852">
        <ele>1739.16</ele>
        <time>2017-08-02T09:08:50Z</time>
      </trkpt>
      <trkpt lat="45.86377" lon="6.78518">
        <ele>1738.68</ele>
        <time>2017-08-02T09:08:51Z</time>
      </trkpt>
      <trkpt lat="45.86377" lon="6.78516">
        <ele>1738.2</ele>
        <time>2017-08-02T09:08:52Z</time>
      </trkpt>
      <trkpt lat="45.86378" lon="6.78514">
        <ele>1737.24</ele>
        <time>2017-08-02T09:08:53Z</time>
      </trkpt>
      <trkpt lat="45.86378" lon="6.78512">
        <ele>1737.24</ele>
        <time>2017-08-02T09:08:54Z</time>
      </trkpt>
      <trkpt lat="45.86377" lon="6.78511">
        <ele>1736.28</ele>
        <time>2017-08-02T09:08:55Z</time>
      </trkpt>
      <trkpt lat="45.86375" lon="6.78509">
        <ele>1735.8</ele>
        <time>2017-08-02T09:08:56Z</time>
      </trkpt>
      <trkpt lat="45.86372" lon="6.78507">
        <ele>1735.8</ele>
        <time>2017-08-02T09:08:57Z</time>
      </trkpt>
      <trkpt lat="45.8637" lon="6.78505">
        <ele>1735.32</ele>
        <time>2017-08-02T09:08:58Z</time>
      </trkpt>
      <trkpt lat="45.86369" lon="6.78503">
        <ele>1734.84</ele>
        <time>2017-08-02T09:08:59Z</time>
      </trkpt>
      <trkpt lat="45.86367" lon="6.78501">
        <ele>1734.36</ele>
        <time>2017-08-02T09:09:00Z</time>
      </trkpt>
      <trkpt lat="45.86365" lon="6.785">
        <ele>1734.36</ele>
        <time>2017-08-02T09:09:01Z</time>
      </trkpt>
      <trkpt lat="45.86363" lon="6.78499">
        <ele>1734.36</ele>
        <time>2017-08-02T09:09:02Z</time>
      </trkpt>
      <trkpt lat="45.86361" lon="6.78497">
        <ele>1733.88</ele>
        <time>2017-08-02T09:09:03Z</time>
      </trkpt>
      <trkpt lat="45.86359" lon="6.78496">
        <ele>1733.39</ele>
        <time>2017-08-02T09:09:04Z</time>
      </trkpt>
      <trkpt lat="45.86353" lon="6.7849">
        <ele>1730.51</ele>
        <time>2017-08-02T09:09:09Z</time>
      </trkpt>
      <trkpt lat="45.86351" lon="6.78485">
        <ele>1727.63</ele>
        <time>2017-08-02T09:09:14Z</time>
      </trkpt>
      <trkpt lat="45.86346" lon="6.78477">
        <ele>1724.26</ele>
        <time>2017-08-02T09:09:21Z</time>
      </trkpt>
      <trkpt lat="45.86346" lon="6.78476">
        <ele>1723.78</ele>
        <time>2017-08-02T09:09:22Z</time>
      </trkpt>
      <trkpt lat="45.86347" lon="6.78475">
        <ele>1723.3</ele>
        <time>2017-08-02T09:09:23Z</time>
      </trkpt>
      <trkpt lat="45.86348" lon="6.78474">
        <ele>1722.82</ele>
        <time>2017-08-02T09:09:24Z</time>
      </trkpt>
      <trkpt lat="45.86349" lon="6.78472">
        <ele>1722.82</ele>
        <time>2017-08-02T09:09:25Z</time>
      </trkpt>
      <trkpt lat="45.86351" lon="6.78471">
        <ele>1721.86</ele>
        <time>2017-08-02T09:09:26Z</time>
      </trkpt>
      <trkpt lat="45.86353" lon="6.7847">
        <ele>1721.38</ele>
        <time>2017-08-02T09:09:27Z</time>
      </trkpt>
      <trkpt lat="45.86355" lon="6.78468">
        <ele>1720.9</ele>
        <time>2017-08-02T09:09:28Z</time>
      </trkpt>
      <trkpt lat="45.86355" lon="6.78466">
        <ele>1720.42</ele>
        <time>2017-08-02T09:09:29Z</time>
      </trkpt>
      <trkpt lat="45.86354" lon="6.78463">
        <ele>1719.94</ele>
        <time>2017-08-02T09:09:30Z</time>
      </trkpt>
      <trkpt lat="45.86354" lon="6.7846">
        <ele>1718.97</ele>
        <time>2017-08-02T09:09:31Z</time>
      </trkpt>
      <trkpt lat="45.86355" lon="6.78455">
        <ele>1718.49</ele>
        <time>2017-08-02T09:09:32Z</time>
      </trkpt>
      <trkpt lat="45.86356" lon="6.78452">
        <ele>1718.01</ele>
        <time>2017-08-02T09:09:33Z</time>
      </trkpt>
      <trkpt lat="45.86356" lon="6.78449">
        <ele>1718.01</ele>
        <time>2017-08-02T09:09:34Z</time>
      </trkpt>
      <trkpt lat="45.86355" lon="6.78445">
        <ele>1718.01</ele>
        <time>2017-08-02T09:09:35Z</time>
      </trkpt>
      <trkpt lat="45.86355" lon="6.78441">
        <ele>1718.01</ele>
        <time>2017-08-02T09:09:36Z</time>
      </trkpt>
      <trkpt lat="45.86355" lon="6.78438">
        <ele>1717.05</ele>
        <time>2017-08-02T09:09:37Z</time>
      </trkpt>
      <trkpt lat="45.86355" lon="6.78435">
        <ele>1716.57</ele>
        <time>2017-08-02T09:09:38Z</time>
      </trkpt>
      <trkpt lat="45.86356" lon="6.78433">
        <ele>1716.57</ele>
        <time>2017-08-02T09:09:39Z</time>
      </trkpt>
      <trkpt lat="45.86356" lon="6.78431">
        <ele>1716.09</ele>
        <time>2017-08-02T09:09:40Z</time>
      </trkpt>
      <trkpt lat="45.86355" lon="6.78429">
        <ele>1715.61</ele>
        <time>2017-08-02T09:09:41Z</time>
      </trkpt>
      <trkpt lat="45.86355" lon="6.78427">
        <ele>1715.13</ele>
        <time>2017-08-02T09:09:42Z</time>
      </trkpt>
      <trkpt lat="45.86355" lon="6.78426">
        <ele>1714.17</ele>
        <time>2017-08-02T09:09:43Z</time>
      </trkpt>
      <trkpt lat="45.86354" lon="6.78423">
        <ele>1714.17</ele>
        <time>2017-08-02T09:09:44Z</time>
      </trkpt>
      <trkpt lat="45.86353" lon="6.78421">
        <ele>1713.69</ele>
        <time>2017-08-02T09:09:45Z</time>
      </trkpt>
      <trkpt lat="45.86352" lon="6.78419">
        <ele>1713.21</ele>
        <time>2017-08-02T09:09:46Z</time>
      </trkpt>
      <trkpt lat="45.86352" lon="6.78417">
        <ele>1712.73</ele>
        <time>2017-08-02T09:09:47Z</time>
      </trkpt>
      <trkpt lat="45.86347" lon="6.78402">
        <ele>1710.32</ele>
        <time>2017-08-02T09:09:52Z</time>
      </trkpt>
      <trkpt lat="45.86346" lon="6.78401">
        <ele>1709.84</ele>
        <time>2017-08-02T09:09:53Z</time>
      </trkpt>
      <trkpt lat="45.86345" lon="6.78398">
        <ele>1708.88</ele>
        <time>2017-08-02T09:09:54Z</time>
      </trkpt>
      <trkpt lat="45.86344" lon="6.78394">
        <ele>1708.4</ele>
        <time>2017-08-02T09:09:55Z</time>
      </trkpt>
      <trkpt lat="45.86345" lon="6.78391">
        <ele>1707.92</ele>
        <time>2017-08-02T09:09:56Z</time>
      </trkpt>
      <trkpt lat="45.86345" lon="6.78388">
        <ele>1707.44</ele>
        <time>2017-08-02T09:09:57Z</time>
      </trkpt>
      <trkpt lat="45.86348" lon="6.78371">
        <ele>1705.52</ele>
        <time>2017-08-02T09:10:02Z</time>
      </trkpt>
      <trkpt lat="45.86347" lon="6.78368">
        <ele>1705.04</ele>
        <time>2017-08-02T09:10:03Z</time>
      </trkpt>
      <trkpt lat="45.86346" lon="6.78361">
        <ele>1703.59</ele>
        <time>2017-08-02T09:10:05Z</time>
      </trkpt>
      <trkpt lat="45.86347" lon="6.78359">
        <ele>1703.59</ele>
        <time>2017-08-02T09:10:06Z</time>
      </trkpt>
      <trkpt lat="45.86346" lon="6.78356">
        <ele>1703.11</ele>
        <time>2017-08-02T09:10:07Z</time>
      </trkpt>
      <trkpt lat="45.86344" lon="6.78353">
        <ele>1702.63</ele>
        <time>2017-08-02T09:10:08Z</time>
      </trkpt>
      <trkpt lat="45.86344" lon="6.78351">
        <ele>1702.15</ele>
        <time>2017-08-02T09:10:09Z</time>
      </trkpt>
      <trkpt lat="45.86341" lon="6.7835">
        <ele>1700.71</ele>
        <time>2017-08-02T09:10:11Z</time>
      </trkpt>
      <trkpt lat="45.8634" lon="6.78351">
        <ele>1700.23</ele>
        <time>2017-08-02T09:10:12Z</time>
      </trkpt>
      <trkpt lat="45.86339" lon="6.78351">
        <ele>1699.75</ele>
        <time>2017-08-02T09:10:13Z</time>
      </trkpt>
      <trkpt lat="45.86339" lon="6.7835">
        <ele>1699.27</ele>
        <time>2017-08-02T09:10:14Z</time>
      </trkpt>
      <trkpt lat="45.86336" lon="6.78349">
        <ele>1698.79</ele>
        <time>2017-08-02T09:10:15Z</time>
      </trkpt>
      <trkpt lat="45.86336" lon="6.78349">
        <ele>1698.79</ele>
        <time>2017-08-02T09:10:16Z</time>
      </trkpt>
      <trkpt lat="45.86334" lon="6.78349">
        <ele>1697.83</ele>
        <time>2017-08-02T09:10:17Z</time>
      </trkpt>
      <trkpt lat="45.86333" lon="6.7835">
        <ele>1697.34</ele>
        <time>2017-08-02T09:10:18Z</time>
      </trkpt>
      <trkpt lat="45.86333" lon="6.7835">
        <ele>1697.34</ele>
        <time>2017-08-02T09:10:19Z</time>
      </trkpt>
      <trkpt lat="45.86332" lon="6.7835">
        <ele>1697.34</ele>
        <time>2017-08-02T09:10:20Z</time>
      </trkpt>
      <trkpt lat="45.86331" lon="6.78349">
        <ele>1696.86</ele>
        <time>2017-08-02T09:10:21Z</time>
      </trkpt>
      <trkpt lat="45.86331" lon="6.78349">
        <ele>1696.38</ele>
        <time>2017-08-02T09:10:22Z</time>
      </trkpt>
      <trkpt lat="45.86329" lon="6.78349">
        <ele>1695.9</ele>
        <time>2017-08-02T09:10:24Z</time>
      </trkpt>
      <trkpt lat="45.86328" lon="6.7835">
        <ele>1695.9</ele>
        <time>2017-08-02T09:10:25Z</time>
      </trkpt>
      <trkpt lat="45.86325" lon="6.7835">
        <ele>1695.42</ele>
        <time>2017-08-02T09:10:26Z</time>
      </trkpt>
      <trkpt lat="45.86325" lon="6.78351">
        <ele>1695.42</ele>
        <time>2017-08-02T09:10:27Z</time>
      </trkpt>
      <trkpt lat="45.86324" lon="6.78351">
        <ele>1694.94</ele>
        <time>2017-08-02T09:10:28Z</time>
      </trkpt>
      <trkpt lat="45.86323" lon="6.78351">
        <ele>1694.46</ele>
        <time>2017-08-02T09:10:29Z</time>
      </trkpt>
      <trkpt lat="45.8632" lon="6.78349">
        <ele>1693.98</ele>
        <time>2017-08-02T09:10:30Z</time>
      </trkpt>
      <trkpt lat="45.86318" lon="6.78348">
        <ele>1693.98</ele>
        <time>2017-08-02T09:10:31Z</time>
      </trkpt>
      <trkpt lat="45.86317" lon="6.78347">
        <ele>1693.98</ele>
        <time>2017-08-02T09:10:32Z</time>
      </trkpt>
      <trkpt lat="45.86314" lon="6.78346">
        <ele>1693.5</ele>
        <time>2017-08-02T09:10:33Z</time>
      </trkpt>
      <trkpt lat="45.86312" lon="6.78345">
        <ele>1693.02</ele>
        <time>2017-08-02T09:10:34Z</time>
      </trkpt>
      <trkpt lat="45.8631" lon="6.78344">
        <ele>1693.02</ele>
        <time>2017-08-02T09:10:35Z</time>
      </trkpt>
      <trkpt lat="45.86309" lon="6.78343">
        <ele>1692.54</ele>
        <time>2017-08-02T09:10:36Z</time>
      </trkpt>
      <trkpt lat="45.86306" lon="6.78342">
        <ele>1692.06</ele>
        <time>2017-08-02T09:10:39Z</time>
      </trkpt>
      <trkpt lat="45.86306" lon="6.78343">
        <ele>1692.06</ele>
        <time>2017-08-02T09:10:40Z</time>
      </trkpt>
      <trkpt lat="45.86305" lon="6.78342">
        <ele>1691.58</ele>
        <time>2017-08-02T09:10:41Z</time>
      </trkpt>
      <trkpt lat="45.86303" lon="6.78342">
        <ele>1691.58</ele>
        <time>2017-08-02T09:10:42Z</time>
      </trkpt>
      <trkpt lat="45.86302" lon="6.78341">
        <ele>1691.1</ele>
        <time>2017-08-02T09:10:43Z</time>
      </trkpt>
      <trkpt lat="45.863" lon="6.78341">
        <ele>1690.62</ele>
        <time>2017-08-02T09:10:44Z</time>
      </trkpt>
      <trkpt lat="45.86299" lon="6.7834">
        <ele>1690.62</ele>
        <time>2017-08-02T09:10:45Z</time>
      </trkpt>
      <trkpt lat="45.86299" lon="6.78338">
        <ele>1689.17</ele>
        <time>2017-08-02T09:10:52Z</time>
      </trkpt>
      <trkpt lat="45.86299" lon="6.78335">
        <ele>1687.73</ele>
        <time>2017-08-02T09:10:55Z</time>
      </trkpt>
      <trkpt lat="45.86299" lon="6.78333">
        <ele>1687.25</ele>
        <time>2017-08-02T09:10:56Z</time>
      </trkpt>
      <trkpt lat="45.86297" lon="6.78323">
        <ele>1685.33</ele>
        <time>2017-08-02T09:11:02Z</time>
      </trkpt>
      <trkpt lat="45.86298" lon="6.78321">
        <ele>1684.85</ele>
        <time>2017-08-02T09:11:03Z</time>
      </trkpt>
      <trkpt lat="45.86298" lon="6.78319">
        <ele>1684.37</ele>
        <time>2017-08-02T09:11:04Z</time>
      </trkpt>
      <trkpt lat="45.86299" lon="6.78318">
        <ele>1683.89</ele>
        <time>2017-08-02T09:11:05Z</time>
      </trkpt>
      <trkpt lat="45.86297" lon="6.78316">
        <ele>1683.41</ele>
        <time>2017-08-02T09:11:06Z</time>
      </trkpt>
      <trkpt lat="45.86296" lon="6.78314">
        <ele>1682.93</ele>
        <time>2017-08-02T09:11:07Z</time>
      </trkpt>
      <trkpt lat="45.86292" lon="6.7831">
        <ele>1682.44</ele>
        <time>2017-08-02T09:11:09Z</time>
      </trkpt>
      <trkpt lat="45.8629" lon="6.78308">
        <ele>1682.44</ele>
        <time>2017-08-02T09:11:10Z</time>
      </trkpt>
      <trkpt lat="45.86288" lon="6.78306">
        <ele>1681.96</ele>
        <time>2017-08-02T09:11:11Z</time>
      </trkpt>
      <trkpt lat="45.86274" lon="6.78296">
        <ele>1682.93</ele>
        <time>2017-08-02T09:11:20Z</time>
      </trkpt>
      <trkpt lat="45.86273" lon="6.78296">
        <ele>1683.41</ele>
        <time>2017-08-02T09:11:21Z</time>
      </trkpt>
      <trkpt lat="45.86271" lon="6.78296">
        <ele>1683.89</ele>
        <time>2017-08-02T09:11:22Z</time>
      </trkpt>
      <trkpt lat="45.86268" lon="6.78294">
        <ele>1685.33</ele>
        <time>2017-08-02T09:11:25Z</time>
      </trkpt>
      <trkpt lat="45.86266" lon="6.78293">
        <ele>1685.33</ele>
        <time>2017-08-02T09:11:26Z</time>
      </trkpt>
      <trkpt lat="45.86265" lon="6.78294">
        <ele>1685.81</ele>
        <time>2017-08-02T09:11:27Z</time>
      </trkpt>
      <trkpt lat="45.86265" lon="6.78296">
        <ele>1685.81</ele>
        <time>2017-08-02T09:11:28Z</time>
      </trkpt>
      <trkpt lat="45.86264" lon="6.78297">
        <ele>1686.29</ele>
        <time>2017-08-02T09:11:29Z</time>
      </trkpt>
      <trkpt lat="45.86264" lon="6.783">
        <ele>1686.77</ele>
        <time>2017-08-02T09:11:31Z</time>
      </trkpt>
      <trkpt lat="45.86263" lon="6.78301">
        <ele>1687.73</ele>
        <time>2017-08-02T09:11:32Z</time>
      </trkpt>
      <trkpt lat="45.86262" lon="6.78302">
        <ele>1688.21</ele>
        <time>2017-08-02T09:11:33Z</time>
      </trkpt>
      <trkpt lat="45.8626" lon="6.78302">
        <ele>1688.69</ele>
        <time>2017-08-02T09:11:34Z</time>
      </trkpt>
      <trkpt lat="45.86258" lon="6.78304">
        <ele>1689.17</ele>
        <time>2017-08-02T09:11:37Z</time>
      </trkpt>
      <trkpt lat="45.86257" lon="6.78306">
        <ele>1689.65</ele>
        <time>2017-08-02T09:11:38Z</time>
      </trkpt>
      <trkpt lat="45.86256" lon="6.78307">
        <ele>1690.14</ele>
        <time>2017-08-02T09:11:39Z</time>
      </trkpt>
      <trkpt lat="45.86256" lon="6.78307">
        <ele>1691.1</ele>
        <time>2017-08-02T09:11:41Z</time>
      </trkpt>
      <trkpt lat="45.86255" lon="6.78306">
        <ele>1691.58</ele>
        <time>2017-08-02T09:11:42Z</time>
      </trkpt>
      <trkpt lat="45.86254" lon="6.78303">
        <ele>1693.02</ele>
        <time>2017-08-02T09:11:46Z</time>
      </trkpt>
      <trkpt lat="45.86252" lon="6.78303">
        <ele>1693.98</ele>
        <time>2017-08-02T09:11:48Z</time>
      </trkpt>
      <trkpt lat="45.8625" lon="6.78303">
        <ele>1695.42</ele>
        <time>2017-08-02T09:11:51Z</time>
      </trkpt>
      <trkpt lat="45.86247" lon="6.78303">
        <ele>1695.9</ele>
        <time>2017-08-02T09:11:54Z</time>
      </trkpt>
      <trkpt lat="45.86245" lon="6.78303">
        <ele>1695.9</ele>
        <time>2017-08-02T09:11:55Z</time>
      </trkpt>
      <trkpt lat="45.86244" lon="6.78304">
        <ele>1695.9</ele>
        <time>2017-08-02T09:11:56Z</time>
      </trkpt>
      <trkpt lat="45.86243" lon="6.78304">
        <ele>1696.38</ele>
        <time>2017-08-02T09:11:57Z</time>
      </trkpt>
      <trkpt lat="45.86241" lon="6.78304">
        <ele>1696.38</ele>
        <time>2017-08-02T09:11:58Z</time>
      </trkpt>
      <trkpt lat="45.8624" lon="6.78305">
        <ele>1696.86</ele>
        <time>2017-08-02T09:11:59Z</time>
      </trkpt>
      <trkpt lat="45.86239" lon="6.78305">
        <ele>1696.86</ele>
        <time>2017-08-02T09:12:00Z</time>
      </trkpt>
      <trkpt lat="45.86239" lon="6.78306">
        <ele>1697.34</ele>
        <time>2017-08-02T09:12:01Z</time>
      </trkpt>
      <trkpt lat="45.86238" lon="6.78307">
        <ele>1697.83</ele>
        <time>2017-08-02T09:12:02Z</time>
      </trkpt>
      <trkpt lat="45.86233" lon="6.78306">
        <ele>1699.27</ele>
        <time>2017-08-02T09:12:07Z</time>
      </trkpt>
      <trkpt lat="45.86231" lon="6.78305">
        <ele>1699.27</ele>
        <time>2017-08-02T09:12:08Z</time>
      </trkpt>
      <trkpt lat="45.86225" lon="6.78292">
        <ele>1701.67</ele>
        <time>2017-08-02T09:12:16Z</time>
      </trkpt>
      <trkpt lat="45.86224" lon="6.78291">
        <ele>1702.15</ele>
        <time>2017-08-02T09:12:17Z</time>
      </trkpt>
      <trkpt lat="45.86224" lon="6.78289">
        <ele>1702.15</ele>
        <time>2017-08-02T09:12:19Z</time>
      </trkpt>
      <trkpt lat="45.86223" lon="6.78287">
        <ele>1702.63</ele>
        <time>2017-08-02T09:12:20Z</time>
      </trkpt>
      <trkpt lat="45.86223" lon="6.78285">
        <ele>1702.63</ele>
        <time>2017-08-02T09:12:22Z</time>
      </trkpt>
      <trkpt lat="45.8622" lon="6.78282">
        <ele>1703.59</ele>
        <time>2017-08-02T09:12:26Z</time>
      </trkpt>
      <trkpt lat="45.86219" lon="6.78281">
        <ele>1703.59</ele>
        <time>2017-08-02T09:12:27Z</time>
      </trkpt>
      <trkpt lat="45.86217" lon="6.7828">
        <ele>1704.07</ele>
        <time>2017-08-02T09:12:29Z</time>
      </trkpt>
      <trkpt lat="45.86216" lon="6.7828">
        <ele>1704.07</ele>
        <time>2017-08-02T09:12:30Z</time>
      </trkpt>
      <trkpt lat="45.86217" lon="6.78283">
        <ele>1705.52</ele>
        <time>2017-08-02T09:12:34Z</time>
      </trkpt>
      <trkpt lat="45.86216" lon="6.78284">
        <ele>1706</ele>
        <time>2017-08-02T09:12:35Z</time>
      </trkpt>
      <trkpt lat="45.86212" lon="6.78287">
        <ele>1708.88</ele>
        <time>2017-08-02T09:12:48Z</time>
      </trkpt>
      <trkpt lat="45.86208" lon="6.78287">
        <ele>1709.84</ele>
        <time>2017-08-02T09:12:52Z</time>
      </trkpt>
      <trkpt lat="45.86207" lon="6.78287">
        <ele>1709.84</ele>
        <time>2017-08-02T09:12:53Z</time>
      </trkpt>
      <trkpt lat="45.86208" lon="6.78288">
        <ele>1710.32</ele>
        <time>2017-08-02T09:12:54Z</time>
      </trkpt>
      <trkpt lat="45.86207" lon="6.78291">
        <ele>1710.8</ele>
        <time>2017-08-02T09:12:57Z</time>
      </trkpt>
      <trkpt lat="45.86208" lon="6.78293">
        <ele>1711.28</ele>
        <time>2017-08-02T09:12:59Z</time>
      </trkpt>
      <trkpt lat="45.86208" lon="6.78295">
        <ele>1711.76</ele>
        <time>2017-08-02T09:13:00Z</time>
      </trkpt>
      <trkpt lat="45.86208" lon="6.78297">
        <ele>1711.76</ele>
        <time>2017-08-02T09:13:01Z</time>
      </trkpt>
      <trkpt lat="45.86206" lon="6.78301">
        <ele>1712.73</ele>
        <time>2017-08-02T09:13:05Z</time>
      </trkpt>
      <trkpt lat="45.862" lon="6.78299">
        <ele>1715.61</ele>
        <time>2017-08-02T09:13:18Z</time>
      </trkpt>
      <trkpt lat="45.86195" lon="6.78301">
        <ele>1718.97</ele>
        <time>2017-08-02T09:13:32Z</time>
      </trkpt>
      <trkpt lat="45.86193" lon="6.78302">
        <ele>1718.97</ele>
        <time>2017-08-02T09:13:33Z</time>
      </trkpt>
      <trkpt lat="45.86192" lon="6.78303">
        <ele>1719.46</ele>
        <time>2017-08-02T09:13:34Z</time>
      </trkpt>
      <trkpt lat="45.86191" lon="6.78302">
        <ele>1719.94</ele>
        <time>2017-08-02T09:13:35Z</time>
      </trkpt>
      <trkpt lat="45.8619" lon="6.78302">
        <ele>1719.94</ele>
        <time>2017-08-02T09:13:36Z</time>
      </trkpt>
      <trkpt lat="45.86189" lon="6.78303">
        <ele>1720.42</ele>
        <time>2017-08-02T09:13:37Z</time>
      </trkpt>
      <trkpt lat="45.86188" lon="6.78305">
        <ele>1721.38</ele>
        <time>2017-08-02T09:13:40Z</time>
      </trkpt>
      <trkpt lat="45.86185" lon="6.78309">
        <ele>1722.82</ele>
        <time>2017-08-02T09:13:47Z</time>
      </trkpt>
      <trkpt lat="45.86183" lon="6.78312">
        <ele>1723.78</ele>
        <time>2017-08-02T09:13:50Z</time>
      </trkpt>
      <trkpt lat="45.86183" lon="6.78313">
        <ele>1723.78</ele>
        <time>2017-08-02T09:13:51Z</time>
      </trkpt>
      <trkpt lat="45.8618" lon="6.78315">
        <ele>1724.74</ele>
        <time>2017-08-02T09:13:54Z</time>
      </trkpt>
      <trkpt lat="45.86178" lon="6.78314">
        <ele>1725.22</ele>
        <time>2017-08-02T09:13:57Z</time>
      </trkpt>
      <trkpt lat="45.86175" lon="6.78308">
        <ele>1726.67</ele>
        <time>2017-08-02T09:14:05Z</time>
      </trkpt>
      <trkpt lat="45.86173" lon="6.78297">
        <ele>1730.03</ele>
        <time>2017-08-02T09:14:17Z</time>
      </trkpt>
      <trkpt lat="45.86171" lon="6.78297">
        <ele>1733.39</ele>
        <time>2017-08-02T09:14:30Z</time>
      </trkpt>
      <trkpt lat="45.86172" lon="6.78291">
        <ele>1734.84</ele>
        <time>2017-08-02T09:14:37Z</time>
      </trkpt>
      <trkpt lat="45.86172" lon="6.7829">
        <ele>1734.84</ele>
        <time>2017-08-02T09:14:38Z</time>
      </trkpt>
      <trkpt lat="45.86174" lon="6.78273">
        <ele>1738.2</ele>
        <time>2017-08-02T09:14:52Z</time>
      </trkpt>
      <trkpt lat="45.86173" lon="6.78277">
        <ele>1739.16</ele>
        <time>2017-08-02T09:14:58Z</time>
      </trkpt>
      <trkpt lat="45.86171" lon="6.78274">
        <ele>1740.6</ele>
        <time>2017-08-02T09:15:02Z</time>
      </trkpt>
      <trkpt lat="45.86171" lon="6.78273">
        <ele>1740.6</ele>
        <time>2017-08-02T09:15:03Z</time>
      </trkpt>
      <trkpt lat="45.86165" lon="6.78275">
        <ele>1743.97</ele>
        <time>2017-08-02T09:15:16Z</time>
      </trkpt>
      <trkpt lat="45.86163" lon="6.78267">
        <ele>1746.85</ele>
        <time>2017-08-02T09:15:28Z</time>
      </trkpt>
      <trkpt lat="45.86164" lon="6.78258">
        <ele>1747.81</ele>
        <time>2017-08-02T09:15:37Z</time>
      </trkpt>
      <trkpt lat="45.86158" lon="6.78244">
        <ele>1751.18</ele>
        <time>2017-08-02T09:15:53Z</time>
      </trkpt>
      <trkpt lat="45.86158" lon="6.78239">
        <ele>1752.62</ele>
        <time>2017-08-02T09:15:59Z</time>
      </trkpt>
      <trkpt lat="45.86151" lon="6.78232">
        <ele>1754.06</ele>
        <time>2017-08-02T09:16:08Z</time>
      </trkpt>
      <trkpt lat="45.86151" lon="6.78231">
        <ele>1754.54</ele>
        <time>2017-08-02T09:16:09Z</time>
      </trkpt>
      <trkpt lat="45.86149" lon="6.78215">
        <ele>1755.99</ele>
        <time>2017-08-02T09:16:21Z</time>
      </trkpt>
      <trkpt lat="45.86148" lon="6.78213">
        <ele>1755.99</ele>
        <time>2017-08-02T09:16:22Z</time>
      </trkpt>
      <trkpt lat="45.86147" lon="6.78211">
        <ele>1755.99</ele>
        <time>2017-08-02T09:16:23Z</time>
      </trkpt>
      <trkpt lat="45.86147" lon="6.7821">
        <ele>1755.99</ele>
        <time>2017-08-02T09:16:24Z</time>
      </trkpt>
      <trkpt lat="45.86147" lon="6.78208">
        <ele>1756.47</ele>
        <time>2017-08-02T09:16:25Z</time>
      </trkpt>
      <trkpt lat="45.86146" lon="6.78206">
        <ele>1756.47</ele>
        <time>2017-08-02T09:16:26Z</time>
      </trkpt>
      <trkpt lat="45.86145" lon="6.78205">
        <ele>1756.95</ele>
        <time>2017-08-02T09:16:27Z</time>
      </trkpt>
      <trkpt lat="45.86143" lon="6.78203">
        <ele>1756.95</ele>
        <time>2017-08-02T09:16:28Z</time>
      </trkpt>
      <trkpt lat="45.86142" lon="6.78202">
        <ele>1756.95</ele>
        <time>2017-08-02T09:16:29Z</time>
      </trkpt>
      <trkpt lat="45.86141" lon="6.78201">
        <ele>1756.95</ele>
        <time>2017-08-02T09:16:30Z</time>
      </trkpt>
      <trkpt lat="45.8614" lon="6.78199">
        <ele>1757.43</ele>
        <time>2017-08-02T09:16:31Z</time>
      </trkpt>
      <trkpt lat="45.86136" lon="6.78191">
        <ele>1756.95</ele>
        <time>2017-08-02T09:16:38Z</time>
      </trkpt>
      <trkpt lat="45.86132" lon="6.78184">
        <ele>1757.91</ele>
        <time>2017-08-02T09:16:45Z</time>
      </trkpt>
      <trkpt lat="45.86122" lon="6.78166">
        <ele>1760.31</ele>
        <time>2017-08-02T09:16:59Z</time>
      </trkpt>
      <trkpt lat="45.86119" lon="6.78166">
        <ele>1761.75</ele>
        <time>2017-08-02T09:17:05Z</time>
      </trkpt>
      <trkpt lat="45.86118" lon="6.78165">
        <ele>1761.75</ele>
        <time>2017-08-02T09:17:06Z</time>
      </trkpt>
      <trkpt lat="45.86116" lon="6.78163">
        <ele>1762.71</ele>
        <time>2017-08-02T09:17:09Z</time>
      </trkpt>
      <trkpt lat="45.86116" lon="6.78162">
        <ele>1763.2</ele>
        <time>2017-08-02T09:17:10Z</time>
      </trkpt>
      <trkpt lat="45.86115" lon="6.78161">
        <ele>1763.2</ele>
        <time>2017-08-02T09:17:11Z</time>
      </trkpt>
      <trkpt lat="45.86115" lon="6.7816">
        <ele>1763.2</ele>
        <time>2017-08-02T09:17:12Z</time>
      </trkpt>
      <trkpt lat="45.86114" lon="6.78158">
        <ele>1763.68</ele>
        <time>2017-08-02T09:17:13Z</time>
      </trkpt>
      <trkpt lat="45.86113" lon="6.78157">
        <ele>1763.68</ele>
        <time>2017-08-02T09:17:14Z</time>
      </trkpt>
      <trkpt lat="45.86109" lon="6.78153">
        <ele>1764.64</ele>
        <time>2017-08-02T09:17:18Z</time>
      </trkpt>
      <trkpt lat="45.86099" lon="6.78149">
        <ele>1767.52</ele>
        <time>2017-08-02T09:17:30Z</time>
      </trkpt>
      <trkpt lat="45.86093" lon="6.78148">
        <ele>1769.92</ele>
        <time>2017-08-02T09:17:38Z</time>
      </trkpt>
      <trkpt lat="45.86084" lon="6.78146">
        <ele>1772.81</ele>
        <time>2017-08-02T09:17:49Z</time>
      </trkpt>
      <trkpt lat="45.86075" lon="6.7814">
        <ele>1775.69</ele>
        <time>2017-08-02T09:18:01Z</time>
      </trkpt>
      <trkpt lat="45.86063" lon="6.78133">
        <ele>1779.06</ele>
        <time>2017-08-02T09:18:14Z</time>
      </trkpt>
      <trkpt lat="45.86055" lon="6.78119">
        <ele>1782.42</ele>
        <time>2017-08-02T09:18:28Z</time>
      </trkpt>
      <trkpt lat="45.86053" lon="6.78116">
        <ele>1782.9</ele>
        <time>2017-08-02T09:18:31Z</time>
      </trkpt>
      <trkpt lat="45.86053" lon="6.78115">
        <ele>1783.38</ele>
        <time>2017-08-02T09:18:32Z</time>
      </trkpt>
      <trkpt lat="45.86048" lon="6.78111">
        <ele>1784.82</ele>
        <time>2017-08-02T09:18:39Z</time>
      </trkpt>
      <trkpt lat="45.86047" lon="6.78111">
        <ele>1784.82</ele>
        <time>2017-08-02T09:18:40Z</time>
      </trkpt>
      <trkpt lat="45.86047" lon="6.7811">
        <ele>1785.31</ele>
        <time>2017-08-02T09:18:41Z</time>
      </trkpt>
      <trkpt lat="45.86048" lon="6.78109">
        <ele>1785.31</ele>
        <time>2017-08-02T09:18:42Z</time>
      </trkpt>
      <trkpt lat="45.86048" lon="6.78108">
        <ele>1785.31</ele>
        <time>2017-08-02T09:18:43Z</time>
      </trkpt>
      <trkpt lat="45.86051" lon="6.78096">
        <ele>1787.23</ele>
        <time>2017-08-02T09:18:52Z</time>
      </trkpt>
      <trkpt lat="45.86048" lon="6.78083">
        <ele>1790.59</ele>
        <time>2017-08-02T09:19:05Z</time>
      </trkpt>
      <trkpt lat="45.86032" lon="6.78073">
        <ele>1793.48</ele>
        <time>2017-08-02T09:19:20Z</time>
      </trkpt>
      <trkpt lat="45.86029" lon="6.78075">
        <ele>1794.44</ele>
        <time>2017-08-02T09:19:23Z</time>
      </trkpt>
      <trkpt lat="45.86029" lon="6.78075">
        <ele>1794.92</ele>
        <time>2017-08-02T09:19:24Z</time>
      </trkpt>
      <trkpt lat="45.86017" lon="6.78075">
        <ele>1797.8</ele>
        <time>2017-08-02T09:19:37Z</time>
      </trkpt>
      <trkpt lat="45.86012" lon="6.78075">
        <ele>1800.21</ele>
        <time>2017-08-02T09:19:46Z</time>
      </trkpt>
      <trkpt lat="45.86011" lon="6.7807">
        <ele>1801.17</ele>
        <time>2017-08-02T09:19:51Z</time>
      </trkpt>
      <trkpt lat="45.86009" lon="6.78055">
        <ele>1804.05</ele>
        <time>2017-08-02T09:20:05Z</time>
      </trkpt>
      <trkpt lat="45.86003" lon="6.78049">
        <ele>1805.49</ele>
        <time>2017-08-02T09:20:12Z</time>
      </trkpt>
      <trkpt lat="45.85997" lon="6.78046">
        <ele>1806.94</ele>
        <time>2017-08-02T09:20:18Z</time>
      </trkpt>
      <trkpt lat="45.85992" lon="6.78041">
        <ele>1808.86</ele>
        <time>2017-08-02T09:20:27Z</time>
      </trkpt>
      <trkpt lat="45.85983" lon="6.78033">
        <ele>1810.78</ele>
        <time>2017-08-02T09:20:37Z</time>
      </trkpt>
      <trkpt lat="45.85982" lon="6.78031">
        <ele>1810.78</ele>
        <time>2017-08-02T09:20:38Z</time>
      </trkpt>
      <trkpt lat="45.85978" lon="6.78027">
        <ele>1811.26</ele>
        <time>2017-08-02T09:20:42Z</time>
      </trkpt>
      <trkpt lat="45.85977" lon="6.78027">
        <ele>1811.26</ele>
        <time>2017-08-02T09:20:43Z</time>
      </trkpt>
      <trkpt lat="45.85977" lon="6.78026">
        <ele>1811.74</ele>
        <time>2017-08-02T09:20:44Z</time>
      </trkpt>
      <trkpt lat="45.85976" lon="6.78025">
        <ele>1812.22</ele>
        <time>2017-08-02T09:20:45Z</time>
      </trkpt>
      <trkpt lat="45.85975" lon="6.78024">
        <ele>1812.22</ele>
        <time>2017-08-02T09:20:46Z</time>
      </trkpt>
      <trkpt lat="45.85967" lon="6.78021">
        <ele>1814.15</ele>
        <time>2017-08-02T09:20:53Z</time>
      </trkpt>
      <trkpt lat="45.85952" lon="6.78006">
        <ele>1815.59</ele>
        <time>2017-08-02T09:21:06Z</time>
      </trkpt>
      <trkpt lat="45.85946" lon="6.78001">
        <ele>1815.59</ele>
        <time>2017-08-02T09:21:11Z</time>
      </trkpt>
      <trkpt lat="45.85944" lon="6.78001">
        <ele>1815.59</ele>
        <time>2017-08-02T09:21:12Z</time>
      </trkpt>
      <trkpt lat="45.85943" lon="6.78001">
        <ele>1815.59</ele>
        <time>2017-08-02T09:21:13Z</time>
      </trkpt>
      <trkpt lat="45.85929" lon="6.78">
        <ele>1816.55</ele>
        <time>2017-08-02T09:21:21Z</time>
      </trkpt>
      <trkpt lat="45.85924" lon="6.77999">
        <ele>1817.03</ele>
        <time>2017-08-02T09:21:24Z</time>
      </trkpt>
      <trkpt lat="45.85923" lon="6.77997">
        <ele>1817.51</ele>
        <time>2017-08-02T09:21:25Z</time>
      </trkpt>
      <trkpt lat="45.85922" lon="6.77996">
        <ele>1817.51</ele>
        <time>2017-08-02T09:21:26Z</time>
      </trkpt>
      <trkpt lat="45.85921" lon="6.77994">
        <ele>1817.99</ele>
        <time>2017-08-02T09:21:27Z</time>
      </trkpt>
      <trkpt lat="45.8592" lon="6.77992">
        <ele>1817.99</ele>
        <time>2017-08-02T09:21:28Z</time>
      </trkpt>
      <trkpt lat="45.85919" lon="6.7799">
        <ele>1818.47</ele>
        <time>2017-08-02T09:21:29Z</time>
      </trkpt>
      <trkpt lat="45.85919" lon="6.77989">
        <ele>1818.47</ele>
        <time>2017-08-02T09:21:30Z</time>
      </trkpt>
      <trkpt lat="45.85916" lon="6.77986">
        <ele>1819.43</ele>
        <time>2017-08-02T09:21:33Z</time>
      </trkpt>
      <trkpt lat="45.85915" lon="6.77985">
        <ele>1819.43</ele>
        <time>2017-08-02T09:21:34Z</time>
      </trkpt>
      <trkpt lat="45.85914" lon="6.77983">
        <ele>1819.91</ele>
        <time>2017-08-02T09:21:35Z</time>
      </trkpt>
      <trkpt lat="45.85914" lon="6.77981">
        <ele>1820.39</ele>
        <time>2017-08-02T09:21:36Z</time>
      </trkpt>
      <trkpt lat="45.85914" lon="6.7798">
        <ele>1820.39</ele>
        <time>2017-08-02T09:21:37Z</time>
      </trkpt>
      <trkpt lat="45.85914" lon="6.77978">
        <ele>1820.39</ele>
        <time>2017-08-02T09:21:38Z</time>
      </trkpt>
      <trkpt lat="45.85914" lon="6.77976">
        <ele>1820.87</ele>
        <time>2017-08-02T09:21:39Z</time>
      </trkpt>
      <trkpt lat="45.85914" lon="6.77975">
        <ele>1820.87</ele>
        <time>2017-08-02T09:21:40Z</time>
      </trkpt>
      <trkpt lat="45.85914" lon="6.77974">
        <ele>1821.35</ele>
        <time>2017-08-02T09:21:41Z</time>
      </trkpt>
      <trkpt lat="45.85914" lon="6.77973">
        <ele>1821.35</ele>
        <time>2017-08-02T09:21:42Z</time>
      </trkpt>
      <trkpt lat="45.85913" lon="6.77972">
        <ele>1821.35</ele>
        <time>2017-08-02T09:21:43Z</time>
      </trkpt>
      <trkpt lat="45.85913" lon="6.77971">
        <ele>1821.84</ele>
        <time>2017-08-02T09:21:44Z</time>
      </trkpt>
      <trkpt lat="45.8591" lon="6.77969">
        <ele>1822.8</ele>
        <time>2017-08-02T09:21:48Z</time>
      </trkpt>
      <trkpt lat="45.85897" lon="6.7796">
        <ele>1826.16</ele>
        <time>2017-08-02T09:22:03Z</time>
      </trkpt>
      <trkpt lat="45.85895" lon="6.77958">
        <ele>1826.16</ele>
        <time>2017-08-02T09:22:06Z</time>
      </trkpt>
      <trkpt lat="45.85894" lon="6.77958">
        <ele>1826.16</ele>
        <time>2017-08-02T09:22:07Z</time>
      </trkpt>
      <trkpt lat="45.85893" lon="6.77957">
        <ele>1826.64</ele>
        <time>2017-08-02T09:22:08Z</time>
      </trkpt>
      <trkpt lat="45.85892" lon="6.77956">
        <ele>1826.64</ele>
        <time>2017-08-02T09:22:09Z</time>
      </trkpt>
      <trkpt lat="45.85891" lon="6.77955">
        <ele>1826.64</ele>
        <time>2017-08-02T09:22:10Z</time>
      </trkpt>
      <trkpt lat="45.85889" lon="6.77952">
        <ele>1827.12</ele>
        <time>2017-08-02T09:22:12Z</time>
      </trkpt>
      <trkpt lat="45.85887" lon="6.77948">
        <ele>1827.12</ele>
        <time>2017-08-02T09:22:16Z</time>
      </trkpt>
      <trkpt lat="45.85885" lon="6.77949">
        <ele>1827.6</ele>
        <time>2017-08-02T09:22:17Z</time>
      </trkpt>
      <trkpt lat="45.85883" lon="6.77949">
        <ele>1827.6</ele>
        <time>2017-08-02T09:22:19Z</time>
      </trkpt>
      <trkpt lat="45.85881" lon="6.77948">
        <ele>1827.6</ele>
        <time>2017-08-02T09:22:20Z</time>
      </trkpt>
      <trkpt lat="45.85881" lon="6.77946">
        <ele>1827.6</ele>
        <time>2017-08-02T09:22:21Z</time>
      </trkpt>
      <trkpt lat="45.85881" lon="6.77944">
        <ele>1828.08</ele>
        <time>2017-08-02T09:22:22Z</time>
      </trkpt>
      <trkpt lat="45.8588" lon="6.77943">
        <ele>1828.08</ele>
        <time>2017-08-02T09:22:23Z</time>
      </trkpt>
      <trkpt lat="45.85877" lon="6.77929">
        <ele>1829.53</ele>
        <time>2017-08-02T09:22:33Z</time>
      </trkpt>
      <trkpt lat="45.85878" lon="6.77926">
        <ele>1830.49</ele>
        <time>2017-08-02T09:22:35Z</time>
      </trkpt>
      <trkpt lat="45.85878" lon="6.77925">
        <ele>1830.49</ele>
        <time>2017-08-02T09:22:36Z</time>
      </trkpt>
      <trkpt lat="45.85874" lon="6.77915">
        <ele>1832.41</ele>
        <time>2017-08-02T09:22:45Z</time>
      </trkpt>
      <trkpt lat="45.85873" lon="6.77915">
        <ele>1832.41</ele>
        <time>2017-08-02T09:22:46Z</time>
      </trkpt>
      <trkpt lat="45.85872" lon="6.77914">
        <ele>1832.89</ele>
        <time>2017-08-02T09:22:47Z</time>
      </trkpt>
      <trkpt lat="45.85871" lon="6.77914">
        <ele>1832.89</ele>
        <time>2017-08-02T09:22:48Z</time>
      </trkpt>
      <trkpt lat="45.85869" lon="6.77914">
        <ele>1832.89</ele>
        <time>2017-08-02T09:22:49Z</time>
      </trkpt>
      <trkpt lat="45.85868" lon="6.77913">
        <ele>1833.37</ele>
        <time>2017-08-02T09:22:50Z</time>
      </trkpt>
      <trkpt lat="45.85861" lon="6.77908">
        <ele>1834.33</ele>
        <time>2017-08-02T09:22:57Z</time>
      </trkpt>
      <trkpt lat="45.8586" lon="6.77907">
        <ele>1834.81</ele>
        <time>2017-08-02T09:22:58Z</time>
      </trkpt>
      <trkpt lat="45.85859" lon="6.77904">
        <ele>1835.29</ele>
        <time>2017-08-02T09:23:00Z</time>
      </trkpt>
      <trkpt lat="45.85859" lon="6.77904">
        <ele>1835.29</ele>
        <time>2017-08-02T09:23:01Z</time>
      </trkpt>
      <trkpt lat="45.85858" lon="6.77903">
        <ele>1835.29</ele>
        <time>2017-08-02T09:23:02Z</time>
      </trkpt>
      <trkpt lat="45.85858" lon="6.77901">
        <ele>1835.77</ele>
        <time>2017-08-02T09:23:03Z</time>
      </trkpt>
      <trkpt lat="45.85857" lon="6.779">
        <ele>1835.77</ele>
        <time>2017-08-02T09:23:04Z</time>
      </trkpt>
      <trkpt lat="45.85854" lon="6.77899">
        <ele>1836.74</ele>
        <time>2017-08-02T09:23:08Z</time>
      </trkpt>
      <trkpt lat="45.85853" lon="6.77897">
        <ele>1837.22</ele>
        <time>2017-08-02T09:23:10Z</time>
      </trkpt>
      <trkpt lat="45.85852" lon="6.77896">
        <ele>1837.7</ele>
        <time>2017-08-02T09:23:11Z</time>
      </trkpt>
      <trkpt lat="45.85849" lon="6.77891">
        <ele>1838.18</ele>
        <time>2017-08-02T09:23:16Z</time>
      </trkpt>
      <trkpt lat="45.85847" lon="6.77887">
        <ele>1839.62</ele>
        <time>2017-08-02T09:23:21Z</time>
      </trkpt>
      <trkpt lat="45.85846" lon="6.77886">
        <ele>1839.62</ele>
        <time>2017-08-02T09:23:22Z</time>
      </trkpt>
      <trkpt lat="45.85846" lon="6.77885">
        <ele>1839.62</ele>
        <time>2017-08-02T09:23:23Z</time>
      </trkpt>
      <trkpt lat="45.85846" lon="6.77883">
        <ele>1840.1</ele>
        <time>2017-08-02T09:23:24Z</time>
      </trkpt>
      <trkpt lat="45.85847" lon="6.77882">
        <ele>1840.58</ele>
        <time>2017-08-02T09:23:25Z</time>
      </trkpt>
      <trkpt lat="45.85842" lon="6.77879">
        <ele>1842.02</ele>
        <time>2017-08-02T09:23:33Z</time>
      </trkpt>
      <trkpt lat="45.8584" lon="6.77877">
        <ele>1842.98</ele>
        <time>2017-08-02T09:23:36Z</time>
      </trkpt>
      <trkpt lat="45.8584" lon="6.77876">
        <ele>1842.98</ele>
        <time>2017-08-02T09:23:37Z</time>
      </trkpt>
      <trkpt lat="45.8584" lon="6.77875">
        <ele>1842.98</ele>
        <time>2017-08-02T09:23:38Z</time>
      </trkpt>
      <trkpt lat="45.8584" lon="6.77873">
        <ele>1843.47</ele>
        <time>2017-08-02T09:23:39Z</time>
      </trkpt>
      <trkpt lat="45.85839" lon="6.77872">
        <ele>1843.95</ele>
        <time>2017-08-02T09:23:40Z</time>
      </trkpt>
      <trkpt lat="45.85839" lon="6.77871">
        <ele>1844.43</ele>
        <time>2017-08-02T09:23:41Z</time>
      </trkpt>
      <trkpt lat="45.85839" lon="6.7787">
        <ele>1844.43</ele>
        <time>2017-08-02T09:23:42Z</time>
      </trkpt>
      <trkpt lat="45.85838" lon="6.77868">
        <ele>1844.91</ele>
        <time>2017-08-02T09:23:44Z</time>
      </trkpt>
      <trkpt lat="45.85837" lon="6.77868">
        <ele>1845.39</ele>
        <time>2017-08-02T09:23:45Z</time>
      </trkpt>
      <trkpt lat="45.85835" lon="6.77865">
        <ele>1845.87</ele>
        <time>2017-08-02T09:23:47Z</time>
      </trkpt>
      <trkpt lat="45.85835" lon="6.77863">
        <ele>1845.87</ele>
        <time>2017-08-02T09:23:48Z</time>
      </trkpt>
      <trkpt lat="45.85834" lon="6.77861">
        <ele>1846.35</ele>
        <time>2017-08-02T09:23:50Z</time>
      </trkpt>
      <trkpt lat="45.85834" lon="6.7786">
        <ele>1846.83</ele>
        <time>2017-08-02T09:23:51Z</time>
      </trkpt>
      <trkpt lat="45.85826" lon="6.77848">
        <ele>1849.71</ele>
        <time>2017-08-02T09:24:04Z</time>
      </trkpt>
      <trkpt lat="45.85822" lon="6.77839">
        <ele>1851.64</ele>
        <time>2017-08-02T09:24:12Z</time>
      </trkpt>
      <trkpt lat="45.85822" lon="6.77838">
        <ele>1851.64</ele>
        <time>2017-08-02T09:24:13Z</time>
      </trkpt>
      <trkpt lat="45.85819" lon="6.77837">
        <ele>1852.6</ele>
        <time>2017-08-02T09:24:17Z</time>
      </trkpt>
      <trkpt lat="45.8581" lon="6.77829">
        <ele>1855</ele>
        <time>2017-08-02T09:24:29Z</time>
      </trkpt>
      <trkpt lat="45.85808" lon="6.77829">
        <ele>1855.48</ele>
        <time>2017-08-02T09:24:31Z</time>
      </trkpt>
      <trkpt lat="45.85807" lon="6.77829">
        <ele>1855.96</ele>
        <time>2017-08-02T09:24:32Z</time>
      </trkpt>
      <trkpt lat="45.85798" lon="6.77827">
        <ele>1858.85</ele>
        <time>2017-08-02T09:24:44Z</time>
      </trkpt>
      <trkpt lat="45.85792" lon="6.77825">
        <ele>1861.25</ele>
        <time>2017-08-02T09:24:54Z</time>
      </trkpt>
      <trkpt lat="45.85788" lon="6.77821">
        <ele>1864.13</ele>
        <time>2017-08-02T09:25:03Z</time>
      </trkpt>
      <trkpt lat="45.85784" lon="6.77817">
        <ele>1866.06</ele>
        <time>2017-08-02T09:25:10Z</time>
      </trkpt>
      <trkpt lat="45.85784" lon="6.77816">
        <ele>1866.54</ele>
        <time>2017-08-02T09:25:11Z</time>
      </trkpt>
      <trkpt lat="45.85783" lon="6.77815">
        <ele>1867.02</ele>
        <time>2017-08-02T09:25:12Z</time>
      </trkpt>
      <trkpt lat="45.85782" lon="6.77814">
        <ele>1867.02</ele>
        <time>2017-08-02T09:25:13Z</time>
      </trkpt>
      <trkpt lat="45.85781" lon="6.77813">
        <ele>1867.5</ele>
        <time>2017-08-02T09:25:14Z</time>
      </trkpt>
      <trkpt lat="45.8578" lon="6.77815">
        <ele>1867.98</ele>
        <time>2017-08-02T09:25:15Z</time>
      </trkpt>
      <trkpt lat="45.85779" lon="6.77815">
        <ele>1867.98</ele>
        <time>2017-08-02T09:25:16Z</time>
      </trkpt>
      <trkpt lat="45.85778" lon="6.77815">
        <ele>1868.46</ele>
        <time>2017-08-02T09:25:17Z</time>
      </trkpt>
      <trkpt lat="45.85777" lon="6.77815">
        <ele>1868.46</ele>
        <time>2017-08-02T09:25:18Z</time>
      </trkpt>
      <trkpt lat="45.85776" lon="6.77814">
        <ele>1868.94</ele>
        <time>2017-08-02T09:25:19Z</time>
      </trkpt>
      <trkpt lat="45.8577" lon="6.77807">
        <ele>1871.82</ele>
        <time>2017-08-02T09:25:30Z</time>
      </trkpt>
      <trkpt lat="45.8577" lon="6.77806">
        <ele>1871.82</ele>
        <time>2017-08-02T09:25:31Z</time>
      </trkpt>
      <trkpt lat="45.85768" lon="6.77794">
        <ele>1874.71</ele>
        <time>2017-08-02T09:25:42Z</time>
      </trkpt>
      <trkpt lat="45.85766" lon="6.77792">
        <ele>1875.19</ele>
        <time>2017-08-02T09:25:45Z</time>
      </trkpt>
      <trkpt lat="45.85765" lon="6.7779">
        <ele>1875.19</ele>
        <time>2017-08-02T09:25:47Z</time>
      </trkpt>
      <trkpt lat="45.85765" lon="6.77789">
        <ele>1875.67</ele>
        <time>2017-08-02T09:25:48Z</time>
      </trkpt>
      <trkpt lat="45.85763" lon="6.77775">
        <ele>1878.55</ele>
        <time>2017-08-02T09:26:02Z</time>
      </trkpt>
      <trkpt lat="45.8576" lon="6.77765">
        <ele>1881.92</ele>
        <time>2017-08-02T09:26:13Z</time>
      </trkpt>
      <trkpt lat="45.85759" lon="6.77763">
        <ele>1882.88</ele>
        <time>2017-08-02T09:26:15Z</time>
      </trkpt>
      <trkpt lat="45.85754" lon="6.7775">
        <ele>1885.76</ele>
        <time>2017-08-02T09:26:29Z</time>
      </trkpt>
      <trkpt lat="45.8575" lon="6.7774">
        <ele>1887.69</ele>
        <time>2017-08-02T09:26:39Z</time>
      </trkpt>
      <trkpt lat="45.85749" lon="6.77739">
        <ele>1887.69</ele>
        <time>2017-08-02T09:26:40Z</time>
      </trkpt>
      <trkpt lat="45.85748" lon="6.77739">
        <ele>1888.17</ele>
        <time>2017-08-02T09:26:41Z</time>
      </trkpt>
      <trkpt lat="45.85747" lon="6.77739">
        <ele>1888.17</ele>
        <time>2017-08-02T09:26:42Z</time>
      </trkpt>
      <trkpt lat="45.85746" lon="6.77738">
        <ele>1888.17</ele>
        <time>2017-08-02T09:26:43Z</time>
      </trkpt>
      <trkpt lat="45.85745" lon="6.77737">
        <ele>1888.65</ele>
        <time>2017-08-02T09:26:44Z</time>
      </trkpt>
      <trkpt lat="45.85745" lon="6.77738">
        <ele>1888.65</ele>
        <time>2017-08-02T09:26:45Z</time>
      </trkpt>
      <trkpt lat="45.85743" lon="6.77738">
        <ele>1889.13</ele>
        <time>2017-08-02T09:26:46Z</time>
      </trkpt>
      <trkpt lat="45.85742" lon="6.77738">
        <ele>1889.13</ele>
        <time>2017-08-02T09:26:47Z</time>
      </trkpt>
      <trkpt lat="45.85741" lon="6.77737">
        <ele>1889.13</ele>
        <time>2017-08-02T09:26:48Z</time>
      </trkpt>
      <trkpt lat="45.85741" lon="6.77736">
        <ele>1889.13</ele>
        <time>2017-08-02T09:26:49Z</time>
      </trkpt>
      <trkpt lat="45.8574" lon="6.77736">
        <ele>1889.61</ele>
        <time>2017-08-02T09:26:50Z</time>
      </trkpt>
      <trkpt lat="45.85739" lon="6.77735">
        <ele>1889.61</ele>
        <time>2017-08-02T09:26:51Z</time>
      </trkpt>
      <trkpt lat="45.85738" lon="6.77734">
        <ele>1889.61</ele>
        <time>2017-08-02T09:26:52Z</time>
      </trkpt>
      <trkpt lat="45.85736" lon="6.77731">
        <ele>1890.57</ele>
        <time>2017-08-02T09:26:56Z</time>
      </trkpt>
      <trkpt lat="45.85735" lon="6.7773">
        <ele>1890.57</ele>
        <time>2017-08-02T09:26:57Z</time>
      </trkpt>
      <trkpt lat="45.85734" lon="6.77726">
        <ele>1891.53</ele>
        <time>2017-08-02T09:27:01Z</time>
      </trkpt>
      <trkpt lat="45.85733" lon="6.77725">
        <ele>1892.01</ele>
        <time>2017-08-02T09:27:02Z</time>
      </trkpt>
      <trkpt lat="45.85732" lon="6.77725">
        <ele>1892.01</ele>
        <time>2017-08-02T09:27:03Z</time>
      </trkpt>
      <trkpt lat="45.85731" lon="6.77724">
        <ele>1892.01</ele>
        <time>2017-08-02T09:27:04Z</time>
      </trkpt>
      <trkpt lat="45.8573" lon="6.77724">
        <ele>1892.01</ele>
        <time>2017-08-02T09:27:05Z</time>
      </trkpt>
      <trkpt lat="45.85729" lon="6.77723">
        <ele>1892.49</ele>
        <time>2017-08-02T09:27:06Z</time>
      </trkpt>
      <trkpt lat="45.85722" lon="6.7772">
        <ele>1893.45</ele>
        <time>2017-08-02T09:27:13Z</time>
      </trkpt>
      <trkpt lat="45.85721" lon="6.77719">
        <ele>1893.93</ele>
        <time>2017-08-02T09:27:14Z</time>
      </trkpt>
      <trkpt lat="45.8572" lon="6.77716">
        <ele>1893.93</ele>
        <time>2017-08-02T09:27:16Z</time>
      </trkpt>
      <trkpt lat="45.85718" lon="6.77712">
        <ele>1894.42</ele>
        <time>2017-08-02T09:27:19Z</time>
      </trkpt>
      <trkpt lat="45.85718" lon="6.7771">
        <ele>1894.42</ele>
        <time>2017-08-02T09:27:20Z</time>
      </trkpt>
      <trkpt lat="45.85717" lon="6.77708">
        <ele>1894.42</ele>
        <time>2017-08-02T09:27:21Z</time>
      </trkpt>
      <trkpt lat="45.85716" lon="6.77707">
        <ele>1894.9</ele>
        <time>2017-08-02T09:27:23Z</time>
      </trkpt>
      <trkpt lat="45.85713" lon="6.77707">
        <ele>1895.38</ele>
        <time>2017-08-02T09:27:26Z</time>
      </trkpt>
      <trkpt lat="45.85712" lon="6.77705">
        <ele>1895.38</ele>
        <time>2017-08-02T09:27:27Z</time>
      </trkpt>
      <trkpt lat="45.85711" lon="6.77703">
        <ele>1895.86</ele>
        <time>2017-08-02T09:27:28Z</time>
      </trkpt>
      <trkpt lat="45.8571" lon="6.77702">
        <ele>1895.86</ele>
        <time>2017-08-02T09:27:29Z</time>
      </trkpt>
      <trkpt lat="45.8571" lon="6.777">
        <ele>1895.86</ele>
        <time>2017-08-02T09:27:30Z</time>
      </trkpt>
      <trkpt lat="45.85709" lon="6.77698">
        <ele>1895.86</ele>
        <time>2017-08-02T09:27:31Z</time>
      </trkpt>
      <trkpt lat="45.85708" lon="6.77697">
        <ele>1895.86</ele>
        <time>2017-08-02T09:27:32Z</time>
      </trkpt>
      <trkpt lat="45.85708" lon="6.77696">
        <ele>1895.86</ele>
        <time>2017-08-02T09:27:33Z</time>
      </trkpt>
      <trkpt lat="45.85704" lon="6.7769">
        <ele>1896.82</ele>
        <time>2017-08-02T09:27:37Z</time>
      </trkpt>
      <trkpt lat="45.85697" lon="6.77664">
        <ele>1899.7</ele>
        <time>2017-08-02T09:27:50Z</time>
      </trkpt>
      <trkpt lat="45.85695" lon="6.77652">
        <ele>1901.14</ele>
        <time>2017-08-02T09:27:56Z</time>
      </trkpt>
      <trkpt lat="45.85694" lon="6.77651">
        <ele>1901.14</ele>
        <time>2017-08-02T09:27:57Z</time>
      </trkpt>
      <trkpt lat="45.85693" lon="6.77651">
        <ele>1901.14</ele>
        <time>2017-08-02T09:27:58Z</time>
      </trkpt>
      <trkpt lat="45.85692" lon="6.7765">
        <ele>1901.63</ele>
        <time>2017-08-02T09:27:59Z</time>
      </trkpt>
      <trkpt lat="45.85691" lon="6.77649">
        <ele>1901.63</ele>
        <time>2017-08-02T09:28:00Z</time>
      </trkpt>
      <trkpt lat="45.85691" lon="6.77648">
        <ele>1902.11</ele>
        <time>2017-08-02T09:28:01Z</time>
      </trkpt>
      <trkpt lat="45.8569" lon="6.77647">
        <ele>1902.59</ele>
        <time>2017-08-02T09:28:02Z</time>
      </trkpt>
      <trkpt lat="45.85689" lon="6.77646">
        <ele>1902.59</ele>
        <time>2017-08-02T09:28:03Z</time>
      </trkpt>
      <trkpt lat="45.85688" lon="6.77644">
        <ele>1903.07</ele>
        <time>2017-08-02T09:28:04Z</time>
      </trkpt>
      <trkpt lat="45.85688" lon="6.77643">
        <ele>1903.55</ele>
        <time>2017-08-02T09:28:05Z</time>
      </trkpt>
      <trkpt lat="45.85687" lon="6.77642">
        <ele>1903.55</ele>
        <time>2017-08-02T09:28:06Z</time>
      </trkpt>
      <trkpt lat="45.85686" lon="6.7764">
        <ele>1904.03</ele>
        <time>2017-08-02T09:28:07Z</time>
      </trkpt>
      <trkpt lat="45.85685" lon="6.7764">
        <ele>1904.03</ele>
        <time>2017-08-02T09:28:08Z</time>
      </trkpt>
      <trkpt lat="45.85684" lon="6.7764">
        <ele>1904.51</ele>
        <time>2017-08-02T09:28:09Z</time>
      </trkpt>
      <trkpt lat="45.85683" lon="6.7764">
        <ele>1904.51</ele>
        <time>2017-08-02T09:28:10Z</time>
      </trkpt>
      <trkpt lat="45.85682" lon="6.7764">
        <ele>1904.51</ele>
        <time>2017-08-02T09:28:11Z</time>
      </trkpt>
      <trkpt lat="45.85681" lon="6.77639">
        <ele>1904.99</ele>
        <time>2017-08-02T09:28:12Z</time>
      </trkpt>
      <trkpt lat="45.85679" lon="6.77639">
        <ele>1905.95</ele>
        <time>2017-08-02T09:28:15Z</time>
      </trkpt>
      <trkpt lat="45.85677" lon="6.7764">
        <ele>1905.95</ele>
        <time>2017-08-02T09:28:16Z</time>
      </trkpt>
      <trkpt lat="45.85674" lon="6.77639">
        <ele>1906.43</ele>
        <time>2017-08-02T09:28:19Z</time>
      </trkpt>
      <trkpt lat="45.85673" lon="6.77637">
        <ele>1906.91</ele>
        <time>2017-08-02T09:28:20Z</time>
      </trkpt>
      <trkpt lat="45.85672" lon="6.77634">
        <ele>1907.39</ele>
        <time>2017-08-02T09:28:23Z</time>
      </trkpt>
      <trkpt lat="45.85671" lon="6.77633">
        <ele>1907.39</ele>
        <time>2017-08-02T09:28:24Z</time>
      </trkpt>
      <trkpt lat="45.8567" lon="6.77632">
        <ele>1907.87</ele>
        <time>2017-08-02T09:28:25Z</time>
      </trkpt>
      <trkpt lat="45.85669" lon="6.77632">
        <ele>1907.87</ele>
        <time>2017-08-02T09:28:26Z</time>
      </trkpt>
      <trkpt lat="45.85668" lon="6.77631">
        <ele>1908.35</ele>
        <time>2017-08-02T09:28:27Z</time>
      </trkpt>
      <trkpt lat="45.85667" lon="6.77631">
        <ele>1908.83</ele>
        <time>2017-08-02T09:28:28Z</time>
      </trkpt>
      <trkpt lat="45.85665" lon="6.7763">
        <ele>1908.83</ele>
        <time>2017-08-02T09:28:30Z</time>
      </trkpt>
      <trkpt lat="45.85664" lon="6.77629">
        <ele>1908.83</ele>
        <time>2017-08-02T09:28:31Z</time>
      </trkpt>
      <trkpt lat="45.85662" lon="6.77628">
        <ele>1908.83</ele>
        <time>2017-08-02T09:28:32Z</time>
      </trkpt>
      <trkpt lat="45.85662" lon="6.77627">
        <ele>1909.32</ele>
        <time>2017-08-02T09:28:33Z</time>
      </trkpt>
      <trkpt lat="45.85661" lon="6.77626">
        <ele>1909.32</ele>
        <time>2017-08-02T09:28:34Z</time>
      </trkpt>
      <trkpt lat="45.8566" lon="6.77624">
        <ele>1909.32</ele>
        <time>2017-08-02T09:28:35Z</time>
      </trkpt>
      <trkpt lat="45.85659" lon="6.77623">
        <ele>1909.32</ele>
        <time>2017-08-02T09:28:36Z</time>
      </trkpt>
      <trkpt lat="45.85647" lon="6.77606">
        <ele>1911.24</ele>
        <time>2017-08-02T09:28:49Z</time>
      </trkpt>
      <trkpt lat="45.85646" lon="6.77605">
        <ele>1911.24</ele>
        <time>2017-08-02T09:28:50Z</time>
      </trkpt>
      <trkpt lat="45.85645" lon="6.77605">
        <ele>1911.72</ele>
        <time>2017-08-02T09:28:51Z</time>
      </trkpt>
      <trkpt lat="45.85644" lon="6.77604">
        <ele>1912.2</ele>
        <time>2017-08-02T09:28:52Z</time>
      </trkpt>
      <trkpt lat="45.85643" lon="6.77603">
        <ele>1912.2</ele>
        <time>2017-08-02T09:28:53Z</time>
      </trkpt>
      <trkpt lat="45.85642" lon="6.77602">
        <ele>1912.2</ele>
        <time>2017-08-02T09:28:54Z</time>
      </trkpt>
      <trkpt lat="45.85641" lon="6.77602">
        <ele>1912.68</ele>
        <time>2017-08-02T09:28:55Z</time>
      </trkpt>
      <trkpt lat="45.8564" lon="6.77599">
        <ele>1913.16</ele>
        <time>2017-08-02T09:28:57Z</time>
      </trkpt>
      <trkpt lat="45.85639" lon="6.77598">
        <ele>1913.16</ele>
        <time>2017-08-02T09:28:58Z</time>
      </trkpt>
      <trkpt lat="45.85638" lon="6.77597">
        <ele>1913.64</ele>
        <time>2017-08-02T09:28:59Z</time>
      </trkpt>
      <trkpt lat="45.85637" lon="6.77595">
        <ele>1914.12</ele>
        <time>2017-08-02T09:29:00Z</time>
      </trkpt>
      <trkpt lat="45.85636" lon="6.77592">
        <ele>1914.12</ele>
        <time>2017-08-02T09:29:02Z</time>
      </trkpt>
      <trkpt lat="45.85635" lon="6.77591">
        <ele>1914.12</ele>
        <time>2017-08-02T09:29:03Z</time>
      </trkpt>
      <trkpt lat="45.85635" lon="6.7759">
        <ele>1914.12</ele>
        <time>2017-08-02T09:29:04Z</time>
      </trkpt>
      <trkpt lat="45.85629" lon="6.77576">
        <ele>1917.49</ele>
        <time>2017-08-02T09:29:14Z</time>
      </trkpt>
      <trkpt lat="45.85628" lon="6.7757">
        <ele>1917.97</ele>
        <time>2017-08-02T09:29:18Z</time>
      </trkpt>
      <trkpt lat="45.85628" lon="6.77569">
        <ele>1918.45</ele>
        <time>2017-08-02T09:29:19Z</time>
      </trkpt>
      <trkpt lat="45.85627" lon="6.77568">
        <ele>1918.93</ele>
        <time>2017-08-02T09:29:20Z</time>
      </trkpt>
      <trkpt lat="45.85625" lon="6.7756">
        <ele>1920.85</ele>
        <time>2017-08-02T09:29:27Z</time>
      </trkpt>
      <trkpt lat="45.85621" lon="6.77554">
        <ele>1922.77</ele>
        <time>2017-08-02T09:29:34Z</time>
      </trkpt>
      <trkpt lat="45.85616" lon="6.77545">
        <ele>1925.66</ele>
        <time>2017-08-02T09:29:46Z</time>
      </trkpt>
      <trkpt lat="45.85615" lon="6.77543">
        <ele>1926.14</ele>
        <time>2017-08-02T09:29:48Z</time>
      </trkpt>
      <trkpt lat="45.85615" lon="6.77542">
        <ele>1926.62</ele>
        <time>2017-08-02T09:29:49Z</time>
      </trkpt>
      <trkpt lat="45.85608" lon="6.77531">
        <ele>1929.5</ele>
        <time>2017-08-02T09:29:59Z</time>
      </trkpt>
      <trkpt lat="45.85608" lon="6.7753">
        <ele>1929.5</ele>
        <time>2017-08-02T09:30:00Z</time>
      </trkpt>
      <trkpt lat="45.85607" lon="6.77529">
        <ele>1929.98</ele>
        <time>2017-08-02T09:30:01Z</time>
      </trkpt>
      <trkpt lat="45.85607" lon="6.77528">
        <ele>1929.98</ele>
        <time>2017-08-02T09:30:02Z</time>
      </trkpt>
      <trkpt lat="45.85606" lon="6.77525">
        <ele>1929.98</ele>
        <time>2017-08-02T09:30:03Z</time>
      </trkpt>
      <trkpt lat="45.85605" lon="6.77523">
        <ele>1930.95</ele>
        <time>2017-08-02T09:30:04Z</time>
      </trkpt>
      <trkpt lat="45.85604" lon="6.77521">
        <ele>1931.43</ele>
        <time>2017-08-02T09:30:05Z</time>
      </trkpt>
      <trkpt lat="45.85603" lon="6.7752">
        <ele>1931.43</ele>
        <time>2017-08-02T09:30:06Z</time>
      </trkpt>
      <trkpt lat="45.85601" lon="6.77519">
        <ele>1931.91</ele>
        <time>2017-08-02T09:30:07Z</time>
      </trkpt>
      <trkpt lat="45.856" lon="6.77517">
        <ele>1932.39</ele>
        <time>2017-08-02T09:30:08Z</time>
      </trkpt>
      <trkpt lat="45.85599" lon="6.77516">
        <ele>1932.39</ele>
        <time>2017-08-02T09:30:09Z</time>
      </trkpt>
      <trkpt lat="45.85598" lon="6.77515">
        <ele>1932.87</ele>
        <time>2017-08-02T09:30:10Z</time>
      </trkpt>
      <trkpt lat="45.85597" lon="6.77514">
        <ele>1932.87</ele>
        <time>2017-08-02T09:30:11Z</time>
      </trkpt>
      <trkpt lat="45.85596" lon="6.77513">
        <ele>1933.35</ele>
        <time>2017-08-02T09:30:12Z</time>
      </trkpt>
      <trkpt lat="45.85595" lon="6.77512">
        <ele>1933.83</ele>
        <time>2017-08-02T09:30:13Z</time>
      </trkpt>
      <trkpt lat="45.85587" lon="6.7751">
        <ele>1935.75</ele>
        <time>2017-08-02T09:30:21Z</time>
      </trkpt>
      <trkpt lat="45.85586" lon="6.77509">
        <ele>1936.23</ele>
        <time>2017-08-02T09:30:22Z</time>
      </trkpt>
      <trkpt lat="45.85586" lon="6.77507">
        <ele>1936.23</ele>
        <time>2017-08-02T09:30:23Z</time>
      </trkpt>
      <trkpt lat="45.85585" lon="6.77506">
        <ele>1936.23</ele>
        <time>2017-08-02T09:30:24Z</time>
      </trkpt>
      <trkpt lat="45.8558" lon="6.77496">
        <ele>1938.64</ele>
        <time>2017-08-02T09:30:33Z</time>
      </trkpt>
      <trkpt lat="45.85579" lon="6.77495">
        <ele>1938.64</ele>
        <time>2017-08-02T09:30:34Z</time>
      </trkpt>
      <trkpt lat="45.85579" lon="6.77494">
        <ele>1939.12</ele>
        <time>2017-08-02T09:30:35Z</time>
      </trkpt>
      <trkpt lat="45.85578" lon="6.77494">
        <ele>1939.12</ele>
        <time>2017-08-02T09:30:36Z</time>
      </trkpt>
      <trkpt lat="45.85577" lon="6.77494">
        <ele>1939.6</ele>
        <time>2017-08-02T09:30:37Z</time>
      </trkpt>
      <trkpt lat="45.85576" lon="6.77494">
        <ele>1939.6</ele>
        <time>2017-08-02T09:30:38Z</time>
      </trkpt>
      <trkpt lat="45.85575" lon="6.77493">
        <ele>1939.6</ele>
        <time>2017-08-02T09:30:39Z</time>
      </trkpt>
      <trkpt lat="45.85574" lon="6.77492">
        <ele>1940.08</ele>
        <time>2017-08-02T09:30:40Z</time>
      </trkpt>
      <trkpt lat="45.85573" lon="6.77492">
        <ele>1940.56</ele>
        <time>2017-08-02T09:30:41Z</time>
      </trkpt>
      <trkpt lat="45.85572" lon="6.77491">
        <ele>1940.56</ele>
        <time>2017-08-02T09:30:42Z</time>
      </trkpt>
      <trkpt lat="45.85566" lon="6.77481">
        <ele>1942.96</ele>
        <time>2017-08-02T09:30:52Z</time>
      </trkpt>
      <trkpt lat="45.85565" lon="6.77478">
        <ele>1943.44</ele>
        <time>2017-08-02T09:30:54Z</time>
      </trkpt>
      <trkpt lat="45.85565" lon="6.77477">
        <ele>1943.44</ele>
        <time>2017-08-02T09:30:55Z</time>
      </trkpt>
      <trkpt lat="45.85563" lon="6.77476">
        <ele>1943.92</ele>
        <time>2017-08-02T09:30:56Z</time>
      </trkpt>
      <trkpt lat="45.85562" lon="6.77474">
        <ele>1944.4</ele>
        <time>2017-08-02T09:30:57Z</time>
      </trkpt>
      <trkpt lat="45.8556" lon="6.77468">
        <ele>1945.36</ele>
        <time>2017-08-02T09:31:02Z</time>
      </trkpt>
      <trkpt lat="45.8556" lon="6.77467">
        <ele>1945.36</ele>
        <time>2017-08-02T09:31:03Z</time>
      </trkpt>
      <trkpt lat="45.85559" lon="6.77466">
        <ele>1945.36</ele>
        <time>2017-08-02T09:31:04Z</time>
      </trkpt>
      <trkpt lat="45.85558" lon="6.77465">
        <ele>1945.36</ele>
        <time>2017-08-02T09:31:05Z</time>
      </trkpt>
      <trkpt lat="45.85557" lon="6.77464">
        <ele>1945.85</ele>
        <time>2017-08-02T09:31:06Z</time>
      </trkpt>
      <trkpt lat="45.85556" lon="6.77463">
        <ele>1946.33</ele>
        <time>2017-08-02T09:31:07Z</time>
      </trkpt>
      <trkpt lat="45.85546" lon="6.7745">
        <ele>1949.21</ele>
        <time>2017-08-02T09:31:21Z</time>
      </trkpt>
      <trkpt lat="45.85538" lon="6.77442">
        <ele>1952.09</ele>
        <time>2017-08-02T09:31:34Z</time>
      </trkpt>
      <trkpt lat="45.85533" lon="6.77438">
        <ele>1954.5</ele>
        <time>2017-08-02T09:31:41Z</time>
      </trkpt>
      <trkpt lat="45.85528" lon="6.77432">
        <ele>1954.98</ele>
        <time>2017-08-02T09:31:47Z</time>
      </trkpt>
      <trkpt lat="45.85527" lon="6.77431">
        <ele>1954.98</ele>
        <time>2017-08-02T09:31:48Z</time>
      </trkpt>
      <trkpt lat="45.85526" lon="6.77431">
        <ele>1955.46</ele>
        <time>2017-08-02T09:31:50Z</time>
      </trkpt>
      <trkpt lat="45.85525" lon="6.77432">
        <ele>1955.94</ele>
        <time>2017-08-02T09:31:51Z</time>
      </trkpt>
      <trkpt lat="45.85521" lon="6.77431">
        <ele>1957.86</ele>
        <time>2017-08-02T09:31:57Z</time>
      </trkpt>
      <trkpt lat="45.8552" lon="6.7743">
        <ele>1957.86</ele>
        <time>2017-08-02T09:31:58Z</time>
      </trkpt>
      <trkpt lat="45.85519" lon="6.77429">
        <ele>1958.34</ele>
        <time>2017-08-02T09:31:59Z</time>
      </trkpt>
      <trkpt lat="45.85519" lon="6.77428">
        <ele>1958.34</ele>
        <time>2017-08-02T09:32:00Z</time>
      </trkpt>
      <trkpt lat="45.85518" lon="6.77426">
        <ele>1958.82</ele>
        <time>2017-08-02T09:32:01Z</time>
      </trkpt>
      <trkpt lat="45.85517" lon="6.77422">
        <ele>1958.82</ele>
        <time>2017-08-02T09:32:03Z</time>
      </trkpt>
      <trkpt lat="45.85517" lon="6.77421">
        <ele>1958.82</ele>
        <time>2017-08-02T09:32:04Z</time>
      </trkpt>
      <trkpt lat="45.85516" lon="6.7742">
        <ele>1959.3</ele>
        <time>2017-08-02T09:32:05Z</time>
      </trkpt>
      <trkpt lat="45.85515" lon="6.77419">
        <ele>1959.3</ele>
        <time>2017-08-02T09:32:06Z</time>
      </trkpt>
      <trkpt lat="45.8551" lon="6.77414">
        <ele>1960.27</ele>
        <time>2017-08-02T09:32:10Z</time>
      </trkpt>
      <trkpt lat="45.85501" lon="6.77404">
        <ele>1962.19</ele>
        <time>2017-08-02T09:32:19Z</time>
      </trkpt>
      <trkpt lat="45.85501" lon="6.77403">
        <ele>1962.19</ele>
        <time>2017-08-02T09:32:20Z</time>
      </trkpt>
      <trkpt lat="45.855" lon="6.77402">
        <ele>1962.67</ele>
        <time>2017-08-02T09:32:21Z</time>
      </trkpt>
      <trkpt lat="45.85499" lon="6.77401">
        <ele>1962.67</ele>
        <time>2017-08-02T09:32:22Z</time>
      </trkpt>
      <trkpt lat="45.85498" lon="6.77399">
        <ele>1963.15</ele>
        <time>2017-08-02T09:32:23Z</time>
      </trkpt>
      <trkpt lat="45.85498" lon="6.77398">
        <ele>1963.15</ele>
        <time>2017-08-02T09:32:24Z</time>
      </trkpt>
      <trkpt lat="45.85491" lon="6.77389">
        <ele>1964.59</ele>
        <time>2017-08-02T09:32:31Z</time>
      </trkpt>
      <trkpt lat="45.85491" lon="6.77388">
        <ele>1964.59</ele>
        <time>2017-08-02T09:32:32Z</time>
      </trkpt>
      <trkpt lat="45.85483" lon="6.77377">
        <ele>1966.51</ele>
        <time>2017-08-02T09:32:42Z</time>
      </trkpt>
      <trkpt lat="45.85482" lon="6.77376">
        <ele>1966.99</ele>
        <time>2017-08-02T09:32:43Z</time>
      </trkpt>
      <trkpt lat="45.85481" lon="6.77376">
        <ele>1966.99</ele>
        <time>2017-08-02T09:32:44Z</time>
      </trkpt>
      <trkpt lat="45.85476" lon="6.77375">
        <ele>1967.96</ele>
        <time>2017-08-02T09:32:49Z</time>
      </trkpt>
      <trkpt lat="45.85475" lon="6.77375">
        <ele>1967.96</ele>
        <time>2017-08-02T09:32:50Z</time>
      </trkpt>
      <trkpt lat="45.85458" lon="6.77365">
        <ele>1970.84</ele>
        <time>2017-08-02T09:33:06Z</time>
      </trkpt>
      <trkpt lat="45.85457" lon="6.77364">
        <ele>1971.32</ele>
        <time>2017-08-02T09:33:07Z</time>
      </trkpt>
      <trkpt lat="45.85456" lon="6.77363">
        <ele>1971.32</ele>
        <time>2017-08-02T09:33:08Z</time>
      </trkpt>
      <trkpt lat="45.85455" lon="6.77362">
        <ele>1971.32</ele>
        <time>2017-08-02T09:33:09Z</time>
      </trkpt>
      <trkpt lat="45.85454" lon="6.77361">
        <ele>1971.8</ele>
        <time>2017-08-02T09:33:10Z</time>
      </trkpt>
      <trkpt lat="45.85454" lon="6.77359">
        <ele>1971.8</ele>
        <time>2017-08-02T09:33:11Z</time>
      </trkpt>
      <trkpt lat="45.85453" lon="6.77358">
        <ele>1972.28</ele>
        <time>2017-08-02T09:33:12Z</time>
      </trkpt>
      <trkpt lat="45.85452" lon="6.77357">
        <ele>1972.28</ele>
        <time>2017-08-02T09:33:13Z</time>
      </trkpt>
      <trkpt lat="45.85451" lon="6.77356">
        <ele>1972.28</ele>
        <time>2017-08-02T09:33:14Z</time>
      </trkpt>
      <trkpt lat="45.85434" lon="6.77343">
        <ele>1974.69</ele>
        <time>2017-08-02T09:33:28Z</time>
      </trkpt>
      <trkpt lat="45.85432" lon="6.77342">
        <ele>1975.17</ele>
        <time>2017-08-02T09:33:30Z</time>
      </trkpt>
      <trkpt lat="45.85431" lon="6.77341">
        <ele>1975.17</ele>
        <time>2017-08-02T09:33:31Z</time>
      </trkpt>
      <trkpt lat="45.8543" lon="6.7734">
        <ele>1975.65</ele>
        <time>2017-08-02T09:33:32Z</time>
      </trkpt>
      <trkpt lat="45.85429" lon="6.7734">
        <ele>1975.65</ele>
        <time>2017-08-02T09:33:33Z</time>
      </trkpt>
      <trkpt lat="45.85427" lon="6.77339">
        <ele>1976.13</ele>
        <time>2017-08-02T09:33:34Z</time>
      </trkpt>
      <trkpt lat="45.85418" lon="6.77333">
        <ele>1978.05</ele>
        <time>2017-08-02T09:33:43Z</time>
      </trkpt>
      <trkpt lat="45.85417" lon="6.77333">
        <ele>1978.05</ele>
        <time>2017-08-02T09:33:44Z</time>
      </trkpt>
      <trkpt lat="45.85416" lon="6.77332">
        <ele>1978.53</ele>
        <time>2017-08-02T09:33:45Z</time>
      </trkpt>
      <trkpt lat="45.85414" lon="6.77331">
        <ele>1978.53</ele>
        <time>2017-08-02T09:33:46Z</time>
      </trkpt>
      <trkpt lat="45.85413" lon="6.77329">
        <ele>1979.01</ele>
        <time>2017-08-02T09:33:48Z</time>
      </trkpt>
      <trkpt lat="45.85411" lon="6.77329">
        <ele>1979.01</ele>
        <time>2017-08-02T09:33:49Z</time>
      </trkpt>
      <trkpt lat="45.8541" lon="6.77328">
        <ele>1979.01</ele>
        <time>2017-08-02T09:33:50Z</time>
      </trkpt>
      <trkpt lat="45.85409" lon="6.77327">
        <ele>1979.49</ele>
        <time>2017-08-02T09:33:51Z</time>
      </trkpt>
      <trkpt lat="45.85407" lon="6.77327">
        <ele>1979.49</ele>
        <time>2017-08-02T09:33:52Z</time>
      </trkpt>
      <trkpt lat="45.85406" lon="6.77326">
        <ele>1979.49</ele>
        <time>2017-08-02T09:33:53Z</time>
      </trkpt>
      <trkpt lat="45.85405" lon="6.77325">
        <ele>1979.49</ele>
        <time>2017-08-02T09:33:54Z</time>
      </trkpt>
      <trkpt lat="45.85404" lon="6.77325">
        <ele>1979.97</ele>
        <time>2017-08-02T09:33:55Z</time>
      </trkpt>
      <trkpt lat="45.85403" lon="6.77324">
        <ele>1979.97</ele>
        <time>2017-08-02T09:33:56Z</time>
      </trkpt>
      <trkpt lat="45.85402" lon="6.77323">
        <ele>1980.45</ele>
        <time>2017-08-02T09:33:57Z</time>
      </trkpt>
      <trkpt lat="45.85401" lon="6.77322">
        <ele>1980.45</ele>
        <time>2017-08-02T09:33:58Z</time>
      </trkpt>
      <trkpt lat="45.85394" lon="6.77318">
        <ele>1982.38</ele>
        <time>2017-08-02T09:34:04Z</time>
      </trkpt>
      <trkpt lat="45.85393" lon="6.77318">
        <ele>1982.38</ele>
        <time>2017-08-02T09:34:05Z</time>
      </trkpt>
      <trkpt lat="45.85391" lon="6.77317">
        <ele>1982.38</ele>
        <time>2017-08-02T09:34:06Z</time>
      </trkpt>
      <trkpt lat="45.85386" lon="6.77312">
        <ele>1983.82</ele>
        <time>2017-08-02T09:34:11Z</time>
      </trkpt>
      <trkpt lat="45.85384" lon="6.77312">
        <ele>1983.82</ele>
        <time>2017-08-02T09:34:13Z</time>
      </trkpt>
      <trkpt lat="45.85383" lon="6.77311">
        <ele>1983.82</ele>
        <time>2017-08-02T09:34:14Z</time>
      </trkpt>
      <trkpt lat="45.85374" lon="6.77309">
        <ele>1985.74</ele>
        <time>2017-08-02T09:34:22Z</time>
      </trkpt>
      <trkpt lat="45.85373" lon="6.77308">
        <ele>1986.22</ele>
        <time>2017-08-02T09:34:23Z</time>
      </trkpt>
      <trkpt lat="45.85372" lon="6.77307">
        <ele>1986.22</ele>
        <time>2017-08-02T09:34:24Z</time>
      </trkpt>
      <trkpt lat="45.85361" lon="6.77299">
        <ele>1989.59</ele>
        <time>2017-08-02T09:34:37Z</time>
      </trkpt>
      <trkpt lat="45.8536" lon="6.77299">
        <ele>1990.07</ele>
        <time>2017-08-02T09:34:38Z</time>
      </trkpt>
      <trkpt lat="45.85356" lon="6.77297">
        <ele>1991.03</ele>
        <time>2017-08-02T09:34:42Z</time>
      </trkpt>
      <trkpt lat="45.85355" lon="6.77296">
        <ele>1991.03</ele>
        <time>2017-08-02T09:34:43Z</time>
      </trkpt>
      <trkpt lat="45.85353" lon="6.77295">
        <ele>1991.51</ele>
        <time>2017-08-02T09:34:45Z</time>
      </trkpt>
      <trkpt lat="45.85352" lon="6.77295">
        <ele>1991.99</ele>
        <time>2017-08-02T09:34:46Z</time>
      </trkpt>
      <trkpt lat="45.85351" lon="6.77294">
        <ele>1991.99</ele>
        <time>2017-08-02T09:34:47Z</time>
      </trkpt>
      <trkpt lat="45.85347" lon="6.77292">
        <ele>1992.47</ele>
        <time>2017-08-02T09:34:51Z</time>
      </trkpt>
      <trkpt lat="45.85346" lon="6.77292">
        <ele>1992.95</ele>
        <time>2017-08-02T09:34:52Z</time>
      </trkpt>
      <trkpt lat="45.85345" lon="6.77291">
        <ele>1992.95</ele>
        <time>2017-08-02T09:34:53Z</time>
      </trkpt>
      <trkpt lat="45.85343" lon="6.77291">
        <ele>1993.43</ele>
        <time>2017-08-02T09:34:54Z</time>
      </trkpt>
      <trkpt lat="45.85342" lon="6.77291">
        <ele>1993.43</ele>
        <time>2017-08-02T09:34:55Z</time>
      </trkpt>
      <trkpt lat="45.85329" lon="6.77285">
        <ele>1995.83</ele>
        <time>2017-08-02T09:35:07Z</time>
      </trkpt>
      <trkpt lat="45.85328" lon="6.77285">
        <ele>1995.83</ele>
        <time>2017-08-02T09:35:08Z</time>
      </trkpt>
      <trkpt lat="45.85327" lon="6.77284">
        <ele>1996.32</ele>
        <time>2017-08-02T09:35:09Z</time>
      </trkpt>
      <trkpt lat="45.85326" lon="6.77283">
        <ele>1996.32</ele>
        <time>2017-08-02T09:35:10Z</time>
      </trkpt>
      <trkpt lat="45.85314" lon="6.77275">
        <ele>1999.2</ele>
        <time>2017-08-02T09:35:24Z</time>
      </trkpt>
      <trkpt lat="45.85313" lon="6.77273">
        <ele>1999.68</ele>
        <time>2017-08-02T09:35:25Z</time>
      </trkpt>
      <trkpt lat="45.85312" lon="6.77271">
        <ele>1999.68</ele>
        <time>2017-08-02T09:35:26Z</time>
      </trkpt>
      <trkpt lat="45.85311" lon="6.77271">
        <ele>1999.68</ele>
        <time>2017-08-02T09:35:27Z</time>
      </trkpt>
      <trkpt lat="45.8531" lon="6.7727">
        <ele>2000.16</ele>
        <time>2017-08-02T09:35:28Z</time>
      </trkpt>
      <trkpt lat="45.85309" lon="6.7727">
        <ele>2000.16</ele>
        <time>2017-08-02T09:35:29Z</time>
      </trkpt>
      <trkpt lat="45.85305" lon="6.77266">
        <ele>2001.6</ele>
        <time>2017-08-02T09:35:35Z</time>
      </trkpt>
      <trkpt lat="45.85299" lon="6.77264">
        <ele>2002.56</ele>
        <time>2017-08-02T09:35:41Z</time>
      </trkpt>
      <trkpt lat="45.85298" lon="6.77263">
        <ele>2002.56</ele>
        <time>2017-08-02T09:35:42Z</time>
      </trkpt>
      <trkpt lat="45.85298" lon="6.77261">
        <ele>2002.56</ele>
        <time>2017-08-02T09:35:43Z</time>
      </trkpt>
      <trkpt lat="45.85297" lon="6.7726">
        <ele>2003.04</ele>
        <time>2017-08-02T09:35:44Z</time>
      </trkpt>
      <trkpt lat="45.85296" lon="6.77258">
        <ele>2003.52</ele>
        <time>2017-08-02T09:35:45Z</time>
      </trkpt>
      <trkpt lat="45.85296" lon="6.77257">
        <ele>2003.52</ele>
        <time>2017-08-02T09:35:46Z</time>
      </trkpt>
      <trkpt lat="45.85294" lon="6.77256">
        <ele>2004.01</ele>
        <time>2017-08-02T09:35:48Z</time>
      </trkpt>
      <trkpt lat="45.85293" lon="6.77256">
        <ele>2004.01</ele>
        <time>2017-08-02T09:35:49Z</time>
      </trkpt>
      <trkpt lat="45.85292" lon="6.77255">
        <ele>2004.01</ele>
        <time>2017-08-02T09:35:50Z</time>
      </trkpt>
      <trkpt lat="45.85291" lon="6.77254">
        <ele>2004.49</ele>
        <time>2017-08-02T09:35:51Z</time>
      </trkpt>
      <trkpt lat="45.8529" lon="6.77254">
        <ele>2004.49</ele>
        <time>2017-08-02T09:35:52Z</time>
      </trkpt>
      <trkpt lat="45.85288" lon="6.77251">
        <ele>2005.45</ele>
        <time>2017-08-02T09:35:55Z</time>
      </trkpt>
      <trkpt lat="45.85287" lon="6.77251">
        <ele>2005.45</ele>
        <time>2017-08-02T09:35:56Z</time>
      </trkpt>
      <trkpt lat="45.85281" lon="6.77247">
        <ele>2006.89</ele>
        <time>2017-08-02T09:36:02Z</time>
      </trkpt>
      <trkpt lat="45.8528" lon="6.77246">
        <ele>2006.89</ele>
        <time>2017-08-02T09:36:03Z</time>
      </trkpt>
      <trkpt lat="45.85279" lon="6.77245">
        <ele>2007.37</ele>
        <time>2017-08-02T09:36:04Z</time>
      </trkpt>
      <trkpt lat="45.85278" lon="6.77244">
        <ele>2007.37</ele>
        <time>2017-08-02T09:36:05Z</time>
      </trkpt>
      <trkpt lat="45.85278" lon="6.77243">
        <ele>2007.37</ele>
        <time>2017-08-02T09:36:06Z</time>
      </trkpt>
      <trkpt lat="45.85277" lon="6.7724">
        <ele>2008.33</ele>
        <time>2017-08-02T09:36:09Z</time>
      </trkpt>
      <trkpt lat="45.85275" lon="6.77237">
        <ele>2009.29</ele>
        <time>2017-08-02T09:36:13Z</time>
      </trkpt>
      <trkpt lat="45.85275" lon="6.77236">
        <ele>2009.77</ele>
        <time>2017-08-02T09:36:14Z</time>
      </trkpt>
      <trkpt lat="45.85274" lon="6.77233">
        <ele>2010.25</ele>
        <time>2017-08-02T09:36:17Z</time>
      </trkpt>
      <trkpt lat="45.85273" lon="6.77232">
        <ele>2010.73</ele>
        <time>2017-08-02T09:36:18Z</time>
      </trkpt>
      <trkpt lat="45.85272" lon="6.77231">
        <ele>2010.73</ele>
        <time>2017-08-02T09:36:19Z</time>
      </trkpt>
      <trkpt lat="45.85268" lon="6.77229">
        <ele>2011.7</ele>
        <time>2017-08-02T09:36:23Z</time>
      </trkpt>
      <trkpt lat="45.85267" lon="6.77228">
        <ele>2011.7</ele>
        <time>2017-08-02T09:36:24Z</time>
      </trkpt>
      <trkpt lat="45.85265" lon="6.77228">
        <ele>2012.18</ele>
        <time>2017-08-02T09:36:25Z</time>
      </trkpt>
      <trkpt lat="45.85264" lon="6.77226">
        <ele>2012.18</ele>
        <time>2017-08-02T09:36:26Z</time>
      </trkpt>
      <trkpt lat="45.85263" lon="6.77225">
        <ele>2012.66</ele>
        <time>2017-08-02T09:36:27Z</time>
      </trkpt>
      <trkpt lat="45.85262" lon="6.77224">
        <ele>2012.66</ele>
        <time>2017-08-02T09:36:28Z</time>
      </trkpt>
      <trkpt lat="45.85261" lon="6.77224">
        <ele>2012.66</ele>
        <time>2017-08-02T09:36:29Z</time>
      </trkpt>
      <trkpt lat="45.85259" lon="6.77223">
        <ele>2012.66</ele>
        <time>2017-08-02T09:36:30Z</time>
      </trkpt>
      <trkpt lat="45.85258" lon="6.77221">
        <ele>2013.14</ele>
        <time>2017-08-02T09:36:31Z</time>
      </trkpt>
      <trkpt lat="45.85257" lon="6.77221">
        <ele>2013.14</ele>
        <time>2017-08-02T09:36:32Z</time>
      </trkpt>
      <trkpt lat="45.85256" lon="6.77221">
        <ele>2013.62</ele>
        <time>2017-08-02T09:36:33Z</time>
      </trkpt>
      <trkpt lat="45.85254" lon="6.7722">
        <ele>2014.1</ele>
        <time>2017-08-02T09:36:34Z</time>
      </trkpt>
      <trkpt lat="45.85253" lon="6.77219">
        <ele>2014.1</ele>
        <time>2017-08-02T09:36:35Z</time>
      </trkpt>
      <trkpt lat="45.85252" lon="6.77218">
        <ele>2014.58</ele>
        <time>2017-08-02T09:36:36Z</time>
      </trkpt>
      <trkpt lat="45.85251" lon="6.77217">
        <ele>2014.58</ele>
        <time>2017-08-02T09:36:37Z</time>
      </trkpt>
      <trkpt lat="45.8525" lon="6.77216">
        <ele>2015.06</ele>
        <time>2017-08-02T09:36:38Z</time>
      </trkpt>
      <trkpt lat="45.85249" lon="6.77215">
        <ele>2015.54</ele>
        <time>2017-08-02T09:36:39Z</time>
      </trkpt>
      <trkpt lat="45.85248" lon="6.77214">
        <ele>2015.54</ele>
        <time>2017-08-02T09:36:40Z</time>
      </trkpt>
      <trkpt lat="45.85247" lon="6.77213">
        <ele>2016.02</ele>
        <time>2017-08-02T09:36:41Z</time>
      </trkpt>
      <trkpt lat="45.85246" lon="6.77212">
        <ele>2016.02</ele>
        <time>2017-08-02T09:36:42Z</time>
      </trkpt>
      <trkpt lat="45.85245" lon="6.77212">
        <ele>2016.5</ele>
        <time>2017-08-02T09:36:43Z</time>
      </trkpt>
      <trkpt lat="45.85244" lon="6.77211">
        <ele>2016.98</ele>
        <time>2017-08-02T09:36:44Z</time>
      </trkpt>
      <trkpt lat="45.85243" lon="6.77209">
        <ele>2016.98</ele>
        <time>2017-08-02T09:36:45Z</time>
      </trkpt>
      <trkpt lat="45.85241" lon="6.77208">
        <ele>2017.46</ele>
        <time>2017-08-02T09:36:46Z</time>
      </trkpt>
      <trkpt lat="45.85231" lon="6.772">
        <ele>2020.35</ele>
        <time>2017-08-02T09:36:57Z</time>
      </trkpt>
      <trkpt lat="45.8523" lon="6.772">
        <ele>2020.83</ele>
        <time>2017-08-02T09:36:58Z</time>
      </trkpt>
      <trkpt lat="45.85229" lon="6.77199">
        <ele>2020.83</ele>
        <time>2017-08-02T09:36:59Z</time>
      </trkpt>
      <trkpt lat="45.85218" lon="6.77188">
        <ele>2024.19</ele>
        <time>2017-08-02T09:37:14Z</time>
      </trkpt>
      <trkpt lat="45.85212" lon="6.77181">
        <ele>2026.12</ele>
        <time>2017-08-02T09:37:22Z</time>
      </trkpt>
      <trkpt lat="45.85208" lon="6.77176">
        <ele>2027.56</ele>
        <time>2017-08-02T09:37:29Z</time>
      </trkpt>
      <trkpt lat="45.85198" lon="6.77173">
        <ele>2030.44</ele>
        <time>2017-08-02T09:37:41Z</time>
      </trkpt>
      <trkpt lat="45.85192" lon="6.77172">
        <ele>2031.88</ele>
        <time>2017-08-02T09:37:48Z</time>
      </trkpt>
      <trkpt lat="45.85191" lon="6.77171">
        <ele>2032.36</ele>
        <time>2017-08-02T09:37:49Z</time>
      </trkpt>
      <trkpt lat="45.85182" lon="6.77166">
        <ele>2035.25</ele>
        <time>2017-08-02T09:38:02Z</time>
      </trkpt>
      <trkpt lat="45.85175" lon="6.7716">
        <ele>2037.65</ele>
        <time>2017-08-02T09:38:11Z</time>
      </trkpt>
      <trkpt lat="45.85171" lon="6.77154">
        <ele>2041.02</ele>
        <time>2017-08-02T09:38:24Z</time>
      </trkpt>
      <trkpt lat="45.8517" lon="6.77153">
        <ele>2041.02</ele>
        <time>2017-08-02T09:38:25Z</time>
      </trkpt>
      <trkpt lat="45.85169" lon="6.77152">
        <ele>2041.02</ele>
        <time>2017-08-02T09:38:27Z</time>
      </trkpt>
      <trkpt lat="45.85166" lon="6.77146">
        <ele>2042.94</ele>
        <time>2017-08-02T09:38:34Z</time>
      </trkpt>
      <trkpt lat="45.85165" lon="6.77142">
        <ele>2044.38</ele>
        <time>2017-08-02T09:38:39Z</time>
      </trkpt>
      <trkpt lat="45.85164" lon="6.77141">
        <ele>2044.86</ele>
        <time>2017-08-02T09:38:40Z</time>
      </trkpt>
      <trkpt lat="45.85162" lon="6.77139">
        <ele>2045.34</ele>
        <time>2017-08-02T09:38:43Z</time>
      </trkpt>
      <trkpt lat="45.8516" lon="6.77138">
        <ele>2046.78</ele>
        <time>2017-08-02T09:38:47Z</time>
      </trkpt>
      <trkpt lat="45.85159" lon="6.77138">
        <ele>2046.78</ele>
        <time>2017-08-02T09:38:48Z</time>
      </trkpt>
      <trkpt lat="45.85158" lon="6.77137">
        <ele>2046.78</ele>
        <time>2017-08-02T09:38:49Z</time>
      </trkpt>
      <trkpt lat="45.85157" lon="6.77136">
        <ele>2047.26</ele>
        <time>2017-08-02T09:38:50Z</time>
      </trkpt>
      <trkpt lat="45.85149" lon="6.77129">
        <ele>2050.15</ele>
        <time>2017-08-02T09:39:02Z</time>
      </trkpt>
      <trkpt lat="45.85149" lon="6.77128">
        <ele>2050.63</ele>
        <time>2017-08-02T09:39:03Z</time>
      </trkpt>
      <trkpt lat="45.85148" lon="6.77128">
        <ele>2050.63</ele>
        <time>2017-08-02T09:39:04Z</time>
      </trkpt>
      <trkpt lat="45.85145" lon="6.77129">
        <ele>2051.59</ele>
        <time>2017-08-02T09:39:08Z</time>
      </trkpt>
      <trkpt lat="45.85145" lon="6.77128">
        <ele>2051.59</ele>
        <time>2017-08-02T09:39:09Z</time>
      </trkpt>
      <trkpt lat="45.85144" lon="6.77128">
        <ele>2052.07</ele>
        <time>2017-08-02T09:39:10Z</time>
      </trkpt>
      <trkpt lat="45.85143" lon="6.77127">
        <ele>2052.07</ele>
        <time>2017-08-02T09:39:11Z</time>
      </trkpt>
      <trkpt lat="45.85142" lon="6.77126">
        <ele>2052.55</ele>
        <time>2017-08-02T09:39:12Z</time>
      </trkpt>
      <trkpt lat="45.85142" lon="6.77125">
        <ele>2052.55</ele>
        <time>2017-08-02T09:39:13Z</time>
      </trkpt>
      <trkpt lat="45.85137" lon="6.77122">
        <ele>2053.99</ele>
        <time>2017-08-02T09:39:19Z</time>
      </trkpt>
      <trkpt lat="45.85136" lon="6.77121">
        <ele>2053.99</ele>
        <time>2017-08-02T09:39:20Z</time>
      </trkpt>
      <trkpt lat="45.85136" lon="6.7712">
        <ele>2054.47</ele>
        <time>2017-08-02T09:39:21Z</time>
      </trkpt>
      <trkpt lat="45.85135" lon="6.77119">
        <ele>2054.47</ele>
        <time>2017-08-02T09:39:22Z</time>
      </trkpt>
      <trkpt lat="45.85128" lon="6.7711">
        <ele>2056.4</ele>
        <time>2017-08-02T09:39:31Z</time>
      </trkpt>
      <trkpt lat="45.85127" lon="6.77109">
        <ele>2056.88</ele>
        <time>2017-08-02T09:39:32Z</time>
      </trkpt>
      <trkpt lat="45.85126" lon="6.77108">
        <ele>2056.88</ele>
        <time>2017-08-02T09:39:33Z</time>
      </trkpt>
      <trkpt lat="45.85125" lon="6.77107">
        <ele>2056.88</ele>
        <time>2017-08-02T09:39:34Z</time>
      </trkpt>
      <trkpt lat="45.85124" lon="6.77106">
        <ele>2057.36</ele>
        <time>2017-08-02T09:39:35Z</time>
      </trkpt>
      <trkpt lat="45.85123" lon="6.77105">
        <ele>2057.36</ele>
        <time>2017-08-02T09:39:36Z</time>
      </trkpt>
      <trkpt lat="45.85122" lon="6.77104">
        <ele>2057.36</ele>
        <time>2017-08-02T09:39:37Z</time>
      </trkpt>
      <trkpt lat="45.85121" lon="6.77102">
        <ele>2057.36</ele>
        <time>2017-08-02T09:39:38Z</time>
      </trkpt>
      <trkpt lat="45.8512" lon="6.77101">
        <ele>2057.84</ele>
        <time>2017-08-02T09:39:39Z</time>
      </trkpt>
      <trkpt lat="45.85118" lon="6.77098">
        <ele>2057.84</ele>
        <time>2017-08-02T09:39:42Z</time>
      </trkpt>
      <trkpt lat="45.85114" lon="6.77094">
        <ele>2058.32</ele>
        <time>2017-08-02T09:39:46Z</time>
      </trkpt>
      <trkpt lat="45.85113" lon="6.77093">
        <ele>2058.32</ele>
        <time>2017-08-02T09:39:47Z</time>
      </trkpt>
      <trkpt lat="45.85113" lon="6.77092">
        <ele>2058.8</ele>
        <time>2017-08-02T09:39:48Z</time>
      </trkpt>
      <trkpt lat="45.8511" lon="6.77088">
        <ele>2058.8</ele>
        <time>2017-08-02T09:39:52Z</time>
      </trkpt>
      <trkpt lat="45.85109" lon="6.77087">
        <ele>2059.28</ele>
        <time>2017-08-02T09:39:53Z</time>
      </trkpt>
      <trkpt lat="45.85103" lon="6.77077">
        <ele>2061.68</ele>
        <time>2017-08-02T09:40:03Z</time>
      </trkpt>
      <trkpt lat="45.85103" lon="6.77076">
        <ele>2062.17</ele>
        <time>2017-08-02T09:40:04Z</time>
      </trkpt>
      <trkpt lat="45.85102" lon="6.77074">
        <ele>2062.17</ele>
        <time>2017-08-02T09:40:05Z</time>
      </trkpt>
      <trkpt lat="45.85102" lon="6.77073">
        <ele>2062.17</ele>
        <time>2017-08-02T09:40:06Z</time>
      </trkpt>
      <trkpt lat="45.85101" lon="6.77072">
        <ele>2062.65</ele>
        <time>2017-08-02T09:40:07Z</time>
      </trkpt>
      <trkpt lat="45.85101" lon="6.7707">
        <ele>2062.65</ele>
        <time>2017-08-02T09:40:08Z</time>
      </trkpt>
      <trkpt lat="45.851" lon="6.77066">
        <ele>2063.61</ele>
        <time>2017-08-02T09:40:11Z</time>
      </trkpt>
      <trkpt lat="45.85098" lon="6.77062">
        <ele>2064.09</ele>
        <time>2017-08-02T09:40:14Z</time>
      </trkpt>
      <trkpt lat="45.85098" lon="6.77062">
        <ele>2064.09</ele>
        <time>2017-08-02T09:40:15Z</time>
      </trkpt>
      <trkpt lat="45.85093" lon="6.77052">
        <ele>2065.05</ele>
        <time>2017-08-02T09:40:22Z</time>
      </trkpt>
      <trkpt lat="45.85092" lon="6.77051">
        <ele>2065.53</ele>
        <time>2017-08-02T09:40:23Z</time>
      </trkpt>
      <trkpt lat="45.85092" lon="6.77049">
        <ele>2066.01</ele>
        <time>2017-08-02T09:40:24Z</time>
      </trkpt>
      <trkpt lat="45.85092" lon="6.77047">
        <ele>2066.01</ele>
        <time>2017-08-02T09:40:25Z</time>
      </trkpt>
      <trkpt lat="45.85091" lon="6.77045">
        <ele>2066.01</ele>
        <time>2017-08-02T09:40:26Z</time>
      </trkpt>
      <trkpt lat="45.85091" lon="6.77044">
        <ele>2066.49</ele>
        <time>2017-08-02T09:40:27Z</time>
      </trkpt>
      <trkpt lat="45.8509" lon="6.7704">
        <ele>2066.97</ele>
        <time>2017-08-02T09:40:30Z</time>
      </trkpt>
      <trkpt lat="45.85089" lon="6.77039">
        <ele>2067.45</ele>
        <time>2017-08-02T09:40:31Z</time>
      </trkpt>
      <trkpt lat="45.85089" lon="6.77037">
        <ele>2067.93</ele>
        <time>2017-08-02T09:40:32Z</time>
      </trkpt>
      <trkpt lat="45.85088" lon="6.77036">
        <ele>2068.41</ele>
        <time>2017-08-02T09:40:33Z</time>
      </trkpt>
      <trkpt lat="45.85087" lon="6.77034">
        <ele>2068.41</ele>
        <time>2017-08-02T09:40:34Z</time>
      </trkpt>
      <trkpt lat="45.85087" lon="6.77033">
        <ele>2068.41</ele>
        <time>2017-08-02T09:40:35Z</time>
      </trkpt>
      <trkpt lat="45.85086" lon="6.77032">
        <ele>2068.89</ele>
        <time>2017-08-02T09:40:36Z</time>
      </trkpt>
      <trkpt lat="45.85083" lon="6.7703">
        <ele>2069.86</ele>
        <time>2017-08-02T09:40:40Z</time>
      </trkpt>
      <trkpt lat="45.85083" lon="6.77029">
        <ele>2069.86</ele>
        <time>2017-08-02T09:40:41Z</time>
      </trkpt>
      <trkpt lat="45.85074" lon="6.77021">
        <ele>2073.22</ele>
        <time>2017-08-02T09:40:55Z</time>
      </trkpt>
      <trkpt lat="45.85072" lon="6.77021">
        <ele>2073.7</ele>
        <time>2017-08-02T09:40:57Z</time>
      </trkpt>
      <trkpt lat="45.85071" lon="6.77021">
        <ele>2074.18</ele>
        <time>2017-08-02T09:40:58Z</time>
      </trkpt>
      <trkpt lat="45.8507" lon="6.7702">
        <ele>2074.18</ele>
        <time>2017-08-02T09:40:59Z</time>
      </trkpt>
      <trkpt lat="45.85069" lon="6.77019">
        <ele>2074.18</ele>
        <time>2017-08-02T09:41:00Z</time>
      </trkpt>
      <trkpt lat="45.85068" lon="6.77017">
        <ele>2074.66</ele>
        <time>2017-08-02T09:41:03Z</time>
      </trkpt>
      <trkpt lat="45.85066" lon="6.77016">
        <ele>2075.14</ele>
        <time>2017-08-02T09:41:05Z</time>
      </trkpt>
      <trkpt lat="45.85066" lon="6.77015">
        <ele>2075.62</ele>
        <time>2017-08-02T09:41:06Z</time>
      </trkpt>
      <trkpt lat="45.85065" lon="6.77014">
        <ele>2075.62</ele>
        <time>2017-08-02T09:41:07Z</time>
      </trkpt>
      <trkpt lat="45.85064" lon="6.77013">
        <ele>2076.1</ele>
        <time>2017-08-02T09:41:08Z</time>
      </trkpt>
      <trkpt lat="45.85064" lon="6.77012">
        <ele>2076.1</ele>
        <time>2017-08-02T09:41:09Z</time>
      </trkpt>
      <trkpt lat="45.85055" lon="6.77003">
        <ele>2079.47</ele>
        <time>2017-08-02T09:41:22Z</time>
      </trkpt>
      <trkpt lat="45.85055" lon="6.77002">
        <ele>2079.95</ele>
        <time>2017-08-02T09:41:23Z</time>
      </trkpt>
      <trkpt lat="45.85054" lon="6.77002">
        <ele>2079.95</ele>
        <time>2017-08-02T09:41:24Z</time>
      </trkpt>
      <trkpt lat="45.85053" lon="6.77001">
        <ele>2079.95</ele>
        <time>2017-08-02T09:41:25Z</time>
      </trkpt>
      <trkpt lat="45.85052" lon="6.77">
        <ele>2080.43</ele>
        <time>2017-08-02T09:41:26Z</time>
      </trkpt>
      <trkpt lat="45.85048" lon="6.76999">
        <ele>2080.91</ele>
        <time>2017-08-02T09:41:30Z</time>
      </trkpt>
      <trkpt lat="45.85041" lon="6.77012">
        <ele>2081.87</ele>
        <time>2017-08-02T09:41:39Z</time>
      </trkpt>
      <trkpt lat="45.8504" lon="6.77013">
        <ele>2081.87</ele>
        <time>2017-08-02T09:41:40Z</time>
      </trkpt>
      <trkpt lat="45.85039" lon="6.77013">
        <ele>2081.87</ele>
        <time>2017-08-02T09:41:41Z</time>
      </trkpt>
      <trkpt lat="45.85038" lon="6.77014">
        <ele>2082.35</ele>
        <time>2017-08-02T09:41:42Z</time>
      </trkpt>
      <trkpt lat="45.85037" lon="6.77015">
        <ele>2082.35</ele>
        <time>2017-08-02T09:41:43Z</time>
      </trkpt>
      <trkpt lat="45.85036" lon="6.77016">
        <ele>2082.35</ele>
        <time>2017-08-02T09:41:44Z</time>
      </trkpt>
      <trkpt lat="45.85035" lon="6.77017">
        <ele>2082.83</ele>
        <time>2017-08-02T09:41:45Z</time>
      </trkpt>
      <trkpt lat="45.85034" lon="6.77018">
        <ele>2082.83</ele>
        <time>2017-08-02T09:41:46Z</time>
      </trkpt>
      <trkpt lat="45.85031" lon="6.77023">
        <ele>2083.79</ele>
        <time>2017-08-02T09:41:52Z</time>
      </trkpt>
      <trkpt lat="45.85031" lon="6.77024">
        <ele>2083.79</ele>
        <time>2017-08-02T09:41:53Z</time>
      </trkpt>
      <trkpt lat="45.85031" lon="6.77028">
        <ele>2082.83</ele>
        <time>2017-08-02T09:42:02Z</time>
      </trkpt>
      <trkpt lat="45.85031" lon="6.77029">
        <ele>2083.31</ele>
        <time>2017-08-02T09:42:08Z</time>
      </trkpt>
      <trkpt lat="45.85031" lon="6.77029">
        <ele>2083.31</ele>
        <time>2017-08-02T09:42:14Z</time>
      </trkpt>
      <trkpt lat="45.85031" lon="6.77028">
        <ele>2082.83</ele>
        <time>2017-08-02T09:42:15Z</time>
      </trkpt>
      <trkpt lat="45.85031" lon="6.77028">
        <ele>2082.83</ele>
        <time>2017-08-02T09:42:18Z</time>
      </trkpt>
      <trkpt lat="45.85033" lon="6.7703">
        <ele>2082.83</ele>
        <time>2017-08-02T09:42:20Z</time>
      </trkpt>
      <trkpt lat="45.8503" lon="6.77031">
        <ele>2082.83</ele>
        <time>2017-08-02T09:42:23Z</time>
      </trkpt>
      <trkpt lat="45.8503" lon="6.77031">
        <ele>2082.83</ele>
        <time>2017-08-02T09:42:25Z</time>
      </trkpt>
      <trkpt lat="45.85027" lon="6.77029">
        <ele>2083.31</ele>
        <time>2017-08-02T09:42:44Z</time>
      </trkpt>
      <trkpt lat="45.85028" lon="6.77027">
        <ele>2083.31</ele>
        <time>2017-08-02T09:42:54Z</time>
      </trkpt>
      <trkpt lat="45.85029" lon="6.77028">
        <ele>2083.79</ele>
        <time>2017-08-02T09:43:01Z</time>
      </trkpt>
      <trkpt lat="45.85029" lon="6.77028">
        <ele>2083.31</ele>
        <time>2017-08-02T09:43:03Z</time>
      </trkpt>
      <trkpt lat="45.85029" lon="6.77029">
        <ele>2082.83</ele>
        <time>2017-08-02T09:43:08Z</time>
      </trkpt>
      <trkpt lat="45.85029" lon="6.7703">
        <ele>2082.35</ele>
        <time>2017-08-02T09:43:11Z</time>
      </trkpt>
      <trkpt lat="45.8503" lon="6.77031">
        <ele>2082.35</ele>
        <time>2017-08-02T09:43:22Z</time>
      </trkpt>
      <trkpt lat="45.8503" lon="6.77031">
        <ele>2082.35</ele>
        <time>2017-08-02T09:43:24Z</time>
      </trkpt>
      <trkpt lat="45.85031" lon="6.77031">
        <ele>2082.35</ele>
        <time>2017-08-02T09:43:26Z</time>
      </trkpt>
      <trkpt lat="45.85031" lon="6.77031">
        <ele>2082.35</ele>
        <time>2017-08-02T09:43:32Z</time>
      </trkpt>
      <trkpt lat="45.85029" lon="6.77029">
        <ele>2082.35</ele>
        <time>2017-08-02T09:43:42Z</time>
      </trkpt>
      <trkpt lat="45.8503" lon="6.77029">
        <ele>2081.87</ele>
        <time>2017-08-02T09:43:48Z</time>
      </trkpt>
      <trkpt lat="45.85029" lon="6.7703">
        <ele>2081.87</ele>
        <time>2017-08-02T09:43:57Z</time>
      </trkpt>
      <trkpt lat="45.85028" lon="6.7703">
        <ele>2082.35</ele>
        <time>2017-08-02T09:44:19Z</time>
      </trkpt>
      <trkpt lat="45.85027" lon="6.77032">
        <ele>2082.35</ele>
        <time>2017-08-02T09:44:57Z</time>
      </trkpt>
      <trkpt lat="45.85027" lon="6.77032">
        <ele>2082.35</ele>
        <time>2017-08-02T09:45:51Z</time>
      </trkpt>
      <trkpt lat="45.85025" lon="6.77031">
        <ele>2081.87</ele>
        <time>2017-08-02T09:46:32Z</time>
      </trkpt>
      <trkpt lat="45.85026" lon="6.77031">
        <ele>2081.87</ele>
        <time>2017-08-02T09:46:59Z</time>
      </trkpt>
      <trkpt lat="45.85025" lon="6.77031">
        <ele>2081.87</ele>
        <time>2017-08-02T09:47:05Z</time>
      </trkpt>
      <trkpt lat="45.85025" lon="6.77031">
        <ele>2082.35</ele>
        <time>2017-08-02T09:47:24Z</time>
      </trkpt>
      <trkpt lat="45.85025" lon="6.77031">
        <ele>2082.35</ele>
        <time>2017-08-02T09:47:39Z</time>
      </trkpt>
      <trkpt lat="45.85025" lon="6.77031">
        <ele>2082.35</ele>
        <time>2017-08-02T09:48:13Z</time>
      </trkpt>
      <trkpt lat="45.85025" lon="6.77032">
        <ele>2082.35</ele>
        <time>2017-08-02T09:48:29Z</time>
      </trkpt>
      <trkpt lat="45.85023" lon="6.77034">
        <ele>2082.35</ele>
        <time>2017-08-02T09:48:42Z</time>
      </trkpt>
      <trkpt lat="45.85023" lon="6.77034">
        <ele>2082.35</ele>
        <time>2017-08-02T09:48:57Z</time>
      </trkpt>
      <trkpt lat="45.85022" lon="6.77034">
        <ele>2082.83</ele>
        <time>2017-08-02T09:49:14Z</time>
      </trkpt>
      <trkpt lat="45.85023" lon="6.77034">
        <ele>2082.35</ele>
        <time>2017-08-02T09:49:39Z</time>
      </trkpt>
      <trkpt lat="45.85023" lon="6.77034">
        <ele>2081.87</ele>
        <time>2017-08-02T09:49:49Z</time>
      </trkpt>
      <trkpt lat="45.85024" lon="6.77034">
        <ele>2082.83</ele>
        <time>2017-08-02T09:49:57Z</time>
      </trkpt>
      <trkpt lat="45.85024" lon="6.77033">
        <ele>2082.83</ele>
        <time>2017-08-02T09:50:01Z</time>
      </trkpt>
      <trkpt lat="45.85024" lon="6.77034">
        <ele>2082.35</ele>
        <time>2017-08-02T09:50:17Z</time>
      </trkpt>
      <trkpt lat="45.85026" lon="6.77034">
        <ele>2082.35</ele>
        <time>2017-08-02T09:50:42Z</time>
      </trkpt>
      <trkpt lat="45.85024" lon="6.77033">
        <ele>2082.35</ele>
        <time>2017-08-02T09:51:18Z</time>
      </trkpt>
      <trkpt lat="45.85023" lon="6.77033">
        <ele>2082.35</ele>
        <time>2017-08-02T09:51:26Z</time>
      </trkpt>
      <trkpt lat="45.85022" lon="6.77034">
        <ele>2082.35</ele>
        <time>2017-08-02T09:51:36Z</time>
      </trkpt>
      <trkpt lat="45.85022" lon="6.77034">
        <ele>2082.35</ele>
        <time>2017-08-02T09:51:48Z</time>
      </trkpt>
      <trkpt lat="45.85022" lon="6.77034">
        <ele>2082.35</ele>
        <time>2017-08-02T09:52:00Z</time>
      </trkpt>
      <trkpt lat="45.85024" lon="6.77033">
        <ele>2082.35</ele>
        <time>2017-08-02T09:52:07Z</time>
      </trkpt>
      <trkpt lat="45.85023" lon="6.77033">
        <ele>2082.83</ele>
        <time>2017-08-02T09:52:25Z</time>
      </trkpt>
      <trkpt lat="45.85022" lon="6.77033">
        <ele>2082.83</ele>
        <time>2017-08-02T09:52:27Z</time>
      </trkpt>
      <trkpt lat="45.85021" lon="6.77034">
        <ele>2082.83</ele>
        <time>2017-08-02T09:52:40Z</time>
      </trkpt>
      <trkpt lat="45.85021" lon="6.77034">
        <ele>2082.83</ele>
        <time>2017-08-02T09:52:45Z</time>
      </trkpt>
      <trkpt lat="45.8502" lon="6.77034">
        <ele>2083.31</ele>
        <time>2017-08-02T09:52:49Z</time>
      </trkpt>
      <trkpt lat="45.85021" lon="6.77034">
        <ele>2083.31</ele>
        <time>2017-08-02T09:52:52Z</time>
      </trkpt>
      <trkpt lat="45.85022" lon="6.77033">
        <ele>2083.31</ele>
        <time>2017-08-02T09:52:55Z</time>
      </trkpt>
      <trkpt lat="45.85023" lon="6.77032">
        <ele>2083.31</ele>
        <time>2017-08-02T09:52:58Z</time>
      </trkpt>
      <trkpt lat="45.85023" lon="6.77031">
        <ele>2083.31</ele>
        <time>2017-08-02T09:52:59Z</time>
      </trkpt>
      <trkpt lat="45.85024" lon="6.7703">
        <ele>2083.31</ele>
        <time>2017-08-02T09:53:03Z</time>
      </trkpt>
      <trkpt lat="45.85026" lon="6.77029">
        <ele>2083.79</ele>
        <time>2017-08-02T09:53:13Z</time>
      </trkpt>
      <trkpt lat="45.85026" lon="6.77029">
        <ele>2083.79</ele>
        <time>2017-08-02T09:53:25Z</time>
      </trkpt>
      <trkpt lat="45.85026" lon="6.77029">
        <ele>2083.79</ele>
        <time>2017-08-02T09:53:28Z</time>
      </trkpt>
      <trkpt lat="45.85026" lon="6.77029">
        <ele>2083.31</ele>
        <time>2017-08-02T09:53:35Z</time>
      </trkpt>
      <trkpt lat="45.85026" lon="6.77029">
        <ele>2083.31</ele>
        <time>2017-08-02T09:53:42Z</time>
      </trkpt>
      <trkpt lat="45.85026" lon="6.77029">
        <ele>2082.83</ele>
        <time>2017-08-02T09:53:46Z</time>
      </trkpt>
      <trkpt lat="45.85027" lon="6.77029">
        <ele>2082.83</ele>
        <time>2017-08-02T09:53:49Z</time>
      </trkpt>
      <trkpt lat="45.85027" lon="6.7703">
        <ele>2082.83</ele>
        <time>2017-08-02T09:53:58Z</time>
      </trkpt>
      <trkpt lat="45.85027" lon="6.7703">
        <ele>2083.31</ele>
        <time>2017-08-02T09:54:04Z</time>
      </trkpt>
      <trkpt lat="45.85027" lon="6.77031">
        <ele>2083.31</ele>
        <time>2017-08-02T09:54:08Z</time>
      </trkpt>
      <trkpt lat="45.85026" lon="6.77032">
        <ele>2083.31</ele>
        <time>2017-08-02T09:54:13Z</time>
      </trkpt>
      <trkpt lat="45.85023" lon="6.77041">
        <ele>2084.28</ele>
        <time>2017-08-02T09:54:25Z</time>
      </trkpt>
      <trkpt lat="45.85023" lon="6.77042">
        <ele>2084.28</ele>
        <time>2017-08-02T09:54:26Z</time>
      </trkpt>
      <trkpt lat="45.85022" lon="6.77043">
        <ele>2084.76</ele>
        <time>2017-08-02T09:54:28Z</time>
      </trkpt>
      <trkpt lat="45.85021" lon="6.77045">
        <ele>2084.76</ele>
        <time>2017-08-02T09:54:31Z</time>
      </trkpt>
      <trkpt lat="45.8502" lon="6.77053">
        <ele>2086.2</ele>
        <time>2017-08-02T09:54:42Z</time>
      </trkpt>
      <trkpt lat="45.85018" lon="6.77061">
        <ele>2088.6</ele>
        <time>2017-08-02T09:54:51Z</time>
      </trkpt>
      <trkpt lat="45.85016" lon="6.77064">
        <ele>2089.56</ele>
        <time>2017-08-02T09:54:54Z</time>
      </trkpt>
      <trkpt lat="45.85015" lon="6.77066">
        <ele>2091</ele>
        <time>2017-08-02T09:54:57Z</time>
      </trkpt>
      <trkpt lat="45.85014" lon="6.77068">
        <ele>2091.97</ele>
        <time>2017-08-02T09:55:00Z</time>
      </trkpt>
      <trkpt lat="45.85013" lon="6.77069">
        <ele>2092.45</ele>
        <time>2017-08-02T09:55:02Z</time>
      </trkpt>
      <trkpt lat="45.85011" lon="6.77071">
        <ele>2093.41</ele>
        <time>2017-08-02T09:55:05Z</time>
      </trkpt>
      <trkpt lat="45.85011" lon="6.77072">
        <ele>2093.41</ele>
        <time>2017-08-02T09:55:06Z</time>
      </trkpt>
      <trkpt lat="45.8501" lon="6.77075">
        <ele>2094.85</ele>
        <time>2017-08-02T09:55:10Z</time>
      </trkpt>
      <trkpt lat="45.85008" lon="6.7708">
        <ele>2098.21</ele>
        <time>2017-08-02T09:55:21Z</time>
      </trkpt>
      <trkpt lat="45.85004" lon="6.77088">
        <ele>2101.58</ele>
        <time>2017-08-02T09:55:35Z</time>
      </trkpt>
      <trkpt lat="45.85002" lon="6.7709">
        <ele>2101.58</ele>
        <time>2017-08-02T09:55:38Z</time>
      </trkpt>
      <trkpt lat="45.85002" lon="6.77091">
        <ele>2102.06</ele>
        <time>2017-08-02T09:55:39Z</time>
      </trkpt>
      <trkpt lat="45.85002" lon="6.77099">
        <ele>2105.42</ele>
        <time>2017-08-02T09:55:53Z</time>
      </trkpt>
      <trkpt lat="45.85003" lon="6.77104">
        <ele>2106.39</ele>
        <time>2017-08-02T09:55:59Z</time>
      </trkpt>
      <trkpt lat="45.85001" lon="6.77107">
        <ele>2107.35</ele>
        <time>2017-08-02T09:56:05Z</time>
      </trkpt>
      <trkpt lat="45.84997" lon="6.77107">
        <ele>2110.71</ele>
        <time>2017-08-02T09:56:15Z</time>
      </trkpt>
      <trkpt lat="45.84995" lon="6.77105">
        <ele>2112.63</ele>
        <time>2017-08-02T09:56:23Z</time>
      </trkpt>
      <trkpt lat="45.84995" lon="6.77113">
        <ele>2116</ele>
        <time>2017-08-02T09:56:38Z</time>
      </trkpt>
      <trkpt lat="45.84993" lon="6.77121">
        <ele>2118.88</ele>
        <time>2017-08-02T09:56:50Z</time>
      </trkpt>
      <trkpt lat="45.84991" lon="6.77128">
        <ele>2121.77</ele>
        <time>2017-08-02T09:57:03Z</time>
      </trkpt>
      <trkpt lat="45.8499" lon="6.77133">
        <ele>2124.65</ele>
        <time>2017-08-02T09:57:14Z</time>
      </trkpt>
      <trkpt lat="45.8499" lon="6.77134">
        <ele>2125.13</ele>
        <time>2017-08-02T09:57:15Z</time>
      </trkpt>
      <trkpt lat="45.84991" lon="6.77145">
        <ele>2128.02</ele>
        <time>2017-08-02T09:57:28Z</time>
      </trkpt>
      <trkpt lat="45.84991" lon="6.77154">
        <ele>2130.9</ele>
        <time>2017-08-02T09:57:42Z</time>
      </trkpt>
      <trkpt lat="45.84988" lon="6.77156">
        <ele>2134.26</ele>
        <time>2017-08-02T09:57:55Z</time>
      </trkpt>
      <trkpt lat="45.84983" lon="6.77157">
        <ele>2137.15</ele>
        <time>2017-08-02T09:58:08Z</time>
      </trkpt>
      <trkpt lat="45.84983" lon="6.7716">
        <ele>2140.03</ele>
        <time>2017-08-02T09:58:22Z</time>
      </trkpt>
      <trkpt lat="45.84985" lon="6.7717">
        <ele>2143.4</ele>
        <time>2017-08-02T09:58:38Z</time>
      </trkpt>
      <trkpt lat="45.84985" lon="6.77173">
        <ele>2146.28</ele>
        <time>2017-08-02T09:58:49Z</time>
      </trkpt>
      <trkpt lat="45.84982" lon="6.77182">
        <ele>2149.65</ele>
        <time>2017-08-02T09:59:04Z</time>
      </trkpt>
      <trkpt lat="45.84981" lon="6.77185">
        <ele>2152.53</ele>
        <time>2017-08-02T09:59:16Z</time>
      </trkpt>
      <trkpt lat="45.84981" lon="6.77191">
        <ele>2155.41</ele>
        <time>2017-08-02T09:59:28Z</time>
      </trkpt>
      <trkpt lat="45.8498" lon="6.77196">
        <ele>2158.78</ele>
        <time>2017-08-02T09:59:41Z</time>
      </trkpt>
      <trkpt lat="45.84981" lon="6.77202">
        <ele>2161.18</ele>
        <time>2017-08-02T09:59:53Z</time>
      </trkpt>
      <trkpt lat="45.84976" lon="6.77208">
        <ele>2164.55</ele>
        <time>2017-08-02T10:00:06Z</time>
      </trkpt>
      <trkpt lat="45.84977" lon="6.77212">
        <ele>2165.51</ele>
        <time>2017-08-02T10:00:19Z</time>
      </trkpt>
      <trkpt lat="45.84977" lon="6.77212">
        <ele>2165.03</ele>
        <time>2017-08-02T10:00:28Z</time>
      </trkpt>
      <trkpt lat="45.84977" lon="6.77213">
        <ele>2165.51</ele>
        <time>2017-08-02T10:00:33Z</time>
      </trkpt>
      <trkpt lat="45.84978" lon="6.77213">
        <ele>2165.03</ele>
        <time>2017-08-02T10:00:40Z</time>
      </trkpt>
      <trkpt lat="45.84979" lon="6.77214">
        <ele>2165.51</ele>
        <time>2017-08-02T10:00:44Z</time>
      </trkpt>
      <trkpt lat="45.84979" lon="6.77214">
        <ele>2165.51</ele>
        <time>2017-08-02T10:00:49Z</time>
      </trkpt>
      <trkpt lat="45.84979" lon="6.77214">
        <ele>2165.51</ele>
        <time>2017-08-02T10:00:51Z</time>
      </trkpt>
      <trkpt lat="45.84979" lon="6.77213">
        <ele>2165.51</ele>
        <time>2017-08-02T10:00:56Z</time>
      </trkpt>
      <trkpt lat="45.8498" lon="6.77213">
        <ele>2165.03</ele>
        <time>2017-08-02T10:00:59Z</time>
      </trkpt>
      <trkpt lat="45.8498" lon="6.77213">
        <ele>2165.03</ele>
        <time>2017-08-02T10:01:01Z</time>
      </trkpt>
      <trkpt lat="45.84981" lon="6.77212">
        <ele>2165.03</ele>
        <time>2017-08-02T10:01:08Z</time>
      </trkpt>
      <trkpt lat="45.84982" lon="6.7721">
        <ele>2165.03</ele>
        <time>2017-08-02T10:01:15Z</time>
      </trkpt>
      <trkpt lat="45.84982" lon="6.77212">
        <ele>2165.03</ele>
        <time>2017-08-02T10:01:26Z</time>
      </trkpt>
      <trkpt lat="45.84979" lon="6.77218">
        <ele>2166.95</ele>
        <time>2017-08-02T10:01:46Z</time>
      </trkpt>
      <trkpt lat="45.84975" lon="6.77219">
        <ele>2168.87</ele>
        <time>2017-08-02T10:01:53Z</time>
      </trkpt>
      <trkpt lat="45.84974" lon="6.77218">
        <ele>2169.83</ele>
        <time>2017-08-02T10:01:57Z</time>
      </trkpt>
      <trkpt lat="45.84973" lon="6.77217">
        <ele>2170.79</ele>
        <time>2017-08-02T10:01:59Z</time>
      </trkpt>
      <trkpt lat="45.84971" lon="6.77214">
        <ele>2171.27</ele>
        <time>2017-08-02T10:02:02Z</time>
      </trkpt>
      <trkpt lat="45.84971" lon="6.77213">
        <ele>2171.76</ele>
        <time>2017-08-02T10:02:03Z</time>
      </trkpt>
      <trkpt lat="45.8497" lon="6.77211">
        <ele>2172.24</ele>
        <time>2017-08-02T10:02:05Z</time>
      </trkpt>
      <trkpt lat="45.84969" lon="6.77209">
        <ele>2172.72</ele>
        <time>2017-08-02T10:02:08Z</time>
      </trkpt>
      <trkpt lat="45.84966" lon="6.77206">
        <ele>2174.16</ele>
        <time>2017-08-02T10:02:12Z</time>
      </trkpt>
      <trkpt lat="45.84966" lon="6.77204">
        <ele>2174.16</ele>
        <time>2017-08-02T10:02:13Z</time>
      </trkpt>
      <trkpt lat="45.84966" lon="6.77202">
        <ele>2174.16</ele>
        <time>2017-08-02T10:02:14Z</time>
      </trkpt>
      <trkpt lat="45.84963" lon="6.77199">
        <ele>2175.12</ele>
        <time>2017-08-02T10:02:18Z</time>
      </trkpt>
      <trkpt lat="45.84958" lon="6.77194">
        <ele>2178.48</ele>
        <time>2017-08-02T10:02:33Z</time>
      </trkpt>
      <trkpt lat="45.84955" lon="6.77195">
        <ele>2180.41</ele>
        <time>2017-08-02T10:02:41Z</time>
      </trkpt>
      <trkpt lat="45.8495" lon="6.772">
        <ele>2183.29</ele>
        <time>2017-08-02T10:02:52Z</time>
      </trkpt>
      <trkpt lat="45.84951" lon="6.77204">
        <ele>2186.18</ele>
        <time>2017-08-02T10:03:02Z</time>
      </trkpt>
      <trkpt lat="45.84954" lon="6.77213">
        <ele>2189.54</ele>
        <time>2017-08-02T10:03:17Z</time>
      </trkpt>
      <trkpt lat="45.84952" lon="6.77222">
        <ele>2192.42</ele>
        <time>2017-08-02T10:03:30Z</time>
      </trkpt>
      <trkpt lat="45.84954" lon="6.77228">
        <ele>2195.79</ele>
        <time>2017-08-02T10:03:43Z</time>
      </trkpt>
      <trkpt lat="45.8495" lon="6.77237">
        <ele>2198.67</ele>
        <time>2017-08-02T10:03:56Z</time>
      </trkpt>
      <trkpt lat="45.84948" lon="6.77245">
        <ele>2202.04</ele>
        <time>2017-08-02T10:04:09Z</time>
      </trkpt>
      <trkpt lat="45.84947" lon="6.77252">
        <ele>2204.44</ele>
        <time>2017-08-02T10:04:20Z</time>
      </trkpt>
      <trkpt lat="45.84943" lon="6.77258">
        <ele>2207.81</ele>
        <time>2017-08-02T10:04:31Z</time>
      </trkpt>
      <trkpt lat="45.84938" lon="6.77264">
        <ele>2210.21</ele>
        <time>2017-08-02T10:04:40Z</time>
      </trkpt>
      <trkpt lat="45.84933" lon="6.77272">
        <ele>2213.57</ele>
        <time>2017-08-02T10:04:54Z</time>
      </trkpt>
      <trkpt lat="45.84933" lon="6.77274">
        <ele>2214.53</ele>
        <time>2017-08-02T10:04:56Z</time>
      </trkpt>
      <trkpt lat="45.84938" lon="6.7728">
        <ele>2217.9</ele>
        <time>2017-08-02T10:05:11Z</time>
      </trkpt>
      <trkpt lat="45.8494" lon="6.77281">
        <ele>2220.78</ele>
        <time>2017-08-02T10:05:22Z</time>
      </trkpt>
      <trkpt lat="45.84935" lon="6.77286">
        <ele>2222.71</ele>
        <time>2017-08-02T10:05:31Z</time>
      </trkpt>
      <trkpt lat="45.84934" lon="6.77287">
        <ele>2222.71</ele>
        <time>2017-08-02T10:05:32Z</time>
      </trkpt>
      <trkpt lat="45.84929" lon="6.77298">
        <ele>2226.07</ele>
        <time>2017-08-02T10:05:48Z</time>
      </trkpt>
      <trkpt lat="45.84923" lon="6.77304">
        <ele>2228.95</ele>
        <time>2017-08-02T10:06:02Z</time>
      </trkpt>
      <trkpt lat="45.84925" lon="6.77307">
        <ele>2230.4</ele>
        <time>2017-08-02T10:06:11Z</time>
      </trkpt>
      <trkpt lat="45.84928" lon="6.77317">
        <ele>2233.76</ele>
        <time>2017-08-02T10:06:24Z</time>
      </trkpt>
      <trkpt lat="45.84929" lon="6.77326">
        <ele>2236.64</ele>
        <time>2017-08-02T10:06:38Z</time>
      </trkpt>
      <trkpt lat="45.8493" lon="6.77335">
        <ele>2240.01</ele>
        <time>2017-08-02T10:06:52Z</time>
      </trkpt>
      <trkpt lat="45.84927" lon="6.77342">
        <ele>2242.89</ele>
        <time>2017-08-02T10:07:04Z</time>
      </trkpt>
      <trkpt lat="45.84927" lon="6.77349">
        <ele>2246.26</ele>
        <time>2017-08-02T10:07:16Z</time>
      </trkpt>
      <trkpt lat="45.84926" lon="6.77356">
        <ele>2249.14</ele>
        <time>2017-08-02T10:07:28Z</time>
      </trkpt>
      <trkpt lat="45.84923" lon="6.77366">
        <ele>2252.03</ele>
        <time>2017-08-02T10:07:43Z</time>
      </trkpt>
      <trkpt lat="45.84923" lon="6.77376">
        <ele>2255.39</ele>
        <time>2017-08-02T10:07:59Z</time>
      </trkpt>
      <trkpt lat="45.84925" lon="6.77381">
        <ele>2258.27</ele>
        <time>2017-08-02T10:08:12Z</time>
      </trkpt>
      <trkpt lat="45.84927" lon="6.7739">
        <ele>2261.16</ele>
        <time>2017-08-02T10:08:28Z</time>
      </trkpt>
      <trkpt lat="45.84929" lon="6.77391">
        <ele>2263.08</ele>
        <time>2017-08-02T10:08:36Z</time>
      </trkpt>
      <trkpt lat="45.84923" lon="6.77398">
        <ele>2265.96</ele>
        <time>2017-08-02T10:08:52Z</time>
      </trkpt>
      <trkpt lat="45.84921" lon="6.774">
        <ele>2266.45</ele>
        <time>2017-08-02T10:08:55Z</time>
      </trkpt>
      <trkpt lat="45.84916" lon="6.77405">
        <ele>2269.81</ele>
        <time>2017-08-02T10:09:09Z</time>
      </trkpt>
      <trkpt lat="45.84912" lon="6.77411">
        <ele>2273.17</ele>
        <time>2017-08-02T10:09:22Z</time>
      </trkpt>
      <trkpt lat="45.8491" lon="6.77417">
        <ele>2276.06</ele>
        <time>2017-08-02T10:09:34Z</time>
      </trkpt>
      <trkpt lat="45.84914" lon="6.77425">
        <ele>2278.94</ele>
        <time>2017-08-02T10:09:48Z</time>
      </trkpt>
      <trkpt lat="45.84912" lon="6.7743">
        <ele>2281.83</ele>
        <time>2017-08-02T10:09:59Z</time>
      </trkpt>
      <trkpt lat="45.84911" lon="6.77432">
        <ele>2282.79</ele>
        <time>2017-08-02T10:10:02Z</time>
      </trkpt>
      <trkpt lat="45.84909" lon="6.77438">
        <ele>2285.67</ele>
        <time>2017-08-02T10:10:17Z</time>
      </trkpt>
      <trkpt lat="45.84907" lon="6.77443">
        <ele>2289.04</ele>
        <time>2017-08-02T10:10:28Z</time>
      </trkpt>
      <trkpt lat="45.84904" lon="6.77452">
        <ele>2292.4</ele>
        <time>2017-08-02T10:10:44Z</time>
      </trkpt>
      <trkpt lat="45.84899" lon="6.77459">
        <ele>2294.8</ele>
        <time>2017-08-02T10:10:55Z</time>
      </trkpt>
      <trkpt lat="45.84897" lon="6.77463">
        <ele>2297.21</ele>
        <time>2017-08-02T10:11:07Z</time>
      </trkpt>
      <trkpt lat="45.84894" lon="6.77471">
        <ele>2299.61</ele>
        <time>2017-08-02T10:11:19Z</time>
      </trkpt>
      <trkpt lat="45.84891" lon="6.77479">
        <ele>2302.98</ele>
        <time>2017-08-02T10:11:35Z</time>
      </trkpt>
      <trkpt lat="45.8489" lon="6.77483">
        <ele>2304.9</ele>
        <time>2017-08-02T10:11:44Z</time>
      </trkpt>
      <trkpt lat="45.84893" lon="6.77486">
        <ele>2307.78</ele>
        <time>2017-08-02T10:11:59Z</time>
      </trkpt>
      <trkpt lat="45.84892" lon="6.77487">
        <ele>2309.22</ele>
        <time>2017-08-02T10:12:03Z</time>
      </trkpt>
      <trkpt lat="45.84891" lon="6.77491">
        <ele>2310.67</ele>
        <time>2017-08-02T10:12:11Z</time>
      </trkpt>
      <trkpt lat="45.84885" lon="6.77497">
        <ele>2314.03</ele>
        <time>2017-08-02T10:12:29Z</time>
      </trkpt>
      <trkpt lat="45.84884" lon="6.77498">
        <ele>2314.03</ele>
        <time>2017-08-02T10:12:30Z</time>
      </trkpt>
      <trkpt lat="45.84883" lon="6.77499">
        <ele>2314.03</ele>
        <time>2017-08-02T10:12:31Z</time>
      </trkpt>
      <trkpt lat="45.84878" lon="6.77501">
        <ele>2312.59</ele>
        <time>2017-08-02T10:12:39Z</time>
      </trkpt>
      <trkpt lat="45.84871" lon="6.77504">
        <ele>2313.55</ele>
        <time>2017-08-02T10:12:45Z</time>
      </trkpt>
      <trkpt lat="45.84862" lon="6.7751">
        <ele>2314.99</ele>
        <time>2017-08-02T10:12:53Z</time>
      </trkpt>
      <trkpt lat="45.84861" lon="6.77512">
        <ele>2315.47</ele>
        <time>2017-08-02T10:12:54Z</time>
      </trkpt>
      <trkpt lat="45.8486" lon="6.77512">
        <ele>2315.95</ele>
        <time>2017-08-02T10:12:55Z</time>
      </trkpt>
      <trkpt lat="45.84851" lon="6.77515">
        <ele>2319.32</ele>
        <time>2017-08-02T10:13:05Z</time>
      </trkpt>
      <trkpt lat="45.84853" lon="6.7752">
        <ele>2321.24</ele>
        <time>2017-08-02T10:13:14Z</time>
      </trkpt>
      <trkpt lat="45.8485" lon="6.77522">
        <ele>2324.12</ele>
        <time>2017-08-02T10:13:23Z</time>
      </trkpt>
      <trkpt lat="45.84848" lon="6.77531">
        <ele>2327.49</ele>
        <time>2017-08-02T10:13:43Z</time>
      </trkpt>
      <trkpt lat="45.84846" lon="6.7754">
        <ele>2330.37</ele>
        <time>2017-08-02T10:13:58Z</time>
      </trkpt>
      <trkpt lat="45.84843" lon="6.77544">
        <ele>2333.74</ele>
        <time>2017-08-02T10:14:11Z</time>
      </trkpt>
      <trkpt lat="45.84846" lon="6.77551">
        <ele>2337.1</ele>
        <time>2017-08-02T10:14:25Z</time>
      </trkpt>
      <trkpt lat="45.84847" lon="6.77557">
        <ele>2340.47</ele>
        <time>2017-08-02T10:14:38Z</time>
      </trkpt>
      <trkpt lat="45.84848" lon="6.77558">
        <ele>2340.47</ele>
        <time>2017-08-02T10:14:39Z</time>
      </trkpt>
      <trkpt lat="45.84848" lon="6.77563">
        <ele>2343.83</ele>
        <time>2017-08-02T10:14:58Z</time>
      </trkpt>
      <trkpt lat="45.8485" lon="6.77562">
        <ele>2344.79</ele>
        <time>2017-08-02T10:15:03Z</time>
      </trkpt>
      <trkpt lat="45.84857" lon="6.77563">
        <ele>2348.16</ele>
        <time>2017-08-02T10:15:19Z</time>
      </trkpt>
      <trkpt lat="45.84856" lon="6.77571">
        <ele>2351.04</ele>
        <time>2017-08-02T10:15:31Z</time>
      </trkpt>
      <trkpt lat="45.84859" lon="6.77574">
        <ele>2354.41</ele>
        <time>2017-08-02T10:15:43Z</time>
      </trkpt>
      <trkpt lat="45.84859" lon="6.77574">
        <ele>2354.41</ele>
        <time>2017-08-02T10:15:45Z</time>
      </trkpt>
      <trkpt lat="45.84864" lon="6.77577">
        <ele>2357.77</ele>
        <time>2017-08-02T10:16:00Z</time>
      </trkpt>
      <trkpt lat="45.84866" lon="6.7758">
        <ele>2360.65</ele>
        <time>2017-08-02T10:16:13Z</time>
      </trkpt>
      <trkpt lat="45.84864" lon="6.7759">
        <ele>2363.54</ele>
        <time>2017-08-02T10:16:32Z</time>
      </trkpt>
      <trkpt lat="45.84863" lon="6.77599">
        <ele>2366.9</ele>
        <time>2017-08-02T10:16:49Z</time>
      </trkpt>
      <trkpt lat="45.84865" lon="6.77602">
        <ele>2369.79</ele>
        <time>2017-08-02T10:16:59Z</time>
      </trkpt>
      <trkpt lat="45.84866" lon="6.77607">
        <ele>2372.19</ele>
        <time>2017-08-02T10:17:12Z</time>
      </trkpt>
      <trkpt lat="45.84867" lon="6.77606">
        <ele>2375.07</ele>
        <time>2017-08-02T10:17:28Z</time>
      </trkpt>
      <trkpt lat="45.84863" lon="6.77613">
        <ele>2378.44</ele>
        <time>2017-08-02T10:17:41Z</time>
      </trkpt>
      <trkpt lat="45.84863" lon="6.77622">
        <ele>2381.8</ele>
        <time>2017-08-02T10:17:54Z</time>
      </trkpt>
      <trkpt lat="45.84861" lon="6.77631">
        <ele>2385.17</ele>
        <time>2017-08-02T10:18:07Z</time>
      </trkpt>
      <trkpt lat="45.84857" lon="6.77641">
        <ele>2388.53</ele>
        <time>2017-08-02T10:18:23Z</time>
      </trkpt>
      <trkpt lat="45.84858" lon="6.77641">
        <ele>2389.49</ele>
        <time>2017-08-02T10:18:25Z</time>
      </trkpt>
      <trkpt lat="45.84859" lon="6.77639">
        <ele>2387.09</ele>
        <time>2017-08-02T10:18:28Z</time>
      </trkpt>
      <trkpt lat="45.8486" lon="6.77639">
        <ele>2386.61</ele>
        <time>2017-08-02T10:18:29Z</time>
      </trkpt>
      <trkpt lat="45.84861" lon="6.7764">
        <ele>2387.09</ele>
        <time>2017-08-02T10:18:30Z</time>
      </trkpt>
      <trkpt lat="45.84861" lon="6.77641">
        <ele>2386.61</ele>
        <time>2017-08-02T10:18:31Z</time>
      </trkpt>
      <trkpt lat="45.84861" lon="6.77644">
        <ele>2385.17</ele>
        <time>2017-08-02T10:18:39Z</time>
      </trkpt>
      <trkpt lat="45.84861" lon="6.77642">
        <ele>2385.17</ele>
        <time>2017-08-02T10:18:42Z</time>
      </trkpt>
      <trkpt lat="45.84861" lon="6.77642">
        <ele>2385.65</ele>
        <time>2017-08-02T10:18:45Z</time>
      </trkpt>
      <trkpt lat="45.84858" lon="6.77641">
        <ele>2387.09</ele>
        <time>2017-08-02T10:19:00Z</time>
      </trkpt>
      <trkpt lat="45.84857" lon="6.77641">
        <ele>2387.09</ele>
        <time>2017-08-02T10:19:08Z</time>
      </trkpt>
      <trkpt lat="45.84857" lon="6.77642">
        <ele>2387.09</ele>
        <time>2017-08-02T10:19:11Z</time>
      </trkpt>
      <trkpt lat="45.84858" lon="6.77642">
        <ele>2387.57</ele>
        <time>2017-08-02T10:19:16Z</time>
      </trkpt>
      <trkpt lat="45.84858" lon="6.77643">
        <ele>2387.57</ele>
        <time>2017-08-02T10:19:19Z</time>
      </trkpt>
      <trkpt lat="45.84856" lon="6.77648">
        <ele>2390.46</ele>
        <time>2017-08-02T10:19:31Z</time>
      </trkpt>
      <trkpt lat="45.84854" lon="6.77653">
        <ele>2392.86</ele>
        <time>2017-08-02T10:19:39Z</time>
      </trkpt>
      <trkpt lat="45.84853" lon="6.77655">
        <ele>2393.34</ele>
        <time>2017-08-02T10:19:41Z</time>
      </trkpt>
      <trkpt lat="45.84851" lon="6.77658">
        <ele>2393.82</ele>
        <time>2017-08-02T10:19:44Z</time>
      </trkpt>
      <trkpt lat="45.84851" lon="6.7766">
        <ele>2395.74</ele>
        <time>2017-08-02T10:19:49Z</time>
      </trkpt>
      <trkpt lat="45.84851" lon="6.77667">
        <ele>2398.63</ele>
        <time>2017-08-02T10:20:04Z</time>
      </trkpt>
      <trkpt lat="45.84849" lon="6.77672">
        <ele>2402.47</ele>
        <time>2017-08-02T10:20:19Z</time>
      </trkpt>
      <trkpt lat="45.84849" lon="6.77677">
        <ele>2403.43</ele>
        <time>2017-08-02T10:20:27Z</time>
      </trkpt>
      <trkpt lat="45.84847" lon="6.77682">
        <ele>2403.91</ele>
        <time>2017-08-02T10:20:36Z</time>
      </trkpt>
      <trkpt lat="45.84849" lon="6.77686">
        <ele>2407.28</ele>
        <time>2017-08-02T10:20:44Z</time>
      </trkpt>
      <trkpt lat="45.84843" lon="6.77695">
        <ele>2409.2</ele>
        <time>2017-08-02T10:20:58Z</time>
      </trkpt>
      <trkpt lat="45.84837" lon="6.77697">
        <ele>2410.16</ele>
        <time>2017-08-02T10:21:08Z</time>
      </trkpt>
      <trkpt lat="45.84835" lon="6.77704">
        <ele>2411.6</ele>
        <time>2017-08-02T10:21:17Z</time>
      </trkpt>
      <trkpt lat="45.84837" lon="6.77706">
        <ele>2414.01</ele>
        <time>2017-08-02T10:21:23Z</time>
      </trkpt>
      <trkpt lat="45.84838" lon="6.77714">
        <ele>2416.89</ele>
        <time>2017-08-02T10:21:37Z</time>
      </trkpt>
      <trkpt lat="45.84836" lon="6.7772">
        <ele>2419.3</ele>
        <time>2017-08-02T10:21:48Z</time>
      </trkpt>
      <trkpt lat="45.84835" lon="6.77725">
        <ele>2422.66</ele>
        <time>2017-08-02T10:22:03Z</time>
      </trkpt>
      <trkpt lat="45.84837" lon="6.77728">
        <ele>2426.02</ele>
        <time>2017-08-02T10:22:13Z</time>
      </trkpt>
      <trkpt lat="45.84839" lon="6.77734">
        <ele>2428.91</ele>
        <time>2017-08-02T10:22:26Z</time>
      </trkpt>
      <trkpt lat="45.8484" lon="6.77738">
        <ele>2431.79</ele>
        <time>2017-08-02T10:22:37Z</time>
      </trkpt>
      <trkpt lat="45.84836" lon="6.77741">
        <ele>2435.16</ele>
        <time>2017-08-02T10:22:53Z</time>
      </trkpt>
      <trkpt lat="45.84833" lon="6.77747">
        <ele>2438.04</ele>
        <time>2017-08-02T10:23:07Z</time>
      </trkpt>
      <trkpt lat="45.8483" lon="6.77756">
        <ele>2441.41</ele>
        <time>2017-08-02T10:23:21Z</time>
      </trkpt>
      <trkpt lat="45.84831" lon="6.77757">
        <ele>2442.37</ele>
        <time>2017-08-02T10:23:24Z</time>
      </trkpt>
      <trkpt lat="45.84829" lon="6.77765">
        <ele>2445.25</ele>
        <time>2017-08-02T10:23:35Z</time>
      </trkpt>
      <trkpt lat="45.8483" lon="6.7777">
        <ele>2448.62</ele>
        <time>2017-08-02T10:23:43Z</time>
      </trkpt>
      <trkpt lat="45.84829" lon="6.77783">
        <ele>2451.02</ele>
        <time>2017-08-02T10:24:03Z</time>
      </trkpt>
      <trkpt lat="45.8483" lon="6.77788">
        <ele>2453.9</ele>
        <time>2017-08-02T10:24:19Z</time>
      </trkpt>
      <trkpt lat="45.84828" lon="6.77796">
        <ele>2455.82</ele>
        <time>2017-08-02T10:24:29Z</time>
      </trkpt>
      <trkpt lat="45.84824" lon="6.77793">
        <ele>2456.79</ele>
        <time>2017-08-02T10:24:39Z</time>
      </trkpt>
      <trkpt lat="45.84827" lon="6.77798">
        <ele>2460.15</ele>
        <time>2017-08-02T10:24:50Z</time>
      </trkpt>
      <trkpt lat="45.84828" lon="6.77801">
        <ele>2462.07</ele>
        <time>2017-08-02T10:24:55Z</time>
      </trkpt>
      <trkpt lat="45.8483" lon="6.77807">
        <ele>2463.52</ele>
        <time>2017-08-02T10:25:03Z</time>
      </trkpt>
      <trkpt lat="45.8483" lon="6.7781">
        <ele>2464</ele>
        <time>2017-08-02T10:25:04Z</time>
      </trkpt>
      <trkpt lat="45.84829" lon="6.77819">
        <ele>2465.44</ele>
        <time>2017-08-02T10:25:13Z</time>
      </trkpt>
      <trkpt lat="45.84827" lon="6.77821">
        <ele>2468.8</ele>
        <time>2017-08-02T10:25:23Z</time>
      </trkpt>
      <trkpt lat="45.84825" lon="6.77814">
        <ele>2468.8</ele>
        <time>2017-08-02T10:25:32Z</time>
      </trkpt>
      <trkpt lat="45.84824" lon="6.77814">
        <ele>2469.76</ele>
        <time>2017-08-02T10:25:41Z</time>
      </trkpt>
      <trkpt lat="45.84829" lon="6.77817">
        <ele>2473.13</ele>
        <time>2017-08-02T10:25:52Z</time>
      </trkpt>
      <trkpt lat="45.84831" lon="6.77825">
        <ele>2476.49</ele>
        <time>2017-08-02T10:26:06Z</time>
      </trkpt>
      <trkpt lat="45.84831" lon="6.77822">
        <ele>2478.42</ele>
        <time>2017-08-02T10:26:15Z</time>
      </trkpt>
      <trkpt lat="45.84831" lon="6.77825">
        <ele>2479.86</ele>
        <time>2017-08-02T10:26:25Z</time>
      </trkpt>
      <trkpt lat="45.84831" lon="6.77828">
        <ele>2483.22</ele>
        <time>2017-08-02T10:26:35Z</time>
      </trkpt>
      <trkpt lat="45.84827" lon="6.77835">
        <ele>2486.11</ele>
        <time>2017-08-02T10:26:47Z</time>
      </trkpt>
      <trkpt lat="45.84827" lon="6.77836">
        <ele>2486.59</ele>
        <time>2017-08-02T10:26:52Z</time>
      </trkpt>
      <trkpt lat="45.84827" lon="6.77845">
        <ele>2489.95</ele>
        <time>2017-08-02T10:27:11Z</time>
      </trkpt>
      <trkpt lat="45.84825" lon="6.77849">
        <ele>2492.84</ele>
        <time>2017-08-02T10:27:21Z</time>
      </trkpt>
      <trkpt lat="45.84822" lon="6.77853">
        <ele>2495.72</ele>
        <time>2017-08-02T10:27:34Z</time>
      </trkpt>
      <trkpt lat="45.84822" lon="6.77858">
        <ele>2498.6</ele>
        <time>2017-08-02T10:27:45Z</time>
      </trkpt>
      <trkpt lat="45.84819" lon="6.7786">
        <ele>2499.57</ele>
        <time>2017-08-02T10:27:56Z</time>
      </trkpt>
      <trkpt lat="45.84817" lon="6.77866">
        <ele>2501.01</ele>
        <time>2017-08-02T10:28:05Z</time>
      </trkpt>
      <trkpt lat="45.84816" lon="6.7787">
        <ele>2504.37</ele>
        <time>2017-08-02T10:28:19Z</time>
      </trkpt>
      <trkpt lat="45.84809" lon="6.77873">
        <ele>2507.26</ele>
        <time>2017-08-02T10:28:34Z</time>
      </trkpt>
      <trkpt lat="45.8481" lon="6.77874">
        <ele>2507.74</ele>
        <time>2017-08-02T10:28:37Z</time>
      </trkpt>
      <trkpt lat="45.84806" lon="6.77878">
        <ele>2511.1</ele>
        <time>2017-08-02T10:28:53Z</time>
      </trkpt>
      <trkpt lat="45.84803" lon="6.77879">
        <ele>2511.58</ele>
        <time>2017-08-02T10:28:56Z</time>
      </trkpt>
      <trkpt lat="45.84801" lon="6.77881">
        <ele>2513.02</ele>
        <time>2017-08-02T10:29:01Z</time>
      </trkpt>
      <trkpt lat="45.848" lon="6.77882">
        <ele>2515.43</ele>
        <time>2017-08-02T10:29:08Z</time>
      </trkpt>
      <trkpt lat="45.84799" lon="6.77887">
        <ele>2515.43</ele>
        <time>2017-08-02T10:29:14Z</time>
      </trkpt>
      <trkpt lat="45.848" lon="6.77891">
        <ele>2516.39</ele>
        <time>2017-08-02T10:29:19Z</time>
      </trkpt>
      <trkpt lat="45.84805" lon="6.77898">
        <ele>2520.23</ele>
        <time>2017-08-02T10:29:27Z</time>
      </trkpt>
      <trkpt lat="45.84801" lon="6.77892">
        <ele>2523.6</ele>
        <time>2017-08-02T10:29:42Z</time>
      </trkpt>
      <trkpt lat="45.84801" lon="6.77893">
        <ele>2524.08</ele>
        <time>2017-08-02T10:29:44Z</time>
      </trkpt>
      <trkpt lat="45.84802" lon="6.77897">
        <ele>2526.96</ele>
        <time>2017-08-02T10:29:56Z</time>
      </trkpt>
      <trkpt lat="45.84804" lon="6.77903">
        <ele>2528.4</ele>
        <time>2017-08-02T10:30:05Z</time>
      </trkpt>
      <trkpt lat="45.84804" lon="6.77904">
        <ele>2528.4</ele>
        <time>2017-08-02T10:30:06Z</time>
      </trkpt>
      <trkpt lat="45.84808" lon="6.77903">
        <ele>2531.77</ele>
        <time>2017-08-02T10:30:19Z</time>
      </trkpt>
      <trkpt lat="45.8481" lon="6.77911">
        <ele>2534.17</ele>
        <time>2017-08-02T10:30:39Z</time>
      </trkpt>
      <trkpt lat="45.8481" lon="6.77909">
        <ele>2534.17</ele>
        <time>2017-08-02T10:30:40Z</time>
      </trkpt>
      <trkpt lat="45.84808" lon="6.77909">
        <ele>2535.13</ele>
        <time>2017-08-02T10:30:43Z</time>
      </trkpt>
      <trkpt lat="45.84805" lon="6.77907">
        <ele>2537.06</ele>
        <time>2017-08-02T10:30:56Z</time>
      </trkpt>
      <trkpt lat="45.848" lon="6.77904">
        <ele>2538.5</ele>
        <time>2017-08-02T10:31:24Z</time>
      </trkpt>
      <trkpt lat="45.848" lon="6.77905">
        <ele>2537.54</ele>
        <time>2017-08-02T10:31:29Z</time>
      </trkpt>
      <trkpt lat="45.848" lon="6.77906">
        <ele>2538.5</ele>
        <time>2017-08-02T10:31:31Z</time>
      </trkpt>
      <trkpt lat="45.848" lon="6.77909">
        <ele>2538.98</ele>
        <time>2017-08-02T10:31:34Z</time>
      </trkpt>
      <trkpt lat="45.848" lon="6.77912">
        <ele>2540.42</ele>
        <time>2017-08-02T10:31:39Z</time>
      </trkpt>
      <trkpt lat="45.84805" lon="6.77921">
        <ele>2543.31</ele>
        <time>2017-08-02T10:31:53Z</time>
      </trkpt>
      <trkpt lat="45.84804" lon="6.77925">
        <ele>2545.23</ele>
        <time>2017-08-02T10:32:00Z</time>
      </trkpt>
      <trkpt lat="45.84803" lon="6.77931">
        <ele>2547.15</ele>
        <time>2017-08-02T10:32:10Z</time>
      </trkpt>
      <trkpt lat="45.84799" lon="6.7794">
        <ele>2548.59</ele>
        <time>2017-08-02T10:32:19Z</time>
      </trkpt>
      <trkpt lat="45.84798" lon="6.77944">
        <ele>2550.03</ele>
        <time>2017-08-02T10:32:24Z</time>
      </trkpt>
      <trkpt lat="45.848" lon="6.77948">
        <ele>2551</ele>
        <time>2017-08-02T10:32:28Z</time>
      </trkpt>
      <trkpt lat="45.848" lon="6.7795">
        <ele>2551</ele>
        <time>2017-08-02T10:32:30Z</time>
      </trkpt>
      <trkpt lat="45.84801" lon="6.77957">
        <ele>2552.44</ele>
        <time>2017-08-02T10:32:38Z</time>
      </trkpt>
      <trkpt lat="45.84804" lon="6.77966">
        <ele>2555.8</ele>
        <time>2017-08-02T10:32:53Z</time>
      </trkpt>
      <trkpt lat="45.84807" lon="6.77974">
        <ele>2558.69</ele>
        <time>2017-08-02T10:33:02Z</time>
      </trkpt>
      <trkpt lat="45.84809" lon="6.77984">
        <ele>2560.13</ele>
        <time>2017-08-02T10:33:12Z</time>
      </trkpt>
      <trkpt lat="45.84808" lon="6.77988">
        <ele>2562.05</ele>
        <time>2017-08-02T10:33:19Z</time>
      </trkpt>
      <trkpt lat="45.84808" lon="6.77967">
        <ele>2564.93</ele>
        <time>2017-08-02T10:33:34Z</time>
      </trkpt>
      <trkpt lat="45.84808" lon="6.77971">
        <ele>2567.82</ele>
        <time>2017-08-02T10:33:47Z</time>
      </trkpt>
      <trkpt lat="45.84804" lon="6.77981">
        <ele>2570.22</ele>
        <time>2017-08-02T10:34:07Z</time>
      </trkpt>
      <trkpt lat="45.84805" lon="6.7798">
        <ele>2573.59</ele>
        <time>2017-08-02T10:34:20Z</time>
      </trkpt>
      <trkpt lat="45.84804" lon="6.77975">
        <ele>2574.55</ele>
        <time>2017-08-02T10:34:25Z</time>
      </trkpt>
      <trkpt lat="45.84805" lon="6.77969">
        <ele>2577.43</ele>
        <time>2017-08-02T10:34:42Z</time>
      </trkpt>
      <trkpt lat="45.84803" lon="6.77979">
        <ele>2580.8</ele>
        <time>2017-08-02T10:34:53Z</time>
      </trkpt>
      <trkpt lat="45.84803" lon="6.77979">
        <ele>2581.76</ele>
        <time>2017-08-02T10:34:55Z</time>
      </trkpt>
      <trkpt lat="45.84802" lon="6.7799">
        <ele>2585.12</ele>
        <time>2017-08-02T10:35:11Z</time>
      </trkpt>
      <trkpt lat="45.84799" lon="6.77993">
        <ele>2588.01</ele>
        <time>2017-08-02T10:35:21Z</time>
      </trkpt>
      <trkpt lat="45.84798" lon="6.77999">
        <ele>2591.37</ele>
        <time>2017-08-02T10:35:39Z</time>
      </trkpt>
      <trkpt lat="45.84796" lon="6.78004">
        <ele>2594.25</ele>
        <time>2017-08-02T10:35:53Z</time>
      </trkpt>
      <trkpt lat="45.84797" lon="6.78015">
        <ele>2597.62</ele>
        <time>2017-08-02T10:36:10Z</time>
      </trkpt>
      <trkpt lat="45.84799" lon="6.78017">
        <ele>2598.58</ele>
        <time>2017-08-02T10:36:18Z</time>
      </trkpt>
      <trkpt lat="45.84798" lon="6.7802">
        <ele>2600.98</ele>
        <time>2017-08-02T10:36:31Z</time>
      </trkpt>
      <trkpt lat="45.84796" lon="6.78022">
        <ele>2603.87</ele>
        <time>2017-08-02T10:36:46Z</time>
      </trkpt>
      <trkpt lat="45.84795" lon="6.78022">
        <ele>2604.83</ele>
        <time>2017-08-02T10:36:56Z</time>
      </trkpt>
      <trkpt lat="45.84791" lon="6.78024">
        <ele>2608.19</ele>
        <time>2017-08-02T10:37:08Z</time>
      </trkpt>
      <trkpt lat="45.8479" lon="6.78025">
        <ele>2608.67</ele>
        <time>2017-08-02T10:37:10Z</time>
      </trkpt>
      <trkpt lat="45.84785" lon="6.78029">
        <ele>2610.6</ele>
        <time>2017-08-02T10:37:21Z</time>
      </trkpt>
      <trkpt lat="45.84784" lon="6.7803">
        <ele>2610.6</ele>
        <time>2017-08-02T10:37:22Z</time>
      </trkpt>
      <trkpt lat="45.84777" lon="6.78035">
        <ele>2613</ele>
        <time>2017-08-02T10:37:48Z</time>
      </trkpt>
      <trkpt lat="45.84777" lon="6.78038">
        <ele>2613.48</ele>
        <time>2017-08-02T10:37:53Z</time>
      </trkpt>
      <trkpt lat="45.84777" lon="6.7804">
        <ele>2613.48</ele>
        <time>2017-08-02T10:37:54Z</time>
      </trkpt>
      <trkpt lat="45.8478" lon="6.78048">
        <ele>2614.92</ele>
        <time>2017-08-02T10:38:02Z</time>
      </trkpt>
      <trkpt lat="45.84783" lon="6.78062">
        <ele>2618.29</ele>
        <time>2017-08-02T10:38:16Z</time>
      </trkpt>
      <trkpt lat="45.84783" lon="6.7807">
        <ele>2621.65</ele>
        <time>2017-08-02T10:38:34Z</time>
      </trkpt>
      <trkpt lat="45.84781" lon="6.78079">
        <ele>2625.02</ele>
        <time>2017-08-02T10:38:53Z</time>
      </trkpt>
      <trkpt lat="45.84787" lon="6.78085">
        <ele>2627.9</ele>
        <time>2017-08-02T10:39:09Z</time>
      </trkpt>
      <trkpt lat="45.84788" lon="6.78085">
        <ele>2628.86</ele>
        <time>2017-08-02T10:39:12Z</time>
      </trkpt>
      <trkpt lat="45.84784" lon="6.7807">
        <ele>2631.75</ele>
        <time>2017-08-02T10:39:23Z</time>
      </trkpt>
      <trkpt lat="45.84783" lon="6.78068">
        <ele>2632.23</ele>
        <time>2017-08-02T10:39:24Z</time>
      </trkpt>
      <trkpt lat="45.84778" lon="6.7806">
        <ele>2633.19</ele>
        <time>2017-08-02T10:39:32Z</time>
      </trkpt>
      <trkpt lat="45.84778" lon="6.78059">
        <ele>2633.19</ele>
        <time>2017-08-02T10:39:33Z</time>
      </trkpt>
      <trkpt lat="45.84776" lon="6.78058">
        <ele>2634.63</ele>
        <time>2017-08-02T10:39:38Z</time>
      </trkpt>
      <trkpt lat="45.84771" lon="6.78058">
        <ele>2637.51</ele>
        <time>2017-08-02T10:39:57Z</time>
      </trkpt>
      <trkpt lat="45.84767" lon="6.7806">
        <ele>2638.96</ele>
        <time>2017-08-02T10:40:05Z</time>
      </trkpt>
      <trkpt lat="45.84763" lon="6.78062">
        <ele>2639.92</ele>
        <time>2017-08-02T10:40:10Z</time>
      </trkpt>
      <trkpt lat="45.84762" lon="6.78062">
        <ele>2639.44</ele>
        <time>2017-08-02T10:40:11Z</time>
      </trkpt>
      <trkpt lat="45.84758" lon="6.78064">
        <ele>2639.92</ele>
        <time>2017-08-02T10:40:15Z</time>
      </trkpt>
      <trkpt lat="45.8475" lon="6.78068">
        <ele>2642.8</ele>
        <time>2017-08-02T10:40:35Z</time>
      </trkpt>
      <trkpt lat="45.84747" lon="6.78074">
        <ele>2646.17</ele>
        <time>2017-08-02T10:40:48Z</time>
      </trkpt>
      <trkpt lat="45.84747" lon="6.78074">
        <ele>2646.17</ele>
        <time>2017-08-02T10:40:49Z</time>
      </trkpt>
      <trkpt lat="45.84746" lon="6.78081">
        <ele>2648.57</ele>
        <time>2017-08-02T10:41:03Z</time>
      </trkpt>
      <trkpt lat="45.84747" lon="6.78081">
        <ele>2648.57</ele>
        <time>2017-08-02T10:41:04Z</time>
      </trkpt>
      <trkpt lat="45.84752" lon="6.78086">
        <ele>2651.93</ele>
        <time>2017-08-02T10:41:19Z</time>
      </trkpt>
      <trkpt lat="45.84749" lon="6.78092">
        <ele>2655.3</ele>
        <time>2017-08-02T10:41:33Z</time>
      </trkpt>
      <trkpt lat="45.8475" lon="6.78094">
        <ele>2655.78</ele>
        <time>2017-08-02T10:41:39Z</time>
      </trkpt>
      <trkpt lat="45.8475" lon="6.78095">
        <ele>2655.3</ele>
        <time>2017-08-02T10:41:41Z</time>
      </trkpt>
      <trkpt lat="45.8475" lon="6.78105">
        <ele>2656.74</ele>
        <time>2017-08-02T10:41:51Z</time>
      </trkpt>
      <trkpt lat="45.84751" lon="6.78106">
        <ele>2657.22</ele>
        <time>2017-08-02T10:41:54Z</time>
      </trkpt>
      <trkpt lat="45.84752" lon="6.78108">
        <ele>2660.11</ele>
        <time>2017-08-02T10:42:04Z</time>
      </trkpt>
      <trkpt lat="45.84751" lon="6.78107">
        <ele>2661.55</ele>
        <time>2017-08-02T10:42:09Z</time>
      </trkpt>
      <trkpt lat="45.84748" lon="6.78106">
        <ele>2663.47</ele>
        <time>2017-08-02T10:42:17Z</time>
      </trkpt>
      <trkpt lat="45.84747" lon="6.78112">
        <ele>2664.91</ele>
        <time>2017-08-02T10:42:24Z</time>
      </trkpt>
      <trkpt lat="45.84746" lon="6.78118">
        <ele>2665.87</ele>
        <time>2017-08-02T10:42:32Z</time>
      </trkpt>
      <trkpt lat="45.84747" lon="6.78126">
        <ele>2669.24</ele>
        <time>2017-08-02T10:42:49Z</time>
      </trkpt>
      <trkpt lat="45.84746" lon="6.78123">
        <ele>2672.12</ele>
        <time>2017-08-02T10:43:00Z</time>
      </trkpt>
      <trkpt lat="45.84744" lon="6.78121">
        <ele>2675.97</ele>
        <time>2017-08-02T10:43:15Z</time>
      </trkpt>
      <trkpt lat="45.84744" lon="6.78122">
        <ele>2676.45</ele>
        <time>2017-08-02T10:43:17Z</time>
      </trkpt>
      <trkpt lat="45.84738" lon="6.78131">
        <ele>2679.33</ele>
        <time>2017-08-02T10:43:34Z</time>
      </trkpt>
      <trkpt lat="45.84736" lon="6.78133">
        <ele>2680.77</ele>
        <time>2017-08-02T10:43:43Z</time>
      </trkpt>
      <trkpt lat="45.84737" lon="6.7814">
        <ele>2683.66</ele>
        <time>2017-08-02T10:43:54Z</time>
      </trkpt>
      <trkpt lat="45.84737" lon="6.78158">
        <ele>2686.54</ele>
        <time>2017-08-02T10:44:10Z</time>
      </trkpt>
      <trkpt lat="45.84737" lon="6.78162">
        <ele>2687.02</ele>
        <time>2017-08-02T10:44:17Z</time>
      </trkpt>
      <trkpt lat="45.84737" lon="6.78164">
        <ele>2689.91</ele>
        <time>2017-08-02T10:44:32Z</time>
      </trkpt>
      <trkpt lat="45.84734" lon="6.78159">
        <ele>2691.83</ele>
        <time>2017-08-02T10:44:37Z</time>
      </trkpt>
      <trkpt lat="45.84731" lon="6.78166">
        <ele>2694.23</ele>
        <time>2017-08-02T10:44:48Z</time>
      </trkpt>
      <trkpt lat="45.84733" lon="6.78172">
        <ele>2697.6</ele>
        <time>2017-08-02T10:45:10Z</time>
      </trkpt>
      <trkpt lat="45.84733" lon="6.78177">
        <ele>2700</ele>
        <time>2017-08-02T10:45:21Z</time>
      </trkpt>
      <trkpt lat="45.84733" lon="6.78178">
        <ele>2700.48</ele>
        <time>2017-08-02T10:45:22Z</time>
      </trkpt>
      <trkpt lat="45.84731" lon="6.78184">
        <ele>2700.96</ele>
        <time>2017-08-02T10:45:30Z</time>
      </trkpt>
      <trkpt lat="45.84732" lon="6.78185">
        <ele>2701.44</ele>
        <time>2017-08-02T10:45:31Z</time>
      </trkpt>
      <trkpt lat="45.84733" lon="6.78187">
        <ele>2702.4</ele>
        <time>2017-08-02T10:45:35Z</time>
      </trkpt>
      <trkpt lat="45.84731" lon="6.78198">
        <ele>2705.77</ele>
        <time>2017-08-02T10:45:48Z</time>
      </trkpt>
      <trkpt lat="45.84732" lon="6.78205">
        <ele>2707.21</ele>
        <time>2017-08-02T10:45:53Z</time>
      </trkpt>
      <trkpt lat="45.84731" lon="6.78217">
        <ele>2708.17</ele>
        <time>2017-08-02T10:46:09Z</time>
      </trkpt>
      <trkpt lat="45.84731" lon="6.78216">
        <ele>2709.13</ele>
        <time>2017-08-02T10:46:13Z</time>
      </trkpt>
      <trkpt lat="45.84727" lon="6.7822">
        <ele>2710.57</ele>
        <time>2017-08-02T10:46:26Z</time>
      </trkpt>
      <trkpt lat="45.84729" lon="6.78228">
        <ele>2712.02</ele>
        <time>2017-08-02T10:46:37Z</time>
      </trkpt>
      <trkpt lat="45.84726" lon="6.78227">
        <ele>2715.38</ele>
        <time>2017-08-02T10:46:50Z</time>
      </trkpt>
      <trkpt lat="45.84723" lon="6.78214">
        <ele>2716.82</ele>
        <time>2017-08-02T10:46:56Z</time>
      </trkpt>
      <trkpt lat="45.84721" lon="6.78211">
        <ele>2718.75</ele>
        <time>2017-08-02T10:47:07Z</time>
      </trkpt>
      <trkpt lat="45.84717" lon="6.78215">
        <ele>2721.15</ele>
        <time>2017-08-02T10:47:21Z</time>
      </trkpt>
      <trkpt lat="45.84714" lon="6.78219">
        <ele>2723.07</ele>
        <time>2017-08-02T10:47:29Z</time>
      </trkpt>
      <trkpt lat="45.84708" lon="6.78222">
        <ele>2724.03</ele>
        <time>2017-08-02T10:47:47Z</time>
      </trkpt>
      <trkpt lat="45.84709" lon="6.78223">
        <ele>2724.03</ele>
        <time>2017-08-02T10:47:52Z</time>
      </trkpt>
      <trkpt lat="45.84709" lon="6.78223">
        <ele>2724.03</ele>
        <time>2017-08-02T10:47:58Z</time>
      </trkpt>
      <trkpt lat="45.84708" lon="6.78223">
        <ele>2723.55</ele>
        <time>2017-08-02T10:48:03Z</time>
      </trkpt>
      <trkpt lat="45.84709" lon="6.78223">
        <ele>2723.55</ele>
        <time>2017-08-02T10:48:05Z</time>
      </trkpt>
      <trkpt lat="45.84709" lon="6.78223">
        <ele>2723.07</ele>
        <time>2017-08-02T10:48:08Z</time>
      </trkpt>
      <trkpt lat="45.84709" lon="6.78223">
        <ele>2723.07</ele>
        <time>2017-08-02T10:48:10Z</time>
      </trkpt>
      <trkpt lat="45.84709" lon="6.78223">
        <ele>2723.07</ele>
        <time>2017-08-02T10:48:12Z</time>
      </trkpt>
      <trkpt lat="45.84709" lon="6.78223">
        <ele>2723.55</ele>
        <time>2017-08-02T10:48:13Z</time>
      </trkpt>
      <trkpt lat="45.8471" lon="6.78222">
        <ele>2723.55</ele>
        <time>2017-08-02T10:48:19Z</time>
      </trkpt>
      <trkpt lat="45.84712" lon="6.78222">
        <ele>2723.55</ele>
        <time>2017-08-02T10:48:35Z</time>
      </trkpt>
      <trkpt lat="45.84713" lon="6.78222">
        <ele>2723.55</ele>
        <time>2017-08-02T10:48:44Z</time>
      </trkpt>
      <trkpt lat="45.84714" lon="6.78222">
        <ele>2723.55</ele>
        <time>2017-08-02T10:49:06Z</time>
      </trkpt>
      <trkpt lat="45.84714" lon="6.78221">
        <ele>2723.55</ele>
        <time>2017-08-02T10:49:14Z</time>
      </trkpt>
      <trkpt lat="45.84714" lon="6.78221">
        <ele>2724.03</ele>
        <time>2017-08-02T10:49:27Z</time>
      </trkpt>
      <trkpt lat="45.84714" lon="6.78221">
        <ele>2724.03</ele>
        <time>2017-08-02T10:49:34Z</time>
      </trkpt>
      <trkpt lat="45.84714" lon="6.78222">
        <ele>2724.03</ele>
        <time>2017-08-02T10:50:02Z</time>
      </trkpt>
      <trkpt lat="45.84714" lon="6.78222">
        <ele>2724.03</ele>
        <time>2017-08-02T10:50:07Z</time>
      </trkpt>
      <trkpt lat="45.84714" lon="6.78223">
        <ele>2724.51</ele>
        <time>2017-08-02T10:50:33Z</time>
      </trkpt>
      <trkpt lat="45.84714" lon="6.78223">
        <ele>2724.03</ele>
        <time>2017-08-02T10:50:39Z</time>
      </trkpt>
      <trkpt lat="45.84714" lon="6.78223">
        <ele>2724.03</ele>
        <time>2017-08-02T10:50:50Z</time>
      </trkpt>
      <trkpt lat="45.84714" lon="6.78222">
        <ele>2723.07</ele>
        <time>2017-08-02T10:51:40Z</time>
      </trkpt>
      <trkpt lat="45.84714" lon="6.78222">
        <ele>2723.07</ele>
        <time>2017-08-02T10:51:45Z</time>
      </trkpt>
      <trkpt lat="45.84714" lon="6.78222">
        <ele>2723.07</ele>
        <time>2017-08-02T10:51:49Z</time>
      </trkpt>
      <trkpt lat="45.84714" lon="6.78221">
        <ele>2723.55</ele>
        <time>2017-08-02T10:52:05Z</time>
      </trkpt>
      <trkpt lat="45.84714" lon="6.78222">
        <ele>2724.51</ele>
        <time>2017-08-02T10:52:12Z</time>
      </trkpt>
      <trkpt lat="45.84714" lon="6.78222">
        <ele>2724.99</ele>
        <time>2017-08-02T10:52:16Z</time>
      </trkpt>
      <trkpt lat="45.84709" lon="6.78223">
        <ele>2725.48</ele>
        <time>2017-08-02T10:52:24Z</time>
      </trkpt>
      <trkpt lat="45.84704" lon="6.78226">
        <ele>2724.99</ele>
        <time>2017-08-02T10:52:29Z</time>
      </trkpt>
      <trkpt lat="45.84702" lon="6.78226">
        <ele>2725.48</ele>
        <time>2017-08-02T10:52:32Z</time>
      </trkpt>
      <trkpt lat="45.847" lon="6.78226">
        <ele>2725.48</ele>
        <time>2017-08-02T10:52:35Z</time>
      </trkpt>
      <trkpt lat="45.847" lon="6.78226">
        <ele>2726.44</ele>
        <time>2017-08-02T10:52:41Z</time>
      </trkpt>
      <trkpt lat="45.84693" lon="6.78226">
        <ele>2726.92</ele>
        <time>2017-08-02T10:52:50Z</time>
      </trkpt>
      <trkpt lat="45.84691" lon="6.78225">
        <ele>2726.92</ele>
        <time>2017-08-02T10:52:51Z</time>
      </trkpt>
      <trkpt lat="45.8469" lon="6.78225">
        <ele>2726.44</ele>
        <time>2017-08-02T10:52:52Z</time>
      </trkpt>
      <trkpt lat="45.84688" lon="6.78225">
        <ele>2726.44</ele>
        <time>2017-08-02T10:52:53Z</time>
      </trkpt>
      <trkpt lat="45.84687" lon="6.78226">
        <ele>2726.44</ele>
        <time>2017-08-02T10:52:54Z</time>
      </trkpt>
      <trkpt lat="45.84685" lon="6.78226">
        <ele>2726.44</ele>
        <time>2017-08-02T10:52:55Z</time>
      </trkpt>
      <trkpt lat="45.84684" lon="6.78227">
        <ele>2726.44</ele>
        <time>2017-08-02T10:52:56Z</time>
      </trkpt>
      <trkpt lat="45.84682" lon="6.78227">
        <ele>2726.44</ele>
        <time>2017-08-02T10:52:57Z</time>
      </trkpt>
      <trkpt lat="45.84681" lon="6.78228">
        <ele>2726.92</ele>
        <time>2017-08-02T10:52:58Z</time>
      </trkpt>
      <trkpt lat="45.84679" lon="6.78229">
        <ele>2727.4</ele>
        <time>2017-08-02T10:52:59Z</time>
      </trkpt>
      <trkpt lat="45.84677" lon="6.7823">
        <ele>2727.4</ele>
        <time>2017-08-02T10:53:00Z</time>
      </trkpt>
      <trkpt lat="45.84676" lon="6.7823">
        <ele>2727.88</ele>
        <time>2017-08-02T10:53:01Z</time>
      </trkpt>
      <trkpt lat="45.84675" lon="6.78231">
        <ele>2727.88</ele>
        <time>2017-08-02T10:53:02Z</time>
      </trkpt>
      <trkpt lat="45.84672" lon="6.78232">
        <ele>2729.8</ele>
        <time>2017-08-02T10:53:05Z</time>
      </trkpt>
      <trkpt lat="45.84671" lon="6.78233">
        <ele>2731.24</ele>
        <time>2017-08-02T10:53:07Z</time>
      </trkpt>
      <trkpt lat="45.8467" lon="6.78234">
        <ele>2732.2</ele>
        <time>2017-08-02T10:53:13Z</time>
      </trkpt>
      <trkpt lat="45.84667" lon="6.78235">
        <ele>2733.17</ele>
        <time>2017-08-02T10:53:16Z</time>
      </trkpt>
      <trkpt lat="45.84661" lon="6.78234">
        <ele>2736.53</ele>
        <time>2017-08-02T10:53:33Z</time>
      </trkpt>
      <trkpt lat="45.84657" lon="6.78235">
        <ele>2737.97</ele>
        <time>2017-08-02T10:53:40Z</time>
      </trkpt>
      <trkpt lat="45.84652" lon="6.78236">
        <ele>2738.45</ele>
        <time>2017-08-02T10:53:47Z</time>
      </trkpt>
      <trkpt lat="45.84651" lon="6.78236">
        <ele>2738.45</ele>
        <time>2017-08-02T10:53:48Z</time>
      </trkpt>
      <trkpt lat="45.84647" lon="6.78237">
        <ele>2741.82</ele>
        <time>2017-08-02T10:54:03Z</time>
      </trkpt>
      <trkpt lat="45.8464" lon="6.78238">
        <ele>2745.18</ele>
        <time>2017-08-02T10:54:16Z</time>
      </trkpt>
      <trkpt lat="45.84636" lon="6.7824">
        <ele>2747.1</ele>
        <time>2017-08-02T10:54:25Z</time>
      </trkpt>
      <trkpt lat="45.84634" lon="6.78241">
        <ele>2748.07</ele>
        <time>2017-08-02T10:54:30Z</time>
      </trkpt>
      <trkpt lat="45.84632" lon="6.78242">
        <ele>2748.55</ele>
        <time>2017-08-02T10:54:38Z</time>
      </trkpt>
      <trkpt lat="45.84628" lon="6.78244">
        <ele>2748.55</ele>
        <time>2017-08-02T10:54:45Z</time>
      </trkpt>
      <trkpt lat="45.84628" lon="6.78244">
        <ele>2747.59</ele>
        <time>2017-08-02T10:54:53Z</time>
      </trkpt>
      <trkpt lat="45.84629" lon="6.78243">
        <ele>2748.07</ele>
        <time>2017-08-02T10:54:58Z</time>
      </trkpt>
      <trkpt lat="45.84628" lon="6.78244">
        <ele>2747.59</ele>
        <time>2017-08-02T10:55:00Z</time>
      </trkpt>
      <trkpt lat="45.84628" lon="6.78244">
        <ele>2747.1</ele>
        <time>2017-08-02T10:55:04Z</time>
      </trkpt>
      <trkpt lat="45.84628" lon="6.78244">
        <ele>2746.62</ele>
        <time>2017-08-02T10:55:08Z</time>
      </trkpt>
      <trkpt lat="45.84628" lon="6.78245">
        <ele>2747.1</ele>
        <time>2017-08-02T10:55:14Z</time>
      </trkpt>
      <trkpt lat="45.84628" lon="6.78245">
        <ele>2747.59</ele>
        <time>2017-08-02T10:55:23Z</time>
      </trkpt>
      <trkpt lat="45.84629" lon="6.78245">
        <ele>2747.1</ele>
        <time>2017-08-02T10:55:26Z</time>
      </trkpt>
      <trkpt lat="45.84629" lon="6.78245">
        <ele>2746.62</ele>
        <time>2017-08-02T10:55:27Z</time>
      </trkpt>
      <trkpt lat="45.84629" lon="6.78245">
        <ele>2747.1</ele>
        <time>2017-08-02T10:55:29Z</time>
      </trkpt>
      <trkpt lat="45.8463" lon="6.78244">
        <ele>2746.62</ele>
        <time>2017-08-02T10:55:32Z</time>
      </trkpt>
      <trkpt lat="45.8463" lon="6.78244">
        <ele>2746.62</ele>
        <time>2017-08-02T10:55:34Z</time>
      </trkpt>
      <trkpt lat="45.8463" lon="6.78244">
        <ele>2746.62</ele>
        <time>2017-08-02T10:55:36Z</time>
      </trkpt>
      <trkpt lat="45.8463" lon="6.78243">
        <ele>2746.62</ele>
        <time>2017-08-02T10:55:42Z</time>
      </trkpt>
      <trkpt lat="45.8463" lon="6.78243">
        <ele>2747.1</ele>
        <time>2017-08-02T10:55:47Z</time>
      </trkpt>
      <trkpt lat="45.8463" lon="6.78243">
        <ele>2747.1</ele>
        <time>2017-08-02T10:55:50Z</time>
      </trkpt>
      <trkpt lat="45.8463" lon="6.78243">
        <ele>2746.62</ele>
        <time>2017-08-02T10:55:52Z</time>
      </trkpt>
      <trkpt lat="45.8463" lon="6.78243">
        <ele>2746.62</ele>
        <time>2017-08-02T10:55:55Z</time>
      </trkpt>
      <trkpt lat="45.84629" lon="6.78244">
        <ele>2746.62</ele>
        <time>2017-08-02T10:56:09Z</time>
      </trkpt>
      <trkpt lat="45.84629" lon="6.78244">
        <ele>2746.62</ele>
        <time>2017-08-02T10:56:24Z</time>
      </trkpt>
      <trkpt lat="45.84629" lon="6.78244">
        <ele>2746.62</ele>
        <time>2017-08-02T10:56:29Z</time>
      </trkpt>
      <trkpt lat="45.84629" lon="6.78245">
        <ele>2746.62</ele>
        <time>2017-08-02T10:56:49Z</time>
      </trkpt>
      <trkpt lat="45.84628" lon="6.78245">
        <ele>2746.62</ele>
        <time>2017-08-02T10:57:20Z</time>
      </trkpt>
      <trkpt lat="45.84628" lon="6.78245">
        <ele>2747.1</ele>
        <time>2017-08-02T10:57:36Z</time>
      </trkpt>
      <trkpt lat="45.84629" lon="6.78245">
        <ele>2746.62</ele>
        <time>2017-08-02T10:57:50Z</time>
      </trkpt>
      <trkpt lat="45.84629" lon="6.78245">
        <ele>2746.62</ele>
        <time>2017-08-02T10:58:11Z</time>
      </trkpt>
      <trkpt lat="45.84627" lon="6.78246">
        <ele>2746.62</ele>
        <time>2017-08-02T10:58:24Z</time>
      </trkpt>
      <trkpt lat="45.84624" lon="6.78248">
        <ele>2747.59</ele>
        <time>2017-08-02T10:58:27Z</time>
      </trkpt>
      <trkpt lat="45.84623" lon="6.78249">
        <ele>2747.59</ele>
        <time>2017-08-02T10:58:29Z</time>
      </trkpt>
      <trkpt lat="45.84622" lon="6.7825">
        <ele>2747.59</ele>
        <time>2017-08-02T10:58:31Z</time>
      </trkpt>
      <trkpt lat="45.84619" lon="6.7825">
        <ele>2749.03</ele>
        <time>2017-08-02T10:58:38Z</time>
      </trkpt>
      <trkpt lat="45.84618" lon="6.7825">
        <ele>2749.51</ele>
        <time>2017-08-02T10:58:41Z</time>
      </trkpt>
      <trkpt lat="45.84617" lon="6.7825">
        <ele>2749.03</ele>
        <time>2017-08-02T10:58:45Z</time>
      </trkpt>
      <trkpt lat="45.84606" lon="6.78253">
        <ele>2749.99</ele>
        <time>2017-08-02T10:59:08Z</time>
      </trkpt>
      <trkpt lat="45.84604" lon="6.78253">
        <ele>2749.51</ele>
        <time>2017-08-02T10:59:16Z</time>
      </trkpt>
      <trkpt lat="45.84601" lon="6.78253">
        <ele>2748.55</ele>
        <time>2017-08-02T10:59:20Z</time>
      </trkpt>
      <trkpt lat="45.84599" lon="6.78254">
        <ele>2748.55</ele>
        <time>2017-08-02T10:59:24Z</time>
      </trkpt>
      <trkpt lat="45.84597" lon="6.78254">
        <ele>2748.07</ele>
        <time>2017-08-02T10:59:30Z</time>
      </trkpt>
      <trkpt lat="45.84594" lon="6.78257">
        <ele>2745.66</ele>
        <time>2017-08-02T10:59:40Z</time>
      </trkpt>
      <trkpt lat="45.84592" lon="6.7826">
        <ele>2744.22</ele>
        <time>2017-08-02T10:59:49Z</time>
      </trkpt>
      <trkpt lat="45.84593" lon="6.78268">
        <ele>2743.74</ele>
        <time>2017-08-02T11:00:06Z</time>
      </trkpt>
      <trkpt lat="45.84589" lon="6.78275">
        <ele>2740.38</ele>
        <time>2017-08-02T11:00:26Z</time>
      </trkpt>
      <trkpt lat="45.84587" lon="6.78279">
        <ele>2737.49</ele>
        <time>2017-08-02T11:00:38Z</time>
      </trkpt>
      <trkpt lat="45.84586" lon="6.7828">
        <ele>2737.01</ele>
        <time>2017-08-02T11:00:45Z</time>
      </trkpt>
      <trkpt lat="45.84587" lon="6.7828">
        <ele>2736.53</ele>
        <time>2017-08-02T11:00:49Z</time>
      </trkpt>
      <trkpt lat="45.84587" lon="6.78279">
        <ele>2737.01</ele>
        <time>2017-08-02T11:00:55Z</time>
      </trkpt>
      <trkpt lat="45.84584" lon="6.78281">
        <ele>2736.05</ele>
        <time>2017-08-02T11:01:05Z</time>
      </trkpt>
      <trkpt lat="45.84583" lon="6.7828">
        <ele>2734.61</ele>
        <time>2017-08-02T11:01:16Z</time>
      </trkpt>
      <trkpt lat="45.84583" lon="6.78284">
        <ele>2733.65</ele>
        <time>2017-08-02T11:01:23Z</time>
      </trkpt>
      <trkpt lat="45.84584" lon="6.78287">
        <ele>2732.68</ele>
        <time>2017-08-02T11:01:32Z</time>
      </trkpt>
      <trkpt lat="45.84583" lon="6.78288">
        <ele>2732.2</ele>
        <time>2017-08-02T11:01:36Z</time>
      </trkpt>
      <trkpt lat="45.84583" lon="6.78288">
        <ele>2732.2</ele>
        <time>2017-08-02T11:01:38Z</time>
      </trkpt>
      <trkpt lat="45.84583" lon="6.78288">
        <ele>2732.2</ele>
        <time>2017-08-02T11:01:39Z</time>
      </trkpt>
      <trkpt lat="45.84583" lon="6.78288">
        <ele>2732.2</ele>
        <time>2017-08-02T11:01:40Z</time>
      </trkpt>
      <trkpt lat="45.84582" lon="6.7829">
        <ele>2730.28</ele>
        <time>2017-08-02T11:01:48Z</time>
      </trkpt>
      <trkpt lat="45.84582" lon="6.78291">
        <ele>2730.28</ele>
        <time>2017-08-02T11:01:53Z</time>
      </trkpt>
      <trkpt lat="45.84581" lon="6.78293">
        <ele>2729.32</ele>
        <time>2017-08-02T11:01:59Z</time>
      </trkpt>
      <trkpt lat="45.8458" lon="6.78295">
        <ele>2728.36</ele>
        <time>2017-08-02T11:02:08Z</time>
      </trkpt>
      <trkpt lat="45.84575" lon="6.78297">
        <ele>2726.44</ele>
        <time>2017-08-02T11:02:21Z</time>
      </trkpt>
      <trkpt lat="45.84571" lon="6.78298">
        <ele>2724.03</ele>
        <time>2017-08-02T11:02:34Z</time>
      </trkpt>
      <trkpt lat="45.84567" lon="6.78301">
        <ele>2720.67</ele>
        <time>2017-08-02T11:02:49Z</time>
      </trkpt>
      <trkpt lat="45.84564" lon="6.78303">
        <ele>2717.78</ele>
        <time>2017-08-02T11:03:10Z</time>
      </trkpt>
      <trkpt lat="45.84563" lon="6.78304">
        <ele>2716.82</ele>
        <time>2017-08-02T11:03:18Z</time>
      </trkpt>
      <trkpt lat="45.84559" lon="6.78307">
        <ele>2713.46</ele>
        <time>2017-08-02T11:03:31Z</time>
      </trkpt>
      <trkpt lat="45.84556" lon="6.78307">
        <ele>2711.06</ele>
        <time>2017-08-02T11:03:40Z</time>
      </trkpt>
      <trkpt lat="45.84555" lon="6.78309">
        <ele>2711.06</ele>
        <time>2017-08-02T11:03:43Z</time>
      </trkpt>
      <trkpt lat="45.84554" lon="6.7831">
        <ele>2711.06</ele>
        <time>2017-08-02T11:03:44Z</time>
      </trkpt>
      <trkpt lat="45.84553" lon="6.78311">
        <ele>2710.57</ele>
        <time>2017-08-02T11:03:49Z</time>
      </trkpt>
      <trkpt lat="45.84551" lon="6.78313">
        <ele>2707.21</ele>
        <time>2017-08-02T11:04:01Z</time>
      </trkpt>
      <trkpt lat="45.84551" lon="6.78313">
        <ele>2707.21</ele>
        <time>2017-08-02T11:04:05Z</time>
      </trkpt>
      <trkpt lat="45.8455" lon="6.78322">
        <ele>2705.77</ele>
        <time>2017-08-02T11:04:18Z</time>
      </trkpt>
      <trkpt lat="45.84548" lon="6.78323">
        <ele>2705.77</ele>
        <time>2017-08-02T11:04:20Z</time>
      </trkpt>
      <trkpt lat="45.84545" lon="6.78325">
        <ele>2702.88</ele>
        <time>2017-08-02T11:04:33Z</time>
      </trkpt>
      <trkpt lat="45.84542" lon="6.78323">
        <ele>2703.36</ele>
        <time>2017-08-02T11:04:38Z</time>
      </trkpt>
      <trkpt lat="45.84539" lon="6.78322">
        <ele>2704.81</ele>
        <time>2017-08-02T11:04:45Z</time>
      </trkpt>
      <trkpt lat="45.84537" lon="6.78325">
        <ele>2704.33</ele>
        <time>2017-08-02T11:04:48Z</time>
      </trkpt>
      <trkpt lat="45.84536" lon="6.78325">
        <ele>2704.33</ele>
        <time>2017-08-02T11:04:49Z</time>
      </trkpt>
      <trkpt lat="45.84533" lon="6.78329">
        <ele>2704.81</ele>
        <time>2017-08-02T11:04:53Z</time>
      </trkpt>
      <trkpt lat="45.84532" lon="6.7833">
        <ele>2705.29</ele>
        <time>2017-08-02T11:04:54Z</time>
      </trkpt>
      <trkpt lat="45.84532" lon="6.78331">
        <ele>2705.77</ele>
        <time>2017-08-02T11:04:58Z</time>
      </trkpt>
      <trkpt lat="45.84532" lon="6.78331">
        <ele>2707.21</ele>
        <time>2017-08-02T11:05:02Z</time>
      </trkpt>
      <trkpt lat="45.84532" lon="6.78332">
        <ele>2707.69</ele>
        <time>2017-08-02T11:05:06Z</time>
      </trkpt>
      <trkpt lat="45.84532" lon="6.78338">
        <ele>2707.69</ele>
        <time>2017-08-02T11:05:12Z</time>
      </trkpt>
      <trkpt lat="45.84529" lon="6.78341">
        <ele>2708.17</ele>
        <time>2017-08-02T11:05:15Z</time>
      </trkpt>
      <trkpt lat="45.84523" lon="6.78339">
        <ele>2711.06</ele>
        <time>2017-08-02T11:05:23Z</time>
      </trkpt>
      <trkpt lat="45.84523" lon="6.78341">
        <ele>2712.5</ele>
        <time>2017-08-02T11:05:28Z</time>
      </trkpt>
      <trkpt lat="45.84523" lon="6.78343">
        <ele>2714.42</ele>
        <time>2017-08-02T11:05:39Z</time>
      </trkpt>
      <trkpt lat="45.84524" lon="6.78347">
        <ele>2715.86</ele>
        <time>2017-08-02T11:05:47Z</time>
      </trkpt>
      <trkpt lat="45.84523" lon="6.78348">
        <ele>2715.86</ele>
        <time>2017-08-02T11:05:48Z</time>
      </trkpt>
      <trkpt lat="45.84525" lon="6.7836">
        <ele>2716.82</ele>
        <time>2017-08-02T11:06:15Z</time>
      </trkpt>
      <trkpt lat="45.84525" lon="6.78363">
        <ele>2716.82</ele>
        <time>2017-08-02T11:06:16Z</time>
      </trkpt>
      <trkpt lat="45.84525" lon="6.78364">
        <ele>2716.82</ele>
        <time>2017-08-02T11:06:17Z</time>
      </trkpt>
      <trkpt lat="45.84526" lon="6.78368">
        <ele>2717.3</ele>
        <time>2017-08-02T11:06:20Z</time>
      </trkpt>
      <trkpt lat="45.84526" lon="6.7837">
        <ele>2717.3</ele>
        <time>2017-08-02T11:06:26Z</time>
      </trkpt>
      <trkpt lat="45.84528" lon="6.78371">
        <ele>2720.19</ele>
        <time>2017-08-02T11:06:36Z</time>
      </trkpt>
      <trkpt lat="45.8453" lon="6.7838">
        <ele>2722.11</ele>
        <time>2017-08-02T11:07:16Z</time>
      </trkpt>
      <trkpt lat="45.84531" lon="6.78389">
        <ele>2725.48</ele>
        <time>2017-08-02T11:07:39Z</time>
      </trkpt>
      <trkpt lat="45.84529" lon="6.78391">
        <ele>2727.88</ele>
        <time>2017-08-02T11:07:57Z</time>
      </trkpt>
      <trkpt lat="45.84529" lon="6.78395">
        <ele>2726.44</ele>
        <time>2017-08-02T11:08:05Z</time>
      </trkpt>
      <trkpt lat="45.84529" lon="6.78398">
        <ele>2726.44</ele>
        <time>2017-08-02T11:08:22Z</time>
      </trkpt>
      <trkpt lat="45.84529" lon="6.78399">
        <ele>2726.92</ele>
        <time>2017-08-02T11:08:26Z</time>
      </trkpt>
      <trkpt lat="45.84529" lon="6.78405">
        <ele>2726.44</ele>
        <time>2017-08-02T11:08:47Z</time>
      </trkpt>
      <trkpt lat="45.84527" lon="6.7841">
        <ele>2728.84</ele>
        <time>2017-08-02T11:08:56Z</time>
      </trkpt>
      <trkpt lat="45.84527" lon="6.7841">
        <ele>2728.84</ele>
        <time>2017-08-02T11:08:57Z</time>
      </trkpt>
      <trkpt lat="45.84525" lon="6.78411">
        <ele>2726.92</ele>
        <time>2017-08-02T11:09:01Z</time>
      </trkpt>
      <trkpt lat="45.84524" lon="6.78412">
        <ele>2725.96</ele>
        <time>2017-08-02T11:09:03Z</time>
      </trkpt>
      <trkpt lat="45.84524" lon="6.78413">
        <ele>2725.48</ele>
        <time>2017-08-02T11:09:04Z</time>
      </trkpt>
      <trkpt lat="45.84521" lon="6.78418">
        <ele>2724.03</ele>
        <time>2017-08-02T11:09:21Z</time>
      </trkpt>
      <trkpt lat="45.8452" lon="6.78419">
        <ele>2722.11</ele>
        <time>2017-08-02T11:09:25Z</time>
      </trkpt>
      <trkpt lat="45.84519" lon="6.78422">
        <ele>2722.11</ele>
        <time>2017-08-02T11:09:32Z</time>
      </trkpt>
      <trkpt lat="45.84518" lon="6.78424">
        <ele>2722.59</ele>
        <time>2017-08-02T11:09:35Z</time>
      </trkpt>
      <trkpt lat="45.84518" lon="6.78426">
        <ele>2722.59</ele>
        <time>2017-08-02T11:09:36Z</time>
      </trkpt>
      <trkpt lat="45.84518" lon="6.78428">
        <ele>2722.11</ele>
        <time>2017-08-02T11:09:37Z</time>
      </trkpt>
      <trkpt lat="45.84519" lon="6.78431">
        <ele>2722.11</ele>
        <time>2017-08-02T11:09:38Z</time>
      </trkpt>
      <trkpt lat="45.84519" lon="6.78434">
        <ele>2722.11</ele>
        <time>2017-08-02T11:09:39Z</time>
      </trkpt>
      <trkpt lat="45.8452" lon="6.78437">
        <ele>2723.55</ele>
        <time>2017-08-02T11:09:41Z</time>
      </trkpt>
      <trkpt lat="45.84521" lon="6.78439">
        <ele>2724.03</ele>
        <time>2017-08-02T11:09:43Z</time>
      </trkpt>
      <trkpt lat="45.84524" lon="6.78441">
        <ele>2724.99</ele>
        <time>2017-08-02T11:09:46Z</time>
      </trkpt>
      <trkpt lat="45.84524" lon="6.78442">
        <ele>2724.99</ele>
        <time>2017-08-02T11:09:47Z</time>
      </trkpt>
      <trkpt lat="45.84524" lon="6.78445">
        <ele>2724.99</ele>
        <time>2017-08-02T11:09:48Z</time>
      </trkpt>
      <trkpt lat="45.84524" lon="6.78447">
        <ele>2724.99</ele>
        <time>2017-08-02T11:09:49Z</time>
      </trkpt>
      <trkpt lat="45.84523" lon="6.7845">
        <ele>2725.48</ele>
        <time>2017-08-02T11:09:50Z</time>
      </trkpt>
      <trkpt lat="45.84523" lon="6.78453">
        <ele>2725.96</ele>
        <time>2017-08-02T11:09:53Z</time>
      </trkpt>
      <trkpt lat="45.84522" lon="6.78456">
        <ele>2726.44</ele>
        <time>2017-08-02T11:09:58Z</time>
      </trkpt>
      <trkpt lat="45.84521" lon="6.78458">
        <ele>2725.96</ele>
        <time>2017-08-02T11:10:01Z</time>
      </trkpt>
      <trkpt lat="45.84521" lon="6.78458">
        <ele>2724.99</ele>
        <time>2017-08-02T11:10:07Z</time>
      </trkpt>
      <trkpt lat="45.84519" lon="6.78458">
        <ele>2725.48</ele>
        <time>2017-08-02T11:10:19Z</time>
      </trkpt>
      <trkpt lat="45.84519" lon="6.78458">
        <ele>2725.96</ele>
        <time>2017-08-02T11:10:23Z</time>
      </trkpt>
      <trkpt lat="45.84518" lon="6.78458">
        <ele>2726.44</ele>
        <time>2017-08-02T11:10:28Z</time>
      </trkpt>
      <trkpt lat="45.84518" lon="6.78458">
        <ele>2726.44</ele>
        <time>2017-08-02T11:10:30Z</time>
      </trkpt>
      <trkpt lat="45.84518" lon="6.78459">
        <ele>2725.48</ele>
        <time>2017-08-02T11:10:33Z</time>
      </trkpt>
      <trkpt lat="45.84517" lon="6.78459">
        <ele>2724.03</ele>
        <time>2017-08-02T11:10:39Z</time>
      </trkpt>
      <trkpt lat="45.84517" lon="6.78463">
        <ele>2724.51</ele>
        <time>2017-08-02T11:10:47Z</time>
      </trkpt>
      <trkpt lat="45.84516" lon="6.78465">
        <ele>2724.99</ele>
        <time>2017-08-02T11:10:48Z</time>
      </trkpt>
      <trkpt lat="45.84517" lon="6.78467">
        <ele>2723.07</ele>
        <time>2017-08-02T11:11:01Z</time>
      </trkpt>
      <trkpt lat="45.84517" lon="6.78468">
        <ele>2722.59</ele>
        <time>2017-08-02T11:11:03Z</time>
      </trkpt>
      <trkpt lat="45.84516" lon="6.78468">
        <ele>2720.19</ele>
        <time>2017-08-02T11:11:15Z</time>
      </trkpt>
      <trkpt lat="45.84516" lon="6.78468">
        <ele>2720.19</ele>
        <time>2017-08-02T11:11:16Z</time>
      </trkpt>
      <trkpt lat="45.84516" lon="6.78468">
        <ele>2720.19</ele>
        <time>2017-08-02T11:11:20Z</time>
      </trkpt>
      <trkpt lat="45.84516" lon="6.78468">
        <ele>2720.19</ele>
        <time>2017-08-02T11:11:24Z</time>
      </trkpt>
      <trkpt lat="45.84516" lon="6.78468">
        <ele>2721.63</ele>
        <time>2017-08-02T11:11:28Z</time>
      </trkpt>
      <trkpt lat="45.84515" lon="6.78468">
        <ele>2723.55</ele>
        <time>2017-08-02T11:11:32Z</time>
      </trkpt>
      <trkpt lat="45.84515" lon="6.78467">
        <ele>2720.19</ele>
        <time>2017-08-02T11:11:42Z</time>
      </trkpt>
      <trkpt lat="45.84515" lon="6.78468">
        <ele>2720.19</ele>
        <time>2017-08-02T11:11:43Z</time>
      </trkpt>
      <trkpt lat="45.84514" lon="6.78468">
        <ele>2720.19</ele>
        <time>2017-08-02T11:11:52Z</time>
      </trkpt>
      <trkpt lat="45.84514" lon="6.78468">
        <ele>2720.19</ele>
        <time>2017-08-02T11:12:01Z</time>
      </trkpt>
      <trkpt lat="45.84514" lon="6.78468">
        <ele>2720.19</ele>
        <time>2017-08-02T11:12:09Z</time>
      </trkpt>
      <trkpt lat="45.84514" lon="6.78467">
        <ele>2720.19</ele>
        <time>2017-08-02T11:12:41Z</time>
      </trkpt>
      <trkpt lat="45.84514" lon="6.78468">
        <ele>2720.19</ele>
        <time>2017-08-02T11:12:54Z</time>
      </trkpt>
      <trkpt lat="45.84514" lon="6.78468">
        <ele>2720.67</ele>
        <time>2017-08-02T11:13:01Z</time>
      </trkpt>
      <trkpt lat="45.84515" lon="6.78468">
        <ele>2720.67</ele>
        <time>2017-08-02T11:13:12Z</time>
      </trkpt>
      <trkpt lat="45.84515" lon="6.78468">
        <ele>2721.63</ele>
        <time>2017-08-02T11:13:19Z</time>
      </trkpt>
      <trkpt lat="45.84515" lon="6.78468">
        <ele>2721.63</ele>
        <time>2017-08-02T11:13:30Z</time>
      </trkpt>
      <trkpt lat="45.84516" lon="6.7847">
        <ele>2721.15</ele>
        <time>2017-08-02T11:13:41Z</time>
      </trkpt>
      <trkpt lat="45.84516" lon="6.78472">
        <ele>2720.67</ele>
        <time>2017-08-02T11:13:45Z</time>
      </trkpt>
      <trkpt lat="45.84516" lon="6.78474">
        <ele>2720.67</ele>
        <time>2017-08-02T11:13:48Z</time>
      </trkpt>
      <trkpt lat="45.84515" lon="6.78477">
        <ele>2721.63</ele>
        <time>2017-08-02T11:13:57Z</time>
      </trkpt>
      <trkpt lat="45.84516" lon="6.78478">
        <ele>2720.19</ele>
        <time>2017-08-02T11:14:04Z</time>
      </trkpt>
      <trkpt lat="45.84516" lon="6.78479">
        <ele>2720.67</ele>
        <time>2017-08-02T11:14:10Z</time>
      </trkpt>
      <trkpt lat="45.84515" lon="6.78482">
        <ele>2719.71</ele>
        <time>2017-08-02T11:14:31Z</time>
      </trkpt>
      <trkpt lat="45.84516" lon="6.78483">
        <ele>2719.23</ele>
        <time>2017-08-02T11:14:38Z</time>
      </trkpt>
      <trkpt lat="45.84516" lon="6.78488">
        <ele>2719.23</ele>
        <time>2017-08-02T11:14:48Z</time>
      </trkpt>
      <trkpt lat="45.84516" lon="6.78491">
        <ele>2719.23</ele>
        <time>2017-08-02T11:14:55Z</time>
      </trkpt>
      <trkpt lat="45.84515" lon="6.78496">
        <ele>2717.78</ele>
        <time>2017-08-02T11:15:12Z</time>
      </trkpt>
      <trkpt lat="45.84515" lon="6.78496">
        <ele>2717.78</ele>
        <time>2017-08-02T11:15:16Z</time>
      </trkpt>
      <trkpt lat="45.84516" lon="6.78496">
        <ele>2717.78</ele>
        <time>2017-08-02T11:15:20Z</time>
      </trkpt>
      <trkpt lat="45.84518" lon="6.785">
        <ele>2716.34</ele>
        <time>2017-08-02T11:15:44Z</time>
      </trkpt>
      <trkpt lat="45.84517" lon="6.78505">
        <ele>2715.38</ele>
        <time>2017-08-02T11:16:04Z</time>
      </trkpt>
      <trkpt lat="45.84517" lon="6.78505">
        <ele>2715.38</ele>
        <time>2017-08-02T11:16:07Z</time>
      </trkpt>
      <trkpt lat="45.84517" lon="6.78505">
        <ele>2715.38</ele>
        <time>2017-08-02T11:16:10Z</time>
      </trkpt>
      <trkpt lat="45.84516" lon="6.78507">
        <ele>2715.86</ele>
        <time>2017-08-02T11:16:20Z</time>
      </trkpt>
      <trkpt lat="45.84517" lon="6.7851">
        <ele>2715.86</ele>
        <time>2017-08-02T11:16:32Z</time>
      </trkpt>
      <trkpt lat="45.84516" lon="6.78514">
        <ele>2716.82</ele>
        <time>2017-08-02T11:16:42Z</time>
      </trkpt>
      <trkpt lat="45.84516" lon="6.78518">
        <ele>2716.82</ele>
        <time>2017-08-02T11:16:50Z</time>
      </trkpt>
      <trkpt lat="45.84515" lon="6.78519">
        <ele>2715.86</ele>
        <time>2017-08-02T11:17:00Z</time>
      </trkpt>
      <trkpt lat="45.84513" lon="6.78524">
        <ele>2714.42</ele>
        <time>2017-08-02T11:17:20Z</time>
      </trkpt>
      <trkpt lat="45.84511" lon="6.78524">
        <ele>2712.98</ele>
        <time>2017-08-02T11:17:25Z</time>
      </trkpt>
      <trkpt lat="45.84508" lon="6.78526">
        <ele>2710.57</ele>
        <time>2017-08-02T11:17:51Z</time>
      </trkpt>
      <trkpt lat="45.84508" lon="6.78528">
        <ele>2711.54</ele>
        <time>2017-08-02T11:17:55Z</time>
      </trkpt>
      <trkpt lat="45.84509" lon="6.78528">
        <ele>2712.02</ele>
        <time>2017-08-02T11:18:02Z</time>
      </trkpt>
      <trkpt lat="45.84508" lon="6.78529">
        <ele>2711.54</ele>
        <time>2017-08-02T11:18:07Z</time>
      </trkpt>
      <trkpt lat="45.84509" lon="6.78532">
        <ele>2712.5</ele>
        <time>2017-08-02T11:18:15Z</time>
      </trkpt>
      <trkpt lat="45.84509" lon="6.78534">
        <ele>2712.02</ele>
        <time>2017-08-02T11:18:22Z</time>
      </trkpt>
      <trkpt lat="45.84508" lon="6.78538">
        <ele>2712.02</ele>
        <time>2017-08-02T11:18:29Z</time>
      </trkpt>
      <trkpt lat="45.84508" lon="6.78547">
        <ele>2712.5</ele>
        <time>2017-08-02T11:19:06Z</time>
      </trkpt>
      <trkpt lat="45.84508" lon="6.78549">
        <ele>2712.02</ele>
        <time>2017-08-02T11:19:11Z</time>
      </trkpt>
      <trkpt lat="45.84508" lon="6.78551">
        <ele>2712.02</ele>
        <time>2017-08-02T11:19:28Z</time>
      </trkpt>
      <trkpt lat="45.84507" lon="6.78559">
        <ele>2712.02</ele>
        <time>2017-08-02T11:19:47Z</time>
      </trkpt>
      <trkpt lat="45.84508" lon="6.78562">
        <ele>2712.98</ele>
        <time>2017-08-02T11:19:51Z</time>
      </trkpt>
      <trkpt lat="45.84508" lon="6.78564">
        <ele>2714.9</ele>
        <time>2017-08-02T11:19:56Z</time>
      </trkpt>
      <trkpt lat="45.84509" lon="6.78565">
        <ele>2714.9</ele>
        <time>2017-08-02T11:20:02Z</time>
      </trkpt>
      <trkpt lat="45.84509" lon="6.78566">
        <ele>2715.38</ele>
        <time>2017-08-02T11:20:06Z</time>
      </trkpt>
      <trkpt lat="45.84508" lon="6.78566">
        <ele>2714.42</ele>
        <time>2017-08-02T11:20:20Z</time>
      </trkpt>
      <trkpt lat="45.84507" lon="6.78566">
        <ele>2714.42</ele>
        <time>2017-08-02T11:20:38Z</time>
      </trkpt>
      <trkpt lat="45.84506" lon="6.78566">
        <ele>2713.94</ele>
        <time>2017-08-02T11:20:41Z</time>
      </trkpt>
      <trkpt lat="45.84506" lon="6.78566">
        <ele>2712.02</ele>
        <time>2017-08-02T11:20:48Z</time>
      </trkpt>
      <trkpt lat="45.84506" lon="6.78566">
        <ele>2712.02</ele>
        <time>2017-08-02T11:20:53Z</time>
      </trkpt>
      <trkpt lat="45.84506" lon="6.78566">
        <ele>2712.02</ele>
        <time>2017-08-02T11:20:57Z</time>
      </trkpt>
      <trkpt lat="45.84506" lon="6.78567">
        <ele>2713.46</ele>
        <time>2017-08-02T11:21:04Z</time>
      </trkpt>
      <trkpt lat="45.84508" lon="6.78569">
        <ele>2712.02</ele>
        <time>2017-08-02T11:21:12Z</time>
      </trkpt>
      <trkpt lat="45.84505" lon="6.78579">
        <ele>2712.98</ele>
        <time>2017-08-02T11:21:40Z</time>
      </trkpt>
      <trkpt lat="45.84504" lon="6.78582">
        <ele>2712.98</ele>
        <time>2017-08-02T11:21:45Z</time>
      </trkpt>
      <trkpt lat="45.84505" lon="6.78584">
        <ele>2712.98</ele>
        <time>2017-08-02T11:21:49Z</time>
      </trkpt>
      <trkpt lat="45.84501" lon="6.7859">
        <ele>2711.06</ele>
        <time>2017-08-02T11:22:00Z</time>
      </trkpt>
      <trkpt lat="45.84501" lon="6.78592">
        <ele>2710.57</ele>
        <time>2017-08-02T11:22:01Z</time>
      </trkpt>
      <trkpt lat="45.84501" lon="6.78595">
        <ele>2710.57</ele>
        <time>2017-08-02T11:22:04Z</time>
      </trkpt>
      <trkpt lat="45.84502" lon="6.78595">
        <ele>2710.09</ele>
        <time>2017-08-02T11:22:05Z</time>
      </trkpt>
      <trkpt lat="45.84502" lon="6.78597">
        <ele>2709.61</ele>
        <time>2017-08-02T11:22:06Z</time>
      </trkpt>
      <trkpt lat="45.84502" lon="6.78598">
        <ele>2709.61</ele>
        <time>2017-08-02T11:22:07Z</time>
      </trkpt>
      <trkpt lat="45.84502" lon="6.78599">
        <ele>2709.61</ele>
        <time>2017-08-02T11:22:08Z</time>
      </trkpt>
      <trkpt lat="45.84502" lon="6.78601">
        <ele>2710.09</ele>
        <time>2017-08-02T11:22:09Z</time>
      </trkpt>
      <trkpt lat="45.84503" lon="6.78607">
        <ele>2712.02</ele>
        <time>2017-08-02T11:22:15Z</time>
      </trkpt>
      <trkpt lat="45.84503" lon="6.78608">
        <ele>2712.02</ele>
        <time>2017-08-02T11:22:16Z</time>
      </trkpt>
      <trkpt lat="45.84502" lon="6.78609">
        <ele>2711.54</ele>
        <time>2017-08-02T11:22:24Z</time>
      </trkpt>
      <trkpt lat="45.84503" lon="6.78612">
        <ele>2712.02</ele>
        <time>2017-08-02T11:22:31Z</time>
      </trkpt>
      <trkpt lat="45.84502" lon="6.78613">
        <ele>2712.02</ele>
        <time>2017-08-02T11:22:32Z</time>
      </trkpt>
      <trkpt lat="45.84502" lon="6.78616">
        <ele>2712.98</ele>
        <time>2017-08-02T11:22:39Z</time>
      </trkpt>
      <trkpt lat="45.84502" lon="6.78617">
        <ele>2712.5</ele>
        <time>2017-08-02T11:22:42Z</time>
      </trkpt>
      <trkpt lat="45.84502" lon="6.78619">
        <ele>2712.98</ele>
        <time>2017-08-02T11:22:47Z</time>
      </trkpt>
      <trkpt lat="45.84502" lon="6.78619">
        <ele>2716.34</ele>
        <time>2017-08-02T11:22:59Z</time>
      </trkpt>
      <trkpt lat="45.84503" lon="6.78623">
        <ele>2714.9</ele>
        <time>2017-08-02T11:23:04Z</time>
      </trkpt>
      <trkpt lat="45.84504" lon="6.78624">
        <ele>2714.9</ele>
        <time>2017-08-02T11:23:05Z</time>
      </trkpt>
      <trkpt lat="45.84504" lon="6.78626">
        <ele>2715.38</ele>
        <time>2017-08-02T11:23:06Z</time>
      </trkpt>
      <trkpt lat="45.84504" lon="6.78628">
        <ele>2715.86</ele>
        <time>2017-08-02T11:23:07Z</time>
      </trkpt>
      <trkpt lat="45.84505" lon="6.7863">
        <ele>2715.86</ele>
        <time>2017-08-02T11:23:08Z</time>
      </trkpt>
      <trkpt lat="45.84505" lon="6.78631">
        <ele>2715.38</ele>
        <time>2017-08-02T11:23:09Z</time>
      </trkpt>
      <trkpt lat="45.84505" lon="6.78633">
        <ele>2715.86</ele>
        <time>2017-08-02T11:23:10Z</time>
      </trkpt>
      <trkpt lat="45.84504" lon="6.78635">
        <ele>2716.82</ele>
        <time>2017-08-02T11:23:12Z</time>
      </trkpt>
      <trkpt lat="45.84504" lon="6.78636">
        <ele>2716.82</ele>
        <time>2017-08-02T11:23:13Z</time>
      </trkpt>
      <trkpt lat="45.84504" lon="6.78638">
        <ele>2717.3</ele>
        <time>2017-08-02T11:23:14Z</time>
      </trkpt>
      <trkpt lat="45.84504" lon="6.7864">
        <ele>2717.3</ele>
        <time>2017-08-02T11:23:15Z</time>
      </trkpt>
      <trkpt lat="45.84504" lon="6.78642">
        <ele>2717.3</ele>
        <time>2017-08-02T11:23:16Z</time>
      </trkpt>
      <trkpt lat="45.84504" lon="6.78643">
        <ele>2717.3</ele>
        <time>2017-08-02T11:23:17Z</time>
      </trkpt>
      <trkpt lat="45.84503" lon="6.78646">
        <ele>2720.19</ele>
        <time>2017-08-02T11:23:22Z</time>
      </trkpt>
      <trkpt lat="45.84503" lon="6.78653">
        <ele>2722.11</ele>
        <time>2017-08-02T11:23:28Z</time>
      </trkpt>
      <trkpt lat="45.84503" lon="6.78657">
        <ele>2722.59</ele>
        <time>2017-08-02T11:23:34Z</time>
      </trkpt>
      <trkpt lat="45.84502" lon="6.78663">
        <ele>2725.48</ele>
        <time>2017-08-02T11:23:46Z</time>
      </trkpt>
      <trkpt lat="45.84501" lon="6.78674">
        <ele>2725.96</ele>
        <time>2017-08-02T11:24:17Z</time>
      </trkpt>
      <trkpt lat="45.84502" lon="6.78676">
        <ele>2725.48</ele>
        <time>2017-08-02T11:24:21Z</time>
      </trkpt>
      <trkpt lat="45.84504" lon="6.78682">
        <ele>2727.88</ele>
        <time>2017-08-02T11:24:30Z</time>
      </trkpt>
      <trkpt lat="45.84504" lon="6.7869">
        <ele>2731.24</ele>
        <time>2017-08-02T11:24:46Z</time>
      </trkpt>
      <trkpt lat="45.84504" lon="6.78693">
        <ele>2733.17</ele>
        <time>2017-08-02T11:25:12Z</time>
      </trkpt>
      <trkpt lat="45.84503" lon="6.78693">
        <ele>2734.61</ele>
        <time>2017-08-02T11:25:15Z</time>
      </trkpt>
      <trkpt lat="45.84502" lon="6.78695">
        <ele>2735.09</ele>
        <time>2017-08-02T11:25:16Z</time>
      </trkpt>
      <trkpt lat="45.84495" lon="6.78709">
        <ele>2735.57</ele>
        <time>2017-08-02T11:25:24Z</time>
      </trkpt>
      <trkpt lat="45.84494" lon="6.78712">
        <ele>2736.05</ele>
        <time>2017-08-02T11:25:27Z</time>
      </trkpt>
      <trkpt lat="45.84493" lon="6.78715">
        <ele>2737.97</ele>
        <time>2017-08-02T11:25:31Z</time>
      </trkpt>
      <trkpt lat="45.84487" lon="6.78731">
        <ele>2737.97</ele>
        <time>2017-08-02T11:26:03Z</time>
      </trkpt>
      <trkpt lat="45.84487" lon="6.78731">
        <ele>2739.41</ele>
        <time>2017-08-02T11:26:08Z</time>
      </trkpt>
      <trkpt lat="45.84488" lon="6.78731">
        <ele>2739.41</ele>
        <time>2017-08-02T11:26:13Z</time>
      </trkpt>
      <trkpt lat="45.84488" lon="6.7873">
        <ele>2739.41</ele>
        <time>2017-08-02T11:26:17Z</time>
      </trkpt>
      <trkpt lat="45.84487" lon="6.7873">
        <ele>2737.97</ele>
        <time>2017-08-02T11:26:20Z</time>
      </trkpt>
      <trkpt lat="45.84487" lon="6.78731">
        <ele>2737.97</ele>
        <time>2017-08-02T11:26:28Z</time>
      </trkpt>
      <trkpt lat="45.84486" lon="6.78732">
        <ele>2737.97</ele>
        <time>2017-08-02T11:26:35Z</time>
      </trkpt>
      <trkpt lat="45.84486" lon="6.78736">
        <ele>2738.93</ele>
        <time>2017-08-02T11:26:44Z</time>
      </trkpt>
      <trkpt lat="45.84486" lon="6.7874">
        <ele>2742.3</ele>
        <time>2017-08-02T11:26:57Z</time>
      </trkpt>
      <trkpt lat="45.84488" lon="6.78749">
        <ele>2744.7</ele>
        <time>2017-08-02T11:27:18Z</time>
      </trkpt>
      <trkpt lat="45.84489" lon="6.7875">
        <ele>2745.18</ele>
        <time>2017-08-02T11:27:23Z</time>
      </trkpt>
      <trkpt lat="45.8449" lon="6.78751">
        <ele>2745.66</ele>
        <time>2017-08-02T11:27:30Z</time>
      </trkpt>
      <trkpt lat="45.84489" lon="6.7875">
        <ele>2746.62</ele>
        <time>2017-08-02T11:27:39Z</time>
      </trkpt>
      <trkpt lat="45.84488" lon="6.78752">
        <ele>2747.59</ele>
        <time>2017-08-02T11:27:46Z</time>
      </trkpt>
      <trkpt lat="45.84483" lon="6.78758">
        <ele>2749.99</ele>
        <time>2017-08-02T11:28:00Z</time>
      </trkpt>
      <trkpt lat="45.84481" lon="6.78769">
        <ele>2752.87</ele>
        <time>2017-08-02T11:28:15Z</time>
      </trkpt>
      <trkpt lat="45.84483" lon="6.78771">
        <ele>2754.31</ele>
        <time>2017-08-02T11:28:21Z</time>
      </trkpt>
      <trkpt lat="45.84483" lon="6.78774">
        <ele>2754.31</ele>
        <time>2017-08-02T11:28:23Z</time>
      </trkpt>
      <trkpt lat="45.84481" lon="6.78771">
        <ele>2755.76</ele>
        <time>2017-08-02T11:28:27Z</time>
      </trkpt>
      <trkpt lat="45.84481" lon="6.7877">
        <ele>2756.72</ele>
        <time>2017-08-02T11:28:34Z</time>
      </trkpt>
      <trkpt lat="45.84477" lon="6.78761">
        <ele>2758.64</ele>
        <time>2017-08-02T11:28:39Z</time>
      </trkpt>
      <trkpt lat="45.84475" lon="6.78762">
        <ele>2759.6</ele>
        <time>2017-08-02T11:28:45Z</time>
      </trkpt>
      <trkpt lat="45.84474" lon="6.78763">
        <ele>2760.56</ele>
        <time>2017-08-02T11:28:53Z</time>
      </trkpt>
      <trkpt lat="45.8447" lon="6.78766">
        <ele>2763.45</ele>
        <time>2017-08-02T11:29:13Z</time>
      </trkpt>
      <trkpt lat="45.84469" lon="6.78773">
        <ele>2766.81</ele>
        <time>2017-08-02T11:29:25Z</time>
      </trkpt>
      <trkpt lat="45.8447" lon="6.78775">
        <ele>2767.29</ele>
        <time>2017-08-02T11:29:27Z</time>
      </trkpt>
      <trkpt lat="45.84468" lon="6.78783">
        <ele>2770.18</ele>
        <time>2017-08-02T11:29:41Z</time>
      </trkpt>
      <trkpt lat="45.84468" lon="6.78792">
        <ele>2774.02</ele>
        <time>2017-08-02T11:29:55Z</time>
      </trkpt>
      <trkpt lat="45.84469" lon="6.78793">
        <ele>2774.02</ele>
        <time>2017-08-02T11:29:57Z</time>
      </trkpt>
      <trkpt lat="45.84471" lon="6.78796">
        <ele>2774.98</ele>
        <time>2017-08-02T11:30:10Z</time>
      </trkpt>
      <trkpt lat="45.84472" lon="6.788">
        <ele>2778.83</ele>
        <time>2017-08-02T11:30:24Z</time>
      </trkpt>
      <trkpt lat="45.84472" lon="6.78798">
        <ele>2777.39</ele>
        <time>2017-08-02T11:30:32Z</time>
      </trkpt>
      <trkpt lat="45.84472" lon="6.78799">
        <ele>2778.35</ele>
        <time>2017-08-02T11:30:40Z</time>
      </trkpt>
      <trkpt lat="45.84472" lon="6.78798">
        <ele>2778.83</ele>
        <time>2017-08-02T11:30:45Z</time>
      </trkpt>
      <trkpt lat="45.8447" lon="6.788">
        <ele>2779.31</ele>
        <time>2017-08-02T11:30:55Z</time>
      </trkpt>
      <trkpt lat="45.84469" lon="6.788">
        <ele>2779.79</ele>
        <time>2017-08-02T11:30:59Z</time>
      </trkpt>
      <trkpt lat="45.84468" lon="6.78799">
        <ele>2779.79</ele>
        <time>2017-08-02T11:31:02Z</time>
      </trkpt>
      <trkpt lat="45.84463" lon="6.78798">
        <ele>2781.71</ele>
        <time>2017-08-02T11:31:11Z</time>
      </trkpt>
      <trkpt lat="45.84457" lon="6.78798">
        <ele>2783.63</ele>
        <time>2017-08-02T11:31:22Z</time>
      </trkpt>
      <trkpt lat="45.84457" lon="6.78798">
        <ele>2783.63</ele>
        <time>2017-08-02T11:31:24Z</time>
      </trkpt>
      <trkpt lat="45.84458" lon="6.78797">
        <ele>2783.63</ele>
        <time>2017-08-02T11:31:25Z</time>
      </trkpt>
      <trkpt lat="45.84456" lon="6.788">
        <ele>2785.56</ele>
        <time>2017-08-02T11:31:35Z</time>
      </trkpt>
      <trkpt lat="45.84456" lon="6.78801">
        <ele>2785.56</ele>
        <time>2017-08-02T11:31:36Z</time>
      </trkpt>
      <trkpt lat="45.84454" lon="6.78804">
        <ele>2786.04</ele>
        <time>2017-08-02T11:31:40Z</time>
      </trkpt>
      <trkpt lat="45.84454" lon="6.78809">
        <ele>2787.96</ele>
        <time>2017-08-02T11:31:47Z</time>
      </trkpt>
      <trkpt lat="45.84454" lon="6.78812">
        <ele>2788.92</ele>
        <time>2017-08-02T11:31:49Z</time>
      </trkpt>
      <trkpt lat="45.8445" lon="6.78821">
        <ele>2790.36</ele>
        <time>2017-08-02T11:31:59Z</time>
      </trkpt>
      <trkpt lat="45.84448" lon="6.78831">
        <ele>2793.73</ele>
        <time>2017-08-02T11:32:11Z</time>
      </trkpt>
      <trkpt lat="45.84448" lon="6.78833">
        <ele>2794.69</ele>
        <time>2017-08-02T11:32:13Z</time>
      </trkpt>
      <trkpt lat="45.84445" lon="6.78837">
        <ele>2797.09</ele>
        <time>2017-08-02T11:32:22Z</time>
      </trkpt>
      <trkpt lat="45.84445" lon="6.78839">
        <ele>2796.61</ele>
        <time>2017-08-02T11:32:23Z</time>
      </trkpt>
      <trkpt lat="45.84441" lon="6.7885">
        <ele>2799.5</ele>
        <time>2017-08-02T11:32:35Z</time>
      </trkpt>
      <trkpt lat="45.84441" lon="6.78862">
        <ele>2802.86</ele>
        <time>2017-08-02T11:32:56Z</time>
      </trkpt>
      <trkpt lat="45.84438" lon="6.78863">
        <ele>2806.71</ele>
        <time>2017-08-02T11:33:01Z</time>
      </trkpt>
      <trkpt lat="45.84438" lon="6.78864">
        <ele>2807.19</ele>
        <time>2017-08-02T11:33:03Z</time>
      </trkpt>
      <trkpt lat="45.84438" lon="6.78875">
        <ele>2808.15</ele>
        <time>2017-08-02T11:33:11Z</time>
      </trkpt>
      <trkpt lat="45.84438" lon="6.78876">
        <ele>2808.15</ele>
        <time>2017-08-02T11:33:12Z</time>
      </trkpt>
      <trkpt lat="45.84438" lon="6.78879">
        <ele>2808.63</ele>
        <time>2017-08-02T11:33:15Z</time>
      </trkpt>
      <trkpt lat="45.84438" lon="6.7888">
        <ele>2808.63</ele>
        <time>2017-08-02T11:33:16Z</time>
      </trkpt>
      <trkpt lat="45.84438" lon="6.78882">
        <ele>2809.11</ele>
        <time>2017-08-02T11:33:17Z</time>
      </trkpt>
      <trkpt lat="45.84438" lon="6.78887">
        <ele>2811.03</ele>
        <time>2017-08-02T11:33:22Z</time>
      </trkpt>
      <trkpt lat="45.84438" lon="6.78889">
        <ele>2811.03</ele>
        <time>2017-08-02T11:33:23Z</time>
      </trkpt>
      <trkpt lat="45.84438" lon="6.78895">
        <ele>2811.51</ele>
        <time>2017-08-02T11:33:27Z</time>
      </trkpt>
      <trkpt lat="45.84432" lon="6.78902">
        <ele>2811.99</ele>
        <time>2017-08-02T11:33:41Z</time>
      </trkpt>
      <trkpt lat="45.84429" lon="6.78903">
        <ele>2811.03</ele>
        <time>2017-08-02T11:33:46Z</time>
      </trkpt>
      <trkpt lat="45.84426" lon="6.78909">
        <ele>2812.96</ele>
        <time>2017-08-02T11:33:59Z</time>
      </trkpt>
      <trkpt lat="45.84429" lon="6.78916">
        <ele>2816.32</ele>
        <time>2017-08-02T11:34:12Z</time>
      </trkpt>
      <trkpt lat="45.8443" lon="6.78917">
        <ele>2816.8</ele>
        <time>2017-08-02T11:34:13Z</time>
      </trkpt>
      <trkpt lat="45.84429" lon="6.78922">
        <ele>2820.16</ele>
        <time>2017-08-02T11:34:24Z</time>
      </trkpt>
      <trkpt lat="45.84429" lon="6.78923">
        <ele>2821.13</ele>
        <time>2017-08-02T11:34:26Z</time>
      </trkpt>
      <trkpt lat="45.84424" lon="6.78924">
        <ele>2824.01</ele>
        <time>2017-08-02T11:34:39Z</time>
      </trkpt>
      <trkpt lat="45.84423" lon="6.78928">
        <ele>2827.37</ele>
        <time>2017-08-02T11:34:49Z</time>
      </trkpt>
      <trkpt lat="45.84421" lon="6.78933">
        <ele>2830.74</ele>
        <time>2017-08-02T11:35:00Z</time>
      </trkpt>
      <trkpt lat="45.84417" lon="6.78942">
        <ele>2832.66</ele>
        <time>2017-08-02T11:35:19Z</time>
      </trkpt>
      <trkpt lat="45.84417" lon="6.7895">
        <ele>2833.62</ele>
        <time>2017-08-02T11:35:35Z</time>
      </trkpt>
      <trkpt lat="45.84411" lon="6.78952">
        <ele>2834.58</ele>
        <time>2017-08-02T11:35:44Z</time>
      </trkpt>
      <trkpt lat="45.8441" lon="6.78952">
        <ele>2833.62</ele>
        <time>2017-08-02T11:35:45Z</time>
      </trkpt>
      <trkpt lat="45.84409" lon="6.78953">
        <ele>2833.14</ele>
        <time>2017-08-02T11:35:47Z</time>
      </trkpt>
      <trkpt lat="45.84408" lon="6.78954">
        <ele>2833.62</ele>
        <time>2017-08-02T11:35:48Z</time>
      </trkpt>
      <trkpt lat="45.84403" lon="6.78958">
        <ele>2834.1</ele>
        <time>2017-08-02T11:35:54Z</time>
      </trkpt>
      <trkpt lat="45.84401" lon="6.78958">
        <ele>2833.62</ele>
        <time>2017-08-02T11:36:00Z</time>
      </trkpt>
      <trkpt lat="45.844" lon="6.78959">
        <ele>2835.06</ele>
        <time>2017-08-02T11:36:04Z</time>
      </trkpt>
      <trkpt lat="45.84399" lon="6.78965">
        <ele>2836.99</ele>
        <time>2017-08-02T11:36:14Z</time>
      </trkpt>
      <trkpt lat="45.844" lon="6.78967">
        <ele>2837.95</ele>
        <time>2017-08-02T11:36:16Z</time>
      </trkpt>
      <trkpt lat="45.84398" lon="6.78968">
        <ele>2840.83</ele>
        <time>2017-08-02T11:36:26Z</time>
      </trkpt>
      <trkpt lat="45.84391" lon="6.78969">
        <ele>2843.72</ele>
        <time>2017-08-02T11:36:44Z</time>
      </trkpt>
      <trkpt lat="45.84387" lon="6.78969">
        <ele>2844.2</ele>
        <time>2017-08-02T11:36:54Z</time>
      </trkpt>
      <trkpt lat="45.84388" lon="6.78977">
        <ele>2847.56</ele>
        <time>2017-08-02T11:37:06Z</time>
      </trkpt>
      <trkpt lat="45.84389" lon="6.78983">
        <ele>2848.52</ele>
        <time>2017-08-02T11:37:11Z</time>
      </trkpt>
      <trkpt lat="45.84385" lon="6.78987">
        <ele>2851.89</ele>
        <time>2017-08-02T11:37:31Z</time>
      </trkpt>
      <trkpt lat="45.84378" lon="6.78986">
        <ele>2854.77</ele>
        <time>2017-08-02T11:37:43Z</time>
      </trkpt>
      <trkpt lat="45.84377" lon="6.79">
        <ele>2857.18</ele>
        <time>2017-08-02T11:38:03Z</time>
      </trkpt>
      <trkpt lat="45.84377" lon="6.79005">
        <ele>2858.62</ele>
        <time>2017-08-02T11:38:16Z</time>
      </trkpt>
      <trkpt lat="45.84375" lon="6.79005">
        <ele>2861.5</ele>
        <time>2017-08-02T11:38:34Z</time>
      </trkpt>
      <trkpt lat="45.84369" lon="6.79004">
        <ele>2864.39</ele>
        <time>2017-08-02T11:38:46Z</time>
      </trkpt>
      <trkpt lat="45.84367" lon="6.79009">
        <ele>2865.83</ele>
        <time>2017-08-02T11:38:56Z</time>
      </trkpt>
      <trkpt lat="45.84364" lon="6.79025">
        <ele>2868.71</ele>
        <time>2017-08-02T11:39:17Z</time>
      </trkpt>
      <trkpt lat="45.84364" lon="6.79033">
        <ele>2871.6</ele>
        <time>2017-08-02T11:39:28Z</time>
      </trkpt>
      <trkpt lat="45.84365" lon="6.79039">
        <ele>2871.6</ele>
        <time>2017-08-02T11:39:33Z</time>
      </trkpt>
      <trkpt lat="45.84365" lon="6.79044">
        <ele>2873.52</ele>
        <time>2017-08-02T11:39:44Z</time>
      </trkpt>
      <trkpt lat="45.84365" lon="6.79049">
        <ele>2875.44</ele>
        <time>2017-08-02T11:39:51Z</time>
      </trkpt>
      <trkpt lat="45.84365" lon="6.79055">
        <ele>2878.32</ele>
        <time>2017-08-02T11:40:16Z</time>
      </trkpt>
      <trkpt lat="45.84364" lon="6.79056">
        <ele>2878.81</ele>
        <time>2017-08-02T11:40:17Z</time>
      </trkpt>
      <trkpt lat="45.84364" lon="6.79058">
        <ele>2879.77</ele>
        <time>2017-08-02T11:40:23Z</time>
      </trkpt>
      <trkpt lat="45.8436" lon="6.7906">
        <ele>2883.13</ele>
        <time>2017-08-02T11:40:37Z</time>
      </trkpt>
      <trkpt lat="45.8436" lon="6.79058">
        <ele>2883.13</ele>
        <time>2017-08-02T11:40:38Z</time>
      </trkpt>
      <trkpt lat="45.84352" lon="6.79063">
        <ele>2885.05</ele>
        <time>2017-08-02T11:40:53Z</time>
      </trkpt>
      <trkpt lat="45.84352" lon="6.79064">
        <ele>2885.05</ele>
        <time>2017-08-02T11:40:54Z</time>
      </trkpt>
      <trkpt lat="45.84353" lon="6.7907">
        <ele>2888.42</ele>
        <time>2017-08-02T11:41:07Z</time>
      </trkpt>
      <trkpt lat="45.84344" lon="6.79071">
        <ele>2891.78</ele>
        <time>2017-08-02T11:41:27Z</time>
      </trkpt>
      <trkpt lat="45.84338" lon="6.79077">
        <ele>2894.67</ele>
        <time>2017-08-02T11:41:49Z</time>
      </trkpt>
      <trkpt lat="45.8434" lon="6.79082">
        <ele>2898.03</ele>
        <time>2017-08-02T11:42:01Z</time>
      </trkpt>
      <trkpt lat="45.84338" lon="6.79086">
        <ele>2898.51</ele>
        <time>2017-08-02T11:42:16Z</time>
      </trkpt>
      <trkpt lat="45.84336" lon="6.79085">
        <ele>2901.4</ele>
        <time>2017-08-02T11:42:37Z</time>
      </trkpt>
      <trkpt lat="45.84335" lon="6.79084">
        <ele>2900.92</ele>
        <time>2017-08-02T11:42:43Z</time>
      </trkpt>
      <trkpt lat="45.84334" lon="6.79081">
        <ele>2901.88</ele>
        <time>2017-08-02T11:42:58Z</time>
      </trkpt>
      <trkpt lat="45.84332" lon="6.79082">
        <ele>2901.88</ele>
        <time>2017-08-02T11:43:02Z</time>
      </trkpt>
      <trkpt lat="45.84331" lon="6.79081">
        <ele>2902.84</ele>
        <time>2017-08-02T11:43:06Z</time>
      </trkpt>
      <trkpt lat="45.84327" lon="6.7908">
        <ele>2905.24</ele>
        <time>2017-08-02T11:43:22Z</time>
      </trkpt>
      <trkpt lat="45.84325" lon="6.7908">
        <ele>2905.24</ele>
        <time>2017-08-02T11:43:27Z</time>
      </trkpt>
      <trkpt lat="45.84327" lon="6.79083">
        <ele>2904.28</ele>
        <time>2017-08-02T11:43:41Z</time>
      </trkpt>
      <trkpt lat="45.84325" lon="6.79086">
        <ele>2903.8</ele>
        <time>2017-08-02T11:43:48Z</time>
      </trkpt>
      <trkpt lat="45.84323" lon="6.79089">
        <ele>2903.32</ele>
        <time>2017-08-02T11:43:55Z</time>
      </trkpt>
      <trkpt lat="45.84323" lon="6.7909">
        <ele>2903.8</ele>
        <time>2017-08-02T11:43:59Z</time>
      </trkpt>
      <trkpt lat="45.84318" lon="6.79096">
        <ele>2905.24</ele>
        <time>2017-08-02T11:44:21Z</time>
      </trkpt>
      <trkpt lat="45.84315" lon="6.79096">
        <ele>2906.2</ele>
        <time>2017-08-02T11:44:29Z</time>
      </trkpt>
      <trkpt lat="45.84316" lon="6.79096">
        <ele>2907.16</ele>
        <time>2017-08-02T11:44:40Z</time>
      </trkpt>
      <trkpt lat="45.84315" lon="6.79095">
        <ele>2908.61</ele>
        <time>2017-08-02T11:44:57Z</time>
      </trkpt>
      <trkpt lat="45.84316" lon="6.79097">
        <ele>2909.09</ele>
        <time>2017-08-02T11:45:02Z</time>
      </trkpt>
      <trkpt lat="45.84322" lon="6.79102">
        <ele>2911.97</ele>
        <time>2017-08-02T11:45:19Z</time>
      </trkpt>
      <trkpt lat="45.84319" lon="6.79104">
        <ele>2914.85</ele>
        <time>2017-08-02T11:45:40Z</time>
      </trkpt>
      <trkpt lat="45.84318" lon="6.79107">
        <ele>2914.37</ele>
        <time>2017-08-02T11:45:45Z</time>
      </trkpt>
      <trkpt lat="45.84311" lon="6.79117">
        <ele>2917.26</ele>
        <time>2017-08-02T11:46:07Z</time>
      </trkpt>
      <trkpt lat="45.8431" lon="6.7912">
        <ele>2918.22</ele>
        <time>2017-08-02T11:46:17Z</time>
      </trkpt>
      <trkpt lat="45.8431" lon="6.79121">
        <ele>2919.18</ele>
        <time>2017-08-02T11:46:26Z</time>
      </trkpt>
      <trkpt lat="45.84308" lon="6.79126">
        <ele>2922.06</ele>
        <time>2017-08-02T11:46:46Z</time>
      </trkpt>
      <trkpt lat="45.84306" lon="6.79128">
        <ele>2924.95</ele>
        <time>2017-08-02T11:47:00Z</time>
      </trkpt>
      <trkpt lat="45.84303" lon="6.79127">
        <ele>2927.35</ele>
        <time>2017-08-02T11:47:22Z</time>
      </trkpt>
      <trkpt lat="45.84303" lon="6.79128">
        <ele>2927.35</ele>
        <time>2017-08-02T11:47:24Z</time>
      </trkpt>
      <trkpt lat="45.84302" lon="6.79128">
        <ele>2930.24</ele>
        <time>2017-08-02T11:47:40Z</time>
      </trkpt>
      <trkpt lat="45.84303" lon="6.79129">
        <ele>2930.72</ele>
        <time>2017-08-02T11:47:46Z</time>
      </trkpt>
      <trkpt lat="45.84302" lon="6.79131">
        <ele>2932.16</ele>
        <time>2017-08-02T11:47:55Z</time>
      </trkpt>
      <trkpt lat="45.84307" lon="6.79137">
        <ele>2935.04</ele>
        <time>2017-08-02T11:48:21Z</time>
      </trkpt>
      <trkpt lat="45.84307" lon="6.79136">
        <ele>2936.97</ele>
        <time>2017-08-02T11:48:25Z</time>
      </trkpt>
      <trkpt lat="45.84305" lon="6.7914">
        <ele>2939.37</ele>
        <time>2017-08-02T11:48:36Z</time>
      </trkpt>
      <trkpt lat="45.843" lon="6.79148">
        <ele>2938.89</ele>
        <time>2017-08-02T11:48:53Z</time>
      </trkpt>
      <trkpt lat="45.843" lon="6.79149">
        <ele>2938.89</ele>
        <time>2017-08-02T11:48:54Z</time>
      </trkpt>
      <trkpt lat="45.84299" lon="6.7915">
        <ele>2939.37</ele>
        <time>2017-08-02T11:48:56Z</time>
      </trkpt>
      <trkpt lat="45.84296" lon="6.79153">
        <ele>2939.37</ele>
        <time>2017-08-02T11:49:05Z</time>
      </trkpt>
      <trkpt lat="45.84296" lon="6.7916">
        <ele>2939.85</ele>
        <time>2017-08-02T11:49:23Z</time>
      </trkpt>
      <trkpt lat="45.84293" lon="6.79162">
        <ele>2937.45</ele>
        <time>2017-08-02T11:49:31Z</time>
      </trkpt>
      <trkpt lat="45.84287" lon="6.79167">
        <ele>2935.04</ele>
        <time>2017-08-02T11:49:46Z</time>
      </trkpt>
      <trkpt lat="45.84286" lon="6.79166">
        <ele>2936</ele>
        <time>2017-08-02T11:49:51Z</time>
      </trkpt>
      <trkpt lat="45.84283" lon="6.79171">
        <ele>2939.85</ele>
        <time>2017-08-02T11:50:01Z</time>
      </trkpt>
      <trkpt lat="45.84282" lon="6.79173">
        <ele>2940.81</ele>
        <time>2017-08-02T11:50:03Z</time>
      </trkpt>
      <trkpt lat="45.84282" lon="6.79175">
        <ele>2940.81</ele>
        <time>2017-08-02T11:50:06Z</time>
      </trkpt>
      <trkpt lat="45.84281" lon="6.79177">
        <ele>2940.81</ele>
        <time>2017-08-02T11:50:08Z</time>
      </trkpt>
      <trkpt lat="45.84279" lon="6.79178">
        <ele>2942.25</ele>
        <time>2017-08-02T11:50:13Z</time>
      </trkpt>
      <trkpt lat="45.84281" lon="6.79183">
        <ele>2944.17</ele>
        <time>2017-08-02T11:50:29Z</time>
      </trkpt>
      <trkpt lat="45.84277" lon="6.7919">
        <ele>2946.1</ele>
        <time>2017-08-02T11:50:50Z</time>
      </trkpt>
      <trkpt lat="45.8428" lon="6.79198">
        <ele>2947.06</ele>
        <time>2017-08-02T11:51:13Z</time>
      </trkpt>
      <trkpt lat="45.84279" lon="6.792">
        <ele>2947.06</ele>
        <time>2017-08-02T11:51:15Z</time>
      </trkpt>
      <trkpt lat="45.84278" lon="6.79202">
        <ele>2948.02</ele>
        <time>2017-08-02T11:51:16Z</time>
      </trkpt>
      <trkpt lat="45.84276" lon="6.79203">
        <ele>2948.02</ele>
        <time>2017-08-02T11:51:17Z</time>
      </trkpt>
      <trkpt lat="45.84275" lon="6.79204">
        <ele>2948.5</ele>
        <time>2017-08-02T11:51:18Z</time>
      </trkpt>
      <trkpt lat="45.84272" lon="6.79207">
        <ele>2951.87</ele>
        <time>2017-08-02T11:51:29Z</time>
      </trkpt>
      <trkpt lat="45.84273" lon="6.79213">
        <ele>2954.75</ele>
        <time>2017-08-02T11:51:41Z</time>
      </trkpt>
      <trkpt lat="45.8427" lon="6.79218">
        <ele>2957.63</ele>
        <time>2017-08-02T11:51:52Z</time>
      </trkpt>
      <trkpt lat="45.84268" lon="6.79222">
        <ele>2961</ele>
        <time>2017-08-02T11:52:18Z</time>
      </trkpt>
      <trkpt lat="45.84264" lon="6.79227">
        <ele>2963.88</ele>
        <time>2017-08-02T11:52:50Z</time>
      </trkpt>
      <trkpt lat="45.84262" lon="6.79227">
        <ele>2966.77</ele>
        <time>2017-08-02T11:53:03Z</time>
      </trkpt>
      <trkpt lat="45.84262" lon="6.79228">
        <ele>2968.69</ele>
        <time>2017-08-02T11:53:29Z</time>
      </trkpt>
      <trkpt lat="45.84262" lon="6.79229">
        <ele>2969.17</ele>
        <time>2017-08-02T11:53:33Z</time>
      </trkpt>
      <trkpt lat="45.8426" lon="6.79231">
        <ele>2970.61</ele>
        <time>2017-08-02T11:53:49Z</time>
      </trkpt>
      <trkpt lat="45.8426" lon="6.79232">
        <ele>2970.61</ele>
        <time>2017-08-02T11:53:54Z</time>
      </trkpt>
      <trkpt lat="45.84259" lon="6.79233">
        <ele>2970.61</ele>
        <time>2017-08-02T11:54:00Z</time>
      </trkpt>
      <trkpt lat="45.8426" lon="6.79233">
        <ele>2970.61</ele>
        <time>2017-08-02T11:54:05Z</time>
      </trkpt>
      <trkpt lat="45.84261" lon="6.79233">
        <ele>2970.13</ele>
        <time>2017-08-02T11:54:09Z</time>
      </trkpt>
      <trkpt lat="45.84261" lon="6.79233">
        <ele>2970.13</ele>
        <time>2017-08-02T11:54:12Z</time>
      </trkpt>
      <trkpt lat="45.84262" lon="6.79234">
        <ele>2970.61</ele>
        <time>2017-08-02T11:54:31Z</time>
      </trkpt>
      <trkpt lat="45.84261" lon="6.79234">
        <ele>2970.13</ele>
        <time>2017-08-02T11:54:35Z</time>
      </trkpt>
      <trkpt lat="45.84262" lon="6.79238">
        <ele>2970.13</ele>
        <time>2017-08-02T11:54:49Z</time>
      </trkpt>
      <trkpt lat="45.84262" lon="6.79238">
        <ele>2969.17</ele>
        <time>2017-08-02T11:54:51Z</time>
      </trkpt>
      <trkpt lat="45.84262" lon="6.79238">
        <ele>2970.13</ele>
        <time>2017-08-02T11:54:59Z</time>
      </trkpt>
      <trkpt lat="45.84262" lon="6.79238">
        <ele>2969.17</ele>
        <time>2017-08-02T11:55:01Z</time>
      </trkpt>
      <trkpt lat="45.84262" lon="6.79238">
        <ele>2968.69</ele>
        <time>2017-08-02T11:55:05Z</time>
      </trkpt>
      <trkpt lat="45.84262" lon="6.79238">
        <ele>2968.69</ele>
        <time>2017-08-02T11:55:07Z</time>
      </trkpt>
      <trkpt lat="45.84262" lon="6.79238">
        <ele>2968.21</ele>
        <time>2017-08-02T11:55:20Z</time>
      </trkpt>
      <trkpt lat="45.84261" lon="6.79237">
        <ele>2968.21</ele>
        <time>2017-08-02T11:55:25Z</time>
      </trkpt>
      <trkpt lat="45.84261" lon="6.79237">
        <ele>2968.21</ele>
        <time>2017-08-02T11:55:28Z</time>
      </trkpt>
      <trkpt lat="45.84261" lon="6.79237">
        <ele>2968.21</ele>
        <time>2017-08-02T11:55:32Z</time>
      </trkpt>
      <trkpt lat="45.84261" lon="6.79237">
        <ele>2967.73</ele>
        <time>2017-08-02T11:55:36Z</time>
      </trkpt>
      <trkpt lat="45.84261" lon="6.79236">
        <ele>2968.21</ele>
        <time>2017-08-02T11:55:40Z</time>
      </trkpt>
      <trkpt lat="45.84262" lon="6.79236">
        <ele>2968.69</ele>
        <time>2017-08-02T11:56:42Z</time>
      </trkpt>
      <trkpt lat="45.84261" lon="6.79236">
        <ele>2969.17</ele>
        <time>2017-08-02T11:56:56Z</time>
      </trkpt>
      <trkpt lat="45.84261" lon="6.79236">
        <ele>2968.69</ele>
        <time>2017-08-02T11:57:16Z</time>
      </trkpt>
      <trkpt lat="45.84261" lon="6.79235">
        <ele>2968.69</ele>
        <time>2017-08-02T11:57:21Z</time>
      </trkpt>
      <trkpt lat="45.84261" lon="6.79236">
        <ele>2968.69</ele>
        <time>2017-08-02T11:57:24Z</time>
      </trkpt>
      <trkpt lat="45.84261" lon="6.79235">
        <ele>2969.17</ele>
        <time>2017-08-02T11:57:36Z</time>
      </trkpt>
      <trkpt lat="45.84262" lon="6.79236">
        <ele>2968.69</ele>
        <time>2017-08-02T11:57:42Z</time>
      </trkpt>
      <trkpt lat="45.84262" lon="6.79236">
        <ele>2968.69</ele>
        <time>2017-08-02T11:57:46Z</time>
      </trkpt>
      <trkpt lat="45.84262" lon="6.79238">
        <ele>2968.21</ele>
        <time>2017-08-02T11:58:08Z</time>
      </trkpt>
      <trkpt lat="45.84263" lon="6.79238">
        <ele>2968.69</ele>
        <time>2017-08-02T11:58:39Z</time>
      </trkpt>
      <trkpt lat="45.84263" lon="6.79239">
        <ele>2969.17</ele>
        <time>2017-08-02T11:58:42Z</time>
      </trkpt>
      <trkpt lat="45.84263" lon="6.79238">
        <ele>2969.65</ele>
        <time>2017-08-02T11:59:05Z</time>
      </trkpt>
      <trkpt lat="45.84262" lon="6.79238">
        <ele>2969.17</ele>
        <time>2017-08-02T11:59:26Z</time>
      </trkpt>
      <trkpt lat="45.84263" lon="6.79237">
        <ele>2969.17</ele>
        <time>2017-08-02T11:59:31Z</time>
      </trkpt>
      <trkpt lat="45.84263" lon="6.79237">
        <ele>2969.17</ele>
        <time>2017-08-02T11:59:43Z</time>
      </trkpt>
      <trkpt lat="45.84263" lon="6.79237">
        <ele>2969.17</ele>
        <time>2017-08-02T12:01:06Z</time>
      </trkpt>
      <trkpt lat="45.84263" lon="6.79237">
        <ele>2969.65</ele>
        <time>2017-08-02T12:01:28Z</time>
      </trkpt>
      <trkpt lat="45.84263" lon="6.79236">
        <ele>2970.13</ele>
        <time>2017-08-02T12:01:33Z</time>
      </trkpt>
      <trkpt lat="45.84263" lon="6.79236">
        <ele>2969.17</ele>
        <time>2017-08-02T12:01:39Z</time>
      </trkpt>
      <trkpt lat="45.84263" lon="6.79236">
        <ele>2969.17</ele>
        <time>2017-08-02T12:01:49Z</time>
      </trkpt>
      <trkpt lat="45.84261" lon="6.79236">
        <ele>2970.13</ele>
        <time>2017-08-02T12:01:54Z</time>
      </trkpt>
      <trkpt lat="45.84261" lon="6.79236">
        <ele>2968.69</ele>
        <time>2017-08-02T12:01:55Z</time>
      </trkpt>
      <trkpt lat="45.84261" lon="6.79236">
        <ele>2970.13</ele>
        <time>2017-08-02T12:01:59Z</time>
      </trkpt>
      <trkpt lat="45.84261" lon="6.79236">
        <ele>2971.57</ele>
        <time>2017-08-02T12:02:01Z</time>
      </trkpt>
      <trkpt lat="45.84262" lon="6.79236">
        <ele>2971.57</ele>
        <time>2017-08-02T12:02:02Z</time>
      </trkpt>
      <trkpt lat="45.84263" lon="6.79236">
        <ele>2970.61</ele>
        <time>2017-08-02T12:02:13Z</time>
      </trkpt>
      <trkpt lat="45.84262" lon="6.79235">
        <ele>2972.05</ele>
        <time>2017-08-02T12:02:23Z</time>
      </trkpt>
      <trkpt lat="45.84262" lon="6.79235">
        <ele>2971.09</ele>
        <time>2017-08-02T12:02:45Z</time>
      </trkpt>
      <trkpt lat="45.84262" lon="6.79236">
        <ele>2971.09</ele>
        <time>2017-08-02T12:02:47Z</time>
      </trkpt>
      <trkpt lat="45.84262" lon="6.79236">
        <ele>2971.09</ele>
        <time>2017-08-02T12:02:58Z</time>
      </trkpt>
      <trkpt lat="45.84261" lon="6.79236">
        <ele>2970.13</ele>
        <time>2017-08-02T12:03:11Z</time>
      </trkpt>
      <trkpt lat="45.84262" lon="6.79236">
        <ele>2970.61</ele>
        <time>2017-08-02T12:03:28Z</time>
      </trkpt>
      <trkpt lat="45.84262" lon="6.79236">
        <ele>2970.61</ele>
        <time>2017-08-02T12:03:32Z</time>
      </trkpt>
      <trkpt lat="45.84262" lon="6.79236">
        <ele>2970.61</ele>
        <time>2017-08-02T12:03:48Z</time>
      </trkpt>
      <trkpt lat="45.84262" lon="6.79236">
        <ele>2971.57</ele>
        <time>2017-08-02T12:03:52Z</time>
      </trkpt>
      <trkpt lat="45.84262" lon="6.79236">
        <ele>2970.61</ele>
        <time>2017-08-02T12:03:55Z</time>
      </trkpt>
      <trkpt lat="45.84263" lon="6.79237">
        <ele>2972.05</ele>
        <time>2017-08-02T12:03:58Z</time>
      </trkpt>
      <trkpt lat="45.84263" lon="6.79237">
        <ele>2969.17</ele>
        <time>2017-08-02T12:04:07Z</time>
      </trkpt>
      <trkpt lat="45.84262" lon="6.79237">
        <ele>2968.21</ele>
        <time>2017-08-02T12:04:39Z</time>
      </trkpt>
      <trkpt lat="45.84262" lon="6.79237">
        <ele>2969.17</ele>
        <time>2017-08-02T12:04:53Z</time>
      </trkpt>
      <trkpt lat="45.84261" lon="6.79237">
        <ele>2968.21</ele>
        <time>2017-08-02T12:04:57Z</time>
      </trkpt>
      <trkpt lat="45.84262" lon="6.79236">
        <ele>2968.69</ele>
        <time>2017-08-02T12:05:07Z</time>
      </trkpt>
      <trkpt lat="45.84262" lon="6.79236">
        <ele>2968.69</ele>
        <time>2017-08-02T12:05:13Z</time>
      </trkpt>
      <trkpt lat="45.84262" lon="6.79236">
        <ele>2968.69</ele>
        <time>2017-08-02T12:05:16Z</time>
      </trkpt>
      <trkpt lat="45.84263" lon="6.79236">
        <ele>2970.13</ele>
        <time>2017-08-02T12:05:28Z</time>
      </trkpt>
      <trkpt lat="45.84263" lon="6.79236">
        <ele>2970.61</ele>
        <time>2017-08-02T12:05:31Z</time>
      </trkpt>
      <trkpt lat="45.84263" lon="6.79237">
        <ele>2969.65</ele>
        <time>2017-08-02T12:05:33Z</time>
      </trkpt>
      <trkpt lat="45.84263" lon="6.79236">
        <ele>2968.69</ele>
        <time>2017-08-02T12:05:35Z</time>
      </trkpt>
      <trkpt lat="45.84263" lon="6.79236">
        <ele>2969.65</ele>
        <time>2017-08-02T12:05:37Z</time>
      </trkpt>
      <trkpt lat="45.84263" lon="6.79237">
        <ele>2968.69</ele>
        <time>2017-08-02T12:05:44Z</time>
      </trkpt>
      <trkpt lat="45.84262" lon="6.79237">
        <ele>2969.65</ele>
        <time>2017-08-02T12:06:04Z</time>
      </trkpt>
      <trkpt lat="45.84261" lon="6.79234">
        <ele>2968.69</ele>
        <time>2017-08-02T12:06:10Z</time>
      </trkpt>
      <trkpt lat="45.84259" lon="6.79229">
        <ele>2966.29</ele>
        <time>2017-08-02T12:06:26Z</time>
      </trkpt>
      <trkpt lat="45.84258" lon="6.79228">
        <ele>2967.73</ele>
        <time>2017-08-02T12:06:34Z</time>
      </trkpt>
      <trkpt lat="45.84256" lon="6.7923">
        <ele>2965.8</ele>
        <time>2017-08-02T12:06:46Z</time>
      </trkpt>
      <trkpt lat="45.84256" lon="6.7923">
        <ele>2964.36</ele>
        <time>2017-08-02T12:06:51Z</time>
      </trkpt>
      <trkpt lat="45.84258" lon="6.79226">
        <ele>2965.8</ele>
        <time>2017-08-02T12:06:56Z</time>
      </trkpt>
      <trkpt lat="45.84262" lon="6.79224">
        <ele>2964.36</ele>
        <time>2017-08-02T12:07:18Z</time>
      </trkpt>
      <trkpt lat="45.84263" lon="6.79223">
        <ele>2963.88</ele>
        <time>2017-08-02T12:07:23Z</time>
      </trkpt>
      <trkpt lat="45.84264" lon="6.79223">
        <ele>2963.4</ele>
        <time>2017-08-02T12:07:25Z</time>
      </trkpt>
      <trkpt lat="45.84266" lon="6.79223">
        <ele>2963.4</ele>
        <time>2017-08-02T12:07:30Z</time>
      </trkpt>
      <trkpt lat="45.8427" lon="6.7922">
        <ele>2961</ele>
        <time>2017-08-02T12:07:40Z</time>
      </trkpt>
      <trkpt lat="45.84274" lon="6.7922">
        <ele>2959.56</ele>
        <time>2017-08-02T12:07:48Z</time>
      </trkpt>
      <trkpt lat="45.84275" lon="6.79214">
        <ele>2956.67</ele>
        <time>2017-08-02T12:08:07Z</time>
      </trkpt>
      <trkpt lat="45.84274" lon="6.79212">
        <ele>2955.23</ele>
        <time>2017-08-02T12:08:13Z</time>
      </trkpt>
      <trkpt lat="45.84276" lon="6.79207">
        <ele>2952.35</ele>
        <time>2017-08-02T12:08:28Z</time>
      </trkpt>
      <trkpt lat="45.84279" lon="6.79204">
        <ele>2949.46</ele>
        <time>2017-08-02T12:08:46Z</time>
      </trkpt>
      <trkpt lat="45.84279" lon="6.79201">
        <ele>2948.98</ele>
        <time>2017-08-02T12:08:49Z</time>
      </trkpt>
      <trkpt lat="45.84279" lon="6.79199">
        <ele>2948.98</ele>
        <time>2017-08-02T12:08:50Z</time>
      </trkpt>
      <trkpt lat="45.8428" lon="6.79195">
        <ele>2946.58</ele>
        <time>2017-08-02T12:08:58Z</time>
      </trkpt>
      <trkpt lat="45.8428" lon="6.79189">
        <ele>2948.02</ele>
        <time>2017-08-02T12:09:04Z</time>
      </trkpt>
      <trkpt lat="45.84279" lon="6.79184">
        <ele>2948.02</ele>
        <time>2017-08-02T12:09:09Z</time>
      </trkpt>
      <trkpt lat="45.84282" lon="6.7918">
        <ele>2945.14</ele>
        <time>2017-08-02T12:09:34Z</time>
      </trkpt>
      <trkpt lat="45.84285" lon="6.79178">
        <ele>2943.21</ele>
        <time>2017-08-02T12:09:42Z</time>
      </trkpt>
      <trkpt lat="45.84286" lon="6.79174">
        <ele>2941.29</ele>
        <time>2017-08-02T12:09:46Z</time>
      </trkpt>
      <trkpt lat="45.84286" lon="6.79173">
        <ele>2939.85</ele>
        <time>2017-08-02T12:09:47Z</time>
      </trkpt>
      <trkpt lat="45.84287" lon="6.79171">
        <ele>2937.93</ele>
        <time>2017-08-02T12:09:50Z</time>
      </trkpt>
      <trkpt lat="45.8429" lon="6.79165">
        <ele>2938.41</ele>
        <time>2017-08-02T12:10:07Z</time>
      </trkpt>
      <trkpt lat="45.84288" lon="6.79167">
        <ele>2937.93</ele>
        <time>2017-08-02T12:10:24Z</time>
      </trkpt>
      <trkpt lat="45.84292" lon="6.79163">
        <ele>2937.45</ele>
        <time>2017-08-02T12:10:52Z</time>
      </trkpt>
      <trkpt lat="45.84294" lon="6.79161">
        <ele>2937.93</ele>
        <time>2017-08-02T12:10:58Z</time>
      </trkpt>
      <trkpt lat="45.84298" lon="6.79161">
        <ele>2939.37</ele>
        <time>2017-08-02T12:11:08Z</time>
      </trkpt>
      <trkpt lat="45.84299" lon="6.79161">
        <ele>2938.89</ele>
        <time>2017-08-02T12:11:09Z</time>
      </trkpt>
      <trkpt lat="45.843" lon="6.7916">
        <ele>2939.85</ele>
        <time>2017-08-02T12:11:13Z</time>
      </trkpt>
      <trkpt lat="45.84301" lon="6.79159">
        <ele>2940.33</ele>
        <time>2017-08-02T12:11:15Z</time>
      </trkpt>
      <trkpt lat="45.84301" lon="6.7916">
        <ele>2939.85</ele>
        <time>2017-08-02T12:11:22Z</time>
      </trkpt>
      <trkpt lat="45.84299" lon="6.79158">
        <ele>2942.25</ele>
        <time>2017-08-02T12:11:26Z</time>
      </trkpt>
      <trkpt lat="45.84298" lon="6.79157">
        <ele>2941.77</ele>
        <time>2017-08-02T12:11:32Z</time>
      </trkpt>
      <trkpt lat="45.84298" lon="6.79153">
        <ele>2938.41</ele>
        <time>2017-08-02T12:11:39Z</time>
      </trkpt>
      <trkpt lat="45.843" lon="6.79148">
        <ele>2936.97</ele>
        <time>2017-08-02T12:11:46Z</time>
      </trkpt>
      <trkpt lat="45.84301" lon="6.79148">
        <ele>2937.45</ele>
        <time>2017-08-02T12:11:47Z</time>
      </trkpt>
      <trkpt lat="45.84301" lon="6.79146">
        <ele>2937.93</ele>
        <time>2017-08-02T12:11:48Z</time>
      </trkpt>
      <trkpt lat="45.84302" lon="6.79144">
        <ele>2936</ele>
        <time>2017-08-02T12:11:55Z</time>
      </trkpt>
      <trkpt lat="45.84303" lon="6.79144">
        <ele>2938.41</ele>
        <time>2017-08-02T12:11:59Z</time>
      </trkpt>
      <trkpt lat="45.84304" lon="6.79137">
        <ele>2935.52</ele>
        <time>2017-08-02T12:12:07Z</time>
      </trkpt>
      <trkpt lat="45.84305" lon="6.79137">
        <ele>2938.41</ele>
        <time>2017-08-02T12:12:09Z</time>
      </trkpt>
      <trkpt lat="45.84306" lon="6.79136">
        <ele>2936.48</ele>
        <time>2017-08-02T12:12:15Z</time>
      </trkpt>
      <trkpt lat="45.84304" lon="6.79135">
        <ele>2934.56</ele>
        <time>2017-08-02T12:12:23Z</time>
      </trkpt>
      <trkpt lat="45.84307" lon="6.79131">
        <ele>2933.12</ele>
        <time>2017-08-02T12:12:36Z</time>
      </trkpt>
      <trkpt lat="45.84308" lon="6.79131">
        <ele>2931.68</ele>
        <time>2017-08-02T12:12:40Z</time>
      </trkpt>
      <trkpt lat="45.84309" lon="6.7913">
        <ele>2930.72</ele>
        <time>2017-08-02T12:13:02Z</time>
      </trkpt>
      <trkpt lat="45.84308" lon="6.79127">
        <ele>2927.83</ele>
        <time>2017-08-02T12:13:20Z</time>
      </trkpt>
      <trkpt lat="45.84308" lon="6.79127">
        <ele>2927.83</ele>
        <time>2017-08-02T12:13:23Z</time>
      </trkpt>
      <trkpt lat="45.84309" lon="6.7913">
        <ele>2927.35</ele>
        <time>2017-08-02T12:13:41Z</time>
      </trkpt>
      <trkpt lat="45.84309" lon="6.79129">
        <ele>2926.39</ele>
        <time>2017-08-02T12:13:49Z</time>
      </trkpt>
      <trkpt lat="45.8431" lon="6.79131">
        <ele>2923.51</ele>
        <time>2017-08-02T12:14:10Z</time>
      </trkpt>
      <trkpt lat="45.8431" lon="6.79132">
        <ele>2923.99</ele>
        <time>2017-08-02T12:14:19Z</time>
      </trkpt>
      <trkpt lat="45.8431" lon="6.79133">
        <ele>2923.99</ele>
        <time>2017-08-02T12:14:22Z</time>
      </trkpt>
      <trkpt lat="45.84308" lon="6.79131">
        <ele>2921.1</ele>
        <time>2017-08-02T12:14:31Z</time>
      </trkpt>
      <trkpt lat="45.84308" lon="6.79131">
        <ele>2919.66</ele>
        <time>2017-08-02T12:14:34Z</time>
      </trkpt>
      <trkpt lat="45.84308" lon="6.79131">
        <ele>2923.03</ele>
        <time>2017-08-02T12:14:38Z</time>
      </trkpt>
      <trkpt lat="45.84307" lon="6.7913">
        <ele>2922.06</ele>
        <time>2017-08-02T12:15:02Z</time>
      </trkpt>
      <trkpt lat="45.84306" lon="6.79128">
        <ele>2921.1</ele>
        <time>2017-08-02T12:15:05Z</time>
      </trkpt>
      <trkpt lat="45.84305" lon="6.79128">
        <ele>2920.62</ele>
        <time>2017-08-02T12:15:14Z</time>
      </trkpt>
      <trkpt lat="45.84304" lon="6.79126">
        <ele>2921.58</ele>
        <time>2017-08-02T12:15:17Z</time>
      </trkpt>
      <trkpt lat="45.84306" lon="6.79125">
        <ele>2923.03</ele>
        <time>2017-08-02T12:15:40Z</time>
      </trkpt>
      <trkpt lat="45.84306" lon="6.79125">
        <ele>2922.54</ele>
        <time>2017-08-02T12:15:44Z</time>
      </trkpt>
      <trkpt lat="45.84306" lon="6.79124">
        <ele>2921.58</ele>
        <time>2017-08-02T12:15:48Z</time>
      </trkpt>
      <trkpt lat="45.84306" lon="6.79124">
        <ele>2922.54</ele>
        <time>2017-08-02T12:16:00Z</time>
      </trkpt>
      <trkpt lat="45.84307" lon="6.79124">
        <ele>2921.58</ele>
        <time>2017-08-02T12:16:04Z</time>
      </trkpt>
      <trkpt lat="45.84307" lon="6.79125">
        <ele>2921.1</ele>
        <time>2017-08-02T12:16:07Z</time>
      </trkpt>
      <trkpt lat="45.84308" lon="6.79125">
        <ele>2921.1</ele>
        <time>2017-08-02T12:16:11Z</time>
      </trkpt>
      <trkpt lat="45.84307" lon="6.79124">
        <ele>2920.62</ele>
        <time>2017-08-02T12:16:21Z</time>
      </trkpt>
      <trkpt lat="45.84308" lon="6.79122">
        <ele>2919.66</ele>
        <time>2017-08-02T12:16:28Z</time>
      </trkpt>
      <trkpt lat="45.84311" lon="6.79121">
        <ele>2919.66</ele>
        <time>2017-08-02T12:16:51Z</time>
      </trkpt>
      <trkpt lat="45.84313" lon="6.79121">
        <ele>2920.14</ele>
        <time>2017-08-02T12:17:02Z</time>
      </trkpt>
      <trkpt lat="45.84312" lon="6.79122">
        <ele>2919.66</ele>
        <time>2017-08-02T12:17:07Z</time>
      </trkpt>
      <trkpt lat="45.84313" lon="6.7912">
        <ele>2918.22</ele>
        <time>2017-08-02T12:17:22Z</time>
      </trkpt>
      <trkpt lat="45.84315" lon="6.79113">
        <ele>2915.34</ele>
        <time>2017-08-02T12:17:38Z</time>
      </trkpt>
      <trkpt lat="45.84318" lon="6.79111">
        <ele>2914.37</ele>
        <time>2017-08-02T12:17:41Z</time>
      </trkpt>
      <trkpt lat="45.84319" lon="6.7911">
        <ele>2914.37</ele>
        <time>2017-08-02T12:17:42Z</time>
      </trkpt>
      <trkpt lat="45.84319" lon="6.79108">
        <ele>2914.37</ele>
        <time>2017-08-02T12:17:43Z</time>
      </trkpt>
      <trkpt lat="45.8432" lon="6.79096">
        <ele>2911.49</ele>
        <time>2017-08-02T12:18:07Z</time>
      </trkpt>
      <trkpt lat="45.84323" lon="6.791">
        <ele>2908.61</ele>
        <time>2017-08-02T12:18:25Z</time>
      </trkpt>
      <trkpt lat="45.84323" lon="6.79099">
        <ele>2908.61</ele>
        <time>2017-08-02T12:18:27Z</time>
      </trkpt>
      <trkpt lat="45.84323" lon="6.79097">
        <ele>2907.65</ele>
        <time>2017-08-02T12:18:37Z</time>
      </trkpt>
      <trkpt lat="45.84325" lon="6.79099">
        <ele>2907.65</ele>
        <time>2017-08-02T12:18:49Z</time>
      </trkpt>
      <trkpt lat="45.84324" lon="6.79095">
        <ele>2906.68</ele>
        <time>2017-08-02T12:19:03Z</time>
      </trkpt>
      <trkpt lat="45.84325" lon="6.7909">
        <ele>2903.8</ele>
        <time>2017-08-02T12:19:31Z</time>
      </trkpt>
      <trkpt lat="45.84325" lon="6.7909">
        <ele>2903.32</ele>
        <time>2017-08-02T12:19:32Z</time>
      </trkpt>
      <trkpt lat="45.84327" lon="6.79087">
        <ele>2904.76</ele>
        <time>2017-08-02T12:19:45Z</time>
      </trkpt>
      <trkpt lat="45.84328" lon="6.79086">
        <ele>2905.24</ele>
        <time>2017-08-02T12:19:47Z</time>
      </trkpt>
      <trkpt lat="45.84327" lon="6.79083">
        <ele>2906.2</ele>
        <time>2017-08-02T12:20:00Z</time>
      </trkpt>
      <trkpt lat="45.84328" lon="6.79083">
        <ele>2906.2</ele>
        <time>2017-08-02T12:20:03Z</time>
      </trkpt>
      <trkpt lat="45.84328" lon="6.79083">
        <ele>2906.2</ele>
        <time>2017-08-02T12:20:07Z</time>
      </trkpt>
      <trkpt lat="45.84329" lon="6.79083">
        <ele>2906.2</ele>
        <time>2017-08-02T12:20:11Z</time>
      </trkpt>
      <trkpt lat="45.8433" lon="6.79082">
        <ele>2905.72</ele>
        <time>2017-08-02T12:20:19Z</time>
      </trkpt>
      <trkpt lat="45.84331" lon="6.79082">
        <ele>2904.76</ele>
        <time>2017-08-02T12:20:25Z</time>
      </trkpt>
      <trkpt lat="45.84331" lon="6.79083">
        <ele>2903.32</ele>
        <time>2017-08-02T12:20:31Z</time>
      </trkpt>
      <trkpt lat="45.8433" lon="6.79081">
        <ele>2902.84</ele>
        <time>2017-08-02T12:20:39Z</time>
      </trkpt>
      <trkpt lat="45.84329" lon="6.79081">
        <ele>2902.84</ele>
        <time>2017-08-02T12:20:42Z</time>
      </trkpt>
      <trkpt lat="45.84329" lon="6.79077">
        <ele>2901.4</ele>
        <time>2017-08-02T12:21:03Z</time>
      </trkpt>
      <trkpt lat="45.84329" lon="6.79076">
        <ele>2901.4</ele>
        <time>2017-08-02T12:21:11Z</time>
      </trkpt>
      <trkpt lat="45.84329" lon="6.79076">
        <ele>2900.92</ele>
        <time>2017-08-02T12:21:13Z</time>
      </trkpt>
      <trkpt lat="45.84329" lon="6.79075">
        <ele>2900.92</ele>
        <time>2017-08-02T12:21:16Z</time>
      </trkpt>
      <trkpt lat="45.84329" lon="6.79073">
        <ele>2899.47</ele>
        <time>2017-08-02T12:21:20Z</time>
      </trkpt>
      <trkpt lat="45.84329" lon="6.79075">
        <ele>2899.47</ele>
        <time>2017-08-02T12:21:24Z</time>
      </trkpt>
      <trkpt lat="45.84331" lon="6.79075">
        <ele>2898.03</ele>
        <time>2017-08-02T12:21:32Z</time>
      </trkpt>
      <trkpt lat="45.84332" lon="6.79073">
        <ele>2897.55</ele>
        <time>2017-08-02T12:21:42Z</time>
      </trkpt>
      <trkpt lat="45.84334" lon="6.79075">
        <ele>2897.07</ele>
        <time>2017-08-02T12:21:55Z</time>
      </trkpt>
      <trkpt lat="45.84338" lon="6.79069">
        <ele>2894.19</ele>
        <time>2017-08-02T12:22:15Z</time>
      </trkpt>
      <trkpt lat="45.84338" lon="6.79068">
        <ele>2894.19</ele>
        <time>2017-08-02T12:22:17Z</time>
      </trkpt>
      <trkpt lat="45.84339" lon="6.79066">
        <ele>2892.74</ele>
        <time>2017-08-02T12:22:22Z</time>
      </trkpt>
      <trkpt lat="45.84346" lon="6.79068">
        <ele>2889.86</ele>
        <time>2017-08-02T12:22:44Z</time>
      </trkpt>
      <trkpt lat="45.84347" lon="6.79068">
        <ele>2889.86</ele>
        <time>2017-08-02T12:22:45Z</time>
      </trkpt>
      <trkpt lat="45.84349" lon="6.79069">
        <ele>2891.78</ele>
        <time>2017-08-02T12:22:49Z</time>
      </trkpt>
      <trkpt lat="45.84349" lon="6.79067">
        <ele>2888.42</ele>
        <time>2017-08-02T12:22:52Z</time>
      </trkpt>
      <trkpt lat="45.8435" lon="6.79066">
        <ele>2887.94</ele>
        <time>2017-08-02T12:22:57Z</time>
      </trkpt>
      <trkpt lat="45.84353" lon="6.7906">
        <ele>2887.46</ele>
        <time>2017-08-02T12:23:07Z</time>
      </trkpt>
      <trkpt lat="45.84354" lon="6.79058">
        <ele>2885.05</ele>
        <time>2017-08-02T12:23:14Z</time>
      </trkpt>
      <trkpt lat="45.84354" lon="6.79057">
        <ele>2886.5</ele>
        <time>2017-08-02T12:23:16Z</time>
      </trkpt>
      <trkpt lat="45.84354" lon="6.79055">
        <ele>2886.02</ele>
        <time>2017-08-02T12:23:17Z</time>
      </trkpt>
      <trkpt lat="45.84355" lon="6.79051">
        <ele>2886.02</ele>
        <time>2017-08-02T12:23:21Z</time>
      </trkpt>
      <trkpt lat="45.84361" lon="6.79048">
        <ele>2885.05</ele>
        <time>2017-08-02T12:24:10Z</time>
      </trkpt>
      <trkpt lat="45.8436" lon="6.79046">
        <ele>2883.13</ele>
        <time>2017-08-02T12:24:21Z</time>
      </trkpt>
      <trkpt lat="45.8436" lon="6.79045">
        <ele>2882.65</ele>
        <time>2017-08-02T12:24:36Z</time>
      </trkpt>
      <trkpt lat="45.84361" lon="6.79043">
        <ele>2880.25</ele>
        <time>2017-08-02T12:24:56Z</time>
      </trkpt>
      <trkpt lat="45.84365" lon="6.7904">
        <ele>2877.84</ele>
        <time>2017-08-02T12:25:06Z</time>
      </trkpt>
      <trkpt lat="45.84367" lon="6.79035">
        <ele>2874.96</ele>
        <time>2017-08-02T12:25:21Z</time>
      </trkpt>
      <trkpt lat="45.84365" lon="6.79032">
        <ele>2876.4</ele>
        <time>2017-08-02T12:25:26Z</time>
      </trkpt>
      <trkpt lat="45.84366" lon="6.7903">
        <ele>2872.56</ele>
        <time>2017-08-02T12:25:29Z</time>
      </trkpt>
      <trkpt lat="45.84367" lon="6.79027">
        <ele>2871.6</ele>
        <time>2017-08-02T12:25:37Z</time>
      </trkpt>
      <trkpt lat="45.84369" lon="6.79021">
        <ele>2868.23</ele>
        <time>2017-08-02T12:25:48Z</time>
      </trkpt>
      <trkpt lat="45.84369" lon="6.7902">
        <ele>2868.23</ele>
        <time>2017-08-02T12:25:49Z</time>
      </trkpt>
      <trkpt lat="45.84368" lon="6.79018">
        <ele>2871.11</ele>
        <time>2017-08-02T12:25:53Z</time>
      </trkpt>
      <trkpt lat="45.84368" lon="6.79016">
        <ele>2868.23</ele>
        <time>2017-08-02T12:25:56Z</time>
      </trkpt>
      <trkpt lat="45.84367" lon="6.79012">
        <ele>2865.83</ele>
        <time>2017-08-02T12:26:11Z</time>
      </trkpt>
      <trkpt lat="45.8437" lon="6.7901">
        <ele>2865.35</ele>
        <time>2017-08-02T12:26:15Z</time>
      </trkpt>
      <trkpt lat="45.84371" lon="6.79008">
        <ele>2863.9</ele>
        <time>2017-08-02T12:26:20Z</time>
      </trkpt>
      <trkpt lat="45.84371" lon="6.79003">
        <ele>2862.46</ele>
        <time>2017-08-02T12:26:28Z</time>
      </trkpt>
      <trkpt lat="45.84367" lon="6.79005">
        <ele>2862.94</ele>
        <time>2017-08-02T12:26:44Z</time>
      </trkpt>
      <trkpt lat="45.84366" lon="6.79004">
        <ele>2862.94</ele>
        <time>2017-08-02T12:26:45Z</time>
      </trkpt>
      <trkpt lat="45.84366" lon="6.78999">
        <ele>2859.58</ele>
        <time>2017-08-02T12:26:54Z</time>
      </trkpt>
      <trkpt lat="45.84367" lon="6.78997">
        <ele>2858.62</ele>
        <time>2017-08-02T12:26:56Z</time>
      </trkpt>
      <trkpt lat="45.84368" lon="6.78997">
        <ele>2858.14</ele>
        <time>2017-08-02T12:26:57Z</time>
      </trkpt>
      <trkpt lat="45.84371" lon="6.78994">
        <ele>2856.69</ele>
        <time>2017-08-02T12:27:11Z</time>
      </trkpt>
      <trkpt lat="45.84372" lon="6.78995">
        <ele>2857.18</ele>
        <time>2017-08-02T12:27:19Z</time>
      </trkpt>
      <trkpt lat="45.84379" lon="6.78993">
        <ele>2855.73</ele>
        <time>2017-08-02T12:27:46Z</time>
      </trkpt>
      <trkpt lat="45.8438" lon="6.78989">
        <ele>2852.37</ele>
        <time>2017-08-02T12:27:53Z</time>
      </trkpt>
      <trkpt lat="45.8438" lon="6.78988">
        <ele>2851.89</ele>
        <time>2017-08-02T12:27:54Z</time>
      </trkpt>
      <trkpt lat="45.8438" lon="6.78986">
        <ele>2852.85</ele>
        <time>2017-08-02T12:28:00Z</time>
      </trkpt>
      <trkpt lat="45.8438" lon="6.78985">
        <ele>2852.37</ele>
        <time>2017-08-02T12:28:02Z</time>
      </trkpt>
      <trkpt lat="45.84382" lon="6.78982">
        <ele>2853.33</ele>
        <time>2017-08-02T12:28:16Z</time>
      </trkpt>
      <trkpt lat="45.84383" lon="6.7898">
        <ele>2849.48</ele>
        <time>2017-08-02T12:28:20Z</time>
      </trkpt>
      <trkpt lat="45.84383" lon="6.78979">
        <ele>2848.52</ele>
        <time>2017-08-02T12:28:22Z</time>
      </trkpt>
      <trkpt lat="45.84381" lon="6.78971">
        <ele>2845.16</ele>
        <time>2017-08-02T12:28:40Z</time>
      </trkpt>
      <trkpt lat="45.84381" lon="6.78971">
        <ele>2845.16</ele>
        <time>2017-08-02T12:28:41Z</time>
      </trkpt>
      <trkpt lat="45.84386" lon="6.78969">
        <ele>2842.28</ele>
        <time>2017-08-02T12:28:53Z</time>
      </trkpt>
      <trkpt lat="45.84392" lon="6.78966">
        <ele>2842.76</ele>
        <time>2017-08-02T12:29:17Z</time>
      </trkpt>
      <trkpt lat="45.8439" lon="6.78964">
        <ele>2839.39</ele>
        <time>2017-08-02T12:29:22Z</time>
      </trkpt>
      <trkpt lat="45.84391" lon="6.78963">
        <ele>2836.51</ele>
        <time>2017-08-02T12:29:24Z</time>
      </trkpt>
      <trkpt lat="45.84394" lon="6.78959">
        <ele>2836.03</ele>
        <time>2017-08-02T12:29:34Z</time>
      </trkpt>
      <trkpt lat="45.84395" lon="6.78959">
        <ele>2835.55</ele>
        <time>2017-08-02T12:29:35Z</time>
      </trkpt>
      <trkpt lat="45.84396" lon="6.78959">
        <ele>2835.06</ele>
        <time>2017-08-02T12:29:37Z</time>
      </trkpt>
      <trkpt lat="45.84401" lon="6.78958">
        <ele>2834.58</ele>
        <time>2017-08-02T12:29:42Z</time>
      </trkpt>
      <trkpt lat="45.84402" lon="6.78954">
        <ele>2833.14</ele>
        <time>2017-08-02T12:29:47Z</time>
      </trkpt>
      <trkpt lat="45.84403" lon="6.78953">
        <ele>2832.18</ele>
        <time>2017-08-02T12:29:48Z</time>
      </trkpt>
      <trkpt lat="45.84403" lon="6.78951">
        <ele>2831.7</ele>
        <time>2017-08-02T12:29:49Z</time>
      </trkpt>
      <trkpt lat="45.84404" lon="6.7895">
        <ele>2831.22</ele>
        <time>2017-08-02T12:29:50Z</time>
      </trkpt>
      <trkpt lat="45.84405" lon="6.78949">
        <ele>2831.22</ele>
        <time>2017-08-02T12:29:51Z</time>
      </trkpt>
      <trkpt lat="45.84406" lon="6.78948">
        <ele>2831.22</ele>
        <time>2017-08-02T12:29:53Z</time>
      </trkpt>
      <trkpt lat="45.84409" lon="6.78944">
        <ele>2829.78</ele>
        <time>2017-08-02T12:29:58Z</time>
      </trkpt>
      <trkpt lat="45.8441" lon="6.78944">
        <ele>2829.78</ele>
        <time>2017-08-02T12:29:59Z</time>
      </trkpt>
      <trkpt lat="45.84411" lon="6.78938">
        <ele>2826.41</ele>
        <time>2017-08-02T12:30:05Z</time>
      </trkpt>
      <trkpt lat="45.84411" lon="6.78936">
        <ele>2824.97</ele>
        <time>2017-08-02T12:30:08Z</time>
      </trkpt>
      <trkpt lat="45.8441" lon="6.78932">
        <ele>2821.61</ele>
        <time>2017-08-02T12:30:11Z</time>
      </trkpt>
      <trkpt lat="45.8441" lon="6.78929">
        <ele>2823.53</ele>
        <time>2017-08-02T12:30:15Z</time>
      </trkpt>
      <trkpt lat="45.84411" lon="6.78928">
        <ele>2824.49</ele>
        <time>2017-08-02T12:30:16Z</time>
      </trkpt>
      <trkpt lat="45.84412" lon="6.78927">
        <ele>2824.97</ele>
        <time>2017-08-02T12:30:17Z</time>
      </trkpt>
      <trkpt lat="45.84413" lon="6.78926">
        <ele>2825.45</ele>
        <time>2017-08-02T12:30:18Z</time>
      </trkpt>
      <trkpt lat="45.84416" lon="6.78925">
        <ele>2823.53</ele>
        <time>2017-08-02T12:30:21Z</time>
      </trkpt>
      <trkpt lat="45.84419" lon="6.78924">
        <ele>2820.65</ele>
        <time>2017-08-02T12:30:28Z</time>
      </trkpt>
      <trkpt lat="45.84421" lon="6.78922">
        <ele>2820.16</ele>
        <time>2017-08-02T12:30:31Z</time>
      </trkpt>
      <trkpt lat="45.84421" lon="6.78922">
        <ele>2820.16</ele>
        <time>2017-08-02T12:30:32Z</time>
      </trkpt>
      <trkpt lat="45.84422" lon="6.78921">
        <ele>2820.16</ele>
        <time>2017-08-02T12:30:33Z</time>
      </trkpt>
      <trkpt lat="45.84423" lon="6.7892">
        <ele>2819.2</ele>
        <time>2017-08-02T12:30:35Z</time>
      </trkpt>
      <trkpt lat="45.84424" lon="6.78917">
        <ele>2818.72</ele>
        <time>2017-08-02T12:30:40Z</time>
      </trkpt>
      <trkpt lat="45.84428" lon="6.78916">
        <ele>2815.84</ele>
        <time>2017-08-02T12:30:54Z</time>
      </trkpt>
      <trkpt lat="45.84427" lon="6.7891">
        <ele>2812.47</ele>
        <time>2017-08-02T12:31:04Z</time>
      </trkpt>
      <trkpt lat="45.84427" lon="6.78908">
        <ele>2811.99</ele>
        <time>2017-08-02T12:31:11Z</time>
      </trkpt>
      <trkpt lat="45.84422" lon="6.78902">
        <ele>2808.63</ele>
        <time>2017-08-02T12:31:24Z</time>
      </trkpt>
      <trkpt lat="45.84421" lon="6.78895">
        <ele>2807.19</ele>
        <time>2017-08-02T12:31:40Z</time>
      </trkpt>
      <trkpt lat="45.84421" lon="6.78894">
        <ele>2805.75</ele>
        <time>2017-08-02T12:31:41Z</time>
      </trkpt>
      <trkpt lat="45.84422" lon="6.78893">
        <ele>2804.78</ele>
        <time>2017-08-02T12:31:42Z</time>
      </trkpt>
      <trkpt lat="45.84423" lon="6.78891">
        <ele>2803.82</ele>
        <time>2017-08-02T12:31:43Z</time>
      </trkpt>
      <trkpt lat="45.84425" lon="6.7889">
        <ele>2803.34</ele>
        <time>2017-08-02T12:31:44Z</time>
      </trkpt>
      <trkpt lat="45.84427" lon="6.78888">
        <ele>2802.86</ele>
        <time>2017-08-02T12:31:45Z</time>
      </trkpt>
      <trkpt lat="45.84429" lon="6.78886">
        <ele>2802.86</ele>
        <time>2017-08-02T12:31:46Z</time>
      </trkpt>
      <trkpt lat="45.8443" lon="6.78885">
        <ele>2802.38</ele>
        <time>2017-08-02T12:31:47Z</time>
      </trkpt>
      <trkpt lat="45.84432" lon="6.78883">
        <ele>2802.38</ele>
        <time>2017-08-02T12:31:48Z</time>
      </trkpt>
      <trkpt lat="45.84434" lon="6.78882">
        <ele>2802.86</ele>
        <time>2017-08-02T12:31:49Z</time>
      </trkpt>
      <trkpt lat="45.84436" lon="6.78881">
        <ele>2803.34</ele>
        <time>2017-08-02T12:31:50Z</time>
      </trkpt>
      <trkpt lat="45.84443" lon="6.78869">
        <ele>2804.3</ele>
        <time>2017-08-02T12:31:57Z</time>
      </trkpt>
      <trkpt lat="45.84444" lon="6.78866">
        <ele>2801.9</ele>
        <time>2017-08-02T12:32:01Z</time>
      </trkpt>
      <trkpt lat="45.84444" lon="6.78858">
        <ele>2802.38</ele>
        <time>2017-08-02T12:32:17Z</time>
      </trkpt>
      <trkpt lat="45.84447" lon="6.78855">
        <ele>2799.02</ele>
        <time>2017-08-02T12:32:26Z</time>
      </trkpt>
      <trkpt lat="45.84448" lon="6.78855">
        <ele>2798.54</ele>
        <time>2017-08-02T12:32:28Z</time>
      </trkpt>
      <trkpt lat="45.84448" lon="6.78852">
        <ele>2797.57</ele>
        <time>2017-08-02T12:32:33Z</time>
      </trkpt>
      <trkpt lat="45.8445" lon="6.7885">
        <ele>2795.17</ele>
        <time>2017-08-02T12:32:38Z</time>
      </trkpt>
      <trkpt lat="45.8445" lon="6.78848">
        <ele>2795.65</ele>
        <time>2017-08-02T12:32:41Z</time>
      </trkpt>
      <trkpt lat="45.8445" lon="6.78846">
        <ele>2795.65</ele>
        <time>2017-08-02T12:32:43Z</time>
      </trkpt>
      <trkpt lat="45.84449" lon="6.78845">
        <ele>2795.17</ele>
        <time>2017-08-02T12:32:44Z</time>
      </trkpt>
      <trkpt lat="45.84449" lon="6.78843">
        <ele>2794.69</ele>
        <time>2017-08-02T12:32:45Z</time>
      </trkpt>
      <trkpt lat="45.84448" lon="6.78842">
        <ele>2795.17</ele>
        <time>2017-08-02T12:32:46Z</time>
      </trkpt>
      <trkpt lat="45.84448" lon="6.78841">
        <ele>2795.65</ele>
        <time>2017-08-02T12:32:47Z</time>
      </trkpt>
      <trkpt lat="45.84447" lon="6.7884">
        <ele>2796.13</ele>
        <time>2017-08-02T12:32:48Z</time>
      </trkpt>
      <trkpt lat="45.84445" lon="6.78833">
        <ele>2793.73</ele>
        <time>2017-08-02T12:32:52Z</time>
      </trkpt>
      <trkpt lat="45.84445" lon="6.78832">
        <ele>2792.77</ele>
        <time>2017-08-02T12:32:53Z</time>
      </trkpt>
      <trkpt lat="45.84446" lon="6.78831">
        <ele>2792.77</ele>
        <time>2017-08-02T12:32:54Z</time>
      </trkpt>
      <trkpt lat="45.84446" lon="6.78828">
        <ele>2793.25</ele>
        <time>2017-08-02T12:32:56Z</time>
      </trkpt>
      <trkpt lat="45.84445" lon="6.78822">
        <ele>2793.25</ele>
        <time>2017-08-02T12:33:05Z</time>
      </trkpt>
      <trkpt lat="45.84445" lon="6.78821">
        <ele>2793.25</ele>
        <time>2017-08-02T12:33:06Z</time>
      </trkpt>
      <trkpt lat="45.84445" lon="6.78819">
        <ele>2792.77</ele>
        <time>2017-08-02T12:33:07Z</time>
      </trkpt>
      <trkpt lat="45.84445" lon="6.78817">
        <ele>2792.29</ele>
        <time>2017-08-02T12:33:08Z</time>
      </trkpt>
      <trkpt lat="45.84446" lon="6.78816">
        <ele>2792.29</ele>
        <time>2017-08-02T12:33:09Z</time>
      </trkpt>
      <trkpt lat="45.84447" lon="6.78812">
        <ele>2792.77</ele>
        <time>2017-08-02T12:33:13Z</time>
      </trkpt>
      <trkpt lat="45.84449" lon="6.78804">
        <ele>2790.36</ele>
        <time>2017-08-02T12:33:27Z</time>
      </trkpt>
      <trkpt lat="45.84454" lon="6.78799">
        <ele>2787.96</ele>
        <time>2017-08-02T12:33:48Z</time>
      </trkpt>
      <trkpt lat="45.84454" lon="6.78799">
        <ele>2787.96</ele>
        <time>2017-08-02T12:33:58Z</time>
      </trkpt>
      <trkpt lat="45.84457" lon="6.78801">
        <ele>2788.44</ele>
        <time>2017-08-02T12:34:03Z</time>
      </trkpt>
      <trkpt lat="45.84461" lon="6.78802">
        <ele>2786.52</ele>
        <time>2017-08-02T12:34:17Z</time>
      </trkpt>
      <trkpt lat="45.84461" lon="6.78801">
        <ele>2786.52</ele>
        <time>2017-08-02T12:34:18Z</time>
      </trkpt>
      <trkpt lat="45.84462" lon="6.78799">
        <ele>2786.52</ele>
        <time>2017-08-02T12:34:19Z</time>
      </trkpt>
      <trkpt lat="45.84465" lon="6.78791">
        <ele>2783.63</ele>
        <time>2017-08-02T12:34:37Z</time>
      </trkpt>
      <trkpt lat="45.84465" lon="6.7879">
        <ele>2783.15</ele>
        <time>2017-08-02T12:34:44Z</time>
      </trkpt>
      <trkpt lat="45.84462" lon="6.78784">
        <ele>2779.79</ele>
        <time>2017-08-02T12:35:16Z</time>
      </trkpt>
      <trkpt lat="45.84463" lon="6.78786">
        <ele>2779.31</ele>
        <time>2017-08-02T12:35:38Z</time>
      </trkpt>
      <trkpt lat="45.84463" lon="6.78786">
        <ele>2778.83</ele>
        <time>2017-08-02T12:35:40Z</time>
      </trkpt>
      <trkpt lat="45.84463" lon="6.78787">
        <ele>2779.31</ele>
        <time>2017-08-02T12:35:55Z</time>
      </trkpt>
      <trkpt lat="45.84463" lon="6.78787">
        <ele>2778.83</ele>
        <time>2017-08-02T12:36:05Z</time>
      </trkpt>
      <trkpt lat="45.84463" lon="6.78787">
        <ele>2779.31</ele>
        <time>2017-08-02T12:36:08Z</time>
      </trkpt>
      <trkpt lat="45.84462" lon="6.78786">
        <ele>2778.83</ele>
        <time>2017-08-02T12:36:19Z</time>
      </trkpt>
      <trkpt lat="45.84462" lon="6.78787">
        <ele>2778.83</ele>
        <time>2017-08-02T12:36:28Z</time>
      </trkpt>
      <trkpt lat="45.84462" lon="6.78786">
        <ele>2778.83</ele>
        <time>2017-08-02T12:36:33Z</time>
      </trkpt>
      <trkpt lat="45.84462" lon="6.78786">
        <ele>2778.83</ele>
        <time>2017-08-02T12:36:40Z</time>
      </trkpt>
      <trkpt lat="45.84463" lon="6.78787">
        <ele>2778.83</ele>
        <time>2017-08-02T12:37:03Z</time>
      </trkpt>
      <trkpt lat="45.84464" lon="6.78787">
        <ele>2777.87</ele>
        <time>2017-08-02T12:37:11Z</time>
      </trkpt>
      <trkpt lat="45.84465" lon="6.78789">
        <ele>2777.39</ele>
        <time>2017-08-02T12:37:23Z</time>
      </trkpt>
      <trkpt lat="45.84464" lon="6.78789">
        <ele>2778.35</ele>
        <time>2017-08-02T12:37:37Z</time>
      </trkpt>
      <trkpt lat="45.84465" lon="6.78789">
        <ele>2778.35</ele>
        <time>2017-08-02T12:37:44Z</time>
      </trkpt>
      <trkpt lat="45.84465" lon="6.78789">
        <ele>2779.31</ele>
        <time>2017-08-02T12:38:01Z</time>
      </trkpt>
      <trkpt lat="45.84465" lon="6.7879">
        <ele>2778.83</ele>
        <time>2017-08-02T12:38:07Z</time>
      </trkpt>
      <trkpt lat="45.84465" lon="6.7879">
        <ele>2778.83</ele>
        <time>2017-08-02T12:38:10Z</time>
      </trkpt>
      <trkpt lat="45.84465" lon="6.78787">
        <ele>2776.91</ele>
        <time>2017-08-02T12:38:21Z</time>
      </trkpt>
      <trkpt lat="45.84464" lon="6.78785">
        <ele>2776.91</ele>
        <time>2017-08-02T12:38:23Z</time>
      </trkpt>
      <trkpt lat="45.84465" lon="6.78781">
        <ele>2773.54</ele>
        <time>2017-08-02T12:38:37Z</time>
      </trkpt>
      <trkpt lat="45.84467" lon="6.78778">
        <ele>2770.66</ele>
        <time>2017-08-02T12:38:43Z</time>
      </trkpt>
      <trkpt lat="45.84467" lon="6.78776">
        <ele>2770.18</ele>
        <time>2017-08-02T12:38:47Z</time>
      </trkpt>
      <trkpt lat="45.84469" lon="6.78774">
        <ele>2767.77</ele>
        <time>2017-08-02T12:39:02Z</time>
      </trkpt>
      <trkpt lat="45.8447" lon="6.78771">
        <ele>2766.33</ele>
        <time>2017-08-02T12:39:17Z</time>
      </trkpt>
      <trkpt lat="45.84472" lon="6.7877">
        <ele>2762.49</ele>
        <time>2017-08-02T12:39:29Z</time>
      </trkpt>
      <trkpt lat="45.84472" lon="6.7877">
        <ele>2761.52</ele>
        <time>2017-08-02T12:39:30Z</time>
      </trkpt>
      <trkpt lat="45.84474" lon="6.78766">
        <ele>2760.56</ele>
        <time>2017-08-02T12:39:52Z</time>
      </trkpt>
      <trkpt lat="45.84476" lon="6.7876">
        <ele>2758.64</ele>
        <time>2017-08-02T12:40:06Z</time>
      </trkpt>
      <trkpt lat="45.84479" lon="6.78758">
        <ele>2757.2</ele>
        <time>2017-08-02T12:40:18Z</time>
      </trkpt>
      <trkpt lat="45.8448" lon="6.78753">
        <ele>2753.83</ele>
        <time>2017-08-02T12:40:32Z</time>
      </trkpt>
      <trkpt lat="45.84481" lon="6.78752">
        <ele>2750.47</ele>
        <time>2017-08-02T12:40:41Z</time>
      </trkpt>
      <trkpt lat="45.84481" lon="6.78753">
        <ele>2751.43</ele>
        <time>2017-08-02T12:40:45Z</time>
      </trkpt>
      <trkpt lat="45.84481" lon="6.78752">
        <ele>2752.39</ele>
        <time>2017-08-02T12:40:48Z</time>
      </trkpt>
      <trkpt lat="45.8448" lon="6.78749">
        <ele>2750.95</ele>
        <time>2017-08-02T12:40:58Z</time>
      </trkpt>
      <trkpt lat="45.8448" lon="6.78748">
        <ele>2750.95</ele>
        <time>2017-08-02T12:40:59Z</time>
      </trkpt>
      <trkpt lat="45.84483" lon="6.78743">
        <ele>2747.59</ele>
        <time>2017-08-02T12:41:09Z</time>
      </trkpt>
      <trkpt lat="45.84482" lon="6.78743">
        <ele>2748.07</ele>
        <time>2017-08-02T12:41:17Z</time>
      </trkpt>
      <trkpt lat="45.84483" lon="6.78739">
        <ele>2747.1</ele>
        <time>2017-08-02T12:41:35Z</time>
      </trkpt>
      <trkpt lat="45.84489" lon="6.78742">
        <ele>2744.22</ele>
        <time>2017-08-02T12:42:16Z</time>
      </trkpt>
      <trkpt lat="45.84489" lon="6.7874">
        <ele>2743.74</ele>
        <time>2017-08-02T12:42:22Z</time>
      </trkpt>
      <trkpt lat="45.84488" lon="6.78738">
        <ele>2743.74</ele>
        <time>2017-08-02T12:42:29Z</time>
      </trkpt>
      <trkpt lat="45.84487" lon="6.78737">
        <ele>2740.38</ele>
        <time>2017-08-02T12:42:40Z</time>
      </trkpt>
      <trkpt lat="45.8449" lon="6.78736">
        <ele>2739.41</ele>
        <time>2017-08-02T12:42:50Z</time>
      </trkpt>
      <trkpt lat="45.8449" lon="6.78736">
        <ele>2739.89</ele>
        <time>2017-08-02T12:42:53Z</time>
      </trkpt>
      <trkpt lat="45.8449" lon="6.78735">
        <ele>2738.93</ele>
        <time>2017-08-02T12:42:57Z</time>
      </trkpt>
      <trkpt lat="45.8449" lon="6.78736">
        <ele>2737.97</ele>
        <time>2017-08-02T12:43:02Z</time>
      </trkpt>
      <trkpt lat="45.84489" lon="6.78735">
        <ele>2738.45</ele>
        <time>2017-08-02T12:43:06Z</time>
      </trkpt>
      <trkpt lat="45.84491" lon="6.78731">
        <ele>2736.53</ele>
        <time>2017-08-02T12:43:13Z</time>
      </trkpt>
      <trkpt lat="45.84491" lon="6.78729">
        <ele>2735.09</ele>
        <time>2017-08-02T12:43:16Z</time>
      </trkpt>
      <trkpt lat="45.84492" lon="6.78729">
        <ele>2735.09</ele>
        <time>2017-08-02T12:43:18Z</time>
      </trkpt>
      <trkpt lat="45.84486" lon="6.78723">
        <ele>2733.17</ele>
        <time>2017-08-02T12:43:29Z</time>
      </trkpt>
      <trkpt lat="45.84486" lon="6.78722">
        <ele>2733.17</ele>
        <time>2017-08-02T12:43:30Z</time>
      </trkpt>
      <trkpt lat="45.84483" lon="6.78724">
        <ele>2733.17</ele>
        <time>2017-08-02T12:43:48Z</time>
      </trkpt>
      <trkpt lat="45.8448" lon="6.78726">
        <ele>2732.2</ele>
        <time>2017-08-02T12:43:53Z</time>
      </trkpt>
      <trkpt lat="45.84476" lon="6.78726">
        <ele>2728.84</ele>
        <time>2017-08-02T12:43:57Z</time>
      </trkpt>
      <trkpt lat="45.84472" lon="6.78722">
        <ele>2726.92</ele>
        <time>2017-08-02T12:44:02Z</time>
      </trkpt>
      <trkpt lat="45.84472" lon="6.78722">
        <ele>2727.4</ele>
        <time>2017-08-02T12:44:05Z</time>
      </trkpt>
      <trkpt lat="45.84472" lon="6.78723">
        <ele>2728.36</ele>
        <time>2017-08-02T12:44:07Z</time>
      </trkpt>
      <trkpt lat="45.84471" lon="6.78718">
        <ele>2724.99</ele>
        <time>2017-08-02T12:44:14Z</time>
      </trkpt>
      <trkpt lat="45.84469" lon="6.78716">
        <ele>2726.44</ele>
        <time>2017-08-02T12:44:17Z</time>
      </trkpt>
      <trkpt lat="45.84469" lon="6.78714">
        <ele>2724.99</ele>
        <time>2017-08-02T12:44:18Z</time>
      </trkpt>
      <trkpt lat="45.8447" lon="6.78712">
        <ele>2723.07</ele>
        <time>2017-08-02T12:44:21Z</time>
      </trkpt>
      <trkpt lat="45.84471" lon="6.7871">
        <ele>2721.63</ele>
        <time>2017-08-02T12:44:24Z</time>
      </trkpt>
      <trkpt lat="45.84468" lon="6.78707">
        <ele>2718.27</ele>
        <time>2017-08-02T12:44:38Z</time>
      </trkpt>
      <trkpt lat="45.84467" lon="6.78705">
        <ele>2716.82</ele>
        <time>2017-08-02T12:44:44Z</time>
      </trkpt>
      <trkpt lat="45.84469" lon="6.78702">
        <ele>2714.9</ele>
        <time>2017-08-02T12:44:48Z</time>
      </trkpt>
      <trkpt lat="45.8447" lon="6.78702">
        <ele>2714.42</ele>
        <time>2017-08-02T12:44:49Z</time>
      </trkpt>
      <trkpt lat="45.8447" lon="6.78701">
        <ele>2714.42</ele>
        <time>2017-08-02T12:44:50Z</time>
      </trkpt>
      <trkpt lat="45.84471" lon="6.78701">
        <ele>2712.98</ele>
        <time>2017-08-02T12:44:53Z</time>
      </trkpt>
      <trkpt lat="45.8447" lon="6.78698">
        <ele>2712.5</ele>
        <time>2017-08-02T12:44:57Z</time>
      </trkpt>
      <trkpt lat="45.84468" lon="6.78698">
        <ele>2712.02</ele>
        <time>2017-08-02T12:45:01Z</time>
      </trkpt>
      <trkpt lat="45.84467" lon="6.78698">
        <ele>2712.02</ele>
        <time>2017-08-02T12:45:02Z</time>
      </trkpt>
      <trkpt lat="45.84466" lon="6.78698">
        <ele>2712.02</ele>
        <time>2017-08-02T12:45:03Z</time>
      </trkpt>
      <trkpt lat="45.84466" lon="6.78695">
        <ele>2708.65</ele>
        <time>2017-08-02T12:45:06Z</time>
      </trkpt>
      <trkpt lat="45.84464" lon="6.78693">
        <ele>2708.65</ele>
        <time>2017-08-02T12:45:10Z</time>
      </trkpt>
      <trkpt lat="45.84464" lon="6.78692">
        <ele>2708.17</ele>
        <time>2017-08-02T12:45:11Z</time>
      </trkpt>
      <trkpt lat="45.84463" lon="6.7869">
        <ele>2707.21</ele>
        <time>2017-08-02T12:45:12Z</time>
      </trkpt>
      <trkpt lat="45.84463" lon="6.78689">
        <ele>2706.73</ele>
        <time>2017-08-02T12:45:13Z</time>
      </trkpt>
      <trkpt lat="45.84464" lon="6.78687">
        <ele>2703.85</ele>
        <time>2017-08-02T12:45:18Z</time>
      </trkpt>
      <trkpt lat="45.84467" lon="6.78685">
        <ele>2704.33</ele>
        <time>2017-08-02T12:45:25Z</time>
      </trkpt>
      <trkpt lat="45.84467" lon="6.78681">
        <ele>2702.88</ele>
        <time>2017-08-02T12:45:28Z</time>
      </trkpt>
      <trkpt lat="45.84463" lon="6.78674">
        <ele>2700.96</ele>
        <time>2017-08-02T12:45:38Z</time>
      </trkpt>
      <trkpt lat="45.84463" lon="6.78673">
        <ele>2699.52</ele>
        <time>2017-08-02T12:45:39Z</time>
      </trkpt>
      <trkpt lat="45.84462" lon="6.78671">
        <ele>2697.6</ele>
        <time>2017-08-02T12:45:40Z</time>
      </trkpt>
      <trkpt lat="45.84461" lon="6.78667">
        <ele>2693.75</ele>
        <time>2017-08-02T12:45:45Z</time>
      </trkpt>
      <trkpt lat="45.8446" lon="6.78665">
        <ele>2692.79</ele>
        <time>2017-08-02T12:45:47Z</time>
      </trkpt>
      <trkpt lat="45.84458" lon="6.78661">
        <ele>2689.91</ele>
        <time>2017-08-02T12:45:51Z</time>
      </trkpt>
      <trkpt lat="45.84457" lon="6.78657">
        <ele>2687.98</ele>
        <time>2017-08-02T12:45:55Z</time>
      </trkpt>
      <trkpt lat="45.84456" lon="6.78656">
        <ele>2688.94</ele>
        <time>2017-08-02T12:45:56Z</time>
      </trkpt>
      <trkpt lat="45.84455" lon="6.78655">
        <ele>2689.43</ele>
        <time>2017-08-02T12:45:57Z</time>
      </trkpt>
      <trkpt lat="45.84453" lon="6.78653">
        <ele>2687.02</ele>
        <time>2017-08-02T12:45:59Z</time>
      </trkpt>
      <trkpt lat="45.84453" lon="6.78651">
        <ele>2685.58</ele>
        <time>2017-08-02T12:46:00Z</time>
      </trkpt>
      <trkpt lat="45.84452" lon="6.7865">
        <ele>2684.14</ele>
        <time>2017-08-02T12:46:01Z</time>
      </trkpt>
      <trkpt lat="45.84451" lon="6.78649">
        <ele>2683.18</ele>
        <time>2017-08-02T12:46:02Z</time>
      </trkpt>
      <trkpt lat="45.84449" lon="6.78648">
        <ele>2682.22</ele>
        <time>2017-08-02T12:46:03Z</time>
      </trkpt>
      <trkpt lat="45.84448" lon="6.78647">
        <ele>2682.22</ele>
        <time>2017-08-02T12:46:04Z</time>
      </trkpt>
      <trkpt lat="45.84447" lon="6.78646">
        <ele>2680.77</ele>
        <time>2017-08-02T12:46:05Z</time>
      </trkpt>
      <trkpt lat="45.84445" lon="6.78646">
        <ele>2679.33</ele>
        <time>2017-08-02T12:46:07Z</time>
      </trkpt>
      <trkpt lat="45.84444" lon="6.78646">
        <ele>2679.33</ele>
        <time>2017-08-02T12:46:08Z</time>
      </trkpt>
      <trkpt lat="45.84439" lon="6.78648">
        <ele>2679.81</ele>
        <time>2017-08-02T12:46:14Z</time>
      </trkpt>
      <trkpt lat="45.84437" lon="6.78651">
        <ele>2677.89</ele>
        <time>2017-08-02T12:46:17Z</time>
      </trkpt>
      <trkpt lat="45.84433" lon="6.78653">
        <ele>2674.52</ele>
        <time>2017-08-02T12:46:20Z</time>
      </trkpt>
      <trkpt lat="45.84432" lon="6.78653">
        <ele>2673.08</ele>
        <time>2017-08-02T12:46:21Z</time>
      </trkpt>
      <trkpt lat="45.84431" lon="6.78653">
        <ele>2672.6</ele>
        <time>2017-08-02T12:46:22Z</time>
      </trkpt>
      <trkpt lat="45.8443" lon="6.78653">
        <ele>2672.6</ele>
        <time>2017-08-02T12:46:23Z</time>
      </trkpt>
      <trkpt lat="45.84425" lon="6.78651">
        <ele>2669.24</ele>
        <time>2017-08-02T12:46:29Z</time>
      </trkpt>
      <trkpt lat="45.84422" lon="6.7865">
        <ele>2665.87</ele>
        <time>2017-08-02T12:46:32Z</time>
      </trkpt>
      <trkpt lat="45.84421" lon="6.78648">
        <ele>2665.39</ele>
        <time>2017-08-02T12:46:33Z</time>
      </trkpt>
      <trkpt lat="45.84421" lon="6.78647">
        <ele>2663.47</ele>
        <time>2017-08-02T12:46:34Z</time>
      </trkpt>
      <trkpt lat="45.8442" lon="6.78647">
        <ele>2662.51</ele>
        <time>2017-08-02T12:46:35Z</time>
      </trkpt>
      <trkpt lat="45.8442" lon="6.78646">
        <ele>2662.03</ele>
        <time>2017-08-02T12:46:36Z</time>
      </trkpt>
      <trkpt lat="45.84417" lon="6.78645">
        <ele>2660.59</ele>
        <time>2017-08-02T12:46:45Z</time>
      </trkpt>
      <trkpt lat="45.8441" lon="6.78641">
        <ele>2657.22</ele>
        <time>2017-08-02T12:46:51Z</time>
      </trkpt>
      <trkpt lat="45.84405" lon="6.78637">
        <ele>2653.86</ele>
        <time>2017-08-02T12:46:57Z</time>
      </trkpt>
      <trkpt lat="45.84401" lon="6.78632">
        <ele>2650.49</ele>
        <time>2017-08-02T12:47:03Z</time>
      </trkpt>
      <trkpt lat="45.844" lon="6.78632">
        <ele>2650.01</ele>
        <time>2017-08-02T12:47:04Z</time>
      </trkpt>
      <trkpt lat="45.84399" lon="6.78632">
        <ele>2649.53</ele>
        <time>2017-08-02T12:47:05Z</time>
      </trkpt>
      <trkpt lat="45.84396" lon="6.7863">
        <ele>2646.65</ele>
        <time>2017-08-02T12:47:08Z</time>
      </trkpt>
      <trkpt lat="45.84396" lon="6.78629">
        <ele>2645.69</ele>
        <time>2017-08-02T12:47:09Z</time>
      </trkpt>
      <trkpt lat="45.84395" lon="6.78628">
        <ele>2645.21</ele>
        <time>2017-08-02T12:47:10Z</time>
      </trkpt>
      <trkpt lat="45.84394" lon="6.78628">
        <ele>2644.72</ele>
        <time>2017-08-02T12:47:11Z</time>
      </trkpt>
      <trkpt lat="45.84393" lon="6.78628">
        <ele>2644.72</ele>
        <time>2017-08-02T12:47:12Z</time>
      </trkpt>
      <trkpt lat="45.84391" lon="6.78629">
        <ele>2644.24</ele>
        <time>2017-08-02T12:47:13Z</time>
      </trkpt>
      <trkpt lat="45.8439" lon="6.78628">
        <ele>2643.76</ele>
        <time>2017-08-02T12:47:14Z</time>
      </trkpt>
      <trkpt lat="45.84388" lon="6.78626">
        <ele>2642.8</ele>
        <time>2017-08-02T12:47:15Z</time>
      </trkpt>
      <trkpt lat="45.84387" lon="6.78625">
        <ele>2641.36</ele>
        <time>2017-08-02T12:47:16Z</time>
      </trkpt>
      <trkpt lat="45.84386" lon="6.78625">
        <ele>2640.4</ele>
        <time>2017-08-02T12:47:17Z</time>
      </trkpt>
      <trkpt lat="45.84384" lon="6.78625">
        <ele>2639.92</ele>
        <time>2017-08-02T12:47:18Z</time>
      </trkpt>
      <trkpt lat="45.84381" lon="6.78624">
        <ele>2637.03</ele>
        <time>2017-08-02T12:47:24Z</time>
      </trkpt>
      <trkpt lat="45.84381" lon="6.78623">
        <ele>2636.55</ele>
        <time>2017-08-02T12:47:26Z</time>
      </trkpt>
      <trkpt lat="45.84378" lon="6.78623">
        <ele>2635.11</ele>
        <time>2017-08-02T12:47:32Z</time>
      </trkpt>
      <trkpt lat="45.84374" lon="6.78617">
        <ele>2631.75</ele>
        <time>2017-08-02T12:47:40Z</time>
      </trkpt>
      <trkpt lat="45.84373" lon="6.78615">
        <ele>2630.3</ele>
        <time>2017-08-02T12:47:43Z</time>
      </trkpt>
      <trkpt lat="45.84367" lon="6.7861">
        <ele>2626.94</ele>
        <time>2017-08-02T12:47:54Z</time>
      </trkpt>
      <trkpt lat="45.84365" lon="6.78605">
        <ele>2626.46</ele>
        <time>2017-08-02T12:48:00Z</time>
      </trkpt>
      <trkpt lat="45.84364" lon="6.78604">
        <ele>2626.46</ele>
        <time>2017-08-02T12:48:01Z</time>
      </trkpt>
      <trkpt lat="45.84356" lon="6.78599">
        <ele>2622.61</ele>
        <time>2017-08-02T12:48:10Z</time>
      </trkpt>
      <trkpt lat="45.84353" lon="6.78596">
        <ele>2619.73</ele>
        <time>2017-08-02T12:48:14Z</time>
      </trkpt>
      <trkpt lat="45.84348" lon="6.78594">
        <ele>2617.81</ele>
        <time>2017-08-02T12:48:22Z</time>
      </trkpt>
      <trkpt lat="45.84343" lon="6.78589">
        <ele>2614.44</ele>
        <time>2017-08-02T12:48:29Z</time>
      </trkpt>
      <trkpt lat="45.84339" lon="6.78586">
        <ele>2611.56</ele>
        <time>2017-08-02T12:48:35Z</time>
      </trkpt>
      <trkpt lat="45.84334" lon="6.78583">
        <ele>2608.19</ele>
        <time>2017-08-02T12:48:44Z</time>
      </trkpt>
      <trkpt lat="45.8433" lon="6.78582">
        <ele>2607.23</ele>
        <time>2017-08-02T12:48:50Z</time>
      </trkpt>
      <trkpt lat="45.84326" lon="6.78579">
        <ele>2605.31</ele>
        <time>2017-08-02T12:48:57Z</time>
      </trkpt>
      <trkpt lat="45.84325" lon="6.7858">
        <ele>2605.31</ele>
        <time>2017-08-02T12:48:58Z</time>
      </trkpt>
      <trkpt lat="45.84324" lon="6.78581">
        <ele>2605.31</ele>
        <time>2017-08-02T12:48:59Z</time>
      </trkpt>
      <trkpt lat="45.84322" lon="6.78582">
        <ele>2605.31</ele>
        <time>2017-08-02T12:49:00Z</time>
      </trkpt>
      <trkpt lat="45.84321" lon="6.78582">
        <ele>2605.31</ele>
        <time>2017-08-02T12:49:01Z</time>
      </trkpt>
      <trkpt lat="45.8432" lon="6.78581">
        <ele>2605.31</ele>
        <time>2017-08-02T12:49:02Z</time>
      </trkpt>
      <trkpt lat="45.84319" lon="6.78581">
        <ele>2605.31</ele>
        <time>2017-08-02T12:49:03Z</time>
      </trkpt>
      <trkpt lat="45.84312" lon="6.78579">
        <ele>2604.35</ele>
        <time>2017-08-02T12:49:11Z</time>
      </trkpt>
      <trkpt lat="45.84304" lon="6.78572">
        <ele>2600.98</ele>
        <time>2017-08-02T12:49:26Z</time>
      </trkpt>
      <trkpt lat="45.84301" lon="6.78565">
        <ele>2597.62</ele>
        <time>2017-08-02T12:49:45Z</time>
      </trkpt>
      <trkpt lat="45.84296" lon="6.78561">
        <ele>2596.18</ele>
        <time>2017-08-02T12:49:58Z</time>
      </trkpt>
      <trkpt lat="45.84296" lon="6.78562">
        <ele>2595.7</ele>
        <time>2017-08-02T12:49:59Z</time>
      </trkpt>
      <trkpt lat="45.84294" lon="6.78563">
        <ele>2595.22</ele>
        <time>2017-08-02T12:50:02Z</time>
      </trkpt>
      <trkpt lat="45.84293" lon="6.78563">
        <ele>2594.74</ele>
        <time>2017-08-02T12:50:03Z</time>
      </trkpt>
      <trkpt lat="45.84291" lon="6.78561">
        <ele>2594.74</ele>
        <time>2017-08-02T12:50:05Z</time>
      </trkpt>
      <trkpt lat="45.8429" lon="6.7856">
        <ele>2594.25</ele>
        <time>2017-08-02T12:50:06Z</time>
      </trkpt>
      <trkpt lat="45.8429" lon="6.78558">
        <ele>2593.77</ele>
        <time>2017-08-02T12:50:07Z</time>
      </trkpt>
      <trkpt lat="45.84287" lon="6.78553">
        <ele>2590.89</ele>
        <time>2017-08-02T12:50:11Z</time>
      </trkpt>
      <trkpt lat="45.84286" lon="6.78553">
        <ele>2591.37</ele>
        <time>2017-08-02T12:50:14Z</time>
      </trkpt>
      <trkpt lat="45.84285" lon="6.78553">
        <ele>2591.37</ele>
        <time>2017-08-02T12:50:15Z</time>
      </trkpt>
      <trkpt lat="45.84281" lon="6.78552">
        <ele>2588.49</ele>
        <time>2017-08-02T12:50:19Z</time>
      </trkpt>
      <trkpt lat="45.84282" lon="6.78547">
        <ele>2587.04</ele>
        <time>2017-08-02T12:50:22Z</time>
      </trkpt>
      <trkpt lat="45.84282" lon="6.78546">
        <ele>2586.56</ele>
        <time>2017-08-02T12:50:23Z</time>
      </trkpt>
      <trkpt lat="45.84283" lon="6.78544">
        <ele>2587.04</ele>
        <time>2017-08-02T12:50:24Z</time>
      </trkpt>
      <trkpt lat="45.8428" lon="6.78545">
        <ele>2586.56</ele>
        <time>2017-08-02T12:50:27Z</time>
      </trkpt>
      <trkpt lat="45.84277" lon="6.78543">
        <ele>2583.2</ele>
        <time>2017-08-02T12:50:37Z</time>
      </trkpt>
      <trkpt lat="45.84272" lon="6.78542">
        <ele>2580.32</ele>
        <time>2017-08-02T12:50:43Z</time>
      </trkpt>
      <trkpt lat="45.84264" lon="6.78544">
        <ele>2577.91</ele>
        <time>2017-08-02T12:50:50Z</time>
      </trkpt>
      <trkpt lat="45.84262" lon="6.78546">
        <ele>2575.99</ele>
        <time>2017-08-02T12:50:58Z</time>
      </trkpt>
      <trkpt lat="45.8426" lon="6.78551">
        <ele>2573.11</ele>
        <time>2017-08-02T12:51:13Z</time>
      </trkpt>
      <trkpt lat="45.84259" lon="6.7855">
        <ele>2571.66</ele>
        <time>2017-08-02T12:51:18Z</time>
      </trkpt>
      <trkpt lat="45.84258" lon="6.78549">
        <ele>2571.18</ele>
        <time>2017-08-02T12:51:23Z</time>
      </trkpt>
      <trkpt lat="45.84255" lon="6.78551">
        <ele>2570.22</ele>
        <time>2017-08-02T12:51:27Z</time>
      </trkpt>
      <trkpt lat="45.84253" lon="6.78551">
        <ele>2569.74</ele>
        <time>2017-08-02T12:51:29Z</time>
      </trkpt>
      <trkpt lat="45.84248" lon="6.7855">
        <ele>2567.82</ele>
        <time>2017-08-02T12:51:33Z</time>
      </trkpt>
      <trkpt lat="45.84248" lon="6.78549">
        <ele>2566.86</ele>
        <time>2017-08-02T12:51:34Z</time>
      </trkpt>
      <trkpt lat="45.84248" lon="6.78546">
        <ele>2565.9</ele>
        <time>2017-08-02T12:51:35Z</time>
      </trkpt>
      <trkpt lat="45.84247" lon="6.78545">
        <ele>2563.97</ele>
        <time>2017-08-02T12:51:38Z</time>
      </trkpt>
      <trkpt lat="45.84247" lon="6.78541">
        <ele>2563.49</ele>
        <time>2017-08-02T12:51:45Z</time>
      </trkpt>
      <trkpt lat="45.84247" lon="6.78534">
        <ele>2561.09</ele>
        <time>2017-08-02T12:51:50Z</time>
      </trkpt>
      <trkpt lat="45.84245" lon="6.78528">
        <ele>2558.69</ele>
        <time>2017-08-02T12:51:54Z</time>
      </trkpt>
      <trkpt lat="45.8424" lon="6.78528">
        <ele>2557.24</ele>
        <time>2017-08-02T12:52:04Z</time>
      </trkpt>
      <trkpt lat="45.84239" lon="6.78527">
        <ele>2556.76</ele>
        <time>2017-08-02T12:52:05Z</time>
      </trkpt>
      <trkpt lat="45.84238" lon="6.78525">
        <ele>2555.8</ele>
        <time>2017-08-02T12:52:08Z</time>
      </trkpt>
      <trkpt lat="45.84238" lon="6.78523">
        <ele>2554.84</ele>
        <time>2017-08-02T12:52:09Z</time>
      </trkpt>
      <trkpt lat="45.84237" lon="6.78522">
        <ele>2554.36</ele>
        <time>2017-08-02T12:52:10Z</time>
      </trkpt>
      <trkpt lat="45.84237" lon="6.78522">
        <ele>2553.88</ele>
        <time>2017-08-02T12:52:11Z</time>
      </trkpt>
      <trkpt lat="45.84236" lon="6.78514">
        <ele>2550.51</ele>
        <time>2017-08-02T12:52:17Z</time>
      </trkpt>
      <trkpt lat="45.84233" lon="6.78504">
        <ele>2547.15</ele>
        <time>2017-08-02T12:52:23Z</time>
      </trkpt>
      <trkpt lat="45.84232" lon="6.78504">
        <ele>2547.15</ele>
        <time>2017-08-02T12:52:25Z</time>
      </trkpt>
      <trkpt lat="45.84231" lon="6.78504">
        <ele>2546.67</ele>
        <time>2017-08-02T12:52:26Z</time>
      </trkpt>
      <trkpt lat="45.8423" lon="6.78504">
        <ele>2546.19</ele>
        <time>2017-08-02T12:52:27Z</time>
      </trkpt>
      <trkpt lat="45.84229" lon="6.78504">
        <ele>2545.71</ele>
        <time>2017-08-02T12:52:28Z</time>
      </trkpt>
      <trkpt lat="45.84228" lon="6.78504">
        <ele>2545.23</ele>
        <time>2017-08-02T12:52:29Z</time>
      </trkpt>
      <trkpt lat="45.84227" lon="6.78502">
        <ele>2544.75</ele>
        <time>2017-08-02T12:52:30Z</time>
      </trkpt>
      <trkpt lat="45.84227" lon="6.785">
        <ele>2543.79</ele>
        <time>2017-08-02T12:52:31Z</time>
      </trkpt>
      <trkpt lat="45.84226" lon="6.78499">
        <ele>2543.31</ele>
        <time>2017-08-02T12:52:32Z</time>
      </trkpt>
      <trkpt lat="45.84226" lon="6.78497">
        <ele>2542.82</ele>
        <time>2017-08-02T12:52:33Z</time>
      </trkpt>
      <trkpt lat="45.84225" lon="6.78496">
        <ele>2542.82</ele>
        <time>2017-08-02T12:52:34Z</time>
      </trkpt>
      <trkpt lat="45.84225" lon="6.78495">
        <ele>2542.34</ele>
        <time>2017-08-02T12:52:35Z</time>
      </trkpt>
      <trkpt lat="45.84224" lon="6.78493">
        <ele>2541.86</ele>
        <time>2017-08-02T12:52:36Z</time>
      </trkpt>
      <trkpt lat="45.84223" lon="6.78492">
        <ele>2541.38</ele>
        <time>2017-08-02T12:52:37Z</time>
      </trkpt>
      <trkpt lat="45.84222" lon="6.78492">
        <ele>2540.9</ele>
        <time>2017-08-02T12:52:38Z</time>
      </trkpt>
      <trkpt lat="45.84219" lon="6.78493">
        <ele>2540.9</ele>
        <time>2017-08-02T12:52:41Z</time>
      </trkpt>
      <trkpt lat="45.84214" lon="6.78491">
        <ele>2537.54</ele>
        <time>2017-08-02T12:52:46Z</time>
      </trkpt>
      <trkpt lat="45.84207" lon="6.78485">
        <ele>2533.69</ele>
        <time>2017-08-02T12:52:54Z</time>
      </trkpt>
      <trkpt lat="45.84201" lon="6.78476">
        <ele>2530.81</ele>
        <time>2017-08-02T12:53:03Z</time>
      </trkpt>
      <trkpt lat="45.842" lon="6.78474">
        <ele>2529.37</ele>
        <time>2017-08-02T12:53:06Z</time>
      </trkpt>
      <trkpt lat="45.84194" lon="6.78468">
        <ele>2526</ele>
        <time>2017-08-02T12:53:24Z</time>
      </trkpt>
      <trkpt lat="45.84192" lon="6.78468">
        <ele>2524.56</ele>
        <time>2017-08-02T12:53:26Z</time>
      </trkpt>
      <trkpt lat="45.8419" lon="6.78467">
        <ele>2524.56</ele>
        <time>2017-08-02T12:53:27Z</time>
      </trkpt>
      <trkpt lat="45.84189" lon="6.78467">
        <ele>2523.12</ele>
        <time>2017-08-02T12:53:28Z</time>
      </trkpt>
      <trkpt lat="45.84185" lon="6.78465">
        <ele>2518.79</ele>
        <time>2017-08-02T12:53:31Z</time>
      </trkpt>
      <trkpt lat="45.84184" lon="6.78463">
        <ele>2517.83</ele>
        <time>2017-08-02T12:53:32Z</time>
      </trkpt>
      <trkpt lat="45.84183" lon="6.78462">
        <ele>2517.35</ele>
        <time>2017-08-02T12:53:33Z</time>
      </trkpt>
      <trkpt lat="45.84178" lon="6.7845">
        <ele>2514.95</ele>
        <time>2017-08-02T12:53:39Z</time>
      </trkpt>
      <trkpt lat="45.84177" lon="6.78448">
        <ele>2513.98</ele>
        <time>2017-08-02T12:53:40Z</time>
      </trkpt>
      <trkpt lat="45.84176" lon="6.78446">
        <ele>2513.02</ele>
        <time>2017-08-02T12:53:41Z</time>
      </trkpt>
      <trkpt lat="45.84175" lon="6.78444">
        <ele>2512.06</ele>
        <time>2017-08-02T12:53:42Z</time>
      </trkpt>
      <trkpt lat="45.84175" lon="6.78441">
        <ele>2511.58</ele>
        <time>2017-08-02T12:53:43Z</time>
      </trkpt>
      <trkpt lat="45.84174" lon="6.78438">
        <ele>2511.1</ele>
        <time>2017-08-02T12:53:44Z</time>
      </trkpt>
      <trkpt lat="45.84173" lon="6.78436">
        <ele>2511.1</ele>
        <time>2017-08-02T12:53:45Z</time>
      </trkpt>
      <trkpt lat="45.84171" lon="6.78435">
        <ele>2510.62</ele>
        <time>2017-08-02T12:53:46Z</time>
      </trkpt>
      <trkpt lat="45.84169" lon="6.78434">
        <ele>2510.62</ele>
        <time>2017-08-02T12:53:47Z</time>
      </trkpt>
      <trkpt lat="45.84167" lon="6.78433">
        <ele>2509.66</ele>
        <time>2017-08-02T12:53:48Z</time>
      </trkpt>
      <trkpt lat="45.84165" lon="6.78431">
        <ele>2509.18</ele>
        <time>2017-08-02T12:53:49Z</time>
      </trkpt>
      <trkpt lat="45.84164" lon="6.78429">
        <ele>2508.7</ele>
        <time>2017-08-02T12:53:50Z</time>
      </trkpt>
      <trkpt lat="45.84163" lon="6.78429">
        <ele>2508.22</ele>
        <time>2017-08-02T12:53:51Z</time>
      </trkpt>
      <trkpt lat="45.84162" lon="6.78428">
        <ele>2507.74</ele>
        <time>2017-08-02T12:53:52Z</time>
      </trkpt>
      <trkpt lat="45.84161" lon="6.78427">
        <ele>2506.77</ele>
        <time>2017-08-02T12:53:53Z</time>
      </trkpt>
      <trkpt lat="45.84151" lon="6.7843">
        <ele>2503.41</ele>
        <time>2017-08-02T12:54:02Z</time>
      </trkpt>
      <trkpt lat="45.84145" lon="6.78429">
        <ele>2501.97</ele>
        <time>2017-08-02T12:54:06Z</time>
      </trkpt>
      <trkpt lat="45.84143" lon="6.78429">
        <ele>2501.49</ele>
        <time>2017-08-02T12:54:07Z</time>
      </trkpt>
      <trkpt lat="45.8414" lon="6.78429">
        <ele>2501.01</ele>
        <time>2017-08-02T12:54:09Z</time>
      </trkpt>
      <trkpt lat="45.84139" lon="6.7843">
        <ele>2501.01</ele>
        <time>2017-08-02T12:54:10Z</time>
      </trkpt>
      <trkpt lat="45.84137" lon="6.7843">
        <ele>2501.01</ele>
        <time>2017-08-02T12:54:11Z</time>
      </trkpt>
      <trkpt lat="45.84132" lon="6.7843">
        <ele>2499.57</ele>
        <time>2017-08-02T12:54:15Z</time>
      </trkpt>
      <trkpt lat="45.84131" lon="6.78429">
        <ele>2498.12</ele>
        <time>2017-08-02T12:54:16Z</time>
      </trkpt>
      <trkpt lat="45.84129" lon="6.78428">
        <ele>2497.16</ele>
        <time>2017-08-02T12:54:17Z</time>
      </trkpt>
      <trkpt lat="45.84128" lon="6.78428">
        <ele>2496.2</ele>
        <time>2017-08-02T12:54:18Z</time>
      </trkpt>
      <trkpt lat="45.84127" lon="6.78427">
        <ele>2496.2</ele>
        <time>2017-08-02T12:54:19Z</time>
      </trkpt>
      <trkpt lat="45.84124" lon="6.78426">
        <ele>2496.2</ele>
        <time>2017-08-02T12:54:26Z</time>
      </trkpt>
      <trkpt lat="45.84124" lon="6.78426">
        <ele>2496.2</ele>
        <time>2017-08-02T12:54:27Z</time>
      </trkpt>
      <trkpt lat="45.84125" lon="6.78425">
        <ele>2495.72</ele>
        <time>2017-08-02T12:54:34Z</time>
      </trkpt>
      <trkpt lat="45.84123" lon="6.78424">
        <ele>2493.8</ele>
        <time>2017-08-02T12:54:36Z</time>
      </trkpt>
      <trkpt lat="45.84123" lon="6.78423">
        <ele>2492.84</ele>
        <time>2017-08-02T12:54:38Z</time>
      </trkpt>
      <trkpt lat="45.8412" lon="6.78423">
        <ele>2492.84</ele>
        <time>2017-08-02T12:54:42Z</time>
      </trkpt>
      <trkpt lat="45.8412" lon="6.78423">
        <ele>2492.84</ele>
        <time>2017-08-02T12:54:43Z</time>
      </trkpt>
      <trkpt lat="45.84118" lon="6.78421">
        <ele>2492.84</ele>
        <time>2017-08-02T12:54:47Z</time>
      </trkpt>
      <trkpt lat="45.8412" lon="6.78424">
        <ele>2492.36</ele>
        <time>2017-08-02T12:54:52Z</time>
      </trkpt>
      <trkpt lat="45.8412" lon="6.78428">
        <ele>2489.47</ele>
        <time>2017-08-02T12:55:03Z</time>
      </trkpt>
      <trkpt lat="45.84118" lon="6.78432">
        <ele>2487.55</ele>
        <time>2017-08-02T12:55:11Z</time>
      </trkpt>
      <trkpt lat="45.84115" lon="6.7843">
        <ele>2485.15</ele>
        <time>2017-08-02T12:55:20Z</time>
      </trkpt>
      <trkpt lat="45.84112" lon="6.78428">
        <ele>2484.18</ele>
        <time>2017-08-02T12:55:30Z</time>
      </trkpt>
      <trkpt lat="45.84109" lon="6.78426">
        <ele>2481.3</ele>
        <time>2017-08-02T12:55:42Z</time>
      </trkpt>
      <trkpt lat="45.84107" lon="6.78427">
        <ele>2479.86</ele>
        <time>2017-08-02T12:55:47Z</time>
      </trkpt>
      <trkpt lat="45.84102" lon="6.78425">
        <ele>2476.49</ele>
        <time>2017-08-02T12:55:57Z</time>
      </trkpt>
      <trkpt lat="45.84104" lon="6.78426">
        <ele>2474.57</ele>
        <time>2017-08-02T12:56:02Z</time>
      </trkpt>
      <trkpt lat="45.841" lon="6.78425">
        <ele>2471.69</ele>
        <time>2017-08-02T12:56:14Z</time>
      </trkpt>
      <trkpt lat="45.84098" lon="6.78425">
        <ele>2469.76</ele>
        <time>2017-08-02T12:56:22Z</time>
      </trkpt>
      <trkpt lat="45.84094" lon="6.78425">
        <ele>2466.4</ele>
        <time>2017-08-02T12:56:36Z</time>
      </trkpt>
      <trkpt lat="45.84091" lon="6.78424">
        <ele>2465.44</ele>
        <time>2017-08-02T12:56:39Z</time>
      </trkpt>
      <trkpt lat="45.84088" lon="6.78424">
        <ele>2464</ele>
        <time>2017-08-02T12:56:42Z</time>
      </trkpt>
      <trkpt lat="45.84086" lon="6.78428">
        <ele>2464</ele>
        <time>2017-08-02T12:56:49Z</time>
      </trkpt>
      <trkpt lat="45.8408" lon="6.78423">
        <ele>2460.63</ele>
        <time>2017-08-02T12:56:58Z</time>
      </trkpt>
      <trkpt lat="45.84079" lon="6.78423">
        <ele>2460.63</ele>
        <time>2017-08-02T12:56:59Z</time>
      </trkpt>
      <trkpt lat="45.84079" lon="6.78423">
        <ele>2460.15</ele>
        <time>2017-08-02T12:57:00Z</time>
      </trkpt>
      <trkpt lat="45.84078" lon="6.78425">
        <ele>2459.67</ele>
        <time>2017-08-02T12:57:02Z</time>
      </trkpt>
      <trkpt lat="45.84077" lon="6.78425">
        <ele>2459.19</ele>
        <time>2017-08-02T12:57:03Z</time>
      </trkpt>
      <trkpt lat="45.84076" lon="6.78426">
        <ele>2459.19</ele>
        <time>2017-08-02T12:57:04Z</time>
      </trkpt>
      <trkpt lat="45.84076" lon="6.78427">
        <ele>2458.23</ele>
        <time>2017-08-02T12:57:05Z</time>
      </trkpt>
      <trkpt lat="45.84074" lon="6.78428">
        <ele>2458.23</ele>
        <time>2017-08-02T12:57:06Z</time>
      </trkpt>
      <trkpt lat="45.84074" lon="6.78429">
        <ele>2457.75</ele>
        <time>2017-08-02T12:57:07Z</time>
      </trkpt>
      <trkpt lat="45.84069" lon="6.7843">
        <ele>2454.38</ele>
        <time>2017-08-02T12:57:11Z</time>
      </trkpt>
      <trkpt lat="45.84061" lon="6.78425">
        <ele>2451.5</ele>
        <time>2017-08-02T12:57:19Z</time>
      </trkpt>
      <trkpt lat="45.84055" lon="6.78422">
        <ele>2448.13</ele>
        <time>2017-08-02T12:57:23Z</time>
      </trkpt>
      <trkpt lat="45.84051" lon="6.7842">
        <ele>2446.69</ele>
        <time>2017-08-02T12:57:25Z</time>
      </trkpt>
      <trkpt lat="45.84047" lon="6.78417">
        <ele>2445.73</ele>
        <time>2017-08-02T12:57:28Z</time>
      </trkpt>
      <trkpt lat="45.84045" lon="6.78416">
        <ele>2444.77</ele>
        <time>2017-08-02T12:57:29Z</time>
      </trkpt>
      <trkpt lat="45.84043" lon="6.78416">
        <ele>2444.29</ele>
        <time>2017-08-02T12:57:30Z</time>
      </trkpt>
      <trkpt lat="45.84042" lon="6.78416">
        <ele>2444.29</ele>
        <time>2017-08-02T12:57:31Z</time>
      </trkpt>
      <trkpt lat="45.84036" lon="6.78419">
        <ele>2440.92</ele>
        <time>2017-08-02T12:57:36Z</time>
      </trkpt>
      <trkpt lat="45.84034" lon="6.78419">
        <ele>2440.92</ele>
        <time>2017-08-02T12:57:37Z</time>
      </trkpt>
      <trkpt lat="45.84033" lon="6.78418">
        <ele>2440.44</ele>
        <time>2017-08-02T12:57:38Z</time>
      </trkpt>
      <trkpt lat="45.84032" lon="6.78418">
        <ele>2439.96</ele>
        <time>2017-08-02T12:57:39Z</time>
      </trkpt>
      <trkpt lat="45.84031" lon="6.78418">
        <ele>2439.96</ele>
        <time>2017-08-02T12:57:40Z</time>
      </trkpt>
      <trkpt lat="45.8403" lon="6.78417">
        <ele>2439</ele>
        <time>2017-08-02T12:57:41Z</time>
      </trkpt>
      <trkpt lat="45.84029" lon="6.78416">
        <ele>2439</ele>
        <time>2017-08-02T12:57:42Z</time>
      </trkpt>
      <trkpt lat="45.84028" lon="6.78417">
        <ele>2438.52</ele>
        <time>2017-08-02T12:57:43Z</time>
      </trkpt>
      <trkpt lat="45.84027" lon="6.78417">
        <ele>2438.04</ele>
        <time>2017-08-02T12:57:44Z</time>
      </trkpt>
      <trkpt lat="45.84026" lon="6.78417">
        <ele>2437.56</ele>
        <time>2017-08-02T12:57:46Z</time>
      </trkpt>
      <trkpt lat="45.84026" lon="6.78417">
        <ele>2437.08</ele>
        <time>2017-08-02T12:57:48Z</time>
      </trkpt>
      <trkpt lat="45.84025" lon="6.78418">
        <ele>2436.6</ele>
        <time>2017-08-02T12:57:49Z</time>
      </trkpt>
      <trkpt lat="45.84021" lon="6.7842">
        <ele>2433.23</ele>
        <time>2017-08-02T12:57:54Z</time>
      </trkpt>
      <trkpt lat="45.84019" lon="6.78419">
        <ele>2432.27</ele>
        <time>2017-08-02T12:57:55Z</time>
      </trkpt>
      <trkpt lat="45.84018" lon="6.78419">
        <ele>2431.79</ele>
        <time>2017-08-02T12:57:56Z</time>
      </trkpt>
      <trkpt lat="45.84016" lon="6.78419">
        <ele>2430.83</ele>
        <time>2017-08-02T12:57:57Z</time>
      </trkpt>
      <trkpt lat="45.84015" lon="6.78419">
        <ele>2429.87</ele>
        <time>2017-08-02T12:57:58Z</time>
      </trkpt>
      <trkpt lat="45.84013" lon="6.78419">
        <ele>2429.39</ele>
        <time>2017-08-02T12:57:59Z</time>
      </trkpt>
      <trkpt lat="45.84011" lon="6.78419">
        <ele>2429.39</ele>
        <time>2017-08-02T12:58:00Z</time>
      </trkpt>
      <trkpt lat="45.8401" lon="6.7842">
        <ele>2429.39</ele>
        <time>2017-08-02T12:58:01Z</time>
      </trkpt>
      <trkpt lat="45.84009" lon="6.78421">
        <ele>2429.39</ele>
        <time>2017-08-02T12:58:02Z</time>
      </trkpt>
      <trkpt lat="45.84008" lon="6.78423">
        <ele>2428.91</ele>
        <time>2017-08-02T12:58:03Z</time>
      </trkpt>
      <trkpt lat="45.84007" lon="6.78424">
        <ele>2428.43</ele>
        <time>2017-08-02T12:58:04Z</time>
      </trkpt>
      <trkpt lat="45.84006" lon="6.78425">
        <ele>2427.95</ele>
        <time>2017-08-02T12:58:05Z</time>
      </trkpt>
      <trkpt lat="45.84004" lon="6.78426">
        <ele>2427.47</ele>
        <time>2017-08-02T12:58:06Z</time>
      </trkpt>
      <trkpt lat="45.84004" lon="6.78426">
        <ele>2426.99</ele>
        <time>2017-08-02T12:58:07Z</time>
      </trkpt>
      <trkpt lat="45.84003" lon="6.78425">
        <ele>2426.99</ele>
        <time>2017-08-02T12:58:08Z</time>
      </trkpt>
      <trkpt lat="45.84001" lon="6.78425">
        <ele>2426.02</ele>
        <time>2017-08-02T12:58:09Z</time>
      </trkpt>
      <trkpt lat="45.84001" lon="6.78424">
        <ele>2425.06</ele>
        <time>2017-08-02T12:58:10Z</time>
      </trkpt>
      <trkpt lat="45.84" lon="6.78423">
        <ele>2424.58</ele>
        <time>2017-08-02T12:58:11Z</time>
      </trkpt>
      <trkpt lat="45.83998" lon="6.78423">
        <ele>2423.62</ele>
        <time>2017-08-02T12:58:12Z</time>
      </trkpt>
      <trkpt lat="45.83997" lon="6.78422">
        <ele>2423.14</ele>
        <time>2017-08-02T12:58:13Z</time>
      </trkpt>
      <trkpt lat="45.83996" lon="6.78422">
        <ele>2423.62</ele>
        <time>2017-08-02T12:58:14Z</time>
      </trkpt>
      <trkpt lat="45.83995" lon="6.78422">
        <ele>2423.14</ele>
        <time>2017-08-02T12:58:15Z</time>
      </trkpt>
      <trkpt lat="45.83993" lon="6.7842">
        <ele>2422.18</ele>
        <time>2017-08-02T12:58:16Z</time>
      </trkpt>
      <trkpt lat="45.83991" lon="6.78419">
        <ele>2421.22</ele>
        <time>2017-08-02T12:58:17Z</time>
      </trkpt>
      <trkpt lat="45.8399" lon="6.78418">
        <ele>2420.74</ele>
        <time>2017-08-02T12:58:18Z</time>
      </trkpt>
      <trkpt lat="45.83988" lon="6.78418">
        <ele>2419.78</ele>
        <time>2017-08-02T12:58:19Z</time>
      </trkpt>
      <trkpt lat="45.83987" lon="6.78418">
        <ele>2419.3</ele>
        <time>2017-08-02T12:58:20Z</time>
      </trkpt>
      <trkpt lat="45.83986" lon="6.78417">
        <ele>2418.81</ele>
        <time>2017-08-02T12:58:21Z</time>
      </trkpt>
      <trkpt lat="45.83985" lon="6.78417">
        <ele>2418.81</ele>
        <time>2017-08-02T12:58:22Z</time>
      </trkpt>
      <trkpt lat="45.83982" lon="6.78415">
        <ele>2417.37</ele>
        <time>2017-08-02T12:58:24Z</time>
      </trkpt>
      <trkpt lat="45.83982" lon="6.78413">
        <ele>2416.89</ele>
        <time>2017-08-02T12:58:25Z</time>
      </trkpt>
      <trkpt lat="45.8398" lon="6.7841">
        <ele>2414.49</ele>
        <time>2017-08-02T12:58:27Z</time>
      </trkpt>
      <trkpt lat="45.83979" lon="6.7841">
        <ele>2414.01</ele>
        <time>2017-08-02T12:58:28Z</time>
      </trkpt>
      <trkpt lat="45.8398" lon="6.78408">
        <ele>2414.01</ele>
        <time>2017-08-02T12:58:29Z</time>
      </trkpt>
      <trkpt lat="45.83981" lon="6.78406">
        <ele>2413.53</ele>
        <time>2017-08-02T12:58:30Z</time>
      </trkpt>
      <trkpt lat="45.83981" lon="6.78405">
        <ele>2414.01</ele>
        <time>2017-08-02T12:58:31Z</time>
      </trkpt>
      <trkpt lat="45.8398" lon="6.78405">
        <ele>2413.53</ele>
        <time>2017-08-02T12:58:32Z</time>
      </trkpt>
      <trkpt lat="45.83976" lon="6.78406">
        <ele>2411.6</ele>
        <time>2017-08-02T12:58:36Z</time>
      </trkpt>
      <trkpt lat="45.83974" lon="6.78405">
        <ele>2411.12</ele>
        <time>2017-08-02T12:58:38Z</time>
      </trkpt>
      <trkpt lat="45.83972" lon="6.78405">
        <ele>2410.16</ele>
        <time>2017-08-02T12:58:39Z</time>
      </trkpt>
      <trkpt lat="45.83971" lon="6.78405">
        <ele>2410.16</ele>
        <time>2017-08-02T12:58:40Z</time>
      </trkpt>
      <trkpt lat="45.83969" lon="6.78406">
        <ele>2409.2</ele>
        <time>2017-08-02T12:58:41Z</time>
      </trkpt>
      <trkpt lat="45.83967" lon="6.78409">
        <ele>2408.72</ele>
        <time>2017-08-02T12:58:42Z</time>
      </trkpt>
      <trkpt lat="45.83964" lon="6.7841">
        <ele>2408.72</ele>
        <time>2017-08-02T12:58:43Z</time>
      </trkpt>
      <trkpt lat="45.83963" lon="6.78411">
        <ele>2408.24</ele>
        <time>2017-08-02T12:58:44Z</time>
      </trkpt>
      <trkpt lat="45.83958" lon="6.78411">
        <ele>2408.24</ele>
        <time>2017-08-02T12:58:47Z</time>
      </trkpt>
      <trkpt lat="45.83957" lon="6.78411">
        <ele>2408.24</ele>
        <time>2017-08-02T12:58:48Z</time>
      </trkpt>
      <trkpt lat="45.83954" lon="6.78412">
        <ele>2408.24</ele>
        <time>2017-08-02T12:58:52Z</time>
      </trkpt>
      <trkpt lat="45.83953" lon="6.78414">
        <ele>2406.8</ele>
        <time>2017-08-02T12:58:58Z</time>
      </trkpt>
      <trkpt lat="45.83953" lon="6.78414">
        <ele>2407.28</ele>
        <time>2017-08-02T12:59:03Z</time>
      </trkpt>
      <trkpt lat="45.83955" lon="6.78407">
        <ele>2406.8</ele>
        <time>2017-08-02T12:59:11Z</time>
      </trkpt>
      <trkpt lat="45.83954" lon="6.78402">
        <ele>2406.32</ele>
        <time>2017-08-02T12:59:14Z</time>
      </trkpt>
      <trkpt lat="45.83953" lon="6.784">
        <ele>2405.84</ele>
        <time>2017-08-02T12:59:15Z</time>
      </trkpt>
      <trkpt lat="45.83943" lon="6.78379">
        <ele>2407.28</ele>
        <time>2017-08-02T12:59:28Z</time>
      </trkpt>
      <trkpt lat="45.83941" lon="6.7836">
        <ele>2407.76</ele>
        <time>2017-08-02T12:59:46Z</time>
      </trkpt>
      <trkpt lat="45.83939" lon="6.7835">
        <ele>2405.36</ele>
        <time>2017-08-02T12:59:59Z</time>
      </trkpt>
      <trkpt lat="45.83938" lon="6.78349">
        <ele>2404.88</ele>
        <time>2017-08-02T13:00:00Z</time>
      </trkpt>
      <trkpt lat="45.83937" lon="6.78348">
        <ele>2405.36</ele>
        <time>2017-08-02T13:00:01Z</time>
      </trkpt>
      <trkpt lat="45.83936" lon="6.78348">
        <ele>2405.36</ele>
        <time>2017-08-02T13:00:02Z</time>
      </trkpt>
      <trkpt lat="45.83922" lon="6.78339">
        <ele>2406.32</ele>
        <time>2017-08-02T13:00:18Z</time>
      </trkpt>
      <trkpt lat="45.83918" lon="6.78332">
        <ele>2404.39</ele>
        <time>2017-08-02T13:00:32Z</time>
      </trkpt>
      <trkpt lat="45.83917" lon="6.7833">
        <ele>2404.39</ele>
        <time>2017-08-02T13:00:34Z</time>
      </trkpt>
      <trkpt lat="45.83915" lon="6.78324">
        <ele>2403.43</ele>
        <time>2017-08-02T13:00:42Z</time>
      </trkpt>
      <trkpt lat="45.83908" lon="6.78315">
        <ele>2401.03</ele>
        <time>2017-08-02T13:00:53Z</time>
      </trkpt>
      <trkpt lat="45.83903" lon="6.78313">
        <ele>2397.18</ele>
        <time>2017-08-02T13:00:58Z</time>
      </trkpt>
      <trkpt lat="45.83897" lon="6.78312">
        <ele>2394.3</ele>
        <time>2017-08-02T13:01:03Z</time>
      </trkpt>
      <trkpt lat="45.83896" lon="6.7831">
        <ele>2393.34</ele>
        <time>2017-08-02T13:01:04Z</time>
      </trkpt>
      <trkpt lat="45.83895" lon="6.78309">
        <ele>2392.38</ele>
        <time>2017-08-02T13:01:05Z</time>
      </trkpt>
      <trkpt lat="45.83895" lon="6.78308">
        <ele>2391.9</ele>
        <time>2017-08-02T13:01:06Z</time>
      </trkpt>
      <trkpt lat="45.83894" lon="6.78309">
        <ele>2391.9</ele>
        <time>2017-08-02T13:01:07Z</time>
      </trkpt>
      <trkpt lat="45.83893" lon="6.7831">
        <ele>2391.9</ele>
        <time>2017-08-02T13:01:08Z</time>
      </trkpt>
      <trkpt lat="45.83892" lon="6.78311">
        <ele>2391.42</ele>
        <time>2017-08-02T13:01:09Z</time>
      </trkpt>
      <trkpt lat="45.8389" lon="6.78311">
        <ele>2390.94</ele>
        <time>2017-08-02T13:01:10Z</time>
      </trkpt>
      <trkpt lat="45.83889" lon="6.78309">
        <ele>2389.49</ele>
        <time>2017-08-02T13:01:12Z</time>
      </trkpt>
      <trkpt lat="45.83889" lon="6.78308">
        <ele>2388.53</ele>
        <time>2017-08-02T13:01:13Z</time>
      </trkpt>
      <trkpt lat="45.83888" lon="6.78306">
        <ele>2388.53</ele>
        <time>2017-08-02T13:01:14Z</time>
      </trkpt>
      <trkpt lat="45.83887" lon="6.78306">
        <ele>2388.05</ele>
        <time>2017-08-02T13:01:15Z</time>
      </trkpt>
      <trkpt lat="45.83886" lon="6.78305">
        <ele>2388.05</ele>
        <time>2017-08-02T13:01:16Z</time>
      </trkpt>
      <trkpt lat="45.83884" lon="6.78306">
        <ele>2387.57</ele>
        <time>2017-08-02T13:01:18Z</time>
      </trkpt>
      <trkpt lat="45.83883" lon="6.78307">
        <ele>2387.57</ele>
        <time>2017-08-02T13:01:19Z</time>
      </trkpt>
      <trkpt lat="45.83882" lon="6.78308">
        <ele>2386.61</ele>
        <time>2017-08-02T13:01:20Z</time>
      </trkpt>
      <trkpt lat="45.83881" lon="6.78308">
        <ele>2386.13</ele>
        <time>2017-08-02T13:01:21Z</time>
      </trkpt>
      <trkpt lat="45.8388" lon="6.78308">
        <ele>2385.17</ele>
        <time>2017-08-02T13:01:22Z</time>
      </trkpt>
      <trkpt lat="45.83879" lon="6.78309">
        <ele>2384.69</ele>
        <time>2017-08-02T13:01:23Z</time>
      </trkpt>
      <trkpt lat="45.83876" lon="6.78307">
        <ele>2382.28</ele>
        <time>2017-08-02T13:01:27Z</time>
      </trkpt>
      <trkpt lat="45.83875" lon="6.78305">
        <ele>2381.8</ele>
        <time>2017-08-02T13:01:28Z</time>
      </trkpt>
      <trkpt lat="45.83874" lon="6.78303">
        <ele>2380.84</ele>
        <time>2017-08-02T13:01:29Z</time>
      </trkpt>
      <trkpt lat="45.83874" lon="6.78302">
        <ele>2380.84</ele>
        <time>2017-08-02T13:01:30Z</time>
      </trkpt>
      <trkpt lat="45.83873" lon="6.78301">
        <ele>2380.36</ele>
        <time>2017-08-02T13:01:31Z</time>
      </trkpt>
      <trkpt lat="45.83872" lon="6.78296">
        <ele>2377</ele>
        <time>2017-08-02T13:01:35Z</time>
      </trkpt>
      <trkpt lat="45.8387" lon="6.78295">
        <ele>2377</ele>
        <time>2017-08-02T13:01:37Z</time>
      </trkpt>
      <trkpt lat="45.8387" lon="6.78295">
        <ele>2376.52</ele>
        <time>2017-08-02T13:01:38Z</time>
      </trkpt>
      <trkpt lat="45.83869" lon="6.78295">
        <ele>2376.04</ele>
        <time>2017-08-02T13:01:39Z</time>
      </trkpt>
      <trkpt lat="45.83868" lon="6.78294">
        <ele>2376.04</ele>
        <time>2017-08-02T13:01:40Z</time>
      </trkpt>
      <trkpt lat="45.8387" lon="6.7829">
        <ele>2375.07</ele>
        <time>2017-08-02T13:01:41Z</time>
      </trkpt>
      <trkpt lat="45.83871" lon="6.78288">
        <ele>2374.11</ele>
        <time>2017-08-02T13:01:42Z</time>
      </trkpt>
      <trkpt lat="45.83871" lon="6.78287">
        <ele>2373.15</ele>
        <time>2017-08-02T13:01:43Z</time>
      </trkpt>
      <trkpt lat="45.83867" lon="6.78285">
        <ele>2372.19</ele>
        <time>2017-08-02T13:01:50Z</time>
      </trkpt>
      <trkpt lat="45.83862" lon="6.78282">
        <ele>2369.31</ele>
        <time>2017-08-02T13:01:56Z</time>
      </trkpt>
      <trkpt lat="45.83862" lon="6.78281">
        <ele>2368.35</ele>
        <time>2017-08-02T13:01:57Z</time>
      </trkpt>
      <trkpt lat="45.83863" lon="6.78276">
        <ele>2366.9</ele>
        <time>2017-08-02T13:02:00Z</time>
      </trkpt>
      <trkpt lat="45.83863" lon="6.78275">
        <ele>2366.9</ele>
        <time>2017-08-02T13:02:01Z</time>
      </trkpt>
      <trkpt lat="45.83864" lon="6.78268">
        <ele>2364.02</ele>
        <time>2017-08-02T13:02:12Z</time>
      </trkpt>
      <trkpt lat="45.83864" lon="6.78266">
        <ele>2363.06</ele>
        <time>2017-08-02T13:02:16Z</time>
      </trkpt>
      <trkpt lat="45.83865" lon="6.78265">
        <ele>2363.06</ele>
        <time>2017-08-02T13:02:17Z</time>
      </trkpt>
      <trkpt lat="45.83865" lon="6.78263">
        <ele>2362.58</ele>
        <time>2017-08-02T13:02:18Z</time>
      </trkpt>
      <trkpt lat="45.83871" lon="6.78247">
        <ele>2359.21</ele>
        <time>2017-08-02T13:02:25Z</time>
      </trkpt>
      <trkpt lat="45.83876" lon="6.78236">
        <ele>2356.81</ele>
        <time>2017-08-02T13:02:31Z</time>
      </trkpt>
      <trkpt lat="45.83876" lon="6.78234">
        <ele>2356.81</ele>
        <time>2017-08-02T13:02:32Z</time>
      </trkpt>
      <trkpt lat="45.83877" lon="6.78234">
        <ele>2356.33</ele>
        <time>2017-08-02T13:02:33Z</time>
      </trkpt>
      <trkpt lat="45.83878" lon="6.78233">
        <ele>2356.33</ele>
        <time>2017-08-02T13:02:34Z</time>
      </trkpt>
      <trkpt lat="45.83877" lon="6.78231">
        <ele>2355.37</ele>
        <time>2017-08-02T13:02:37Z</time>
      </trkpt>
      <trkpt lat="45.83876" lon="6.78231">
        <ele>2355.37</ele>
        <time>2017-08-02T13:02:38Z</time>
      </trkpt>
      <trkpt lat="45.83875" lon="6.78231">
        <ele>2354.89</ele>
        <time>2017-08-02T13:02:39Z</time>
      </trkpt>
      <trkpt lat="45.83875" lon="6.7823">
        <ele>2353.93</ele>
        <time>2017-08-02T13:02:40Z</time>
      </trkpt>
      <trkpt lat="45.83874" lon="6.78229">
        <ele>2352.96</ele>
        <time>2017-08-02T13:02:41Z</time>
      </trkpt>
      <trkpt lat="45.83874" lon="6.78227">
        <ele>2352.48</ele>
        <time>2017-08-02T13:02:43Z</time>
      </trkpt>
      <trkpt lat="45.83873" lon="6.78225">
        <ele>2352</ele>
        <time>2017-08-02T13:02:45Z</time>
      </trkpt>
      <trkpt lat="45.83872" lon="6.78224">
        <ele>2351.52</ele>
        <time>2017-08-02T13:02:46Z</time>
      </trkpt>
      <trkpt lat="45.83871" lon="6.78224">
        <ele>2350.56</ele>
        <time>2017-08-02T13:02:47Z</time>
      </trkpt>
      <trkpt lat="45.8387" lon="6.78224">
        <ele>2350.08</ele>
        <time>2017-08-02T13:02:48Z</time>
      </trkpt>
      <trkpt lat="45.83869" lon="6.78223">
        <ele>2349.6</ele>
        <time>2017-08-02T13:02:49Z</time>
      </trkpt>
      <trkpt lat="45.83869" lon="6.78222">
        <ele>2348.64</ele>
        <time>2017-08-02T13:02:50Z</time>
      </trkpt>
      <trkpt lat="45.83868" lon="6.78221">
        <ele>2348.64</ele>
        <time>2017-08-02T13:02:51Z</time>
      </trkpt>
      <trkpt lat="45.83866" lon="6.7822">
        <ele>2348.16</ele>
        <time>2017-08-02T13:02:55Z</time>
      </trkpt>
      <trkpt lat="45.83864" lon="6.78215">
        <ele>2346.23</ele>
        <time>2017-08-02T13:02:58Z</time>
      </trkpt>
      <trkpt lat="45.83865" lon="6.78213">
        <ele>2345.75</ele>
        <time>2017-08-02T13:02:59Z</time>
      </trkpt>
      <trkpt lat="45.83865" lon="6.78209">
        <ele>2345.27</ele>
        <time>2017-08-02T13:03:03Z</time>
      </trkpt>
      <trkpt lat="45.83865" lon="6.78199">
        <ele>2341.91</ele>
        <time>2017-08-02T13:03:15Z</time>
      </trkpt>
      <trkpt lat="45.83863" lon="6.78193">
        <ele>2340.95</ele>
        <time>2017-08-02T13:03:22Z</time>
      </trkpt>
      <trkpt lat="45.83863" lon="6.78192">
        <ele>2339.99</ele>
        <time>2017-08-02T13:03:23Z</time>
      </trkpt>
      <trkpt lat="45.83864" lon="6.7819">
        <ele>2339.51</ele>
        <time>2017-08-02T13:03:24Z</time>
      </trkpt>
      <trkpt lat="45.83864" lon="6.78189">
        <ele>2339.51</ele>
        <time>2017-08-02T13:03:25Z</time>
      </trkpt>
      <trkpt lat="45.83864" lon="6.78188">
        <ele>2339.51</ele>
        <time>2017-08-02T13:03:26Z</time>
      </trkpt>
      <trkpt lat="45.83863" lon="6.78186">
        <ele>2339.02</ele>
        <time>2017-08-02T13:03:27Z</time>
      </trkpt>
      <trkpt lat="45.83863" lon="6.78184">
        <ele>2339.02</ele>
        <time>2017-08-02T13:03:28Z</time>
      </trkpt>
      <trkpt lat="45.83863" lon="6.78182">
        <ele>2339.02</ele>
        <time>2017-08-02T13:03:29Z</time>
      </trkpt>
      <trkpt lat="45.83863" lon="6.78179">
        <ele>2339.02</ele>
        <time>2017-08-02T13:03:30Z</time>
      </trkpt>
      <trkpt lat="45.83863" lon="6.78177">
        <ele>2339.51</ele>
        <time>2017-08-02T13:03:31Z</time>
      </trkpt>
      <trkpt lat="45.83863" lon="6.78176">
        <ele>2339.99</ele>
        <time>2017-08-02T13:03:32Z</time>
      </trkpt>
      <trkpt lat="45.83863" lon="6.78174">
        <ele>2339.99</ele>
        <time>2017-08-02T13:03:33Z</time>
      </trkpt>
      <trkpt lat="45.83864" lon="6.78173">
        <ele>2339.99</ele>
        <time>2017-08-02T13:03:34Z</time>
      </trkpt>
      <trkpt lat="45.83864" lon="6.78171">
        <ele>2339.99</ele>
        <time>2017-08-02T13:03:35Z</time>
      </trkpt>
      <trkpt lat="45.83865" lon="6.7817">
        <ele>2340.47</ele>
        <time>2017-08-02T13:03:36Z</time>
      </trkpt>
      <trkpt lat="45.83867" lon="6.78169">
        <ele>2339.99</ele>
        <time>2017-08-02T13:03:37Z</time>
      </trkpt>
      <trkpt lat="45.83868" lon="6.78168">
        <ele>2339.99</ele>
        <time>2017-08-02T13:03:38Z</time>
      </trkpt>
      <trkpt lat="45.83869" lon="6.78167">
        <ele>2339.99</ele>
        <time>2017-08-02T13:03:39Z</time>
      </trkpt>
      <trkpt lat="45.8387" lon="6.78165">
        <ele>2339.99</ele>
        <time>2017-08-02T13:03:41Z</time>
      </trkpt>
      <trkpt lat="45.83871" lon="6.78163">
        <ele>2339.51</ele>
        <time>2017-08-02T13:03:42Z</time>
      </trkpt>
      <trkpt lat="45.83871" lon="6.78161">
        <ele>2339.51</ele>
        <time>2017-08-02T13:03:43Z</time>
      </trkpt>
      <trkpt lat="45.83872" lon="6.7816">
        <ele>2339.02</ele>
        <time>2017-08-02T13:03:44Z</time>
      </trkpt>
      <trkpt lat="45.83873" lon="6.78159">
        <ele>2339.02</ele>
        <time>2017-08-02T13:03:45Z</time>
      </trkpt>
      <trkpt lat="45.83875" lon="6.78156">
        <ele>2339.02</ele>
        <time>2017-08-02T13:03:49Z</time>
      </trkpt>
      <trkpt lat="45.83878" lon="6.78158">
        <ele>2340.95</ele>
        <time>2017-08-02T13:04:03Z</time>
      </trkpt>
      <trkpt lat="45.83885" lon="6.78153">
        <ele>2342.87</ele>
        <time>2017-08-02T13:04:18Z</time>
      </trkpt>
      <trkpt lat="45.83889" lon="6.78147">
        <ele>2345.75</ele>
        <time>2017-08-02T13:04:31Z</time>
      </trkpt>
      <trkpt lat="45.83888" lon="6.78144">
        <ele>2345.75</ele>
        <time>2017-08-02T13:04:33Z</time>
      </trkpt>
      <trkpt lat="45.83887" lon="6.78139">
        <ele>2345.27</ele>
        <time>2017-08-02T13:04:35Z</time>
      </trkpt>
      <trkpt lat="45.83887" lon="6.78137">
        <ele>2345.27</ele>
        <time>2017-08-02T13:04:36Z</time>
      </trkpt>
      <trkpt lat="45.83889" lon="6.78129">
        <ele>2345.75</ele>
        <time>2017-08-02T13:04:40Z</time>
      </trkpt>
      <trkpt lat="45.8389" lon="6.78128">
        <ele>2345.75</ele>
        <time>2017-08-02T13:04:41Z</time>
      </trkpt>
      <trkpt lat="45.83891" lon="6.78126">
        <ele>2346.23</ele>
        <time>2017-08-02T13:04:42Z</time>
      </trkpt>
      <trkpt lat="45.83892" lon="6.78123">
        <ele>2348.16</ele>
        <time>2017-08-02T13:04:46Z</time>
      </trkpt>
      <trkpt lat="45.83889" lon="6.78106">
        <ele>2347.68</ele>
        <time>2017-08-02T13:05:21Z</time>
      </trkpt>
      <trkpt lat="45.83891" lon="6.78104">
        <ele>2346.23</ele>
        <time>2017-08-02T13:05:24Z</time>
      </trkpt>
      <trkpt lat="45.83891" lon="6.78102">
        <ele>2345.27</ele>
        <time>2017-08-02T13:05:25Z</time>
      </trkpt>
      <trkpt lat="45.83891" lon="6.78097">
        <ele>2342.87</ele>
        <time>2017-08-02T13:05:30Z</time>
      </trkpt>
      <trkpt lat="45.83892" lon="6.78097">
        <ele>2342.39</ele>
        <time>2017-08-02T13:05:31Z</time>
      </trkpt>
      <trkpt lat="45.83894" lon="6.78096">
        <ele>2342.87</ele>
        <time>2017-08-02T13:05:33Z</time>
      </trkpt>
      <trkpt lat="45.83898" lon="6.78093">
        <ele>2342.39</ele>
        <time>2017-08-02T13:05:37Z</time>
      </trkpt>
      <trkpt lat="45.83899" lon="6.78092">
        <ele>2342.39</ele>
        <time>2017-08-02T13:05:41Z</time>
      </trkpt>
      <trkpt lat="45.83898" lon="6.78092">
        <ele>2342.39</ele>
        <time>2017-08-02T13:05:45Z</time>
      </trkpt>
      <trkpt lat="45.83896" lon="6.78093">
        <ele>2341.91</ele>
        <time>2017-08-02T13:05:47Z</time>
      </trkpt>
      <trkpt lat="45.83895" lon="6.78093">
        <ele>2341.43</ele>
        <time>2017-08-02T13:05:48Z</time>
      </trkpt>
      <trkpt lat="45.83894" lon="6.78093">
        <ele>2341.43</ele>
        <time>2017-08-02T13:05:49Z</time>
      </trkpt>
      <trkpt lat="45.83891" lon="6.78091">
        <ele>2339.99</ele>
        <time>2017-08-02T13:05:52Z</time>
      </trkpt>
      <trkpt lat="45.83892" lon="6.78089">
        <ele>2339.51</ele>
        <time>2017-08-02T13:05:53Z</time>
      </trkpt>
      <trkpt lat="45.83892" lon="6.78087">
        <ele>2339.02</ele>
        <time>2017-08-02T13:05:54Z</time>
      </trkpt>
      <trkpt lat="45.83892" lon="6.78086">
        <ele>2339.02</ele>
        <time>2017-08-02T13:05:55Z</time>
      </trkpt>
      <trkpt lat="45.83892" lon="6.78084">
        <ele>2339.02</ele>
        <time>2017-08-02T13:05:56Z</time>
      </trkpt>
      <trkpt lat="45.83893" lon="6.78083">
        <ele>2338.06</ele>
        <time>2017-08-02T13:05:57Z</time>
      </trkpt>
      <trkpt lat="45.83893" lon="6.78082">
        <ele>2337.58</ele>
        <time>2017-08-02T13:05:58Z</time>
      </trkpt>
      <trkpt lat="45.83894" lon="6.78081">
        <ele>2337.58</ele>
        <time>2017-08-02T13:05:59Z</time>
      </trkpt>
      <trkpt lat="45.83894" lon="6.78078">
        <ele>2336.62</ele>
        <time>2017-08-02T13:06:02Z</time>
      </trkpt>
      <trkpt lat="45.83893" lon="6.78078">
        <ele>2336.14</ele>
        <time>2017-08-02T13:06:03Z</time>
      </trkpt>
      <trkpt lat="45.83892" lon="6.78078">
        <ele>2335.66</ele>
        <time>2017-08-02T13:06:04Z</time>
      </trkpt>
      <trkpt lat="45.83891" lon="6.78077">
        <ele>2335.18</ele>
        <time>2017-08-02T13:06:05Z</time>
      </trkpt>
      <trkpt lat="45.83891" lon="6.78075">
        <ele>2334.7</ele>
        <time>2017-08-02T13:06:06Z</time>
      </trkpt>
      <trkpt lat="45.83892" lon="6.78073">
        <ele>2334.22</ele>
        <time>2017-08-02T13:06:07Z</time>
      </trkpt>
      <trkpt lat="45.83892" lon="6.78071">
        <ele>2333.74</ele>
        <time>2017-08-02T13:06:08Z</time>
      </trkpt>
      <trkpt lat="45.83892" lon="6.7807">
        <ele>2333.26</ele>
        <time>2017-08-02T13:06:09Z</time>
      </trkpt>
      <trkpt lat="45.83893" lon="6.78066">
        <ele>2332.78</ele>
        <time>2017-08-02T13:06:11Z</time>
      </trkpt>
      <trkpt lat="45.83892" lon="6.78063">
        <ele>2331.81</ele>
        <time>2017-08-02T13:06:12Z</time>
      </trkpt>
      <trkpt lat="45.83892" lon="6.78061">
        <ele>2331.33</ele>
        <time>2017-08-02T13:06:13Z</time>
      </trkpt>
      <trkpt lat="45.83893" lon="6.78059">
        <ele>2330.85</ele>
        <time>2017-08-02T13:06:14Z</time>
      </trkpt>
      <trkpt lat="45.83894" lon="6.78057">
        <ele>2330.37</ele>
        <time>2017-08-02T13:06:15Z</time>
      </trkpt>
      <trkpt lat="45.83894" lon="6.78056">
        <ele>2330.37</ele>
        <time>2017-08-02T13:06:16Z</time>
      </trkpt>
      <trkpt lat="45.83895" lon="6.78055">
        <ele>2330.37</ele>
        <time>2017-08-02T13:06:17Z</time>
      </trkpt>
      <trkpt lat="45.83892" lon="6.78051">
        <ele>2327.97</ele>
        <time>2017-08-02T13:06:24Z</time>
      </trkpt>
      <trkpt lat="45.83893" lon="6.78049">
        <ele>2327.01</ele>
        <time>2017-08-02T13:06:25Z</time>
      </trkpt>
      <trkpt lat="45.83893" lon="6.78048">
        <ele>2326.05</ele>
        <time>2017-08-02T13:06:26Z</time>
      </trkpt>
      <trkpt lat="45.83894" lon="6.78043">
        <ele>2325.57</ele>
        <time>2017-08-02T13:06:28Z</time>
      </trkpt>
      <trkpt lat="45.83897" lon="6.78037">
        <ele>2324.12</ele>
        <time>2017-08-02T13:06:31Z</time>
      </trkpt>
      <trkpt lat="45.83898" lon="6.78035">
        <ele>2324.12</ele>
        <time>2017-08-02T13:06:32Z</time>
      </trkpt>
      <trkpt lat="45.83901" lon="6.78022">
        <ele>2321.72</ele>
        <time>2017-08-02T13:06:37Z</time>
      </trkpt>
      <trkpt lat="45.83905" lon="6.78007">
        <ele>2318.84</ele>
        <time>2017-08-02T13:06:42Z</time>
      </trkpt>
      <trkpt lat="45.83906" lon="6.78005">
        <ele>2318.84</ele>
        <time>2017-08-02T13:06:43Z</time>
      </trkpt>
      <trkpt lat="45.8391" lon="6.77994">
        <ele>2315.47</ele>
        <time>2017-08-02T13:06:50Z</time>
      </trkpt>
      <trkpt lat="45.8391" lon="6.77993">
        <ele>2314.99</ele>
        <time>2017-08-02T13:06:51Z</time>
      </trkpt>
      <trkpt lat="45.8391" lon="6.77986">
        <ele>2313.07</ele>
        <time>2017-08-02T13:06:55Z</time>
      </trkpt>
      <trkpt lat="45.83911" lon="6.77981">
        <ele>2312.11</ele>
        <time>2017-08-02T13:06:57Z</time>
      </trkpt>
      <trkpt lat="45.8391" lon="6.7798">
        <ele>2311.63</ele>
        <time>2017-08-02T13:06:58Z</time>
      </trkpt>
      <trkpt lat="45.8391" lon="6.77979">
        <ele>2311.15</ele>
        <time>2017-08-02T13:06:59Z</time>
      </trkpt>
      <trkpt lat="45.83909" lon="6.77978">
        <ele>2311.15</ele>
        <time>2017-08-02T13:07:00Z</time>
      </trkpt>
      <trkpt lat="45.83908" lon="6.77977">
        <ele>2311.63</ele>
        <time>2017-08-02T13:07:01Z</time>
      </trkpt>
      <trkpt lat="45.83905" lon="6.77975">
        <ele>2309.7</ele>
        <time>2017-08-02T13:07:04Z</time>
      </trkpt>
      <trkpt lat="45.83904" lon="6.77974">
        <ele>2308.26</ele>
        <time>2017-08-02T13:07:06Z</time>
      </trkpt>
      <trkpt lat="45.83902" lon="6.77974">
        <ele>2307.78</ele>
        <time>2017-08-02T13:07:07Z</time>
      </trkpt>
      <trkpt lat="45.83902" lon="6.77973">
        <ele>2307.3</ele>
        <time>2017-08-02T13:07:08Z</time>
      </trkpt>
      <trkpt lat="45.83901" lon="6.7797">
        <ele>2306.34</ele>
        <time>2017-08-02T13:07:09Z</time>
      </trkpt>
      <trkpt lat="45.83901" lon="6.77968">
        <ele>2305.38</ele>
        <time>2017-08-02T13:07:10Z</time>
      </trkpt>
      <trkpt lat="45.839" lon="6.77966">
        <ele>2304.9</ele>
        <time>2017-08-02T13:07:11Z</time>
      </trkpt>
      <trkpt lat="45.839" lon="6.77963">
        <ele>2304.42</ele>
        <time>2017-08-02T13:07:12Z</time>
      </trkpt>
      <trkpt lat="45.83899" lon="6.77962">
        <ele>2303.46</ele>
        <time>2017-08-02T13:07:13Z</time>
      </trkpt>
      <trkpt lat="45.83899" lon="6.77959">
        <ele>2302.98</ele>
        <time>2017-08-02T13:07:14Z</time>
      </trkpt>
      <trkpt lat="45.839" lon="6.77943">
        <ele>2300.57</ele>
        <time>2017-08-02T13:07:20Z</time>
      </trkpt>
      <trkpt lat="45.83903" lon="6.77934">
        <ele>2299.61</ele>
        <time>2017-08-02T13:07:30Z</time>
      </trkpt>
      <trkpt lat="45.83901" lon="6.77933">
        <ele>2298.17</ele>
        <time>2017-08-02T13:07:49Z</time>
      </trkpt>
      <trkpt lat="45.83901" lon="6.77932">
        <ele>2298.17</ele>
        <time>2017-08-02T13:07:54Z</time>
      </trkpt>
      <trkpt lat="45.83901" lon="6.77929">
        <ele>2295.77</ele>
        <time>2017-08-02T13:08:05Z</time>
      </trkpt>
      <trkpt lat="45.83903" lon="6.77929">
        <ele>2295.77</ele>
        <time>2017-08-02T13:08:06Z</time>
      </trkpt>
      <trkpt lat="45.83904" lon="6.77928">
        <ele>2295.77</ele>
        <time>2017-08-02T13:08:07Z</time>
      </trkpt>
      <trkpt lat="45.83904" lon="6.77927">
        <ele>2295.77</ele>
        <time>2017-08-02T13:08:08Z</time>
      </trkpt>
      <trkpt lat="45.83905" lon="6.77927">
        <ele>2295.77</ele>
        <time>2017-08-02T13:08:09Z</time>
      </trkpt>
      <trkpt lat="45.83906" lon="6.77926">
        <ele>2295.28</ele>
        <time>2017-08-02T13:08:10Z</time>
      </trkpt>
      <trkpt lat="45.83907" lon="6.77925">
        <ele>2295.28</ele>
        <time>2017-08-02T13:08:11Z</time>
      </trkpt>
      <trkpt lat="45.8391" lon="6.77922">
        <ele>2293.84</ele>
        <time>2017-08-02T13:08:14Z</time>
      </trkpt>
      <trkpt lat="45.83913" lon="6.77919">
        <ele>2292.88</ele>
        <time>2017-08-02T13:08:17Z</time>
      </trkpt>
      <trkpt lat="45.83929" lon="6.77909">
        <ele>2291.44</ele>
        <time>2017-08-02T13:08:36Z</time>
      </trkpt>
      <trkpt lat="45.8393" lon="6.77908">
        <ele>2291.44</ele>
        <time>2017-08-02T13:08:37Z</time>
      </trkpt>
      <trkpt lat="45.83932" lon="6.7791">
        <ele>2290.96</ele>
        <time>2017-08-02T13:08:38Z</time>
      </trkpt>
      <trkpt lat="45.83937" lon="6.77912">
        <ele>2290.48</ele>
        <time>2017-08-02T13:08:41Z</time>
      </trkpt>
      <trkpt lat="45.83942" lon="6.77914">
        <ele>2290</ele>
        <time>2017-08-02T13:08:44Z</time>
      </trkpt>
      <trkpt lat="45.83944" lon="6.77916">
        <ele>2289.04</ele>
        <time>2017-08-02T13:08:47Z</time>
      </trkpt>
      <trkpt lat="45.83945" lon="6.77916">
        <ele>2289.04</ele>
        <time>2017-08-02T13:08:48Z</time>
      </trkpt>
      <trkpt lat="45.83946" lon="6.77916">
        <ele>2289.04</ele>
        <time>2017-08-02T13:08:49Z</time>
      </trkpt>
      <trkpt lat="45.83947" lon="6.77916">
        <ele>2288.56</ele>
        <time>2017-08-02T13:08:50Z</time>
      </trkpt>
      <trkpt lat="45.83946" lon="6.77914">
        <ele>2287.59</ele>
        <time>2017-08-02T13:08:52Z</time>
      </trkpt>
      <trkpt lat="45.83947" lon="6.77914">
        <ele>2287.11</ele>
        <time>2017-08-02T13:08:55Z</time>
      </trkpt>
      <trkpt lat="45.83946" lon="6.77912">
        <ele>2286.15</ele>
        <time>2017-08-02T13:08:59Z</time>
      </trkpt>
      <trkpt lat="45.83947" lon="6.7791">
        <ele>2285.67</ele>
        <time>2017-08-02T13:09:00Z</time>
      </trkpt>
      <trkpt lat="45.83946" lon="6.77904">
        <ele>2283.75</ele>
        <time>2017-08-02T13:09:03Z</time>
      </trkpt>
      <trkpt lat="45.83943" lon="6.77899">
        <ele>2282.31</ele>
        <time>2017-08-02T13:09:06Z</time>
      </trkpt>
      <trkpt lat="45.83939" lon="6.77895">
        <ele>2280.87</ele>
        <time>2017-08-02T13:09:10Z</time>
      </trkpt>
      <trkpt lat="45.83938" lon="6.77894">
        <ele>2280.38</ele>
        <time>2017-08-02T13:09:11Z</time>
      </trkpt>
      <trkpt lat="45.83938" lon="6.77892">
        <ele>2279.9</ele>
        <time>2017-08-02T13:09:12Z</time>
      </trkpt>
      <trkpt lat="45.8394" lon="6.77886">
        <ele>2277.02</ele>
        <time>2017-08-02T13:09:21Z</time>
      </trkpt>
      <trkpt lat="45.83939" lon="6.77885">
        <ele>2275.58</ele>
        <time>2017-08-02T13:09:23Z</time>
      </trkpt>
      <trkpt lat="45.83938" lon="6.77885">
        <ele>2275.58</ele>
        <time>2017-08-02T13:09:24Z</time>
      </trkpt>
      <trkpt lat="45.83937" lon="6.77885">
        <ele>2275.58</ele>
        <time>2017-08-02T13:09:25Z</time>
      </trkpt>
      <trkpt lat="45.83938" lon="6.77883">
        <ele>2274.62</ele>
        <time>2017-08-02T13:09:27Z</time>
      </trkpt>
      <trkpt lat="45.8394" lon="6.77883">
        <ele>2273.66</ele>
        <time>2017-08-02T13:09:29Z</time>
      </trkpt>
      <trkpt lat="45.83941" lon="6.77882">
        <ele>2273.17</ele>
        <time>2017-08-02T13:09:30Z</time>
      </trkpt>
      <trkpt lat="45.83942" lon="6.77881">
        <ele>2272.21</ele>
        <time>2017-08-02T13:09:31Z</time>
      </trkpt>
      <trkpt lat="45.83949" lon="6.77881">
        <ele>2269.81</ele>
        <time>2017-08-02T13:09:36Z</time>
      </trkpt>
      <trkpt lat="45.83959" lon="6.77881">
        <ele>2266.45</ele>
        <time>2017-08-02T13:09:45Z</time>
      </trkpt>
      <trkpt lat="45.83962" lon="6.77879">
        <ele>2263.56</ele>
        <time>2017-08-02T13:09:49Z</time>
      </trkpt>
      <trkpt lat="45.83962" lon="6.77878">
        <ele>2262.6</ele>
        <time>2017-08-02T13:09:50Z</time>
      </trkpt>
      <trkpt lat="45.83966" lon="6.77873">
        <ele>2260.2</ele>
        <time>2017-08-02T13:09:55Z</time>
      </trkpt>
      <trkpt lat="45.83967" lon="6.7787">
        <ele>2258.27</ele>
        <time>2017-08-02T13:09:57Z</time>
      </trkpt>
      <trkpt lat="45.83968" lon="6.77868">
        <ele>2256.83</ele>
        <time>2017-08-02T13:09:59Z</time>
      </trkpt>
      <trkpt lat="45.83967" lon="6.77867">
        <ele>2255.87</ele>
        <time>2017-08-02T13:10:00Z</time>
      </trkpt>
      <trkpt lat="45.83966" lon="6.77866">
        <ele>2255.39</ele>
        <time>2017-08-02T13:10:01Z</time>
      </trkpt>
      <trkpt lat="45.83965" lon="6.77865">
        <ele>2254.43</ele>
        <time>2017-08-02T13:10:02Z</time>
      </trkpt>
      <trkpt lat="45.83963" lon="6.77863">
        <ele>2253.95</ele>
        <time>2017-08-02T13:10:03Z</time>
      </trkpt>
      <trkpt lat="45.83959" lon="6.77862">
        <ele>2252.03</ele>
        <time>2017-08-02T13:10:06Z</time>
      </trkpt>
      <trkpt lat="45.83958" lon="6.77862">
        <ele>2250.58</ele>
        <time>2017-08-02T13:10:07Z</time>
      </trkpt>
      <trkpt lat="45.83957" lon="6.77861">
        <ele>2249.62</ele>
        <time>2017-08-02T13:10:08Z</time>
      </trkpt>
      <trkpt lat="45.83956" lon="6.7786">
        <ele>2249.14</ele>
        <time>2017-08-02T13:10:09Z</time>
      </trkpt>
      <trkpt lat="45.83956" lon="6.77858">
        <ele>2248.66</ele>
        <time>2017-08-02T13:10:10Z</time>
      </trkpt>
      <trkpt lat="45.83957" lon="6.77857">
        <ele>2247.7</ele>
        <time>2017-08-02T13:10:11Z</time>
      </trkpt>
      <trkpt lat="45.83959" lon="6.77856">
        <ele>2246.74</ele>
        <time>2017-08-02T13:10:12Z</time>
      </trkpt>
      <trkpt lat="45.83962" lon="6.77855">
        <ele>2245.3</ele>
        <time>2017-08-02T13:10:14Z</time>
      </trkpt>
      <trkpt lat="45.83964" lon="6.77855">
        <ele>2244.82</ele>
        <time>2017-08-02T13:10:15Z</time>
      </trkpt>
      <trkpt lat="45.83966" lon="6.77855">
        <ele>2243.85</ele>
        <time>2017-08-02T13:10:16Z</time>
      </trkpt>
      <trkpt lat="45.83969" lon="6.77853">
        <ele>2242.41</ele>
        <time>2017-08-02T13:10:19Z</time>
      </trkpt>
      <trkpt lat="45.83971" lon="6.77853">
        <ele>2241.93</ele>
        <time>2017-08-02T13:10:20Z</time>
      </trkpt>
      <trkpt lat="45.83972" lon="6.77853">
        <ele>2241.45</ele>
        <time>2017-08-02T13:10:21Z</time>
      </trkpt>
      <trkpt lat="45.83973" lon="6.77854">
        <ele>2240.97</ele>
        <time>2017-08-02T13:10:22Z</time>
      </trkpt>
      <trkpt lat="45.83975" lon="6.77854">
        <ele>2240.97</ele>
        <time>2017-08-02T13:10:23Z</time>
      </trkpt>
      <trkpt lat="45.83976" lon="6.77854">
        <ele>2240.49</ele>
        <time>2017-08-02T13:10:24Z</time>
      </trkpt>
      <trkpt lat="45.83977" lon="6.77855">
        <ele>2240.01</ele>
        <time>2017-08-02T13:10:25Z</time>
      </trkpt>
      <trkpt lat="45.83978" lon="6.77856">
        <ele>2239.05</ele>
        <time>2017-08-02T13:10:26Z</time>
      </trkpt>
      <trkpt lat="45.83979" lon="6.77855">
        <ele>2238.57</ele>
        <time>2017-08-02T13:10:27Z</time>
      </trkpt>
      <trkpt lat="45.83981" lon="6.77855">
        <ele>2238.57</ele>
        <time>2017-08-02T13:10:28Z</time>
      </trkpt>
      <trkpt lat="45.83982" lon="6.77854">
        <ele>2237.61</ele>
        <time>2017-08-02T13:10:29Z</time>
      </trkpt>
      <trkpt lat="45.83983" lon="6.77854">
        <ele>2236.64</ele>
        <time>2017-08-02T13:10:30Z</time>
      </trkpt>
      <trkpt lat="45.83985" lon="6.77854">
        <ele>2236.16</ele>
        <time>2017-08-02T13:10:31Z</time>
      </trkpt>
      <trkpt lat="45.83987" lon="6.77854">
        <ele>2235.2</ele>
        <time>2017-08-02T13:10:32Z</time>
      </trkpt>
      <trkpt lat="45.8399" lon="6.77849">
        <ele>2231.84</ele>
        <time>2017-08-02T13:10:38Z</time>
      </trkpt>
      <trkpt lat="45.83988" lon="6.77848">
        <ele>2231.84</ele>
        <time>2017-08-02T13:10:39Z</time>
      </trkpt>
      <trkpt lat="45.83987" lon="6.77846">
        <ele>2231.36</ele>
        <time>2017-08-02T13:10:40Z</time>
      </trkpt>
      <trkpt lat="45.83986" lon="6.77845">
        <ele>2230.4</ele>
        <time>2017-08-02T13:10:41Z</time>
      </trkpt>
      <trkpt lat="45.83985" lon="6.77843">
        <ele>2229.92</ele>
        <time>2017-08-02T13:10:42Z</time>
      </trkpt>
      <trkpt lat="45.83984" lon="6.77841">
        <ele>2229.43</ele>
        <time>2017-08-02T13:10:43Z</time>
      </trkpt>
      <trkpt lat="45.83985" lon="6.7784">
        <ele>2228.47</ele>
        <time>2017-08-02T13:10:44Z</time>
      </trkpt>
      <trkpt lat="45.83987" lon="6.7784">
        <ele>2227.99</ele>
        <time>2017-08-02T13:10:45Z</time>
      </trkpt>
      <trkpt lat="45.83989" lon="6.7784">
        <ele>2227.99</ele>
        <time>2017-08-02T13:10:46Z</time>
      </trkpt>
      <trkpt lat="45.8399" lon="6.7784">
        <ele>2227.99</ele>
        <time>2017-08-02T13:10:47Z</time>
      </trkpt>
      <trkpt lat="45.83991" lon="6.77839">
        <ele>2227.51</ele>
        <time>2017-08-02T13:10:48Z</time>
      </trkpt>
      <trkpt lat="45.83992" lon="6.77838">
        <ele>2226.55</ele>
        <time>2017-08-02T13:10:50Z</time>
      </trkpt>
      <trkpt lat="45.83991" lon="6.77837">
        <ele>2226.07</ele>
        <time>2017-08-02T13:10:51Z</time>
      </trkpt>
      <trkpt lat="45.8399" lon="6.77837">
        <ele>2225.59</ele>
        <time>2017-08-02T13:10:52Z</time>
      </trkpt>
      <trkpt lat="45.8399" lon="6.77836">
        <ele>2225.11</ele>
        <time>2017-08-02T13:10:53Z</time>
      </trkpt>
      <trkpt lat="45.83989" lon="6.77835">
        <ele>2225.11</ele>
        <time>2017-08-02T13:10:54Z</time>
      </trkpt>
      <trkpt lat="45.83989" lon="6.77834">
        <ele>2224.63</ele>
        <time>2017-08-02T13:10:55Z</time>
      </trkpt>
      <trkpt lat="45.8399" lon="6.77834">
        <ele>2223.67</ele>
        <time>2017-08-02T13:10:56Z</time>
      </trkpt>
      <trkpt lat="45.83991" lon="6.77833">
        <ele>2223.19</ele>
        <time>2017-08-02T13:10:57Z</time>
      </trkpt>
      <trkpt lat="45.83993" lon="6.77833">
        <ele>2222.71</ele>
        <time>2017-08-02T13:10:58Z</time>
      </trkpt>
      <trkpt lat="45.83994" lon="6.77833">
        <ele>2222.22</ele>
        <time>2017-08-02T13:10:59Z</time>
      </trkpt>
      <trkpt lat="45.83995" lon="6.77834">
        <ele>2221.26</ele>
        <time>2017-08-02T13:11:00Z</time>
      </trkpt>
      <trkpt lat="45.83996" lon="6.77837">
        <ele>2221.26</ele>
        <time>2017-08-02T13:11:01Z</time>
      </trkpt>
      <trkpt lat="45.83999" lon="6.77833">
        <ele>2219.34</ele>
        <time>2017-08-02T13:11:07Z</time>
      </trkpt>
      <trkpt lat="45.83999" lon="6.77832">
        <ele>2218.86</ele>
        <time>2017-08-02T13:11:08Z</time>
      </trkpt>
      <trkpt lat="45.84" lon="6.7783">
        <ele>2217.9</ele>
        <time>2017-08-02T13:11:09Z</time>
      </trkpt>
      <trkpt lat="45.84008" lon="6.77825">
        <ele>2214.53</ele>
        <time>2017-08-02T13:11:15Z</time>
      </trkpt>
      <trkpt lat="45.8401" lon="6.77824">
        <ele>2214.53</ele>
        <time>2017-08-02T13:11:16Z</time>
      </trkpt>
      <trkpt lat="45.84018" lon="6.77826">
        <ele>2214.05</ele>
        <time>2017-08-02T13:11:19Z</time>
      </trkpt>
      <trkpt lat="45.84021" lon="6.77827">
        <ele>2214.05</ele>
        <time>2017-08-02T13:11:20Z</time>
      </trkpt>
      <trkpt lat="45.84037" lon="6.77833">
        <ele>2216.46</ele>
        <time>2017-08-02T13:11:29Z</time>
      </trkpt>
      <trkpt lat="45.84042" lon="6.77833">
        <ele>2217.42</ele>
        <time>2017-08-02T13:11:32Z</time>
      </trkpt>
      <trkpt lat="45.84044" lon="6.77833">
        <ele>2217.42</ele>
        <time>2017-08-02T13:11:33Z</time>
      </trkpt>
      <trkpt lat="45.84049" lon="6.77832">
        <ele>2218.38</ele>
        <time>2017-08-02T13:11:36Z</time>
      </trkpt>
      <trkpt lat="45.8405" lon="6.7783">
        <ele>2217.9</ele>
        <time>2017-08-02T13:11:37Z</time>
      </trkpt>
      <trkpt lat="45.84051" lon="6.77828">
        <ele>2217.9</ele>
        <time>2017-08-02T13:11:38Z</time>
      </trkpt>
      <trkpt lat="45.84054" lon="6.77823">
        <ele>2217.9</ele>
        <time>2017-08-02T13:11:41Z</time>
      </trkpt>
      <trkpt lat="45.84054" lon="6.77822">
        <ele>2217.9</ele>
        <time>2017-08-02T13:11:42Z</time>
      </trkpt>
      <trkpt lat="45.84055" lon="6.7782">
        <ele>2217.42</ele>
        <time>2017-08-02T13:11:43Z</time>
      </trkpt>
      <trkpt lat="45.84055" lon="6.77819">
        <ele>2216.94</ele>
        <time>2017-08-02T13:11:44Z</time>
      </trkpt>
      <trkpt lat="45.84056" lon="6.77819">
        <ele>2216.94</ele>
        <time>2017-08-02T13:11:45Z</time>
      </trkpt>
      <trkpt lat="45.84059" lon="6.77817">
        <ele>2215.98</ele>
        <time>2017-08-02T13:11:49Z</time>
      </trkpt>
      <trkpt lat="45.8406" lon="6.77816">
        <ele>2215.5</ele>
        <time>2017-08-02T13:11:50Z</time>
      </trkpt>
      <trkpt lat="45.8406" lon="6.77814">
        <ele>2214.53</ele>
        <time>2017-08-02T13:11:51Z</time>
      </trkpt>
      <trkpt lat="45.8406" lon="6.77812">
        <ele>2214.05</ele>
        <time>2017-08-02T13:11:52Z</time>
      </trkpt>
      <trkpt lat="45.8406" lon="6.7781">
        <ele>2213.09</ele>
        <time>2017-08-02T13:11:54Z</time>
      </trkpt>
      <trkpt lat="45.8406" lon="6.77808">
        <ele>2213.09</ele>
        <time>2017-08-02T13:11:55Z</time>
      </trkpt>
      <trkpt lat="45.8406" lon="6.77805">
        <ele>2212.61</ele>
        <time>2017-08-02T13:11:56Z</time>
      </trkpt>
      <trkpt lat="45.8406" lon="6.77803">
        <ele>2212.13</ele>
        <time>2017-08-02T13:11:57Z</time>
      </trkpt>
      <trkpt lat="45.84061" lon="6.77801">
        <ele>2211.65</ele>
        <time>2017-08-02T13:11:58Z</time>
      </trkpt>
      <trkpt lat="45.84062" lon="6.77798">
        <ele>2211.17</ele>
        <time>2017-08-02T13:11:59Z</time>
      </trkpt>
      <trkpt lat="45.84063" lon="6.77796">
        <ele>2211.17</ele>
        <time>2017-08-02T13:12:00Z</time>
      </trkpt>
      <trkpt lat="45.84064" lon="6.77794">
        <ele>2210.69</ele>
        <time>2017-08-02T13:12:01Z</time>
      </trkpt>
      <trkpt lat="45.84065" lon="6.77789">
        <ele>2208.77</ele>
        <time>2017-08-02T13:12:05Z</time>
      </trkpt>
      <trkpt lat="45.84062" lon="6.77794">
        <ele>2208.77</ele>
        <time>2017-08-02T13:12:07Z</time>
      </trkpt>
      <trkpt lat="45.84061" lon="6.77796">
        <ele>2208.77</ele>
        <time>2017-08-02T13:12:08Z</time>
      </trkpt>
      <trkpt lat="45.8406" lon="6.77797">
        <ele>2208.77</ele>
        <time>2017-08-02T13:12:09Z</time>
      </trkpt>
      <trkpt lat="45.84059" lon="6.77798">
        <ele>2208.29</ele>
        <time>2017-08-02T13:12:10Z</time>
      </trkpt>
      <trkpt lat="45.84058" lon="6.77797">
        <ele>2207.81</ele>
        <time>2017-08-02T13:12:11Z</time>
      </trkpt>
      <trkpt lat="45.84058" lon="6.77795">
        <ele>2207.32</ele>
        <time>2017-08-02T13:12:12Z</time>
      </trkpt>
      <trkpt lat="45.84058" lon="6.77792">
        <ele>2205.88</ele>
        <time>2017-08-02T13:12:13Z</time>
      </trkpt>
      <trkpt lat="45.84058" lon="6.77791">
        <ele>2204.92</ele>
        <time>2017-08-02T13:12:16Z</time>
      </trkpt>
      <trkpt lat="45.84057" lon="6.77791">
        <ele>2204.92</ele>
        <time>2017-08-02T13:12:17Z</time>
      </trkpt>
      <trkpt lat="45.84056" lon="6.77791">
        <ele>2204.44</ele>
        <time>2017-08-02T13:12:18Z</time>
      </trkpt>
      <trkpt lat="45.84055" lon="6.7779">
        <ele>2203.48</ele>
        <time>2017-08-02T13:12:19Z</time>
      </trkpt>
      <trkpt lat="45.84055" lon="6.77787">
        <ele>2202.52</ele>
        <time>2017-08-02T13:12:20Z</time>
      </trkpt>
      <trkpt lat="45.84056" lon="6.77784">
        <ele>2202.52</ele>
        <time>2017-08-02T13:12:21Z</time>
      </trkpt>
      <trkpt lat="45.84057" lon="6.77782">
        <ele>2202.04</ele>
        <time>2017-08-02T13:12:22Z</time>
      </trkpt>
      <trkpt lat="45.84058" lon="6.77781">
        <ele>2202.04</ele>
        <time>2017-08-02T13:12:23Z</time>
      </trkpt>
      <trkpt lat="45.84059" lon="6.77779">
        <ele>2201.56</ele>
        <time>2017-08-02T13:12:24Z</time>
      </trkpt>
      <trkpt lat="45.8406" lon="6.77778">
        <ele>2201.08</ele>
        <time>2017-08-02T13:12:25Z</time>
      </trkpt>
      <trkpt lat="45.84062" lon="6.77777">
        <ele>2200.59</ele>
        <time>2017-08-02T13:12:26Z</time>
      </trkpt>
      <trkpt lat="45.84063" lon="6.77776">
        <ele>2200.59</ele>
        <time>2017-08-02T13:12:27Z</time>
      </trkpt>
      <trkpt lat="45.84073" lon="6.77766">
        <ele>2198.19</ele>
        <time>2017-08-02T13:12:34Z</time>
      </trkpt>
      <trkpt lat="45.84075" lon="6.77764">
        <ele>2197.71</ele>
        <time>2017-08-02T13:12:36Z</time>
      </trkpt>
      <trkpt lat="45.84075" lon="6.77763">
        <ele>2197.23</ele>
        <time>2017-08-02T13:12:37Z</time>
      </trkpt>
      <trkpt lat="45.84076" lon="6.77762">
        <ele>2197.23</ele>
        <time>2017-08-02T13:12:38Z</time>
      </trkpt>
      <trkpt lat="45.84078" lon="6.7776">
        <ele>2197.23</ele>
        <time>2017-08-02T13:12:39Z</time>
      </trkpt>
      <trkpt lat="45.84078" lon="6.77759">
        <ele>2196.75</ele>
        <time>2017-08-02T13:12:40Z</time>
      </trkpt>
      <trkpt lat="45.84081" lon="6.77755">
        <ele>2194.35</ele>
        <time>2017-08-02T13:12:48Z</time>
      </trkpt>
      <trkpt lat="45.84082" lon="6.77754">
        <ele>2194.35</ele>
        <time>2017-08-02T13:12:49Z</time>
      </trkpt>
      <trkpt lat="45.84082" lon="6.77752">
        <ele>2193.39</ele>
        <time>2017-08-02T13:12:51Z</time>
      </trkpt>
      <trkpt lat="45.84082" lon="6.7775">
        <ele>2193.87</ele>
        <time>2017-08-02T13:12:52Z</time>
      </trkpt>
      <trkpt lat="45.84082" lon="6.77748">
        <ele>2194.35</ele>
        <time>2017-08-02T13:12:53Z</time>
      </trkpt>
      <trkpt lat="45.84083" lon="6.77731">
        <ele>2196.27</ele>
        <time>2017-08-02T13:13:03Z</time>
      </trkpt>
      <trkpt lat="45.84084" lon="6.77718">
        <ele>2196.27</ele>
        <time>2017-08-02T13:13:07Z</time>
      </trkpt>
      <trkpt lat="45.84086" lon="6.77703">
        <ele>2196.27</ele>
        <time>2017-08-02T13:13:12Z</time>
      </trkpt>
      <trkpt lat="45.84085" lon="6.77684">
        <ele>2197.71</ele>
        <time>2017-08-02T13:13:19Z</time>
      </trkpt>
      <trkpt lat="45.84086" lon="6.77683">
        <ele>2197.71</ele>
        <time>2017-08-02T13:13:20Z</time>
      </trkpt>
      <trkpt lat="45.84086" lon="6.77681">
        <ele>2198.19</ele>
        <time>2017-08-02T13:13:21Z</time>
      </trkpt>
      <trkpt lat="45.84087" lon="6.77677">
        <ele>2199.15</ele>
        <time>2017-08-02T13:13:23Z</time>
      </trkpt>
      <trkpt lat="45.84086" lon="6.77675">
        <ele>2199.15</ele>
        <time>2017-08-02T13:13:24Z</time>
      </trkpt>
      <trkpt lat="45.84086" lon="6.77673">
        <ele>2199.63</ele>
        <time>2017-08-02T13:13:25Z</time>
      </trkpt>
      <trkpt lat="45.84085" lon="6.77672">
        <ele>2199.63</ele>
        <time>2017-08-02T13:13:26Z</time>
      </trkpt>
      <trkpt lat="45.84085" lon="6.77669">
        <ele>2200.11</ele>
        <time>2017-08-02T13:13:27Z</time>
      </trkpt>
      <trkpt lat="45.84085" lon="6.77668">
        <ele>2200.59</ele>
        <time>2017-08-02T13:13:28Z</time>
      </trkpt>
      <trkpt lat="45.84086" lon="6.77667">
        <ele>2200.59</ele>
        <time>2017-08-02T13:13:29Z</time>
      </trkpt>
      <trkpt lat="45.84087" lon="6.77668">
        <ele>2200.59</ele>
        <time>2017-08-02T13:13:30Z</time>
      </trkpt>
      <trkpt lat="45.84088" lon="6.77669">
        <ele>2201.08</ele>
        <time>2017-08-02T13:13:31Z</time>
      </trkpt>
      <trkpt lat="45.84089" lon="6.77669">
        <ele>2202.04</ele>
        <time>2017-08-02T13:13:32Z</time>
      </trkpt>
      <trkpt lat="45.8409" lon="6.7767">
        <ele>2202.04</ele>
        <time>2017-08-02T13:13:33Z</time>
      </trkpt>
      <trkpt lat="45.84091" lon="6.77671">
        <ele>2203</ele>
        <time>2017-08-02T13:13:35Z</time>
      </trkpt>
      <trkpt lat="45.84092" lon="6.77672">
        <ele>2203.48</ele>
        <time>2017-08-02T13:13:36Z</time>
      </trkpt>
      <trkpt lat="45.84092" lon="6.77673">
        <ele>2203.96</ele>
        <time>2017-08-02T13:13:37Z</time>
      </trkpt>
      <trkpt lat="45.84093" lon="6.77674">
        <ele>2203.96</ele>
        <time>2017-08-02T13:13:38Z</time>
      </trkpt>
      <trkpt lat="45.84094" lon="6.77672">
        <ele>2205.4</ele>
        <time>2017-08-02T13:13:42Z</time>
      </trkpt>
      <trkpt lat="45.8409" lon="6.77661">
        <ele>2206.36</ele>
        <time>2017-08-02T13:13:47Z</time>
      </trkpt>
      <trkpt lat="45.84089" lon="6.77659">
        <ele>2206.36</ele>
        <time>2017-08-02T13:13:48Z</time>
      </trkpt>
      <trkpt lat="45.84088" lon="6.77656">
        <ele>2206.36</ele>
        <time>2017-08-02T13:13:49Z</time>
      </trkpt>
      <trkpt lat="45.84089" lon="6.77654">
        <ele>2206.36</ele>
        <time>2017-08-02T13:13:50Z</time>
      </trkpt>
      <trkpt lat="45.84089" lon="6.77653">
        <ele>2206.84</ele>
        <time>2017-08-02T13:13:51Z</time>
      </trkpt>
      <trkpt lat="45.84089" lon="6.7765">
        <ele>2208.29</ele>
        <time>2017-08-02T13:13:55Z</time>
      </trkpt>
      <trkpt lat="45.84089" lon="6.77648">
        <ele>2208.77</ele>
        <time>2017-08-02T13:13:56Z</time>
      </trkpt>
      <trkpt lat="45.84089" lon="6.77646">
        <ele>2208.77</ele>
        <time>2017-08-02T13:13:57Z</time>
      </trkpt>
      <trkpt lat="45.84089" lon="6.77644">
        <ele>2208.77</ele>
        <time>2017-08-02T13:13:58Z</time>
      </trkpt>
      <trkpt lat="45.84088" lon="6.77642">
        <ele>2209.25</ele>
        <time>2017-08-02T13:13:59Z</time>
      </trkpt>
      <trkpt lat="45.84087" lon="6.7764">
        <ele>2209.73</ele>
        <time>2017-08-02T13:14:00Z</time>
      </trkpt>
      <trkpt lat="45.84086" lon="6.77638">
        <ele>2209.73</ele>
        <time>2017-08-02T13:14:01Z</time>
      </trkpt>
      <trkpt lat="45.84077" lon="6.77613">
        <ele>2210.69</ele>
        <time>2017-08-02T13:14:12Z</time>
      </trkpt>
      <trkpt lat="45.84079" lon="6.77609">
        <ele>2211.17</ele>
        <time>2017-08-02T13:14:13Z</time>
      </trkpt>
      <trkpt lat="45.84082" lon="6.77599">
        <ele>2210.69</ele>
        <time>2017-08-02T13:14:18Z</time>
      </trkpt>
      <trkpt lat="45.84082" lon="6.77598">
        <ele>2210.69</ele>
        <time>2017-08-02T13:14:19Z</time>
      </trkpt>
      <trkpt lat="45.84082" lon="6.77596">
        <ele>2210.21</ele>
        <time>2017-08-02T13:14:20Z</time>
      </trkpt>
      <trkpt lat="45.84085" lon="6.77593">
        <ele>2208.77</ele>
        <time>2017-08-02T13:14:29Z</time>
      </trkpt>
      <trkpt lat="45.84084" lon="6.77593">
        <ele>2208.29</ele>
        <time>2017-08-02T13:14:30Z</time>
      </trkpt>
      <trkpt lat="45.84082" lon="6.77593">
        <ele>2207.81</ele>
        <time>2017-08-02T13:14:31Z</time>
      </trkpt>
      <trkpt lat="45.84081" lon="6.77594">
        <ele>2207.32</ele>
        <time>2017-08-02T13:14:32Z</time>
      </trkpt>
      <trkpt lat="45.84078" lon="6.77594">
        <ele>2206.36</ele>
        <time>2017-08-02T13:14:34Z</time>
      </trkpt>
      <trkpt lat="45.84078" lon="6.77593">
        <ele>2205.4</ele>
        <time>2017-08-02T13:14:35Z</time>
      </trkpt>
      <trkpt lat="45.84079" lon="6.77591">
        <ele>2204.92</ele>
        <time>2017-08-02T13:14:36Z</time>
      </trkpt>
      <trkpt lat="45.8408" lon="6.7759">
        <ele>2204.44</ele>
        <time>2017-08-02T13:14:37Z</time>
      </trkpt>
      <trkpt lat="45.8408" lon="6.77588">
        <ele>2203.96</ele>
        <time>2017-08-02T13:14:38Z</time>
      </trkpt>
      <trkpt lat="45.84081" lon="6.77586">
        <ele>2203</ele>
        <time>2017-08-02T13:14:39Z</time>
      </trkpt>
      <trkpt lat="45.84083" lon="6.77584">
        <ele>2202.52</ele>
        <time>2017-08-02T13:14:40Z</time>
      </trkpt>
      <trkpt lat="45.84084" lon="6.77583">
        <ele>2202.04</ele>
        <time>2017-08-02T13:14:41Z</time>
      </trkpt>
      <trkpt lat="45.84086" lon="6.77582">
        <ele>2202.04</ele>
        <time>2017-08-02T13:14:42Z</time>
      </trkpt>
      <trkpt lat="45.84088" lon="6.77582">
        <ele>2202.04</ele>
        <time>2017-08-02T13:14:43Z</time>
      </trkpt>
      <trkpt lat="45.84089" lon="6.77582">
        <ele>2202.04</ele>
        <time>2017-08-02T13:14:44Z</time>
      </trkpt>
      <trkpt lat="45.8409" lon="6.77581">
        <ele>2202.04</ele>
        <time>2017-08-02T13:14:45Z</time>
      </trkpt>
      <trkpt lat="45.84089" lon="6.7758">
        <ele>2201.56</ele>
        <time>2017-08-02T13:14:47Z</time>
      </trkpt>
      <trkpt lat="45.84088" lon="6.77579">
        <ele>2201.08</ele>
        <time>2017-08-02T13:14:48Z</time>
      </trkpt>
      <trkpt lat="45.84087" lon="6.77579">
        <ele>2200.59</ele>
        <time>2017-08-02T13:14:49Z</time>
      </trkpt>
      <trkpt lat="45.84086" lon="6.77578">
        <ele>2200.11</ele>
        <time>2017-08-02T13:14:50Z</time>
      </trkpt>
      <trkpt lat="45.84085" lon="6.77576">
        <ele>2199.63</ele>
        <time>2017-08-02T13:14:51Z</time>
      </trkpt>
      <trkpt lat="45.84086" lon="6.77575">
        <ele>2199.15</ele>
        <time>2017-08-02T13:14:52Z</time>
      </trkpt>
      <trkpt lat="45.84086" lon="6.77573">
        <ele>2198.67</ele>
        <time>2017-08-02T13:14:53Z</time>
      </trkpt>
      <trkpt lat="45.84087" lon="6.77572">
        <ele>2198.19</ele>
        <time>2017-08-02T13:14:54Z</time>
      </trkpt>
      <trkpt lat="45.84087" lon="6.7757">
        <ele>2198.19</ele>
        <time>2017-08-02T13:14:55Z</time>
      </trkpt>
      <trkpt lat="45.84087" lon="6.77569">
        <ele>2196.75</ele>
        <time>2017-08-02T13:14:58Z</time>
      </trkpt>
      <trkpt lat="45.84086" lon="6.77569">
        <ele>2196.75</ele>
        <time>2017-08-02T13:14:59Z</time>
      </trkpt>
      <trkpt lat="45.84086" lon="6.77567">
        <ele>2195.79</ele>
        <time>2017-08-02T13:15:00Z</time>
      </trkpt>
      <trkpt lat="45.84087" lon="6.77565">
        <ele>2195.31</ele>
        <time>2017-08-02T13:15:01Z</time>
      </trkpt>
      <trkpt lat="45.84089" lon="6.77565">
        <ele>2194.83</ele>
        <time>2017-08-02T13:15:02Z</time>
      </trkpt>
      <trkpt lat="45.84091" lon="6.77567">
        <ele>2194.83</ele>
        <time>2017-08-02T13:15:03Z</time>
      </trkpt>
      <trkpt lat="45.84092" lon="6.77569">
        <ele>2193.87</ele>
        <time>2017-08-02T13:15:04Z</time>
      </trkpt>
      <trkpt lat="45.84094" lon="6.77572">
        <ele>2193.39</ele>
        <time>2017-08-02T13:15:05Z</time>
      </trkpt>
      <trkpt lat="45.84095" lon="6.77574">
        <ele>2193.39</ele>
        <time>2017-08-02T13:15:06Z</time>
      </trkpt>
      <trkpt lat="45.84111" lon="6.77587">
        <ele>2192.9</ele>
        <time>2017-08-02T13:15:17Z</time>
      </trkpt>
      <trkpt lat="45.84121" lon="6.7759">
        <ele>2194.83</ele>
        <time>2017-08-02T13:15:23Z</time>
      </trkpt>
      <trkpt lat="45.84122" lon="6.7759">
        <ele>2195.31</ele>
        <time>2017-08-02T13:15:24Z</time>
      </trkpt>
      <trkpt lat="45.84123" lon="6.7759">
        <ele>2195.31</ele>
        <time>2017-08-02T13:15:25Z</time>
      </trkpt>
      <trkpt lat="45.84124" lon="6.7759">
        <ele>2195.79</ele>
        <time>2017-08-02T13:15:26Z</time>
      </trkpt>
      <trkpt lat="45.84129" lon="6.77594">
        <ele>2198.67</ele>
        <time>2017-08-02T13:15:37Z</time>
      </trkpt>
      <trkpt lat="45.84137" lon="6.77593">
        <ele>2200.59</ele>
        <time>2017-08-02T13:15:48Z</time>
      </trkpt>
      <trkpt lat="45.84147" lon="6.77591">
        <ele>2203.96</ele>
        <time>2017-08-02T13:16:02Z</time>
      </trkpt>
      <trkpt lat="45.84158" lon="6.77591">
        <ele>2206.84</ele>
        <time>2017-08-02T13:16:16Z</time>
      </trkpt>
      <trkpt lat="45.84163" lon="6.77592">
        <ele>2210.21</ele>
        <time>2017-08-02T13:16:29Z</time>
      </trkpt>
      <trkpt lat="45.84167" lon="6.77597">
        <ele>2212.13</ele>
        <time>2017-08-02T13:16:39Z</time>
      </trkpt>
      <trkpt lat="45.84173" lon="6.776">
        <ele>2215.01</ele>
        <time>2017-08-02T13:16:52Z</time>
      </trkpt>
      <trkpt lat="45.84173" lon="6.77599">
        <ele>2215.01</ele>
        <time>2017-08-02T13:16:53Z</time>
      </trkpt>
      <trkpt lat="45.84174" lon="6.77598">
        <ele>2215.5</ele>
        <time>2017-08-02T13:16:54Z</time>
      </trkpt>
      <trkpt lat="45.84182" lon="6.77587">
        <ele>2216.46</ele>
        <time>2017-08-02T13:17:08Z</time>
      </trkpt>
      <trkpt lat="45.84182" lon="6.77583">
        <ele>2216.46</ele>
        <time>2017-08-02T13:17:10Z</time>
      </trkpt>
      <trkpt lat="45.84181" lon="6.77581">
        <ele>2216.46</ele>
        <time>2017-08-02T13:17:11Z</time>
      </trkpt>
      <trkpt lat="45.84181" lon="6.77579">
        <ele>2216.46</ele>
        <time>2017-08-02T13:17:12Z</time>
      </trkpt>
      <trkpt lat="45.84179" lon="6.77565">
        <ele>2215.98</ele>
        <time>2017-08-02T13:17:22Z</time>
      </trkpt>
      <trkpt lat="45.84178" lon="6.77563">
        <ele>2215.98</ele>
        <time>2017-08-02T13:17:23Z</time>
      </trkpt>
      <trkpt lat="45.84178" lon="6.77562">
        <ele>2215.98</ele>
        <time>2017-08-02T13:17:24Z</time>
      </trkpt>
      <trkpt lat="45.84178" lon="6.7756">
        <ele>2215.98</ele>
        <time>2017-08-02T13:17:25Z</time>
      </trkpt>
      <trkpt lat="45.84178" lon="6.77559">
        <ele>2215.5</ele>
        <time>2017-08-02T13:17:26Z</time>
      </trkpt>
      <trkpt lat="45.84178" lon="6.77557">
        <ele>2215.5</ele>
        <time>2017-08-02T13:17:27Z</time>
      </trkpt>
      <trkpt lat="45.84177" lon="6.77556">
        <ele>2215.01</ele>
        <time>2017-08-02T13:17:28Z</time>
      </trkpt>
      <trkpt lat="45.84178" lon="6.77552">
        <ele>2213.57</ele>
        <time>2017-08-02T13:17:33Z</time>
      </trkpt>
      <trkpt lat="45.84178" lon="6.77551">
        <ele>2213.09</ele>
        <time>2017-08-02T13:17:36Z</time>
      </trkpt>
      <trkpt lat="45.84181" lon="6.77544">
        <ele>2212.13</ele>
        <time>2017-08-02T13:17:44Z</time>
      </trkpt>
      <trkpt lat="45.84181" lon="6.77539">
        <ele>2212.13</ele>
        <time>2017-08-02T13:17:47Z</time>
      </trkpt>
      <trkpt lat="45.84181" lon="6.77531">
        <ele>2213.57</ele>
        <time>2017-08-02T13:17:54Z</time>
      </trkpt>
      <trkpt lat="45.84181" lon="6.77528">
        <ele>2213.57</ele>
        <time>2017-08-02T13:17:55Z</time>
      </trkpt>
      <trkpt lat="45.8418" lon="6.77527">
        <ele>2213.57</ele>
        <time>2017-08-02T13:17:56Z</time>
      </trkpt>
      <trkpt lat="45.84175" lon="6.77522">
        <ele>2212.61</ele>
        <time>2017-08-02T13:18:02Z</time>
      </trkpt>
      <trkpt lat="45.84174" lon="6.77521">
        <ele>2212.13</ele>
        <time>2017-08-02T13:18:03Z</time>
      </trkpt>
      <trkpt lat="45.84174" lon="6.77519">
        <ele>2211.65</ele>
        <time>2017-08-02T13:18:04Z</time>
      </trkpt>
      <trkpt lat="45.84174" lon="6.77516">
        <ele>2211.17</ele>
        <time>2017-08-02T13:18:05Z</time>
      </trkpt>
      <trkpt lat="45.84174" lon="6.77514">
        <ele>2211.17</ele>
        <time>2017-08-02T13:18:06Z</time>
      </trkpt>
      <trkpt lat="45.84175" lon="6.77512">
        <ele>2211.17</ele>
        <time>2017-08-02T13:18:07Z</time>
      </trkpt>
      <trkpt lat="45.84175" lon="6.7751">
        <ele>2210.69</ele>
        <time>2017-08-02T13:18:08Z</time>
      </trkpt>
      <trkpt lat="45.84177" lon="6.77507">
        <ele>2211.65</ele>
        <time>2017-08-02T13:18:13Z</time>
      </trkpt>
      <trkpt lat="45.84178" lon="6.77507">
        <ele>2211.65</ele>
        <time>2017-08-02T13:18:14Z</time>
      </trkpt>
      <trkpt lat="45.84187" lon="6.77507">
        <ele>2214.53</ele>
        <time>2017-08-02T13:18:28Z</time>
      </trkpt>
      <trkpt lat="45.84192" lon="6.77507">
        <ele>2216.46</ele>
        <time>2017-08-02T13:18:35Z</time>
      </trkpt>
      <trkpt lat="45.84196" lon="6.77505">
        <ele>2217.42</ele>
        <time>2017-08-02T13:18:41Z</time>
      </trkpt>
      <trkpt lat="45.84201" lon="6.77502">
        <ele>2218.86</ele>
        <time>2017-08-02T13:18:47Z</time>
      </trkpt>
      <trkpt lat="45.84217" lon="6.77489">
        <ele>2219.34</ele>
        <time>2017-08-02T13:19:05Z</time>
      </trkpt>
      <trkpt lat="45.84225" lon="6.7748">
        <ele>2220.78</ele>
        <time>2017-08-02T13:19:19Z</time>
      </trkpt>
      <trkpt lat="45.84225" lon="6.77479">
        <ele>2220.78</ele>
        <time>2017-08-02T13:19:20Z</time>
      </trkpt>
      <trkpt lat="45.84225" lon="6.77477">
        <ele>2220.3</ele>
        <time>2017-08-02T13:19:21Z</time>
      </trkpt>
      <trkpt lat="45.84226" lon="6.77476">
        <ele>2220.3</ele>
        <time>2017-08-02T13:19:22Z</time>
      </trkpt>
      <trkpt lat="45.84227" lon="6.77476">
        <ele>2220.3</ele>
        <time>2017-08-02T13:19:28Z</time>
      </trkpt>
      <trkpt lat="45.84227" lon="6.77473">
        <ele>2219.34</ele>
        <time>2017-08-02T13:19:35Z</time>
      </trkpt>
      <trkpt lat="45.84228" lon="6.77471">
        <ele>2217.9</ele>
        <time>2017-08-02T13:19:42Z</time>
      </trkpt>
      <trkpt lat="45.84228" lon="6.77466">
        <ele>2215.5</ele>
        <time>2017-08-02T13:19:49Z</time>
      </trkpt>
      <trkpt lat="45.84229" lon="6.7746">
        <ele>2213.57</ele>
        <time>2017-08-02T13:19:56Z</time>
      </trkpt>
      <trkpt lat="45.84227" lon="6.77457">
        <ele>2210.21</ele>
        <time>2017-08-02T13:20:07Z</time>
      </trkpt>
      <trkpt lat="45.84227" lon="6.77455">
        <ele>2209.25</ele>
        <time>2017-08-02T13:20:09Z</time>
      </trkpt>
      <trkpt lat="45.84228" lon="6.77447">
        <ele>2205.88</ele>
        <time>2017-08-02T13:20:18Z</time>
      </trkpt>
      <trkpt lat="45.84229" lon="6.77445">
        <ele>2205.4</ele>
        <time>2017-08-02T13:20:21Z</time>
      </trkpt>
      <trkpt lat="45.84231" lon="6.77417">
        <ele>2203.96</ele>
        <time>2017-08-02T13:20:32Z</time>
      </trkpt>
      <trkpt lat="45.84232" lon="6.77413">
        <ele>2205.88</ele>
        <time>2017-08-02T13:20:37Z</time>
      </trkpt>
      <trkpt lat="45.84234" lon="6.77411">
        <ele>2206.36</ele>
        <time>2017-08-02T13:20:39Z</time>
      </trkpt>
      <trkpt lat="45.84235" lon="6.77407">
        <ele>2205.88</ele>
        <time>2017-08-02T13:20:42Z</time>
      </trkpt>
      <trkpt lat="45.84239" lon="6.77402">
        <ele>2204.44</ele>
        <time>2017-08-02T13:20:47Z</time>
      </trkpt>
      <trkpt lat="45.84239" lon="6.77398">
        <ele>2203.96</ele>
        <time>2017-08-02T13:20:50Z</time>
      </trkpt>
      <trkpt lat="45.84244" lon="6.774">
        <ele>2201.56</ele>
        <time>2017-08-02T13:21:00Z</time>
      </trkpt>
      <trkpt lat="45.84244" lon="6.774">
        <ele>2201.56</ele>
        <time>2017-08-02T13:21:03Z</time>
      </trkpt>
      <trkpt lat="45.84247" lon="6.77398">
        <ele>2200.59</ele>
        <time>2017-08-02T13:21:09Z</time>
      </trkpt>
      <trkpt lat="45.84253" lon="6.77393">
        <ele>2197.71</ele>
        <time>2017-08-02T13:21:23Z</time>
      </trkpt>
      <trkpt lat="45.84254" lon="6.77393">
        <ele>2197.23</ele>
        <time>2017-08-02T13:21:24Z</time>
      </trkpt>
      <trkpt lat="45.84256" lon="6.77392">
        <ele>2196.27</ele>
        <time>2017-08-02T13:21:25Z</time>
      </trkpt>
      <trkpt lat="45.84258" lon="6.77392">
        <ele>2195.31</ele>
        <time>2017-08-02T13:21:26Z</time>
      </trkpt>
      <trkpt lat="45.8426" lon="6.77391">
        <ele>2194.83</ele>
        <time>2017-08-02T13:21:27Z</time>
      </trkpt>
      <trkpt lat="45.84263" lon="6.77391">
        <ele>2194.83</ele>
        <time>2017-08-02T13:21:28Z</time>
      </trkpt>
      <trkpt lat="45.84266" lon="6.77391">
        <ele>2194.83</ele>
        <time>2017-08-02T13:21:30Z</time>
      </trkpt>
      <trkpt lat="45.84267" lon="6.7739">
        <ele>2194.35</ele>
        <time>2017-08-02T13:21:31Z</time>
      </trkpt>
      <trkpt lat="45.84269" lon="6.7739">
        <ele>2194.35</ele>
        <time>2017-08-02T13:21:32Z</time>
      </trkpt>
      <trkpt lat="45.84268" lon="6.7739">
        <ele>2193.39</ele>
        <time>2017-08-02T13:21:34Z</time>
      </trkpt>
      <trkpt lat="45.84267" lon="6.7739">
        <ele>2192.9</ele>
        <time>2017-08-02T13:21:35Z</time>
      </trkpt>
      <trkpt lat="45.84264" lon="6.77388">
        <ele>2191.94</ele>
        <time>2017-08-02T13:21:38Z</time>
      </trkpt>
      <trkpt lat="45.84265" lon="6.77387">
        <ele>2190.98</ele>
        <time>2017-08-02T13:21:39Z</time>
      </trkpt>
      <trkpt lat="45.84267" lon="6.77386">
        <ele>2190.98</ele>
        <time>2017-08-02T13:21:40Z</time>
      </trkpt>
      <trkpt lat="45.84277" lon="6.77377">
        <ele>2188.1</ele>
        <time>2017-08-02T13:21:45Z</time>
      </trkpt>
      <trkpt lat="45.84279" lon="6.77374">
        <ele>2188.1</ele>
        <time>2017-08-02T13:21:46Z</time>
      </trkpt>
      <trkpt lat="45.84293" lon="6.77358">
        <ele>2186.66</ele>
        <time>2017-08-02T13:21:56Z</time>
      </trkpt>
      <trkpt lat="45.84306" lon="6.77351">
        <ele>2184.25</ele>
        <time>2017-08-02T13:22:06Z</time>
      </trkpt>
      <trkpt lat="45.84306" lon="6.77352">
        <ele>2182.81</ele>
        <time>2017-08-02T13:22:17Z</time>
      </trkpt>
      <trkpt lat="45.84305" lon="6.77353">
        <ele>2182.33</ele>
        <time>2017-08-02T13:22:18Z</time>
      </trkpt>
      <trkpt lat="45.843" lon="6.77351">
        <ele>2178.97</ele>
        <time>2017-08-02T13:22:28Z</time>
      </trkpt>
      <trkpt lat="45.84302" lon="6.77349">
        <ele>2178</ele>
        <time>2017-08-02T13:22:30Z</time>
      </trkpt>
      <trkpt lat="45.84302" lon="6.77347">
        <ele>2178</ele>
        <time>2017-08-02T13:22:31Z</time>
      </trkpt>
      <trkpt lat="45.84302" lon="6.77345">
        <ele>2177.52</ele>
        <time>2017-08-02T13:22:32Z</time>
      </trkpt>
      <trkpt lat="45.843" lon="6.77344">
        <ele>2176.56</ele>
        <time>2017-08-02T13:22:38Z</time>
      </trkpt>
      <trkpt lat="45.84297" lon="6.77343">
        <ele>2174.64</ele>
        <time>2017-08-02T13:22:41Z</time>
      </trkpt>
      <trkpt lat="45.84291" lon="6.77337">
        <ele>2171.27</ele>
        <time>2017-08-02T13:22:49Z</time>
      </trkpt>
      <trkpt lat="45.84291" lon="6.77334">
        <ele>2170.79</ele>
        <time>2017-08-02T13:22:51Z</time>
      </trkpt>
      <trkpt lat="45.84292" lon="6.77333">
        <ele>2170.31</ele>
        <time>2017-08-02T13:22:53Z</time>
      </trkpt>
      <trkpt lat="45.84294" lon="6.77332">
        <ele>2169.35</ele>
        <time>2017-08-02T13:22:54Z</time>
      </trkpt>
      <trkpt lat="45.84295" lon="6.77331">
        <ele>2168.87</ele>
        <time>2017-08-02T13:22:55Z</time>
      </trkpt>
      <trkpt lat="45.843" lon="6.77326">
        <ele>2165.99</ele>
        <time>2017-08-02T13:23:01Z</time>
      </trkpt>
      <trkpt lat="45.84298" lon="6.77325">
        <ele>2165.03</ele>
        <time>2017-08-02T13:23:04Z</time>
      </trkpt>
      <trkpt lat="45.84296" lon="6.77325">
        <ele>2165.03</ele>
        <time>2017-08-02T13:23:05Z</time>
      </trkpt>
      <trkpt lat="45.84294" lon="6.77324">
        <ele>2165.03</ele>
        <time>2017-08-02T13:23:06Z</time>
      </trkpt>
      <trkpt lat="45.84293" lon="6.77323">
        <ele>2164.06</ele>
        <time>2017-08-02T13:23:07Z</time>
      </trkpt>
      <trkpt lat="45.84294" lon="6.77322">
        <ele>2163.58</ele>
        <time>2017-08-02T13:23:08Z</time>
      </trkpt>
      <trkpt lat="45.84295" lon="6.77321">
        <ele>2162.62</ele>
        <time>2017-08-02T13:23:09Z</time>
      </trkpt>
      <trkpt lat="45.84297" lon="6.7732">
        <ele>2162.62</ele>
        <time>2017-08-02T13:23:10Z</time>
      </trkpt>
      <trkpt lat="45.84298" lon="6.77319">
        <ele>2162.14</ele>
        <time>2017-08-02T13:23:11Z</time>
      </trkpt>
      <trkpt lat="45.84299" lon="6.77318">
        <ele>2161.66</ele>
        <time>2017-08-02T13:23:12Z</time>
      </trkpt>
      <trkpt lat="45.843" lon="6.77317">
        <ele>2161.18</ele>
        <time>2017-08-02T13:23:13Z</time>
      </trkpt>
      <trkpt lat="45.84301" lon="6.77315">
        <ele>2160.7</ele>
        <time>2017-08-02T13:23:14Z</time>
      </trkpt>
      <trkpt lat="45.84302" lon="6.77314">
        <ele>2160.7</ele>
        <time>2017-08-02T13:23:15Z</time>
      </trkpt>
      <trkpt lat="45.84303" lon="6.77313">
        <ele>2160.22</ele>
        <time>2017-08-02T13:23:16Z</time>
      </trkpt>
      <trkpt lat="45.84304" lon="6.77312">
        <ele>2159.74</ele>
        <time>2017-08-02T13:23:17Z</time>
      </trkpt>
      <trkpt lat="45.84303" lon="6.7731">
        <ele>2158.78</ele>
        <time>2017-08-02T13:23:20Z</time>
      </trkpt>
      <trkpt lat="45.84302" lon="6.77309">
        <ele>2158.3</ele>
        <time>2017-08-02T13:23:21Z</time>
      </trkpt>
      <trkpt lat="45.84302" lon="6.77307">
        <ele>2157.34</ele>
        <time>2017-08-02T13:23:22Z</time>
      </trkpt>
      <trkpt lat="45.84303" lon="6.77306">
        <ele>2156.86</ele>
        <time>2017-08-02T13:23:23Z</time>
      </trkpt>
      <trkpt lat="45.84304" lon="6.77305">
        <ele>2156.37</ele>
        <time>2017-08-02T13:23:24Z</time>
      </trkpt>
      <trkpt lat="45.84305" lon="6.77306">
        <ele>2155.89</ele>
        <time>2017-08-02T13:23:25Z</time>
      </trkpt>
      <trkpt lat="45.84307" lon="6.77307">
        <ele>2155.41</ele>
        <time>2017-08-02T13:23:26Z</time>
      </trkpt>
      <trkpt lat="45.84309" lon="6.77308">
        <ele>2155.41</ele>
        <time>2017-08-02T13:23:27Z</time>
      </trkpt>
      <trkpt lat="45.84311" lon="6.77309">
        <ele>2154.45</ele>
        <time>2017-08-02T13:23:28Z</time>
      </trkpt>
      <trkpt lat="45.84313" lon="6.77309">
        <ele>2154.45</ele>
        <time>2017-08-02T13:23:29Z</time>
      </trkpt>
      <trkpt lat="45.84315" lon="6.77309">
        <ele>2153.97</ele>
        <time>2017-08-02T13:23:30Z</time>
      </trkpt>
      <trkpt lat="45.84317" lon="6.77308">
        <ele>2153.97</ele>
        <time>2017-08-02T13:23:31Z</time>
      </trkpt>
      <trkpt lat="45.84319" lon="6.77307">
        <ele>2153.49</ele>
        <time>2017-08-02T13:23:32Z</time>
      </trkpt>
      <trkpt lat="45.84321" lon="6.77305">
        <ele>2153.01</ele>
        <time>2017-08-02T13:23:33Z</time>
      </trkpt>
      <trkpt lat="45.84322" lon="6.77304">
        <ele>2153.01</ele>
        <time>2017-08-02T13:23:34Z</time>
      </trkpt>
      <trkpt lat="45.84324" lon="6.77303">
        <ele>2152.53</ele>
        <time>2017-08-02T13:23:35Z</time>
      </trkpt>
      <trkpt lat="45.84324" lon="6.77302">
        <ele>2152.05</ele>
        <time>2017-08-02T13:23:36Z</time>
      </trkpt>
      <trkpt lat="45.84323" lon="6.77301">
        <ele>2151.09</ele>
        <time>2017-08-02T13:23:39Z</time>
      </trkpt>
      <trkpt lat="45.84321" lon="6.77302">
        <ele>2150.61</ele>
        <time>2017-08-02T13:23:40Z</time>
      </trkpt>
      <trkpt lat="45.8432" lon="6.77301">
        <ele>2150.13</ele>
        <time>2017-08-02T13:23:41Z</time>
      </trkpt>
      <trkpt lat="45.8432" lon="6.77299">
        <ele>2150.13</ele>
        <time>2017-08-02T13:23:42Z</time>
      </trkpt>
      <trkpt lat="45.84318" lon="6.77298">
        <ele>2148.68</ele>
        <time>2017-08-02T13:23:49Z</time>
      </trkpt>
      <trkpt lat="45.84317" lon="6.77299">
        <ele>2148.2</ele>
        <time>2017-08-02T13:23:50Z</time>
      </trkpt>
      <trkpt lat="45.84316" lon="6.77298">
        <ele>2147.72</ele>
        <time>2017-08-02T13:23:51Z</time>
      </trkpt>
      <trkpt lat="45.84316" lon="6.77296">
        <ele>2147.24</ele>
        <time>2017-08-02T13:23:52Z</time>
      </trkpt>
      <trkpt lat="45.84316" lon="6.77295">
        <ele>2146.76</ele>
        <time>2017-08-02T13:23:53Z</time>
      </trkpt>
      <trkpt lat="45.84316" lon="6.77294">
        <ele>2145.8</ele>
        <time>2017-08-02T13:23:55Z</time>
      </trkpt>
      <trkpt lat="45.84315" lon="6.77294">
        <ele>2145.8</ele>
        <time>2017-08-02T13:23:56Z</time>
      </trkpt>
      <trkpt lat="45.84313" lon="6.77293">
        <ele>2145.32</ele>
        <time>2017-08-02T13:23:57Z</time>
      </trkpt>
      <trkpt lat="45.84311" lon="6.77291">
        <ele>2144.84</ele>
        <time>2017-08-02T13:23:58Z</time>
      </trkpt>
      <trkpt lat="45.8431" lon="6.7729">
        <ele>2144.36</ele>
        <time>2017-08-02T13:23:59Z</time>
      </trkpt>
      <trkpt lat="45.84309" lon="6.77288">
        <ele>2143.88</ele>
        <time>2017-08-02T13:24:00Z</time>
      </trkpt>
      <trkpt lat="45.84308" lon="6.77286">
        <ele>2143.4</ele>
        <time>2017-08-02T13:24:01Z</time>
      </trkpt>
      <trkpt lat="45.84307" lon="6.77285">
        <ele>2143.4</ele>
        <time>2017-08-02T13:24:02Z</time>
      </trkpt>
      <trkpt lat="45.84306" lon="6.77284">
        <ele>2142.92</ele>
        <time>2017-08-02T13:24:03Z</time>
      </trkpt>
      <trkpt lat="45.84306" lon="6.77282">
        <ele>2142.44</ele>
        <time>2017-08-02T13:24:04Z</time>
      </trkpt>
      <trkpt lat="45.84305" lon="6.77281">
        <ele>2141.95</ele>
        <time>2017-08-02T13:24:05Z</time>
      </trkpt>
      <trkpt lat="45.84305" lon="6.77279">
        <ele>2140.99</ele>
        <time>2017-08-02T13:24:06Z</time>
      </trkpt>
      <trkpt lat="45.84304" lon="6.77278">
        <ele>2140.51</ele>
        <time>2017-08-02T13:24:07Z</time>
      </trkpt>
      <trkpt lat="45.84304" lon="6.77276">
        <ele>2140.03</ele>
        <time>2017-08-02T13:24:08Z</time>
      </trkpt>
      <trkpt lat="45.84304" lon="6.77274">
        <ele>2139.55</ele>
        <time>2017-08-02T13:24:09Z</time>
      </trkpt>
      <trkpt lat="45.84303" lon="6.77273">
        <ele>2138.59</ele>
        <time>2017-08-02T13:24:11Z</time>
      </trkpt>
      <trkpt lat="45.84302" lon="6.77274">
        <ele>2138.59</ele>
        <time>2017-08-02T13:24:12Z</time>
      </trkpt>
      <trkpt lat="45.843" lon="6.77274">
        <ele>2138.11</ele>
        <time>2017-08-02T13:24:13Z</time>
      </trkpt>
      <trkpt lat="45.84299" lon="6.77275">
        <ele>2137.63</ele>
        <time>2017-08-02T13:24:14Z</time>
      </trkpt>
      <trkpt lat="45.84298" lon="6.77276">
        <ele>2137.63</ele>
        <time>2017-08-02T13:24:15Z</time>
      </trkpt>
      <trkpt lat="45.84294" lon="6.77276">
        <ele>2135.71</ele>
        <time>2017-08-02T13:24:20Z</time>
      </trkpt>
      <trkpt lat="45.84293" lon="6.77276">
        <ele>2135.71</ele>
        <time>2017-08-02T13:24:21Z</time>
      </trkpt>
      <trkpt lat="45.84287" lon="6.77273">
        <ele>2132.82</ele>
        <time>2017-08-02T13:24:27Z</time>
      </trkpt>
      <trkpt lat="45.84288" lon="6.77272">
        <ele>2132.34</ele>
        <time>2017-08-02T13:24:28Z</time>
      </trkpt>
      <trkpt lat="45.84291" lon="6.77263">
        <ele>2128.98</ele>
        <time>2017-08-02T13:24:37Z</time>
      </trkpt>
      <trkpt lat="45.84294" lon="6.77256">
        <ele>2126.57</ele>
        <time>2017-08-02T13:24:46Z</time>
      </trkpt>
      <trkpt lat="45.84299" lon="6.77249">
        <ele>2123.69</ele>
        <time>2017-08-02T13:24:54Z</time>
      </trkpt>
      <trkpt lat="45.84302" lon="6.7725">
        <ele>2123.21</ele>
        <time>2017-08-02T13:24:58Z</time>
      </trkpt>
      <trkpt lat="45.84304" lon="6.77251">
        <ele>2122.25</ele>
        <time>2017-08-02T13:24:59Z</time>
      </trkpt>
      <trkpt lat="45.84306" lon="6.77252">
        <ele>2121.77</ele>
        <time>2017-08-02T13:25:00Z</time>
      </trkpt>
      <trkpt lat="45.84317" lon="6.77255">
        <ele>2120.81</ele>
        <time>2017-08-02T13:25:07Z</time>
      </trkpt>
      <trkpt lat="45.84318" lon="6.77255">
        <ele>2120.81</ele>
        <time>2017-08-02T13:25:08Z</time>
      </trkpt>
      <trkpt lat="45.8432" lon="6.77254">
        <ele>2120.81</ele>
        <time>2017-08-02T13:25:09Z</time>
      </trkpt>
      <trkpt lat="45.84328" lon="6.77252">
        <ele>2123.21</ele>
        <time>2017-08-02T13:25:15Z</time>
      </trkpt>
      <trkpt lat="45.8433" lon="6.77251">
        <ele>2123.69</ele>
        <time>2017-08-02T13:25:17Z</time>
      </trkpt>
      <trkpt lat="45.84331" lon="6.7725">
        <ele>2124.17</ele>
        <time>2017-08-02T13:25:18Z</time>
      </trkpt>
      <trkpt lat="45.84335" lon="6.77248">
        <ele>2124.17</ele>
        <time>2017-08-02T13:25:22Z</time>
      </trkpt>
      <trkpt lat="45.84336" lon="6.77247">
        <ele>2124.17</ele>
        <time>2017-08-02T13:25:23Z</time>
      </trkpt>
      <trkpt lat="45.84337" lon="6.77246">
        <ele>2124.17</ele>
        <time>2017-08-02T13:25:24Z</time>
      </trkpt>
      <trkpt lat="45.84338" lon="6.77246">
        <ele>2123.69</ele>
        <time>2017-08-02T13:25:25Z</time>
      </trkpt>
      <trkpt lat="45.8434" lon="6.77246">
        <ele>2123.69</ele>
        <time>2017-08-02T13:25:26Z</time>
      </trkpt>
      <trkpt lat="45.84341" lon="6.77246">
        <ele>2123.21</ele>
        <time>2017-08-02T13:25:27Z</time>
      </trkpt>
      <trkpt lat="45.84342" lon="6.77245">
        <ele>2123.21</ele>
        <time>2017-08-02T13:25:28Z</time>
      </trkpt>
      <trkpt lat="45.84343" lon="6.77245">
        <ele>2123.21</ele>
        <time>2017-08-02T13:25:29Z</time>
      </trkpt>
      <trkpt lat="45.84345" lon="6.77246">
        <ele>2123.21</ele>
        <time>2017-08-02T13:25:30Z</time>
      </trkpt>
      <trkpt lat="45.84346" lon="6.77247">
        <ele>2123.21</ele>
        <time>2017-08-02T13:25:31Z</time>
      </trkpt>
      <trkpt lat="45.84347" lon="6.77247">
        <ele>2123.21</ele>
        <time>2017-08-02T13:25:32Z</time>
      </trkpt>
      <trkpt lat="45.84348" lon="6.77248">
        <ele>2123.69</ele>
        <time>2017-08-02T13:25:33Z</time>
      </trkpt>
      <trkpt lat="45.84353" lon="6.7725">
        <ele>2126.09</ele>
        <time>2017-08-02T13:25:41Z</time>
      </trkpt>
      <trkpt lat="45.84365" lon="6.77258">
        <ele>2125.61</ele>
        <time>2017-08-02T13:25:56Z</time>
      </trkpt>
      <trkpt lat="45.84367" lon="6.77258">
        <ele>2126.09</ele>
        <time>2017-08-02T13:25:57Z</time>
      </trkpt>
      <trkpt lat="45.84368" lon="6.77259">
        <ele>2126.09</ele>
        <time>2017-08-02T13:25:58Z</time>
      </trkpt>
      <trkpt lat="45.84369" lon="6.7726">
        <ele>2126.57</ele>
        <time>2017-08-02T13:25:59Z</time>
      </trkpt>
      <trkpt lat="45.84371" lon="6.77263">
        <ele>2126.09</ele>
        <time>2017-08-02T13:26:01Z</time>
      </trkpt>
      <trkpt lat="45.84373" lon="6.77264">
        <ele>2125.61</ele>
        <time>2017-08-02T13:26:03Z</time>
      </trkpt>
      <trkpt lat="45.84373" lon="6.77264">
        <ele>2125.61</ele>
        <time>2017-08-02T13:26:04Z</time>
      </trkpt>
      <trkpt lat="45.84374" lon="6.77264">
        <ele>2125.61</ele>
        <time>2017-08-02T13:26:05Z</time>
      </trkpt>
      <trkpt lat="45.84375" lon="6.77264">
        <ele>2125.61</ele>
        <time>2017-08-02T13:26:06Z</time>
      </trkpt>
      <trkpt lat="45.84378" lon="6.77263">
        <ele>2126.57</ele>
        <time>2017-08-02T13:26:14Z</time>
      </trkpt>
      <trkpt lat="45.84378" lon="6.77261">
        <ele>2126.57</ele>
        <time>2017-08-02T13:26:18Z</time>
      </trkpt>
      <trkpt lat="45.84379" lon="6.7726">
        <ele>2127.05</ele>
        <time>2017-08-02T13:26:19Z</time>
      </trkpt>
      <trkpt lat="45.84382" lon="6.7725">
        <ele>2125.61</ele>
        <time>2017-08-02T13:26:25Z</time>
      </trkpt>
      <trkpt lat="45.84386" lon="6.77245">
        <ele>2124.65</ele>
        <time>2017-08-02T13:26:30Z</time>
      </trkpt>
      <trkpt lat="45.84392" lon="6.77234">
        <ele>2122.73</ele>
        <time>2017-08-02T13:26:35Z</time>
      </trkpt>
      <trkpt lat="45.84393" lon="6.77233">
        <ele>2122.73</ele>
        <time>2017-08-02T13:26:36Z</time>
      </trkpt>
      <trkpt lat="45.84394" lon="6.77231">
        <ele>2122.73</ele>
        <time>2017-08-02T13:26:37Z</time>
      </trkpt>
      <trkpt lat="45.84395" lon="6.7723">
        <ele>2122.73</ele>
        <time>2017-08-02T13:26:38Z</time>
      </trkpt>
      <trkpt lat="45.84396" lon="6.77229">
        <ele>2122.73</ele>
        <time>2017-08-02T13:26:39Z</time>
      </trkpt>
      <trkpt lat="45.84398" lon="6.77228">
        <ele>2122.73</ele>
        <time>2017-08-02T13:26:40Z</time>
      </trkpt>
      <trkpt lat="45.84401" lon="6.77228">
        <ele>2122.25</ele>
        <time>2017-08-02T13:26:41Z</time>
      </trkpt>
      <trkpt lat="45.84402" lon="6.77227">
        <ele>2121.77</ele>
        <time>2017-08-02T13:26:42Z</time>
      </trkpt>
      <trkpt lat="45.84404" lon="6.77226">
        <ele>2121.77</ele>
        <time>2017-08-02T13:26:43Z</time>
      </trkpt>
      <trkpt lat="45.84405" lon="6.77224">
        <ele>2121.77</ele>
        <time>2017-08-02T13:26:44Z</time>
      </trkpt>
      <trkpt lat="45.84407" lon="6.77223">
        <ele>2121.77</ele>
        <time>2017-08-02T13:26:45Z</time>
      </trkpt>
      <trkpt lat="45.84422" lon="6.77202">
        <ele>2118.88</ele>
        <time>2017-08-02T13:26:54Z</time>
      </trkpt>
      <trkpt lat="45.84432" lon="6.77187">
        <ele>2117.44</ele>
        <time>2017-08-02T13:27:00Z</time>
      </trkpt>
      <trkpt lat="45.84447" lon="6.7717">
        <ele>2116.96</ele>
        <time>2017-08-02T13:27:08Z</time>
      </trkpt>
      <trkpt lat="45.84456" lon="6.77165">
        <ele>2116</ele>
        <time>2017-08-02T13:27:12Z</time>
      </trkpt>
      <trkpt lat="45.84459" lon="6.77165">
        <ele>2115.52</ele>
        <time>2017-08-02T13:27:13Z</time>
      </trkpt>
      <trkpt lat="45.84462" lon="6.77166">
        <ele>2115.52</ele>
        <time>2017-08-02T13:27:14Z</time>
      </trkpt>
      <trkpt lat="45.84464" lon="6.77168">
        <ele>2115.04</ele>
        <time>2017-08-02T13:27:15Z</time>
      </trkpt>
      <trkpt lat="45.84466" lon="6.7717">
        <ele>2115.04</ele>
        <time>2017-08-02T13:27:16Z</time>
      </trkpt>
      <trkpt lat="45.84467" lon="6.77171">
        <ele>2115.04</ele>
        <time>2017-08-02T13:27:17Z</time>
      </trkpt>
      <trkpt lat="45.84477" lon="6.77177">
        <ele>2114.08</ele>
        <time>2017-08-02T13:27:22Z</time>
      </trkpt>
      <trkpt lat="45.84487" lon="6.77184">
        <ele>2114.56</ele>
        <time>2017-08-02T13:27:27Z</time>
      </trkpt>
      <trkpt lat="45.84496" lon="6.77191">
        <ele>2113.6</ele>
        <time>2017-08-02T13:27:32Z</time>
      </trkpt>
      <trkpt lat="45.84499" lon="6.77192">
        <ele>2113.12</ele>
        <time>2017-08-02T13:27:34Z</time>
      </trkpt>
      <trkpt lat="45.84501" lon="6.77192">
        <ele>2113.12</ele>
        <time>2017-08-02T13:27:35Z</time>
      </trkpt>
      <trkpt lat="45.84522" lon="6.77182">
        <ele>2111.19</ele>
        <time>2017-08-02T13:27:46Z</time>
      </trkpt>
      <trkpt lat="45.8454" lon="6.77174">
        <ele>2109.27</ele>
        <time>2017-08-02T13:27:57Z</time>
      </trkpt>
      <trkpt lat="45.8456" lon="6.7718">
        <ele>2106.39</ele>
        <time>2017-08-02T13:28:06Z</time>
      </trkpt>
      <trkpt lat="45.84566" lon="6.77186">
        <ele>2106.39</ele>
        <time>2017-08-02T13:28:13Z</time>
      </trkpt>
      <trkpt lat="45.84567" lon="6.77185">
        <ele>2105.91</ele>
        <time>2017-08-02T13:28:14Z</time>
      </trkpt>
      <trkpt lat="45.84568" lon="6.77184">
        <ele>2105.42</ele>
        <time>2017-08-02T13:28:15Z</time>
      </trkpt>
      <trkpt lat="45.84569" lon="6.77183">
        <ele>2104.94</ele>
        <time>2017-08-02T13:28:16Z</time>
      </trkpt>
      <trkpt lat="45.84571" lon="6.77182">
        <ele>2104.46</ele>
        <time>2017-08-02T13:28:17Z</time>
      </trkpt>
      <trkpt lat="45.84572" lon="6.77181">
        <ele>2103.98</ele>
        <time>2017-08-02T13:28:18Z</time>
      </trkpt>
      <trkpt lat="45.84574" lon="6.77181">
        <ele>2103.98</ele>
        <time>2017-08-02T13:28:19Z</time>
      </trkpt>
      <trkpt lat="45.84575" lon="6.77181">
        <ele>2103.5</ele>
        <time>2017-08-02T13:28:20Z</time>
      </trkpt>
      <trkpt lat="45.84577" lon="6.77181">
        <ele>2103.02</ele>
        <time>2017-08-02T13:28:21Z</time>
      </trkpt>
      <trkpt lat="45.84579" lon="6.77181">
        <ele>2102.54</ele>
        <time>2017-08-02T13:28:22Z</time>
      </trkpt>
      <trkpt lat="45.84581" lon="6.77181">
        <ele>2101.58</ele>
        <time>2017-08-02T13:28:23Z</time>
      </trkpt>
      <trkpt lat="45.84584" lon="6.7718">
        <ele>2101.1</ele>
        <time>2017-08-02T13:28:24Z</time>
      </trkpt>
      <trkpt lat="45.84586" lon="6.77178">
        <ele>2101.1</ele>
        <time>2017-08-02T13:28:25Z</time>
      </trkpt>
      <trkpt lat="45.84604" lon="6.77168">
        <ele>2101.58</ele>
        <time>2017-08-02T13:28:35Z</time>
      </trkpt>
      <trkpt lat="45.84623" lon="6.77158">
        <ele>2101.58</ele>
        <time>2017-08-02T13:28:44Z</time>
      </trkpt>
      <trkpt lat="45.84643" lon="6.77159">
        <ele>2099.18</ele>
        <time>2017-08-02T13:28:54Z</time>
      </trkpt>
      <trkpt lat="45.84646" lon="6.77159">
        <ele>2099.18</ele>
        <time>2017-08-02T13:28:56Z</time>
      </trkpt>
      <trkpt lat="45.84648" lon="6.77159">
        <ele>2099.18</ele>
        <time>2017-08-02T13:28:57Z</time>
      </trkpt>
      <trkpt lat="45.8465" lon="6.77158">
        <ele>2099.18</ele>
        <time>2017-08-02T13:28:58Z</time>
      </trkpt>
      <trkpt lat="45.84671" lon="6.77152">
        <ele>2096.77</ele>
        <time>2017-08-02T13:29:12Z</time>
      </trkpt>
      <trkpt lat="45.84683" lon="6.77145">
        <ele>2093.89</ele>
        <time>2017-08-02T13:29:19Z</time>
      </trkpt>
      <trkpt lat="45.84684" lon="6.77141">
        <ele>2093.41</ele>
        <time>2017-08-02T13:29:21Z</time>
      </trkpt>
      <trkpt lat="45.84684" lon="6.77139">
        <ele>2093.41</ele>
        <time>2017-08-02T13:29:22Z</time>
      </trkpt>
      <trkpt lat="45.84685" lon="6.77136">
        <ele>2092.45</ele>
        <time>2017-08-02T13:29:23Z</time>
      </trkpt>
      <trkpt lat="45.84686" lon="6.77133">
        <ele>2091.97</ele>
        <time>2017-08-02T13:29:24Z</time>
      </trkpt>
      <trkpt lat="45.84687" lon="6.7713">
        <ele>2091.49</ele>
        <time>2017-08-02T13:29:25Z</time>
      </trkpt>
      <trkpt lat="45.8469" lon="6.77128">
        <ele>2091</ele>
        <time>2017-08-02T13:29:26Z</time>
      </trkpt>
      <trkpt lat="45.84692" lon="6.77127">
        <ele>2091</ele>
        <time>2017-08-02T13:29:27Z</time>
      </trkpt>
      <trkpt lat="45.84693" lon="6.77126">
        <ele>2091</ele>
        <time>2017-08-02T13:29:28Z</time>
      </trkpt>
      <trkpt lat="45.84695" lon="6.77126">
        <ele>2090.52</ele>
        <time>2017-08-02T13:29:29Z</time>
      </trkpt>
      <trkpt lat="45.84697" lon="6.77125">
        <ele>2090.04</ele>
        <time>2017-08-02T13:29:30Z</time>
      </trkpt>
      <trkpt lat="45.84699" lon="6.77124">
        <ele>2089.56</ele>
        <time>2017-08-02T13:29:31Z</time>
      </trkpt>
      <trkpt lat="45.84703" lon="6.77122">
        <ele>2088.6</ele>
        <time>2017-08-02T13:29:34Z</time>
      </trkpt>
      <trkpt lat="45.84705" lon="6.7712">
        <ele>2088.6</ele>
        <time>2017-08-02T13:29:35Z</time>
      </trkpt>
      <trkpt lat="45.84706" lon="6.77118">
        <ele>2088.12</ele>
        <time>2017-08-02T13:29:36Z</time>
      </trkpt>
      <trkpt lat="45.84708" lon="6.77117">
        <ele>2088.12</ele>
        <time>2017-08-02T13:29:37Z</time>
      </trkpt>
      <trkpt lat="45.8471" lon="6.77116">
        <ele>2087.64</ele>
        <time>2017-08-02T13:29:38Z</time>
      </trkpt>
      <trkpt lat="45.84712" lon="6.77116">
        <ele>2086.68</ele>
        <time>2017-08-02T13:29:39Z</time>
      </trkpt>
      <trkpt lat="45.84719" lon="6.77114">
        <ele>2085.24</ele>
        <time>2017-08-02T13:29:42Z</time>
      </trkpt>
      <trkpt lat="45.84728" lon="6.77117">
        <ele>2084.28</ele>
        <time>2017-08-02T13:29:46Z</time>
      </trkpt>
      <trkpt lat="45.84746" lon="6.77121">
        <ele>2084.28</ele>
        <time>2017-08-02T13:29:55Z</time>
      </trkpt>
      <trkpt lat="45.84753" lon="6.77123">
        <ele>2083.79</ele>
        <time>2017-08-02T13:29:58Z</time>
      </trkpt>
      <trkpt lat="45.84758" lon="6.77123">
        <ele>2083.79</ele>
        <time>2017-08-02T13:30:01Z</time>
      </trkpt>
      <trkpt lat="45.8476" lon="6.77122">
        <ele>2083.79</ele>
        <time>2017-08-02T13:30:02Z</time>
      </trkpt>
      <trkpt lat="45.84765" lon="6.7712">
        <ele>2083.79</ele>
        <time>2017-08-02T13:30:05Z</time>
      </trkpt>
      <trkpt lat="45.84767" lon="6.77118">
        <ele>2083.79</ele>
        <time>2017-08-02T13:30:06Z</time>
      </trkpt>
      <trkpt lat="45.84769" lon="6.77117">
        <ele>2083.79</ele>
        <time>2017-08-02T13:30:07Z</time>
      </trkpt>
      <trkpt lat="45.84786" lon="6.77104">
        <ele>2084.28</ele>
        <time>2017-08-02T13:30:18Z</time>
      </trkpt>
      <trkpt lat="45.84788" lon="6.77091">
        <ele>2084.28</ele>
        <time>2017-08-02T13:30:23Z</time>
      </trkpt>
      <trkpt lat="45.84789" lon="6.77089">
        <ele>2084.76</ele>
        <time>2017-08-02T13:30:24Z</time>
      </trkpt>
      <trkpt lat="45.84791" lon="6.77088">
        <ele>2084.76</ele>
        <time>2017-08-02T13:30:25Z</time>
      </trkpt>
      <trkpt lat="45.84811" lon="6.77083">
        <ele>2082.35</ele>
        <time>2017-08-02T13:30:37Z</time>
      </trkpt>
      <trkpt lat="45.8483" lon="6.77074">
        <ele>2080.43</ele>
        <time>2017-08-02T13:30:45Z</time>
      </trkpt>
      <trkpt lat="45.84841" lon="6.77069">
        <ele>2080.43</ele>
        <time>2017-08-02T13:30:50Z</time>
      </trkpt>
      <trkpt lat="45.84847" lon="6.77068">
        <ele>2079.95</ele>
        <time>2017-08-02T13:30:53Z</time>
      </trkpt>
      <trkpt lat="45.84849" lon="6.7707">
        <ele>2079.95</ele>
        <time>2017-08-02T13:30:54Z</time>
      </trkpt>
      <trkpt lat="45.84852" lon="6.77077">
        <ele>2078.51</ele>
        <time>2017-08-02T13:31:00Z</time>
      </trkpt>
      <trkpt lat="45.84852" lon="6.77079">
        <ele>2078.03</ele>
        <time>2017-08-02T13:31:01Z</time>
      </trkpt>
      <trkpt lat="45.84853" lon="6.7708">
        <ele>2078.03</ele>
        <time>2017-08-02T13:31:02Z</time>
      </trkpt>
      <trkpt lat="45.84858" lon="6.77082">
        <ele>2077.07</ele>
        <time>2017-08-02T13:31:06Z</time>
      </trkpt>
      <trkpt lat="45.84865" lon="6.77083">
        <ele>2076.59</ele>
        <time>2017-08-02T13:31:14Z</time>
      </trkpt>
      <trkpt lat="45.84866" lon="6.77084">
        <ele>2076.59</ele>
        <time>2017-08-02T13:31:15Z</time>
      </trkpt>
      <trkpt lat="45.84866" lon="6.77084">
        <ele>2076.59</ele>
        <time>2017-08-02T13:31:16Z</time>
      </trkpt>
      <trkpt lat="45.8488" lon="6.77092">
        <ele>2079.47</ele>
        <time>2017-08-02T13:31:30Z</time>
      </trkpt>
      <trkpt lat="45.84883" lon="6.77092">
        <ele>2080.43</ele>
        <time>2017-08-02T13:31:33Z</time>
      </trkpt>
      <trkpt lat="45.84884" lon="6.77092">
        <ele>2080.43</ele>
        <time>2017-08-02T13:31:34Z</time>
      </trkpt>
      <trkpt lat="45.84885" lon="6.77092">
        <ele>2080.91</ele>
        <time>2017-08-02T13:31:35Z</time>
      </trkpt>
      <trkpt lat="45.84886" lon="6.77092">
        <ele>2080.91</ele>
        <time>2017-08-02T13:31:36Z</time>
      </trkpt>
      <trkpt lat="45.84887" lon="6.77093">
        <ele>2081.39</ele>
        <time>2017-08-02T13:31:37Z</time>
      </trkpt>
      <trkpt lat="45.8489" lon="6.77094">
        <ele>2081.39</ele>
        <time>2017-08-02T13:31:40Z</time>
      </trkpt>
      <trkpt lat="45.84891" lon="6.77094">
        <ele>2081.87</ele>
        <time>2017-08-02T13:31:41Z</time>
      </trkpt>
      <trkpt lat="45.84894" lon="6.77093">
        <ele>2081.87</ele>
        <time>2017-08-02T13:31:44Z</time>
      </trkpt>
      <trkpt lat="45.84895" lon="6.77094">
        <ele>2082.35</ele>
        <time>2017-08-02T13:31:45Z</time>
      </trkpt>
      <trkpt lat="45.84896" lon="6.77094">
        <ele>2082.83</ele>
        <time>2017-08-02T13:31:46Z</time>
      </trkpt>
      <trkpt lat="45.84897" lon="6.77094">
        <ele>2082.83</ele>
        <time>2017-08-02T13:31:47Z</time>
      </trkpt>
      <trkpt lat="45.84898" lon="6.77094">
        <ele>2082.83</ele>
        <time>2017-08-02T13:31:48Z</time>
      </trkpt>
      <trkpt lat="45.849" lon="6.77093">
        <ele>2082.83</ele>
        <time>2017-08-02T13:31:49Z</time>
      </trkpt>
      <trkpt lat="45.84913" lon="6.77088">
        <ele>2086.2</ele>
        <time>2017-08-02T13:32:03Z</time>
      </trkpt>
      <trkpt lat="45.8492" lon="6.77082">
        <ele>2086.68</ele>
        <time>2017-08-02T13:32:12Z</time>
      </trkpt>
      <trkpt lat="45.84921" lon="6.77081">
        <ele>2086.2</ele>
        <time>2017-08-02T13:32:13Z</time>
      </trkpt>
      <trkpt lat="45.84922" lon="6.77079">
        <ele>2085.72</ele>
        <time>2017-08-02T13:32:15Z</time>
      </trkpt>
      <trkpt lat="45.84926" lon="6.77076">
        <ele>2085.72</ele>
        <time>2017-08-02T13:32:18Z</time>
      </trkpt>
      <trkpt lat="45.84932" lon="6.77073">
        <ele>2088.6</ele>
        <time>2017-08-02T13:32:27Z</time>
      </trkpt>
      <trkpt lat="45.84952" lon="6.77064">
        <ele>2088.6</ele>
        <time>2017-08-02T13:32:38Z</time>
      </trkpt>
      <trkpt lat="45.84969" lon="6.77055">
        <ele>2089.56</ele>
        <time>2017-08-02T13:32:48Z</time>
      </trkpt>
      <trkpt lat="45.8497" lon="6.77056">
        <ele>2089.56</ele>
        <time>2017-08-02T13:32:49Z</time>
      </trkpt>
      <trkpt lat="45.84982" lon="6.77058">
        <ele>2088.6</ele>
        <time>2017-08-02T13:32:56Z</time>
      </trkpt>
      <trkpt lat="45.84983" lon="6.77056">
        <ele>2088.6</ele>
        <time>2017-08-02T13:32:57Z</time>
      </trkpt>
      <trkpt lat="45.84985" lon="6.77055">
        <ele>2088.6</ele>
        <time>2017-08-02T13:32:58Z</time>
      </trkpt>
      <trkpt lat="45.84986" lon="6.77053">
        <ele>2088.12</ele>
        <time>2017-08-02T13:32:59Z</time>
      </trkpt>
      <trkpt lat="45.84991" lon="6.77048">
        <ele>2087.16</ele>
        <time>2017-08-02T13:33:02Z</time>
      </trkpt>
      <trkpt lat="45.84993" lon="6.77047">
        <ele>2087.16</ele>
        <time>2017-08-02T13:33:03Z</time>
      </trkpt>
      <trkpt lat="45.84995" lon="6.77047">
        <ele>2087.16</ele>
        <time>2017-08-02T13:33:04Z</time>
      </trkpt>
      <trkpt lat="45.84997" lon="6.77046">
        <ele>2087.16</ele>
        <time>2017-08-02T13:33:05Z</time>
      </trkpt>
      <trkpt lat="45.84999" lon="6.77044">
        <ele>2087.16</ele>
        <time>2017-08-02T13:33:06Z</time>
      </trkpt>
      <trkpt lat="45.85002" lon="6.77042">
        <ele>2086.68</ele>
        <time>2017-08-02T13:33:07Z</time>
      </trkpt>
      <trkpt lat="45.85004" lon="6.7704">
        <ele>2086.68</ele>
        <time>2017-08-02T13:33:08Z</time>
      </trkpt>
      <trkpt lat="45.85011" lon="6.77036">
        <ele>2088.12</ele>
        <time>2017-08-02T13:33:11Z</time>
      </trkpt>
      <trkpt lat="45.8502" lon="6.77032">
        <ele>2088.6</ele>
        <time>2017-08-02T13:33:15Z</time>
      </trkpt>
      <trkpt lat="45.85021" lon="6.77029">
        <ele>2088.12</ele>
        <time>2017-08-02T13:33:16Z</time>
      </trkpt>
      <trkpt lat="45.85025" lon="6.77021">
        <ele>2084.28</ele>
        <time>2017-08-02T13:33:20Z</time>
      </trkpt>
      <trkpt lat="45.85027" lon="6.77016">
        <ele>2087.64</ele>
        <time>2017-08-02T13:33:23Z</time>
      </trkpt>
      <trkpt lat="45.85028" lon="6.77015">
        <ele>2089.08</ele>
        <time>2017-08-02T13:33:24Z</time>
      </trkpt>
      <trkpt lat="45.85029" lon="6.77013">
        <ele>2089.56</ele>
        <time>2017-08-02T13:33:25Z</time>
      </trkpt>
      <trkpt lat="45.85035" lon="6.77006">
        <ele>2089.08</ele>
        <time>2017-08-02T13:33:28Z</time>
      </trkpt>
      <trkpt lat="45.85038" lon="6.77004">
        <ele>2089.56</ele>
        <time>2017-08-02T13:33:29Z</time>
      </trkpt>
      <trkpt lat="45.85042" lon="6.77003">
        <ele>2089.56</ele>
        <time>2017-08-02T13:33:30Z</time>
      </trkpt>
      <trkpt lat="45.85054" lon="6.77002">
        <ele>2087.64</ele>
        <time>2017-08-02T13:33:34Z</time>
      </trkpt>
      <trkpt lat="45.8506" lon="6.77002">
        <ele>2086.68</ele>
        <time>2017-08-02T13:33:38Z</time>
      </trkpt>
      <trkpt lat="45.8506" lon="6.77002">
        <ele>2086.68</ele>
        <time>2017-08-02T13:33:39Z</time>
      </trkpt>
      <trkpt lat="45.85061" lon="6.77">
        <ele>2087.16</ele>
        <time>2017-08-02T13:33:40Z</time>
      </trkpt>
      <trkpt lat="45.85061" lon="6.76999">
        <ele>2087.16</ele>
        <time>2017-08-02T13:33:41Z</time>
      </trkpt>
      <trkpt lat="45.85063" lon="6.76998">
        <ele>2086.68</ele>
        <time>2017-08-02T13:33:46Z</time>
      </trkpt>
      <trkpt lat="45.85064" lon="6.76999">
        <ele>2084.76</ele>
        <time>2017-08-02T13:33:50Z</time>
      </trkpt>
      <trkpt lat="45.85063" lon="6.76999">
        <ele>2084.76</ele>
        <time>2017-08-02T13:33:53Z</time>
      </trkpt>
      <trkpt lat="45.85064" lon="6.76999">
        <ele>2084.76</ele>
        <time>2017-08-02T13:33:55Z</time>
      </trkpt>
      <trkpt lat="45.85064" lon="6.76999">
        <ele>2084.28</ele>
        <time>2017-08-02T13:33:58Z</time>
      </trkpt>
      <trkpt lat="45.85063" lon="6.76999">
        <ele>2085.24</ele>
        <time>2017-08-02T13:34:02Z</time>
      </trkpt>
      <trkpt lat="45.85063" lon="6.76999">
        <ele>2085.24</ele>
        <time>2017-08-02T13:34:03Z</time>
      </trkpt>
      <trkpt lat="45.85062" lon="6.76999">
        <ele>2084.28</ele>
        <time>2017-08-02T13:34:06Z</time>
      </trkpt>
      <trkpt lat="45.85061" lon="6.77">
        <ele>2084.76</ele>
        <time>2017-08-02T13:34:09Z</time>
      </trkpt>
      <trkpt lat="45.8506" lon="6.77">
        <ele>2085.24</ele>
        <time>2017-08-02T13:34:12Z</time>
      </trkpt>
      <trkpt lat="45.8506" lon="6.77">
        <ele>2085.24</ele>
        <time>2017-08-02T13:34:14Z</time>
      </trkpt>
      <trkpt lat="45.8506" lon="6.77">
        <ele>2084.28</ele>
        <time>2017-08-02T13:34:17Z</time>
      </trkpt>
      <trkpt lat="45.8506" lon="6.77">
        <ele>2086.2</ele>
        <time>2017-08-02T13:34:20Z</time>
      </trkpt>
      <trkpt lat="45.8506" lon="6.77">
        <ele>2087.64</ele>
        <time>2017-08-02T13:34:22Z</time>
      </trkpt>
      <trkpt lat="45.8506" lon="6.77">
        <ele>2085.72</ele>
        <time>2017-08-02T13:34:27Z</time>
      </trkpt>
      <trkpt lat="45.85059" lon="6.77">
        <ele>2085.24</ele>
        <time>2017-08-02T13:34:31Z</time>
      </trkpt>
      <trkpt lat="45.85059" lon="6.77">
        <ele>2084.76</ele>
        <time>2017-08-02T13:34:33Z</time>
      </trkpt>
      <trkpt lat="45.8506" lon="6.77">
        <ele>2085.24</ele>
        <time>2017-08-02T13:34:37Z</time>
      </trkpt>
      <trkpt lat="45.8506" lon="6.77">
        <ele>2085.24</ele>
        <time>2017-08-02T13:34:40Z</time>
      </trkpt>
      <trkpt lat="45.85061" lon="6.77">
        <ele>2084.76</ele>
        <time>2017-08-02T13:34:46Z</time>
      </trkpt>
      <trkpt lat="45.85062" lon="6.76999">
        <ele>2084.76</ele>
        <time>2017-08-02T13:35:39Z</time>
      </trkpt>
      <trkpt lat="45.85062" lon="6.76999">
        <ele>2086.2</ele>
        <time>2017-08-02T13:35:46Z</time>
      </trkpt>
      <trkpt lat="45.85062" lon="6.76999">
        <ele>2085.24</ele>
        <time>2017-08-02T13:36:19Z</time>
      </trkpt>
      <trkpt lat="45.85061" lon="6.76999">
        <ele>2085.72</ele>
        <time>2017-08-02T13:36:38Z</time>
      </trkpt>
      <trkpt lat="45.85061" lon="6.76999">
        <ele>2088.12</ele>
        <time>2017-08-02T13:36:42Z</time>
      </trkpt>
      <trkpt lat="45.8506" lon="6.76999">
        <ele>2086.2</ele>
        <time>2017-08-02T13:36:56Z</time>
      </trkpt>
      <trkpt lat="45.8506" lon="6.77">
        <ele>2086.68</ele>
        <time>2017-08-02T13:37:25Z</time>
      </trkpt>
      <trkpt lat="45.8506" lon="6.77">
        <ele>2087.16</ele>
        <time>2017-08-02T13:37:41Z</time>
      </trkpt>
      <trkpt lat="45.85059" lon="6.77">
        <ele>2086.68</ele>
        <time>2017-08-02T13:37:47Z</time>
      </trkpt>
      <trkpt lat="45.85058" lon="6.77">
        <ele>2087.16</ele>
        <time>2017-08-02T13:38:08Z</time>
      </trkpt>
      <trkpt lat="45.85058" lon="6.77">
        <ele>2087.16</ele>
        <time>2017-08-02T13:38:09Z</time>
      </trkpt>
      <trkpt lat="45.85059" lon="6.77">
        <ele>2087.64</ele>
        <time>2017-08-02T13:38:12Z</time>
      </trkpt>
      <trkpt lat="45.85059" lon="6.77">
        <ele>2087.64</ele>
        <time>2017-08-02T13:38:15Z</time>
      </trkpt>
      <trkpt lat="45.8506" lon="6.77001">
        <ele>2089.08</ele>
        <time>2017-08-02T13:38:43Z</time>
      </trkpt>
      <trkpt lat="45.85061" lon="6.76999">
        <ele>2088.6</ele>
        <time>2017-08-02T13:39:12Z</time>
      </trkpt>
      <trkpt lat="45.85061" lon="6.76999">
        <ele>2089.08</ele>
        <time>2017-08-02T13:39:21Z</time>
      </trkpt>
      <trkpt lat="45.85061" lon="6.76999">
        <ele>2086.68</ele>
        <time>2017-08-02T13:40:11Z</time>
      </trkpt>
      <trkpt lat="45.85061" lon="6.76999">
        <ele>2086.2</ele>
        <time>2017-08-02T13:40:17Z</time>
      </trkpt>
      <trkpt lat="45.85061" lon="6.76999">
        <ele>2086.68</ele>
        <time>2017-08-02T13:40:31Z</time>
      </trkpt>
      <trkpt lat="45.85061" lon="6.76999">
        <ele>2086.68</ele>
        <time>2017-08-02T13:40:53Z</time>
      </trkpt>
      <trkpt lat="45.85061" lon="6.76999">
        <ele>2086.2</ele>
        <time>2017-08-02T13:41:20Z</time>
      </trkpt>
      <trkpt lat="45.85061" lon="6.76999">
        <ele>2085.24</ele>
        <time>2017-08-02T13:41:30Z</time>
      </trkpt>
      <trkpt lat="45.85061" lon="6.76999">
        <ele>2087.16</ele>
        <time>2017-08-02T13:41:45Z</time>
      </trkpt>
      <trkpt lat="45.85061" lon="6.76999">
        <ele>2087.16</ele>
        <time>2017-08-02T13:42:21Z</time>
      </trkpt>
      <trkpt lat="45.85061" lon="6.76999">
        <ele>2086.2</ele>
        <time>2017-08-02T13:42:27Z</time>
      </trkpt>
      <trkpt lat="45.85061" lon="6.76999">
        <ele>2085.72</ele>
        <time>2017-08-02T13:42:31Z</time>
      </trkpt>
      <trkpt lat="45.85061" lon="6.77">
        <ele>2086.2</ele>
        <time>2017-08-02T13:42:47Z</time>
      </trkpt>
      <trkpt lat="45.85061" lon="6.77">
        <ele>2086.2</ele>
        <time>2017-08-02T13:42:51Z</time>
      </trkpt>
      <trkpt lat="45.85061" lon="6.77">
        <ele>2086.2</ele>
        <time>2017-08-02T13:42:59Z</time>
      </trkpt>
      <trkpt lat="45.85061" lon="6.77">
        <ele>2086.2</ele>
        <time>2017-08-02T13:43:21Z</time>
      </trkpt>
      <trkpt lat="45.85061" lon="6.77">
        <ele>2086.2</ele>
        <time>2017-08-02T13:43:26Z</time>
      </trkpt>
      <trkpt lat="45.85061" lon="6.77001">
        <ele>2087.16</ele>
        <time>2017-08-02T13:43:31Z</time>
      </trkpt>
      <trkpt lat="45.8506" lon="6.77001">
        <ele>2088.12</ele>
        <time>2017-08-02T13:43:34Z</time>
      </trkpt>
      <trkpt lat="45.85061" lon="6.77001">
        <ele>2087.64</ele>
        <time>2017-08-02T13:43:37Z</time>
      </trkpt>
      <trkpt lat="45.85061" lon="6.76999">
        <ele>2088.12</ele>
        <time>2017-08-02T13:43:40Z</time>
      </trkpt>
      <trkpt lat="45.85061" lon="6.76999">
        <ele>2087.64</ele>
        <time>2017-08-02T13:43:42Z</time>
      </trkpt>
      <trkpt lat="45.85061" lon="6.76999">
        <ele>2087.64</ele>
        <time>2017-08-02T13:43:44Z</time>
      </trkpt>
      <trkpt lat="45.85061" lon="6.76999">
        <ele>2087.64</ele>
        <time>2017-08-02T13:43:46Z</time>
      </trkpt>
      <trkpt lat="45.85061" lon="6.77">
        <ele>2086.2</ele>
        <time>2017-08-02T13:43:59Z</time>
      </trkpt>
      <trkpt lat="45.85061" lon="6.77001">
        <ele>2086.2</ele>
        <time>2017-08-02T13:44:01Z</time>
      </trkpt>
      <trkpt lat="45.85062" lon="6.77004">
        <ele>2086.2</ele>
        <time>2017-08-02T13:44:07Z</time>
      </trkpt>
      <trkpt lat="45.85061" lon="6.77006">
        <ele>2086.2</ele>
        <time>2017-08-02T13:44:08Z</time>
      </trkpt>
      <trkpt lat="45.85061" lon="6.77008">
        <ele>2085.72</ele>
        <time>2017-08-02T13:44:09Z</time>
      </trkpt>
      <trkpt lat="45.85061" lon="6.7701">
        <ele>2085.24</ele>
        <time>2017-08-02T13:44:10Z</time>
      </trkpt>
      <trkpt lat="45.85062" lon="6.77012">
        <ele>2085.24</ele>
        <time>2017-08-02T13:44:11Z</time>
      </trkpt>
      <trkpt lat="45.85064" lon="6.77014">
        <ele>2084.28</ele>
        <time>2017-08-02T13:44:12Z</time>
      </trkpt>
      <trkpt lat="45.85066" lon="6.77016">
        <ele>2083.31</ele>
        <time>2017-08-02T13:44:13Z</time>
      </trkpt>
      <trkpt lat="45.85068" lon="6.77018">
        <ele>2082.35</ele>
        <time>2017-08-02T13:44:14Z</time>
      </trkpt>
      <trkpt lat="45.8507" lon="6.7702">
        <ele>2081.39</ele>
        <time>2017-08-02T13:44:16Z</time>
      </trkpt>
      <trkpt lat="45.85076" lon="6.77027">
        <ele>2080.43</ele>
        <time>2017-08-02T13:44:20Z</time>
      </trkpt>
      <trkpt lat="45.85085" lon="6.77034">
        <ele>2077.55</ele>
        <time>2017-08-02T13:44:24Z</time>
      </trkpt>
      <trkpt lat="45.85092" lon="6.77038">
        <ele>2074.66</ele>
        <time>2017-08-02T13:44:27Z</time>
      </trkpt>
      <trkpt lat="45.85094" lon="6.77042">
        <ele>2073.7</ele>
        <time>2017-08-02T13:44:28Z</time>
      </trkpt>
      <trkpt lat="45.85095" lon="6.77047">
        <ele>2073.22</ele>
        <time>2017-08-02T13:44:29Z</time>
      </trkpt>
      <trkpt lat="45.85096" lon="6.77051">
        <ele>2072.26</ele>
        <time>2017-08-02T13:44:30Z</time>
      </trkpt>
      <trkpt lat="45.85098" lon="6.77056">
        <ele>2072.26</ele>
        <time>2017-08-02T13:44:31Z</time>
      </trkpt>
      <trkpt lat="45.85099" lon="6.7706">
        <ele>2071.78</ele>
        <time>2017-08-02T13:44:32Z</time>
      </trkpt>
      <trkpt lat="45.85102" lon="6.7707">
        <ele>2070.82</ele>
        <time>2017-08-02T13:44:34Z</time>
      </trkpt>
      <trkpt lat="45.85106" lon="6.77083">
        <ele>2067.93</ele>
        <time>2017-08-02T13:44:37Z</time>
      </trkpt>
      <trkpt lat="45.85107" lon="6.77086">
        <ele>2066.97</ele>
        <time>2017-08-02T13:44:38Z</time>
      </trkpt>
      <trkpt lat="45.85108" lon="6.77089">
        <ele>2066.01</ele>
        <time>2017-08-02T13:44:39Z</time>
      </trkpt>
      <trkpt lat="45.85111" lon="6.7709">
        <ele>2065.53</ele>
        <time>2017-08-02T13:44:40Z</time>
      </trkpt>
      <trkpt lat="45.85113" lon="6.77093">
        <ele>2064.57</ele>
        <time>2017-08-02T13:44:41Z</time>
      </trkpt>
      <trkpt lat="45.85115" lon="6.77096">
        <ele>2064.09</ele>
        <time>2017-08-02T13:44:42Z</time>
      </trkpt>
      <trkpt lat="45.85117" lon="6.77099">
        <ele>2063.61</ele>
        <time>2017-08-02T13:44:43Z</time>
      </trkpt>
      <trkpt lat="45.85119" lon="6.77102">
        <ele>2062.65</ele>
        <time>2017-08-02T13:44:44Z</time>
      </trkpt>
      <trkpt lat="45.85124" lon="6.77107">
        <ele>2061.68</ele>
        <time>2017-08-02T13:44:46Z</time>
      </trkpt>
      <trkpt lat="45.85135" lon="6.77119">
        <ele>2058.32</ele>
        <time>2017-08-02T13:44:51Z</time>
      </trkpt>
      <trkpt lat="45.85137" lon="6.77121">
        <ele>2057.84</ele>
        <time>2017-08-02T13:44:52Z</time>
      </trkpt>
      <trkpt lat="45.85139" lon="6.77124">
        <ele>2057.84</ele>
        <time>2017-08-02T13:44:53Z</time>
      </trkpt>
      <trkpt lat="45.85141" lon="6.77127">
        <ele>2056.88</ele>
        <time>2017-08-02T13:44:54Z</time>
      </trkpt>
      <trkpt lat="45.85143" lon="6.77129">
        <ele>2056.4</ele>
        <time>2017-08-02T13:44:55Z</time>
      </trkpt>
      <trkpt lat="45.85144" lon="6.77132">
        <ele>2055.92</ele>
        <time>2017-08-02T13:44:56Z</time>
      </trkpt>
      <trkpt lat="45.85145" lon="6.77133">
        <ele>2055.44</ele>
        <time>2017-08-02T13:44:57Z</time>
      </trkpt>
      <trkpt lat="45.85146" lon="6.77134">
        <ele>2054.96</ele>
        <time>2017-08-02T13:44:58Z</time>
      </trkpt>
      <trkpt lat="45.85147" lon="6.77135">
        <ele>2054.47</ele>
        <time>2017-08-02T13:44:59Z</time>
      </trkpt>
      <trkpt lat="45.85149" lon="6.77137">
        <ele>2053.99</ele>
        <time>2017-08-02T13:45:00Z</time>
      </trkpt>
      <trkpt lat="45.85151" lon="6.77138">
        <ele>2053.51</ele>
        <time>2017-08-02T13:45:01Z</time>
      </trkpt>
      <trkpt lat="45.85151" lon="6.7714">
        <ele>2053.03</ele>
        <time>2017-08-02T13:45:02Z</time>
      </trkpt>
      <trkpt lat="45.85153" lon="6.77141">
        <ele>2052.55</ele>
        <time>2017-08-02T13:45:03Z</time>
      </trkpt>
      <trkpt lat="45.85154" lon="6.77142">
        <ele>2051.59</ele>
        <time>2017-08-02T13:45:04Z</time>
      </trkpt>
      <trkpt lat="45.85155" lon="6.77144">
        <ele>2051.11</ele>
        <time>2017-08-02T13:45:05Z</time>
      </trkpt>
      <trkpt lat="45.85157" lon="6.77144">
        <ele>2050.63</ele>
        <time>2017-08-02T13:45:06Z</time>
      </trkpt>
      <trkpt lat="45.85159" lon="6.77145">
        <ele>2049.67</ele>
        <time>2017-08-02T13:45:07Z</time>
      </trkpt>
      <trkpt lat="45.85161" lon="6.77145">
        <ele>2049.19</ele>
        <time>2017-08-02T13:45:08Z</time>
      </trkpt>
      <trkpt lat="45.85167" lon="6.77147">
        <ele>2047.26</ele>
        <time>2017-08-02T13:45:11Z</time>
      </trkpt>
      <trkpt lat="45.85168" lon="6.77149">
        <ele>2046.78</ele>
        <time>2017-08-02T13:45:12Z</time>
      </trkpt>
      <trkpt lat="45.85169" lon="6.77151">
        <ele>2045.82</ele>
        <time>2017-08-02T13:45:13Z</time>
      </trkpt>
      <trkpt lat="45.85169" lon="6.77152">
        <ele>2045.34</ele>
        <time>2017-08-02T13:45:14Z</time>
      </trkpt>
      <trkpt lat="45.8517" lon="6.77154">
        <ele>2044.86</ele>
        <time>2017-08-02T13:45:15Z</time>
      </trkpt>
      <trkpt lat="45.85171" lon="6.77155">
        <ele>2044.38</ele>
        <time>2017-08-02T13:45:16Z</time>
      </trkpt>
      <trkpt lat="45.85172" lon="6.77155">
        <ele>2043.9</ele>
        <time>2017-08-02T13:45:17Z</time>
      </trkpt>
      <trkpt lat="45.85174" lon="6.77156">
        <ele>2043.42</ele>
        <time>2017-08-02T13:45:18Z</time>
      </trkpt>
      <trkpt lat="45.85176" lon="6.77156">
        <ele>2042.46</ele>
        <time>2017-08-02T13:45:19Z</time>
      </trkpt>
      <trkpt lat="45.85179" lon="6.77158">
        <ele>2041.02</ele>
        <time>2017-08-02T13:45:21Z</time>
      </trkpt>
      <trkpt lat="45.8518" lon="6.77159">
        <ele>2041.02</ele>
        <time>2017-08-02T13:45:22Z</time>
      </trkpt>
      <trkpt lat="45.8518" lon="6.77161">
        <ele>2041.02</ele>
        <time>2017-08-02T13:45:23Z</time>
      </trkpt>
      <trkpt lat="45.85181" lon="6.77163">
        <ele>2040.05</ele>
        <time>2017-08-02T13:45:24Z</time>
      </trkpt>
      <trkpt lat="45.85182" lon="6.77164">
        <ele>2039.57</ele>
        <time>2017-08-02T13:45:25Z</time>
      </trkpt>
      <trkpt lat="45.85184" lon="6.77166">
        <ele>2039.09</ele>
        <time>2017-08-02T13:45:26Z</time>
      </trkpt>
      <trkpt lat="45.85189" lon="6.77171">
        <ele>2036.69</ele>
        <time>2017-08-02T13:45:30Z</time>
      </trkpt>
      <trkpt lat="45.8519" lon="6.77173">
        <ele>2036.21</ele>
        <time>2017-08-02T13:45:31Z</time>
      </trkpt>
      <trkpt lat="45.85191" lon="6.77175">
        <ele>2035.25</ele>
        <time>2017-08-02T13:45:32Z</time>
      </trkpt>
      <trkpt lat="45.85193" lon="6.77176">
        <ele>2034.77</ele>
        <time>2017-08-02T13:45:33Z</time>
      </trkpt>
      <trkpt lat="45.85194" lon="6.77176">
        <ele>2033.81</ele>
        <time>2017-08-02T13:45:34Z</time>
      </trkpt>
      <trkpt lat="45.85205" lon="6.77181">
        <ele>2030.44</ele>
        <time>2017-08-02T13:45:40Z</time>
      </trkpt>
      <trkpt lat="45.85207" lon="6.77182">
        <ele>2030.44</ele>
        <time>2017-08-02T13:45:41Z</time>
      </trkpt>
      <trkpt lat="45.85213" lon="6.77185">
        <ele>2029</ele>
        <time>2017-08-02T13:45:44Z</time>
      </trkpt>
      <trkpt lat="45.85221" lon="6.772">
        <ele>2025.64</ele>
        <time>2017-08-02T13:45:49Z</time>
      </trkpt>
      <trkpt lat="45.85228" lon="6.77206">
        <ele>2023.71</ele>
        <time>2017-08-02T13:45:52Z</time>
      </trkpt>
      <trkpt lat="45.8523" lon="6.77208">
        <ele>2023.23</ele>
        <time>2017-08-02T13:45:53Z</time>
      </trkpt>
      <trkpt lat="45.85242" lon="6.77217">
        <ele>2019.39</ele>
        <time>2017-08-02T13:45:59Z</time>
      </trkpt>
      <trkpt lat="45.85256" lon="6.77226">
        <ele>2016.02</ele>
        <time>2017-08-02T13:46:05Z</time>
      </trkpt>
      <trkpt lat="45.85271" lon="6.77233">
        <ele>2012.66</ele>
        <time>2017-08-02T13:46:12Z</time>
      </trkpt>
      <trkpt lat="45.85282" lon="6.77246">
        <ele>2009.77</ele>
        <time>2017-08-02T13:46:17Z</time>
      </trkpt>
      <trkpt lat="45.8529" lon="6.77259">
        <ele>2006.41</ele>
        <time>2017-08-02T13:46:22Z</time>
      </trkpt>
      <trkpt lat="45.85294" lon="6.77264">
        <ele>2004.97</ele>
        <time>2017-08-02T13:46:24Z</time>
      </trkpt>
      <trkpt lat="45.85297" lon="6.77266">
        <ele>2004.49</ele>
        <time>2017-08-02T13:46:25Z</time>
      </trkpt>
      <trkpt lat="45.85299" lon="6.77268">
        <ele>2004.01</ele>
        <time>2017-08-02T13:46:26Z</time>
      </trkpt>
      <trkpt lat="45.85301" lon="6.7727">
        <ele>2003.04</ele>
        <time>2017-08-02T13:46:27Z</time>
      </trkpt>
      <trkpt lat="45.85303" lon="6.77271">
        <ele>2002.08</ele>
        <time>2017-08-02T13:46:28Z</time>
      </trkpt>
      <trkpt lat="45.85316" lon="6.77284">
        <ele>1998.72</ele>
        <time>2017-08-02T13:46:34Z</time>
      </trkpt>
      <trkpt lat="45.85318" lon="6.77287">
        <ele>1998.24</ele>
        <time>2017-08-02T13:46:35Z</time>
      </trkpt>
      <trkpt lat="45.8532" lon="6.77288">
        <ele>1998.24</ele>
        <time>2017-08-02T13:46:36Z</time>
      </trkpt>
      <trkpt lat="45.85341" lon="6.77297">
        <ele>1994.87</ele>
        <time>2017-08-02T13:46:44Z</time>
      </trkpt>
      <trkpt lat="45.85358" lon="6.77304">
        <ele>1991.03</ele>
        <time>2017-08-02T13:46:51Z</time>
      </trkpt>
      <trkpt lat="45.8537" lon="6.77312">
        <ele>1988.14</ele>
        <time>2017-08-02T13:46:56Z</time>
      </trkpt>
      <trkpt lat="45.85386" lon="6.7732">
        <ele>1984.3</ele>
        <time>2017-08-02T13:47:02Z</time>
      </trkpt>
      <trkpt lat="45.85403" lon="6.7733">
        <ele>1981.41</ele>
        <time>2017-08-02T13:47:08Z</time>
      </trkpt>
      <trkpt lat="45.85405" lon="6.77332">
        <ele>1980.93</ele>
        <time>2017-08-02T13:47:09Z</time>
      </trkpt>
      <trkpt lat="45.85425" lon="6.77341">
        <ele>1977.57</ele>
        <time>2017-08-02T13:47:15Z</time>
      </trkpt>
      <trkpt lat="45.8544" lon="6.7735">
        <ele>1975.17</ele>
        <time>2017-08-02T13:47:20Z</time>
      </trkpt>
      <trkpt lat="45.85457" lon="6.77365">
        <ele>1972.76</ele>
        <time>2017-08-02T13:47:27Z</time>
      </trkpt>
      <trkpt lat="45.85474" lon="6.77378">
        <ele>1969.88</ele>
        <time>2017-08-02T13:47:34Z</time>
      </trkpt>
      <trkpt lat="45.85488" lon="6.77386">
        <ele>1966.51</ele>
        <time>2017-08-02T13:47:40Z</time>
      </trkpt>
      <trkpt lat="45.85503" lon="6.77409">
        <ele>1963.15</ele>
        <time>2017-08-02T13:47:47Z</time>
      </trkpt>
      <trkpt lat="45.85518" lon="6.77427">
        <ele>1959.78</ele>
        <time>2017-08-02T13:47:54Z</time>
      </trkpt>
      <trkpt lat="45.85521" lon="6.77433">
        <ele>1958.82</ele>
        <time>2017-08-02T13:47:56Z</time>
      </trkpt>
      <trkpt lat="45.85524" lon="6.77437">
        <ele>1957.86</ele>
        <time>2017-08-02T13:47:59Z</time>
      </trkpt>
      <trkpt lat="45.85526" lon="6.77437">
        <ele>1957.38</ele>
        <time>2017-08-02T13:48:00Z</time>
      </trkpt>
      <trkpt lat="45.85528" lon="6.77438">
        <ele>1956.9</ele>
        <time>2017-08-02T13:48:01Z</time>
      </trkpt>
      <trkpt lat="45.8553" lon="6.7744">
        <ele>1956.42</ele>
        <time>2017-08-02T13:48:02Z</time>
      </trkpt>
      <trkpt lat="45.85532" lon="6.77442">
        <ele>1955.94</ele>
        <time>2017-08-02T13:48:03Z</time>
      </trkpt>
      <trkpt lat="45.85534" lon="6.77444">
        <ele>1955.46</ele>
        <time>2017-08-02T13:48:04Z</time>
      </trkpt>
      <trkpt lat="45.85536" lon="6.77445">
        <ele>1954.98</ele>
        <time>2017-08-02T13:48:05Z</time>
      </trkpt>
      <trkpt lat="45.85538" lon="6.77446">
        <ele>1954.5</ele>
        <time>2017-08-02T13:48:06Z</time>
      </trkpt>
      <trkpt lat="45.85539" lon="6.77447">
        <ele>1954.5</ele>
        <time>2017-08-02T13:48:07Z</time>
      </trkpt>
      <trkpt lat="45.85541" lon="6.77448">
        <ele>1954.02</ele>
        <time>2017-08-02T13:48:08Z</time>
      </trkpt>
      <trkpt lat="45.85541" lon="6.7745">
        <ele>1953.54</ele>
        <time>2017-08-02T13:48:09Z</time>
      </trkpt>
      <trkpt lat="45.85543" lon="6.77451">
        <ele>1952.57</ele>
        <time>2017-08-02T13:48:10Z</time>
      </trkpt>
      <trkpt lat="45.85544" lon="6.77452">
        <ele>1952.57</ele>
        <time>2017-08-02T13:48:11Z</time>
      </trkpt>
      <trkpt lat="45.85546" lon="6.77453">
        <ele>1951.61</ele>
        <time>2017-08-02T13:48:12Z</time>
      </trkpt>
      <trkpt lat="45.85547" lon="6.77456">
        <ele>1951.61</ele>
        <time>2017-08-02T13:48:13Z</time>
      </trkpt>
      <trkpt lat="45.85548" lon="6.77459">
        <ele>1951.13</ele>
        <time>2017-08-02T13:48:14Z</time>
      </trkpt>
      <trkpt lat="45.85548" lon="6.77461">
        <ele>1950.65</ele>
        <time>2017-08-02T13:48:15Z</time>
      </trkpt>
      <trkpt lat="45.85549" lon="6.77462">
        <ele>1950.17</ele>
        <time>2017-08-02T13:48:16Z</time>
      </trkpt>
      <trkpt lat="45.85551" lon="6.77463">
        <ele>1949.69</ele>
        <time>2017-08-02T13:48:17Z</time>
      </trkpt>
      <trkpt lat="45.85553" lon="6.77462">
        <ele>1949.21</ele>
        <time>2017-08-02T13:48:18Z</time>
      </trkpt>
      <trkpt lat="45.85556" lon="6.77462">
        <ele>1948.73</ele>
        <time>2017-08-02T13:48:19Z</time>
      </trkpt>
      <trkpt lat="45.85558" lon="6.77463">
        <ele>1948.25</ele>
        <time>2017-08-02T13:48:20Z</time>
      </trkpt>
      <trkpt lat="45.8556" lon="6.77465">
        <ele>1947.77</ele>
        <time>2017-08-02T13:48:21Z</time>
      </trkpt>
      <trkpt lat="45.85562" lon="6.77467">
        <ele>1947.77</ele>
        <time>2017-08-02T13:48:22Z</time>
      </trkpt>
      <trkpt lat="45.85563" lon="6.7747">
        <ele>1947.29</ele>
        <time>2017-08-02T13:48:23Z</time>
      </trkpt>
      <trkpt lat="45.85565" lon="6.77473">
        <ele>1946.81</ele>
        <time>2017-08-02T13:48:24Z</time>
      </trkpt>
      <trkpt lat="45.85566" lon="6.77475">
        <ele>1946.33</ele>
        <time>2017-08-02T13:48:25Z</time>
      </trkpt>
      <trkpt lat="45.85567" lon="6.77478">
        <ele>1946.33</ele>
        <time>2017-08-02T13:48:26Z</time>
      </trkpt>
      <trkpt lat="45.85568" lon="6.77481">
        <ele>1945.85</ele>
        <time>2017-08-02T13:48:27Z</time>
      </trkpt>
      <trkpt lat="45.85569" lon="6.77484">
        <ele>1945.36</ele>
        <time>2017-08-02T13:48:28Z</time>
      </trkpt>
      <trkpt lat="45.85578" lon="6.77497">
        <ele>1942</ele>
        <time>2017-08-02T13:48:34Z</time>
      </trkpt>
      <trkpt lat="45.85581" lon="6.77497">
        <ele>1942</ele>
        <time>2017-08-02T13:48:35Z</time>
      </trkpt>
      <trkpt lat="45.85583" lon="6.77499">
        <ele>1941.52</ele>
        <time>2017-08-02T13:48:36Z</time>
      </trkpt>
      <trkpt lat="45.85584" lon="6.77501">
        <ele>1941.04</ele>
        <time>2017-08-02T13:48:37Z</time>
      </trkpt>
      <trkpt lat="45.85585" lon="6.77503">
        <ele>1940.56</ele>
        <time>2017-08-02T13:48:38Z</time>
      </trkpt>
      <trkpt lat="45.85587" lon="6.77506">
        <ele>1939.6</ele>
        <time>2017-08-02T13:48:39Z</time>
      </trkpt>
      <trkpt lat="45.85587" lon="6.77509">
        <ele>1939.12</ele>
        <time>2017-08-02T13:48:40Z</time>
      </trkpt>
      <trkpt lat="45.85588" lon="6.77511">
        <ele>1939.12</ele>
        <time>2017-08-02T13:48:41Z</time>
      </trkpt>
      <trkpt lat="45.85589" lon="6.77513">
        <ele>1938.64</ele>
        <time>2017-08-02T13:48:42Z</time>
      </trkpt>
      <trkpt lat="45.85591" lon="6.77515">
        <ele>1937.67</ele>
        <time>2017-08-02T13:48:43Z</time>
      </trkpt>
      <trkpt lat="45.85593" lon="6.77517">
        <ele>1937.19</ele>
        <time>2017-08-02T13:48:44Z</time>
      </trkpt>
      <trkpt lat="45.85594" lon="6.77518">
        <ele>1936.71</ele>
        <time>2017-08-02T13:48:45Z</time>
      </trkpt>
      <trkpt lat="45.85596" lon="6.77519">
        <ele>1936.23</ele>
        <time>2017-08-02T13:48:46Z</time>
      </trkpt>
      <trkpt lat="45.85605" lon="6.7753">
        <ele>1933.35</ele>
        <time>2017-08-02T13:48:52Z</time>
      </trkpt>
      <trkpt lat="45.85612" lon="6.77541">
        <ele>1929.98</ele>
        <time>2017-08-02T13:48:57Z</time>
      </trkpt>
      <trkpt lat="45.85618" lon="6.77551">
        <ele>1927.1</ele>
        <time>2017-08-02T13:49:02Z</time>
      </trkpt>
      <trkpt lat="45.85624" lon="6.77561">
        <ele>1923.74</ele>
        <time>2017-08-02T13:49:07Z</time>
      </trkpt>
      <trkpt lat="45.85625" lon="6.77566">
        <ele>1922.77</ele>
        <time>2017-08-02T13:49:09Z</time>
      </trkpt>
      <trkpt lat="45.85628" lon="6.77576">
        <ele>1919.89</ele>
        <time>2017-08-02T13:49:13Z</time>
      </trkpt>
      <trkpt lat="45.85629" lon="6.77579">
        <ele>1919.41</ele>
        <time>2017-08-02T13:49:14Z</time>
      </trkpt>
      <trkpt lat="45.85639" lon="6.77599">
        <ele>1916.04</ele>
        <time>2017-08-02T13:49:21Z</time>
      </trkpt>
      <trkpt lat="45.85649" lon="6.7761">
        <ele>1912.68</ele>
        <time>2017-08-02T13:49:26Z</time>
      </trkpt>
      <trkpt lat="45.85663" lon="6.77631">
        <ele>1910.28</ele>
        <time>2017-08-02T13:49:33Z</time>
      </trkpt>
      <trkpt lat="45.85667" lon="6.77635">
        <ele>1909.8</ele>
        <time>2017-08-02T13:49:35Z</time>
      </trkpt>
      <trkpt lat="45.8567" lon="6.77635">
        <ele>1909.8</ele>
        <time>2017-08-02T13:49:36Z</time>
      </trkpt>
      <trkpt lat="45.85673" lon="6.77637">
        <ele>1909.32</ele>
        <time>2017-08-02T13:49:37Z</time>
      </trkpt>
      <trkpt lat="45.85675" lon="6.77639">
        <ele>1908.83</ele>
        <time>2017-08-02T13:49:38Z</time>
      </trkpt>
      <trkpt lat="45.85676" lon="6.7764">
        <ele>1908.35</ele>
        <time>2017-08-02T13:49:39Z</time>
      </trkpt>
      <trkpt lat="45.85678" lon="6.77642">
        <ele>1908.35</ele>
        <time>2017-08-02T13:49:40Z</time>
      </trkpt>
      <trkpt lat="45.85681" lon="6.77643">
        <ele>1907.39</ele>
        <time>2017-08-02T13:49:42Z</time>
      </trkpt>
      <trkpt lat="45.85682" lon="6.77644">
        <ele>1907.39</ele>
        <time>2017-08-02T13:49:43Z</time>
      </trkpt>
      <trkpt lat="45.8569" lon="6.77649">
        <ele>1904.99</ele>
        <time>2017-08-02T13:49:47Z</time>
      </trkpt>
      <trkpt lat="45.85691" lon="6.77652">
        <ele>1904.51</ele>
        <time>2017-08-02T13:49:48Z</time>
      </trkpt>
      <trkpt lat="45.85692" lon="6.77653">
        <ele>1904.03</ele>
        <time>2017-08-02T13:49:49Z</time>
      </trkpt>
      <trkpt lat="45.85694" lon="6.77655">
        <ele>1904.03</ele>
        <time>2017-08-02T13:49:50Z</time>
      </trkpt>
      <trkpt lat="45.85695" lon="6.77656">
        <ele>1904.03</ele>
        <time>2017-08-02T13:49:51Z</time>
      </trkpt>
      <trkpt lat="45.85697" lon="6.77657">
        <ele>1903.55</ele>
        <time>2017-08-02T13:49:52Z</time>
      </trkpt>
      <trkpt lat="45.85698" lon="6.77659">
        <ele>1903.07</ele>
        <time>2017-08-02T13:49:53Z</time>
      </trkpt>
      <trkpt lat="45.85699" lon="6.77661">
        <ele>1902.59</ele>
        <time>2017-08-02T13:49:54Z</time>
      </trkpt>
      <trkpt lat="45.857" lon="6.77664">
        <ele>1901.63</ele>
        <time>2017-08-02T13:49:55Z</time>
      </trkpt>
      <trkpt lat="45.857" lon="6.77667">
        <ele>1901.63</ele>
        <time>2017-08-02T13:49:56Z</time>
      </trkpt>
      <trkpt lat="45.85701" lon="6.7767">
        <ele>1901.14</ele>
        <time>2017-08-02T13:49:57Z</time>
      </trkpt>
      <trkpt lat="45.85705" lon="6.77689">
        <ele>1898.74</ele>
        <time>2017-08-02T13:50:03Z</time>
      </trkpt>
      <trkpt lat="45.85706" lon="6.77692">
        <ele>1898.74</ele>
        <time>2017-08-02T13:50:04Z</time>
      </trkpt>
      <trkpt lat="45.85708" lon="6.77695">
        <ele>1898.26</ele>
        <time>2017-08-02T13:50:05Z</time>
      </trkpt>
      <trkpt lat="45.85711" lon="6.77698">
        <ele>1897.78</ele>
        <time>2017-08-02T13:50:06Z</time>
      </trkpt>
      <trkpt lat="45.85712" lon="6.77702">
        <ele>1897.3</ele>
        <time>2017-08-02T13:50:07Z</time>
      </trkpt>
      <trkpt lat="45.85714" lon="6.77705">
        <ele>1896.82</ele>
        <time>2017-08-02T13:50:08Z</time>
      </trkpt>
      <trkpt lat="45.85716" lon="6.77706">
        <ele>1896.82</ele>
        <time>2017-08-02T13:50:09Z</time>
      </trkpt>
      <trkpt lat="45.85719" lon="6.77707">
        <ele>1896.82</ele>
        <time>2017-08-02T13:50:10Z</time>
      </trkpt>
      <trkpt lat="45.85721" lon="6.77709">
        <ele>1896.82</ele>
        <time>2017-08-02T13:50:11Z</time>
      </trkpt>
      <trkpt lat="45.85722" lon="6.77711">
        <ele>1896.34</ele>
        <time>2017-08-02T13:50:12Z</time>
      </trkpt>
      <trkpt lat="45.85723" lon="6.77714">
        <ele>1895.86</ele>
        <time>2017-08-02T13:50:13Z</time>
      </trkpt>
      <trkpt lat="45.85724" lon="6.77717">
        <ele>1895.38</ele>
        <time>2017-08-02T13:50:14Z</time>
      </trkpt>
      <trkpt lat="45.85725" lon="6.7772">
        <ele>1895.38</ele>
        <time>2017-08-02T13:50:15Z</time>
      </trkpt>
      <trkpt lat="45.85725" lon="6.77722">
        <ele>1894.9</ele>
        <time>2017-08-02T13:50:16Z</time>
      </trkpt>
      <trkpt lat="45.85727" lon="6.77723">
        <ele>1894.42</ele>
        <time>2017-08-02T13:50:17Z</time>
      </trkpt>
      <trkpt lat="45.85729" lon="6.77723">
        <ele>1894.42</ele>
        <time>2017-08-02T13:50:18Z</time>
      </trkpt>
      <trkpt lat="45.85736" lon="6.77727">
        <ele>1892.97</ele>
        <time>2017-08-02T13:50:22Z</time>
      </trkpt>
      <trkpt lat="45.85737" lon="6.77729">
        <ele>1892.97</ele>
        <time>2017-08-02T13:50:23Z</time>
      </trkpt>
      <trkpt lat="45.85739" lon="6.77731">
        <ele>1892.97</ele>
        <time>2017-08-02T13:50:24Z</time>
      </trkpt>
      <trkpt lat="45.8574" lon="6.77733">
        <ele>1892.49</ele>
        <time>2017-08-02T13:50:25Z</time>
      </trkpt>
      <trkpt lat="45.85741" lon="6.77735">
        <ele>1892.01</ele>
        <time>2017-08-02T13:50:26Z</time>
      </trkpt>
      <trkpt lat="45.85743" lon="6.77737">
        <ele>1891.53</ele>
        <time>2017-08-02T13:50:27Z</time>
      </trkpt>
      <trkpt lat="45.85745" lon="6.77738">
        <ele>1890.57</ele>
        <time>2017-08-02T13:50:28Z</time>
      </trkpt>
      <trkpt lat="45.85747" lon="6.77739">
        <ele>1890.57</ele>
        <time>2017-08-02T13:50:29Z</time>
      </trkpt>
      <trkpt lat="45.85749" lon="6.77741">
        <ele>1890.09</ele>
        <time>2017-08-02T13:50:30Z</time>
      </trkpt>
      <trkpt lat="45.85751" lon="6.77742">
        <ele>1889.61</ele>
        <time>2017-08-02T13:50:31Z</time>
      </trkpt>
      <trkpt lat="45.85754" lon="6.77743">
        <ele>1889.61</ele>
        <time>2017-08-02T13:50:32Z</time>
      </trkpt>
      <trkpt lat="45.85755" lon="6.77745">
        <ele>1888.65</ele>
        <time>2017-08-02T13:50:33Z</time>
      </trkpt>
      <trkpt lat="45.85755" lon="6.77747">
        <ele>1888.65</ele>
        <time>2017-08-02T13:50:34Z</time>
      </trkpt>
      <trkpt lat="45.85756" lon="6.7775">
        <ele>1888.17</ele>
        <time>2017-08-02T13:50:35Z</time>
      </trkpt>
      <trkpt lat="45.85757" lon="6.77752">
        <ele>1888.17</ele>
        <time>2017-08-02T13:50:36Z</time>
      </trkpt>
      <trkpt lat="45.85758" lon="6.77754">
        <ele>1887.21</ele>
        <time>2017-08-02T13:50:37Z</time>
      </trkpt>
      <trkpt lat="45.85759" lon="6.77756">
        <ele>1887.21</ele>
        <time>2017-08-02T13:50:38Z</time>
      </trkpt>
      <trkpt lat="45.85759" lon="6.77758">
        <ele>1886.72</ele>
        <time>2017-08-02T13:50:39Z</time>
      </trkpt>
      <trkpt lat="45.8576" lon="6.7776">
        <ele>1886.72</ele>
        <time>2017-08-02T13:50:40Z</time>
      </trkpt>
      <trkpt lat="45.8576" lon="6.77762">
        <ele>1886.72</ele>
        <time>2017-08-02T13:50:41Z</time>
      </trkpt>
      <trkpt lat="45.85761" lon="6.77764">
        <ele>1886.24</ele>
        <time>2017-08-02T13:50:42Z</time>
      </trkpt>
      <trkpt lat="45.85762" lon="6.77766">
        <ele>1885.76</ele>
        <time>2017-08-02T13:50:43Z</time>
      </trkpt>
      <trkpt lat="45.85762" lon="6.77768">
        <ele>1885.28</ele>
        <time>2017-08-02T13:50:44Z</time>
      </trkpt>
      <trkpt lat="45.85762" lon="6.7777">
        <ele>1884.8</ele>
        <time>2017-08-02T13:50:45Z</time>
      </trkpt>
      <trkpt lat="45.85763" lon="6.77771">
        <ele>1884.32</ele>
        <time>2017-08-02T13:50:46Z</time>
      </trkpt>
      <trkpt lat="45.85763" lon="6.77772">
        <ele>1883.84</ele>
        <time>2017-08-02T13:50:47Z</time>
      </trkpt>
      <trkpt lat="45.85763" lon="6.77774">
        <ele>1883.36</ele>
        <time>2017-08-02T13:50:48Z</time>
      </trkpt>
      <trkpt lat="45.85764" lon="6.77777">
        <ele>1882.4</ele>
        <time>2017-08-02T13:50:49Z</time>
      </trkpt>
      <trkpt lat="45.85765" lon="6.7778">
        <ele>1881.92</ele>
        <time>2017-08-02T13:50:50Z</time>
      </trkpt>
      <trkpt lat="45.85766" lon="6.77783">
        <ele>1881.44</ele>
        <time>2017-08-02T13:50:51Z</time>
      </trkpt>
      <trkpt lat="45.85767" lon="6.77785">
        <ele>1880.96</ele>
        <time>2017-08-02T13:50:52Z</time>
      </trkpt>
      <trkpt lat="45.85767" lon="6.77788">
        <ele>1880.48</ele>
        <time>2017-08-02T13:50:53Z</time>
      </trkpt>
      <trkpt lat="45.85768" lon="6.7779">
        <ele>1879.51</ele>
        <time>2017-08-02T13:50:54Z</time>
      </trkpt>
      <trkpt lat="45.85769" lon="6.77793">
        <ele>1879.03</ele>
        <time>2017-08-02T13:50:55Z</time>
      </trkpt>
      <trkpt lat="45.85769" lon="6.77795">
        <ele>1878.55</ele>
        <time>2017-08-02T13:50:56Z</time>
      </trkpt>
      <trkpt lat="45.85769" lon="6.77797">
        <ele>1878.07</ele>
        <time>2017-08-02T13:50:57Z</time>
      </trkpt>
      <trkpt lat="45.85769" lon="6.778">
        <ele>1877.59</ele>
        <time>2017-08-02T13:50:58Z</time>
      </trkpt>
      <trkpt lat="45.85769" lon="6.77803">
        <ele>1877.11</ele>
        <time>2017-08-02T13:50:59Z</time>
      </trkpt>
      <trkpt lat="45.85769" lon="6.77805">
        <ele>1876.63</ele>
        <time>2017-08-02T13:51:00Z</time>
      </trkpt>
      <trkpt lat="45.8577" lon="6.77808">
        <ele>1875.67</ele>
        <time>2017-08-02T13:51:01Z</time>
      </trkpt>
      <trkpt lat="45.85771" lon="6.7781">
        <ele>1875.19</ele>
        <time>2017-08-02T13:51:02Z</time>
      </trkpt>
      <trkpt lat="45.85772" lon="6.77812">
        <ele>1874.71</ele>
        <time>2017-08-02T13:51:03Z</time>
      </trkpt>
      <trkpt lat="45.85772" lon="6.77814">
        <ele>1874.23</ele>
        <time>2017-08-02T13:51:04Z</time>
      </trkpt>
      <trkpt lat="45.85773" lon="6.77816">
        <ele>1873.75</ele>
        <time>2017-08-02T13:51:05Z</time>
      </trkpt>
      <trkpt lat="45.85773" lon="6.77818">
        <ele>1873.27</ele>
        <time>2017-08-02T13:51:06Z</time>
      </trkpt>
      <trkpt lat="45.85773" lon="6.7782">
        <ele>1872.79</ele>
        <time>2017-08-02T13:51:07Z</time>
      </trkpt>
      <trkpt lat="45.85774" lon="6.77821">
        <ele>1872.3</ele>
        <time>2017-08-02T13:51:08Z</time>
      </trkpt>
      <trkpt lat="45.85774" lon="6.77822">
        <ele>1871.82</ele>
        <time>2017-08-02T13:51:09Z</time>
      </trkpt>
      <trkpt lat="45.85774" lon="6.77823">
        <ele>1871.82</ele>
        <time>2017-08-02T13:51:10Z</time>
      </trkpt>
      <trkpt lat="45.85775" lon="6.77824">
        <ele>1870.86</ele>
        <time>2017-08-02T13:51:11Z</time>
      </trkpt>
      <trkpt lat="45.85777" lon="6.77824">
        <ele>1870.86</ele>
        <time>2017-08-02T13:51:12Z</time>
      </trkpt>
      <trkpt lat="45.85779" lon="6.77824">
        <ele>1870.86</ele>
        <time>2017-08-02T13:51:13Z</time>
      </trkpt>
      <trkpt lat="45.8578" lon="6.77825">
        <ele>1870.86</ele>
        <time>2017-08-02T13:51:14Z</time>
      </trkpt>
      <trkpt lat="45.85782" lon="6.77826">
        <ele>1871.34</ele>
        <time>2017-08-02T13:51:15Z</time>
      </trkpt>
      <trkpt lat="45.85784" lon="6.77827">
        <ele>1869.9</ele>
        <time>2017-08-02T13:51:16Z</time>
      </trkpt>
      <trkpt lat="45.85785" lon="6.77828">
        <ele>1868.94</ele>
        <time>2017-08-02T13:51:17Z</time>
      </trkpt>
      <trkpt lat="45.85787" lon="6.77829">
        <ele>1867.98</ele>
        <time>2017-08-02T13:51:18Z</time>
      </trkpt>
      <trkpt lat="45.85788" lon="6.7783">
        <ele>1867.02</ele>
        <time>2017-08-02T13:51:19Z</time>
      </trkpt>
      <trkpt lat="45.85789" lon="6.77832">
        <ele>1866.06</ele>
        <time>2017-08-02T13:51:20Z</time>
      </trkpt>
      <trkpt lat="45.8579" lon="6.77833">
        <ele>1865.58</ele>
        <time>2017-08-02T13:51:21Z</time>
      </trkpt>
      <trkpt lat="45.85791" lon="6.77834">
        <ele>1865.09</ele>
        <time>2017-08-02T13:51:22Z</time>
      </trkpt>
      <trkpt lat="45.85793" lon="6.77834">
        <ele>1864.13</ele>
        <time>2017-08-02T13:51:23Z</time>
      </trkpt>
      <trkpt lat="45.85794" lon="6.77834">
        <ele>1863.17</ele>
        <time>2017-08-02T13:51:24Z</time>
      </trkpt>
      <trkpt lat="45.85795" lon="6.77834">
        <ele>1862.21</ele>
        <time>2017-08-02T13:51:25Z</time>
      </trkpt>
      <trkpt lat="45.85797" lon="6.77834">
        <ele>1861.25</ele>
        <time>2017-08-02T13:51:26Z</time>
      </trkpt>
      <trkpt lat="45.85799" lon="6.77835">
        <ele>1860.77</ele>
        <time>2017-08-02T13:51:27Z</time>
      </trkpt>
      <trkpt lat="45.858" lon="6.77837">
        <ele>1860.29</ele>
        <time>2017-08-02T13:51:28Z</time>
      </trkpt>
      <trkpt lat="45.85801" lon="6.77837">
        <ele>1859.81</ele>
        <time>2017-08-02T13:51:29Z</time>
      </trkpt>
      <trkpt lat="45.85803" lon="6.77837">
        <ele>1859.33</ele>
        <time>2017-08-02T13:51:30Z</time>
      </trkpt>
      <trkpt lat="45.85804" lon="6.77837">
        <ele>1858.37</ele>
        <time>2017-08-02T13:51:31Z</time>
      </trkpt>
      <trkpt lat="45.85811" lon="6.77837">
        <ele>1856.44</ele>
        <time>2017-08-02T13:51:35Z</time>
      </trkpt>
      <trkpt lat="45.85812" lon="6.77839">
        <ele>1856.44</ele>
        <time>2017-08-02T13:51:36Z</time>
      </trkpt>
      <trkpt lat="45.85813" lon="6.77841">
        <ele>1855.96</ele>
        <time>2017-08-02T13:51:37Z</time>
      </trkpt>
      <trkpt lat="45.85815" lon="6.77842">
        <ele>1855.48</ele>
        <time>2017-08-02T13:51:38Z</time>
      </trkpt>
      <trkpt lat="45.85817" lon="6.77842">
        <ele>1855</ele>
        <time>2017-08-02T13:51:39Z</time>
      </trkpt>
      <trkpt lat="45.85819" lon="6.77843">
        <ele>1854.04</ele>
        <time>2017-08-02T13:51:40Z</time>
      </trkpt>
      <trkpt lat="45.8582" lon="6.77845">
        <ele>1853.56</ele>
        <time>2017-08-02T13:51:41Z</time>
      </trkpt>
      <trkpt lat="45.85822" lon="6.77846">
        <ele>1853.08</ele>
        <time>2017-08-02T13:51:42Z</time>
      </trkpt>
      <trkpt lat="45.85826" lon="6.77853">
        <ele>1851.16</ele>
        <time>2017-08-02T13:51:46Z</time>
      </trkpt>
      <trkpt lat="45.85827" lon="6.77855">
        <ele>1850.68</ele>
        <time>2017-08-02T13:51:47Z</time>
      </trkpt>
      <trkpt lat="45.85827" lon="6.77856">
        <ele>1850.68</ele>
        <time>2017-08-02T13:51:48Z</time>
      </trkpt>
      <trkpt lat="45.85829" lon="6.77857">
        <ele>1850.19</ele>
        <time>2017-08-02T13:51:49Z</time>
      </trkpt>
      <trkpt lat="45.8583" lon="6.77858">
        <ele>1849.71</ele>
        <time>2017-08-02T13:51:50Z</time>
      </trkpt>
      <trkpt lat="45.85831" lon="6.7786">
        <ele>1849.23</ele>
        <time>2017-08-02T13:51:51Z</time>
      </trkpt>
      <trkpt lat="45.85831" lon="6.77861">
        <ele>1848.75</ele>
        <time>2017-08-02T13:51:52Z</time>
      </trkpt>
      <trkpt lat="45.85832" lon="6.77863">
        <ele>1848.75</ele>
        <time>2017-08-02T13:51:53Z</time>
      </trkpt>
      <trkpt lat="45.85833" lon="6.77864">
        <ele>1848.27</ele>
        <time>2017-08-02T13:51:54Z</time>
      </trkpt>
      <trkpt lat="45.85833" lon="6.77866">
        <ele>1847.79</ele>
        <time>2017-08-02T13:51:55Z</time>
      </trkpt>
      <trkpt lat="45.85834" lon="6.77867">
        <ele>1847.31</ele>
        <time>2017-08-02T13:51:56Z</time>
      </trkpt>
      <trkpt lat="45.85836" lon="6.77868">
        <ele>1846.83</ele>
        <time>2017-08-02T13:51:57Z</time>
      </trkpt>
      <trkpt lat="45.85837" lon="6.7787">
        <ele>1846.83</ele>
        <time>2017-08-02T13:51:58Z</time>
      </trkpt>
      <trkpt lat="45.85838" lon="6.77873">
        <ele>1846.35</ele>
        <time>2017-08-02T13:51:59Z</time>
      </trkpt>
      <trkpt lat="45.85839" lon="6.77876">
        <ele>1845.87</ele>
        <time>2017-08-02T13:52:00Z</time>
      </trkpt>
      <trkpt lat="45.85839" lon="6.7788">
        <ele>1845.39</ele>
        <time>2017-08-02T13:52:01Z</time>
      </trkpt>
      <trkpt lat="45.8584" lon="6.77882">
        <ele>1844.91</ele>
        <time>2017-08-02T13:52:02Z</time>
      </trkpt>
      <trkpt lat="45.85841" lon="6.77884">
        <ele>1844.43</ele>
        <time>2017-08-02T13:52:03Z</time>
      </trkpt>
      <trkpt lat="45.85842" lon="6.77886">
        <ele>1843.47</ele>
        <time>2017-08-02T13:52:04Z</time>
      </trkpt>
      <trkpt lat="45.85843" lon="6.77888">
        <ele>1842.98</ele>
        <time>2017-08-02T13:52:05Z</time>
      </trkpt>
      <trkpt lat="45.85844" lon="6.7789">
        <ele>1842.02</ele>
        <time>2017-08-02T13:52:06Z</time>
      </trkpt>
      <trkpt lat="45.85845" lon="6.77893">
        <ele>1841.54</ele>
        <time>2017-08-02T13:52:07Z</time>
      </trkpt>
      <trkpt lat="45.85854" lon="6.77907">
        <ele>1838.18</ele>
        <time>2017-08-02T13:52:14Z</time>
      </trkpt>
      <trkpt lat="45.85867" lon="6.77916">
        <ele>1834.81</ele>
        <time>2017-08-02T13:52:21Z</time>
      </trkpt>
      <trkpt lat="45.85871" lon="6.77919">
        <ele>1833.85</ele>
        <time>2017-08-02T13:52:23Z</time>
      </trkpt>
      <trkpt lat="45.85873" lon="6.7792">
        <ele>1833.37</ele>
        <time>2017-08-02T13:52:24Z</time>
      </trkpt>
      <trkpt lat="45.85874" lon="6.77922">
        <ele>1833.37</ele>
        <time>2017-08-02T13:52:25Z</time>
      </trkpt>
      <trkpt lat="45.85875" lon="6.77924">
        <ele>1832.89</ele>
        <time>2017-08-02T13:52:26Z</time>
      </trkpt>
      <trkpt lat="45.85876" lon="6.77926">
        <ele>1832.41</ele>
        <time>2017-08-02T13:52:27Z</time>
      </trkpt>
      <trkpt lat="45.85876" lon="6.77929">
        <ele>1832.41</ele>
        <time>2017-08-02T13:52:28Z</time>
      </trkpt>
      <trkpt lat="45.85876" lon="6.77932">
        <ele>1831.93</ele>
        <time>2017-08-02T13:52:29Z</time>
      </trkpt>
      <trkpt lat="45.8588" lon="6.77949">
        <ele>1828.56</ele>
        <time>2017-08-02T13:52:36Z</time>
      </trkpt>
      <trkpt lat="45.85882" lon="6.7795">
        <ele>1828.56</ele>
        <time>2017-08-02T13:52:37Z</time>
      </trkpt>
      <trkpt lat="45.85884" lon="6.77951">
        <ele>1828.08</ele>
        <time>2017-08-02T13:52:38Z</time>
      </trkpt>
      <trkpt lat="45.85886" lon="6.77954">
        <ele>1827.6</ele>
        <time>2017-08-02T13:52:39Z</time>
      </trkpt>
      <trkpt lat="45.85889" lon="6.77956">
        <ele>1827.6</ele>
        <time>2017-08-02T13:52:40Z</time>
      </trkpt>
      <trkpt lat="45.85891" lon="6.77957">
        <ele>1827.12</ele>
        <time>2017-08-02T13:52:41Z</time>
      </trkpt>
      <trkpt lat="45.85893" lon="6.77958">
        <ele>1827.12</ele>
        <time>2017-08-02T13:52:42Z</time>
      </trkpt>
      <trkpt lat="45.85894" lon="6.77959">
        <ele>1826.64</ele>
        <time>2017-08-02T13:52:43Z</time>
      </trkpt>
      <trkpt lat="45.85895" lon="6.77961">
        <ele>1826.64</ele>
        <time>2017-08-02T13:52:44Z</time>
      </trkpt>
      <trkpt lat="45.85913" lon="6.77976">
        <ele>1823.76</ele>
        <time>2017-08-02T13:52:58Z</time>
      </trkpt>
      <trkpt lat="45.85915" lon="6.77981">
        <ele>1823.28</ele>
        <time>2017-08-02T13:53:00Z</time>
      </trkpt>
      <trkpt lat="45.85915" lon="6.77985">
        <ele>1822.8</ele>
        <time>2017-08-02T13:53:01Z</time>
      </trkpt>
      <trkpt lat="45.85917" lon="6.77988">
        <ele>1821.84</ele>
        <time>2017-08-02T13:53:02Z</time>
      </trkpt>
      <trkpt lat="45.8592" lon="6.77992">
        <ele>1820.87</ele>
        <time>2017-08-02T13:53:04Z</time>
      </trkpt>
      <trkpt lat="45.85929" lon="6.77999">
        <ele>1819.43</ele>
        <time>2017-08-02T13:53:07Z</time>
      </trkpt>
      <trkpt lat="45.85942" lon="6.78004">
        <ele>1817.03</ele>
        <time>2017-08-02T13:53:11Z</time>
      </trkpt>
      <trkpt lat="45.85948" lon="6.78003">
        <ele>1816.07</ele>
        <time>2017-08-02T13:53:13Z</time>
      </trkpt>
      <trkpt lat="45.85951" lon="6.78005">
        <ele>1815.59</ele>
        <time>2017-08-02T13:53:14Z</time>
      </trkpt>
      <trkpt lat="45.85954" lon="6.78008">
        <ele>1815.59</ele>
        <time>2017-08-02T13:53:15Z</time>
      </trkpt>
      <trkpt lat="45.85956" lon="6.78012">
        <ele>1815.59</ele>
        <time>2017-08-02T13:53:16Z</time>
      </trkpt>
      <trkpt lat="45.85958" lon="6.78015">
        <ele>1815.59</ele>
        <time>2017-08-02T13:53:17Z</time>
      </trkpt>
      <trkpt lat="45.8596" lon="6.78017">
        <ele>1815.59</ele>
        <time>2017-08-02T13:53:18Z</time>
      </trkpt>
      <trkpt lat="45.85963" lon="6.78019">
        <ele>1815.59</ele>
        <time>2017-08-02T13:53:19Z</time>
      </trkpt>
      <trkpt lat="45.85965" lon="6.78021">
        <ele>1815.11</ele>
        <time>2017-08-02T13:53:20Z</time>
      </trkpt>
      <trkpt lat="45.85984" lon="6.78035">
        <ele>1812.22</ele>
        <time>2017-08-02T13:53:28Z</time>
      </trkpt>
      <trkpt lat="45.85997" lon="6.78046">
        <ele>1809.34</ele>
        <time>2017-08-02T13:53:34Z</time>
      </trkpt>
      <trkpt lat="45.85999" lon="6.78048">
        <ele>1808.86</ele>
        <time>2017-08-02T13:53:35Z</time>
      </trkpt>
      <trkpt lat="45.86002" lon="6.78051">
        <ele>1807.9</ele>
        <time>2017-08-02T13:53:37Z</time>
      </trkpt>
      <trkpt lat="45.86004" lon="6.78052">
        <ele>1807.42</ele>
        <time>2017-08-02T13:53:38Z</time>
      </trkpt>
      <trkpt lat="45.86005" lon="6.78053">
        <ele>1806.45</ele>
        <time>2017-08-02T13:53:39Z</time>
      </trkpt>
      <trkpt lat="45.86006" lon="6.78055">
        <ele>1805.97</ele>
        <time>2017-08-02T13:53:40Z</time>
      </trkpt>
      <trkpt lat="45.86007" lon="6.78057">
        <ele>1805.97</ele>
        <time>2017-08-02T13:53:41Z</time>
      </trkpt>
      <trkpt lat="45.86009" lon="6.78059">
        <ele>1805.49</ele>
        <time>2017-08-02T13:53:42Z</time>
      </trkpt>
      <trkpt lat="45.8601" lon="6.7806">
        <ele>1805.01</ele>
        <time>2017-08-02T13:53:43Z</time>
      </trkpt>
      <trkpt lat="45.86012" lon="6.78063">
        <ele>1805.01</ele>
        <time>2017-08-02T13:53:44Z</time>
      </trkpt>
      <trkpt lat="45.86012" lon="6.78066">
        <ele>1804.05</ele>
        <time>2017-08-02T13:53:45Z</time>
      </trkpt>
      <trkpt lat="45.86012" lon="6.78069">
        <ele>1803.57</ele>
        <time>2017-08-02T13:53:46Z</time>
      </trkpt>
      <trkpt lat="45.86011" lon="6.78071">
        <ele>1803.57</ele>
        <time>2017-08-02T13:53:47Z</time>
      </trkpt>
      <trkpt lat="45.86011" lon="6.78074">
        <ele>1803.09</ele>
        <time>2017-08-02T13:53:48Z</time>
      </trkpt>
      <trkpt lat="45.86011" lon="6.78076">
        <ele>1802.61</ele>
        <time>2017-08-02T13:53:49Z</time>
      </trkpt>
      <trkpt lat="45.86011" lon="6.78078">
        <ele>1802.13</ele>
        <time>2017-08-02T13:53:50Z</time>
      </trkpt>
      <trkpt lat="45.86012" lon="6.78079">
        <ele>1801.17</ele>
        <time>2017-08-02T13:53:52Z</time>
      </trkpt>
      <trkpt lat="45.86014" lon="6.7808">
        <ele>1801.17</ele>
        <time>2017-08-02T13:53:53Z</time>
      </trkpt>
      <trkpt lat="45.86015" lon="6.78079">
        <ele>1800.21</ele>
        <time>2017-08-02T13:53:54Z</time>
      </trkpt>
      <trkpt lat="45.86017" lon="6.78079">
        <ele>1799.73</ele>
        <time>2017-08-02T13:53:55Z</time>
      </trkpt>
      <trkpt lat="45.8602" lon="6.78079">
        <ele>1798.76</ele>
        <time>2017-08-02T13:53:56Z</time>
      </trkpt>
      <trkpt lat="45.86022" lon="6.78079">
        <ele>1797.8</ele>
        <time>2017-08-02T13:53:57Z</time>
      </trkpt>
      <trkpt lat="45.86023" lon="6.7808">
        <ele>1797.32</ele>
        <time>2017-08-02T13:53:58Z</time>
      </trkpt>
      <trkpt lat="45.86034" lon="6.78079">
        <ele>1793.96</ele>
        <time>2017-08-02T13:54:03Z</time>
      </trkpt>
      <trkpt lat="45.86048" lon="6.78087">
        <ele>1790.59</ele>
        <time>2017-08-02T13:54:09Z</time>
      </trkpt>
      <trkpt lat="45.8605" lon="6.78089">
        <ele>1790.11</ele>
        <time>2017-08-02T13:54:11Z</time>
      </trkpt>
      <trkpt lat="45.86051" lon="6.78091">
        <ele>1790.11</ele>
        <time>2017-08-02T13:54:12Z</time>
      </trkpt>
      <trkpt lat="45.86051" lon="6.78095">
        <ele>1790.11</ele>
        <time>2017-08-02T13:54:13Z</time>
      </trkpt>
      <trkpt lat="45.86051" lon="6.78097">
        <ele>1789.63</ele>
        <time>2017-08-02T13:54:14Z</time>
      </trkpt>
      <trkpt lat="45.86052" lon="6.78099">
        <ele>1789.15</ele>
        <time>2017-08-02T13:54:15Z</time>
      </trkpt>
      <trkpt lat="45.86052" lon="6.78101">
        <ele>1788.67</ele>
        <time>2017-08-02T13:54:16Z</time>
      </trkpt>
      <trkpt lat="45.86051" lon="6.78103">
        <ele>1788.19</ele>
        <time>2017-08-02T13:54:17Z</time>
      </trkpt>
      <trkpt lat="45.86051" lon="6.78105">
        <ele>1787.23</ele>
        <time>2017-08-02T13:54:18Z</time>
      </trkpt>
      <trkpt lat="45.86049" lon="6.78115">
        <ele>1785.79</ele>
        <time>2017-08-02T13:54:23Z</time>
      </trkpt>
      <trkpt lat="45.8605" lon="6.78115">
        <ele>1784.82</ele>
        <time>2017-08-02T13:54:24Z</time>
      </trkpt>
      <trkpt lat="45.86052" lon="6.78116">
        <ele>1784.34</ele>
        <time>2017-08-02T13:54:25Z</time>
      </trkpt>
      <trkpt lat="45.86053" lon="6.78118">
        <ele>1783.38</ele>
        <time>2017-08-02T13:54:26Z</time>
      </trkpt>
      <trkpt lat="45.86054" lon="6.7812">
        <ele>1783.38</ele>
        <time>2017-08-02T13:54:27Z</time>
      </trkpt>
      <trkpt lat="45.86055" lon="6.78122">
        <ele>1782.42</ele>
        <time>2017-08-02T13:54:28Z</time>
      </trkpt>
      <trkpt lat="45.86058" lon="6.78126">
        <ele>1781.46</ele>
        <time>2017-08-02T13:54:31Z</time>
      </trkpt>
      <trkpt lat="45.86065" lon="6.78135">
        <ele>1779.06</ele>
        <time>2017-08-02T13:54:37Z</time>
      </trkpt>
      <trkpt lat="45.86068" lon="6.78137">
        <ele>1778.1</ele>
        <time>2017-08-02T13:54:38Z</time>
      </trkpt>
      <trkpt lat="45.86069" lon="6.78139">
        <ele>1777.61</ele>
        <time>2017-08-02T13:54:39Z</time>
      </trkpt>
      <trkpt lat="45.86071" lon="6.7814">
        <ele>1776.65</ele>
        <time>2017-08-02T13:54:40Z</time>
      </trkpt>
      <trkpt lat="45.86073" lon="6.78141">
        <ele>1776.17</ele>
        <time>2017-08-02T13:54:41Z</time>
      </trkpt>
      <trkpt lat="45.86075" lon="6.78142">
        <ele>1775.69</ele>
        <time>2017-08-02T13:54:42Z</time>
      </trkpt>
      <trkpt lat="45.86076" lon="6.78143">
        <ele>1775.21</ele>
        <time>2017-08-02T13:54:43Z</time>
      </trkpt>
      <trkpt lat="45.86083" lon="6.78147">
        <ele>1772.81</ele>
        <time>2017-08-02T13:54:47Z</time>
      </trkpt>
      <trkpt lat="45.86087" lon="6.78149">
        <ele>1771.85</ele>
        <time>2017-08-02T13:54:49Z</time>
      </trkpt>
      <trkpt lat="45.8609" lon="6.7815">
        <ele>1770.89</ele>
        <time>2017-08-02T13:54:50Z</time>
      </trkpt>
      <trkpt lat="45.86092" lon="6.7815">
        <ele>1770.41</ele>
        <time>2017-08-02T13:54:51Z</time>
      </trkpt>
      <trkpt lat="45.861" lon="6.78151">
        <ele>1768</ele>
        <time>2017-08-02T13:54:55Z</time>
      </trkpt>
      <trkpt lat="45.86102" lon="6.78151">
        <ele>1767.52</ele>
        <time>2017-08-02T13:54:56Z</time>
      </trkpt>
      <trkpt lat="45.86111" lon="6.78157">
        <ele>1763.68</ele>
        <time>2017-08-02T13:55:03Z</time>
      </trkpt>
      <trkpt lat="45.86117" lon="6.78159">
        <ele>1761.75</ele>
        <time>2017-08-02T13:55:07Z</time>
      </trkpt>
      <trkpt lat="45.86119" lon="6.78161">
        <ele>1760.79</ele>
        <time>2017-08-02T13:55:08Z</time>
      </trkpt>
      <trkpt lat="45.86128" lon="6.78183">
        <ele>1758.39</ele>
        <time>2017-08-02T13:55:15Z</time>
      </trkpt>
      <trkpt lat="45.86139" lon="6.78204">
        <ele>1757.91</ele>
        <time>2017-08-02T13:55:23Z</time>
      </trkpt>
      <trkpt lat="45.86142" lon="6.78208">
        <ele>1757.43</ele>
        <time>2017-08-02T13:55:25Z</time>
      </trkpt>
      <trkpt lat="45.86143" lon="6.78211">
        <ele>1756.95</ele>
        <time>2017-08-02T13:55:26Z</time>
      </trkpt>
      <trkpt lat="45.86143" lon="6.78214">
        <ele>1756.47</ele>
        <time>2017-08-02T13:55:27Z</time>
      </trkpt>
      <trkpt lat="45.86144" lon="6.78217">
        <ele>1756.47</ele>
        <time>2017-08-02T13:55:28Z</time>
      </trkpt>
      <trkpt lat="45.86144" lon="6.78221">
        <ele>1755.99</ele>
        <time>2017-08-02T13:55:29Z</time>
      </trkpt>
      <trkpt lat="45.86146" lon="6.78229">
        <ele>1755.99</ele>
        <time>2017-08-02T13:55:32Z</time>
      </trkpt>
      <trkpt lat="45.86148" lon="6.7823">
        <ele>1755.5</ele>
        <time>2017-08-02T13:55:33Z</time>
      </trkpt>
      <trkpt lat="45.86149" lon="6.78231">
        <ele>1755.02</ele>
        <time>2017-08-02T13:55:34Z</time>
      </trkpt>
      <trkpt lat="45.86149" lon="6.78232">
        <ele>1755.02</ele>
        <time>2017-08-02T13:55:35Z</time>
      </trkpt>
      <trkpt lat="45.86149" lon="6.78233">
        <ele>1755.02</ele>
        <time>2017-08-02T13:55:36Z</time>
      </trkpt>
      <trkpt lat="45.86148" lon="6.78238">
        <ele>1753.1</ele>
        <time>2017-08-02T13:55:43Z</time>
      </trkpt>
      <trkpt lat="45.86149" lon="6.78242">
        <ele>1752.14</ele>
        <time>2017-08-02T13:55:47Z</time>
      </trkpt>
      <trkpt lat="45.86149" lon="6.78243">
        <ele>1751.66</ele>
        <time>2017-08-02T13:55:48Z</time>
      </trkpt>
      <trkpt lat="45.86151" lon="6.78244">
        <ele>1751.18</ele>
        <time>2017-08-02T13:55:49Z</time>
      </trkpt>
      <trkpt lat="45.8615" lon="6.78245">
        <ele>1750.7</ele>
        <time>2017-08-02T13:55:50Z</time>
      </trkpt>
      <trkpt lat="45.8615" lon="6.78247">
        <ele>1750.7</ele>
        <time>2017-08-02T13:55:51Z</time>
      </trkpt>
      <trkpt lat="45.86149" lon="6.78248">
        <ele>1750.22</ele>
        <time>2017-08-02T13:55:52Z</time>
      </trkpt>
      <trkpt lat="45.8615" lon="6.7825">
        <ele>1750.22</ele>
        <time>2017-08-02T13:55:53Z</time>
      </trkpt>
      <trkpt lat="45.8615" lon="6.78252">
        <ele>1749.74</ele>
        <time>2017-08-02T13:55:54Z</time>
      </trkpt>
      <trkpt lat="45.8615" lon="6.78254">
        <ele>1749.74</ele>
        <time>2017-08-02T13:55:55Z</time>
      </trkpt>
      <trkpt lat="45.86152" lon="6.78255">
        <ele>1749.74</ele>
        <time>2017-08-02T13:55:56Z</time>
      </trkpt>
      <trkpt lat="45.86154" lon="6.78259">
        <ele>1749.26</ele>
        <time>2017-08-02T13:56:00Z</time>
      </trkpt>
      <trkpt lat="45.86154" lon="6.78262">
        <ele>1748.29</ele>
        <time>2017-08-02T13:56:02Z</time>
      </trkpt>
      <trkpt lat="45.86155" lon="6.78264">
        <ele>1748.29</ele>
        <time>2017-08-02T13:56:03Z</time>
      </trkpt>
      <trkpt lat="45.86157" lon="6.78268">
        <ele>1747.81</ele>
        <time>2017-08-02T13:56:06Z</time>
      </trkpt>
      <trkpt lat="45.86158" lon="6.7827">
        <ele>1746.37</ele>
        <time>2017-08-02T13:56:10Z</time>
      </trkpt>
      <trkpt lat="45.8616" lon="6.78272">
        <ele>1745.41</ele>
        <time>2017-08-02T13:56:13Z</time>
      </trkpt>
      <trkpt lat="45.86164" lon="6.7827">
        <ele>1743.49</ele>
        <time>2017-08-02T13:56:19Z</time>
      </trkpt>
      <trkpt lat="45.86164" lon="6.78272">
        <ele>1743.01</ele>
        <time>2017-08-02T13:56:20Z</time>
      </trkpt>
      <trkpt lat="45.86165" lon="6.78274">
        <ele>1742.53</ele>
        <time>2017-08-02T13:56:21Z</time>
      </trkpt>
      <trkpt lat="45.86167" lon="6.78274">
        <ele>1741.57</ele>
        <time>2017-08-02T13:56:24Z</time>
      </trkpt>
      <trkpt lat="45.86167" lon="6.78272">
        <ele>1740.6</ele>
        <time>2017-08-02T13:56:25Z</time>
      </trkpt>
      <trkpt lat="45.86169" lon="6.78272">
        <ele>1740.6</ele>
        <time>2017-08-02T13:56:26Z</time>
      </trkpt>
      <trkpt lat="45.8617" lon="6.78273">
        <ele>1740.12</ele>
        <time>2017-08-02T13:56:27Z</time>
      </trkpt>
      <trkpt lat="45.8617" lon="6.78276">
        <ele>1739.64</ele>
        <time>2017-08-02T13:56:28Z</time>
      </trkpt>
      <trkpt lat="45.8617" lon="6.78278">
        <ele>1739.16</ele>
        <time>2017-08-02T13:56:29Z</time>
      </trkpt>
      <trkpt lat="45.8617" lon="6.7828">
        <ele>1738.68</ele>
        <time>2017-08-02T13:56:30Z</time>
      </trkpt>
      <trkpt lat="45.86169" lon="6.78283">
        <ele>1738.2</ele>
        <time>2017-08-02T13:56:31Z</time>
      </trkpt>
      <trkpt lat="45.86168" lon="6.78286">
        <ele>1738.2</ele>
        <time>2017-08-02T13:56:32Z</time>
      </trkpt>
      <trkpt lat="45.86168" lon="6.78288">
        <ele>1737.72</ele>
        <time>2017-08-02T13:56:33Z</time>
      </trkpt>
      <trkpt lat="45.86169" lon="6.7829">
        <ele>1737.24</ele>
        <time>2017-08-02T13:56:34Z</time>
      </trkpt>
      <trkpt lat="45.86169" lon="6.78291">
        <ele>1736.76</ele>
        <time>2017-08-02T13:56:35Z</time>
      </trkpt>
      <trkpt lat="45.86169" lon="6.78293">
        <ele>1736.28</ele>
        <time>2017-08-02T13:56:36Z</time>
      </trkpt>
      <trkpt lat="45.8617" lon="6.78295">
        <ele>1736.28</ele>
        <time>2017-08-02T13:56:37Z</time>
      </trkpt>
      <trkpt lat="45.8617" lon="6.78296">
        <ele>1735.8</ele>
        <time>2017-08-02T13:56:38Z</time>
      </trkpt>
      <trkpt lat="45.86171" lon="6.78297">
        <ele>1735.32</ele>
        <time>2017-08-02T13:56:39Z</time>
      </trkpt>
      <trkpt lat="45.86172" lon="6.78297">
        <ele>1734.84</ele>
        <time>2017-08-02T13:56:40Z</time>
      </trkpt>
      <trkpt lat="45.86172" lon="6.78296">
        <ele>1734.36</ele>
        <time>2017-08-02T13:56:41Z</time>
      </trkpt>
      <trkpt lat="45.86173" lon="6.78296">
        <ele>1733.88</ele>
        <time>2017-08-02T13:56:42Z</time>
      </trkpt>
      <trkpt lat="45.86174" lon="6.78297">
        <ele>1733.39</ele>
        <time>2017-08-02T13:56:43Z</time>
      </trkpt>
      <trkpt lat="45.86174" lon="6.78299">
        <ele>1732.91</ele>
        <time>2017-08-02T13:56:44Z</time>
      </trkpt>
      <trkpt lat="45.86175" lon="6.78301">
        <ele>1732.43</ele>
        <time>2017-08-02T13:56:45Z</time>
      </trkpt>
      <trkpt lat="45.86175" lon="6.78304">
        <ele>1731.95</ele>
        <time>2017-08-02T13:56:46Z</time>
      </trkpt>
      <trkpt lat="45.86175" lon="6.78306">
        <ele>1731.47</ele>
        <time>2017-08-02T13:56:47Z</time>
      </trkpt>
      <trkpt lat="45.86176" lon="6.78309">
        <ele>1730.51</ele>
        <time>2017-08-02T13:56:48Z</time>
      </trkpt>
      <trkpt lat="45.86176" lon="6.78311">
        <ele>1730.03</ele>
        <time>2017-08-02T13:56:49Z</time>
      </trkpt>
      <trkpt lat="45.86178" lon="6.78314">
        <ele>1728.59</ele>
        <time>2017-08-02T13:56:51Z</time>
      </trkpt>
      <trkpt lat="45.86179" lon="6.78315">
        <ele>1727.63</ele>
        <time>2017-08-02T13:56:52Z</time>
      </trkpt>
      <trkpt lat="45.86181" lon="6.78314">
        <ele>1726.18</ele>
        <time>2017-08-02T13:56:57Z</time>
      </trkpt>
      <trkpt lat="45.86181" lon="6.78312">
        <ele>1725.7</ele>
        <time>2017-08-02T13:56:58Z</time>
      </trkpt>
      <trkpt lat="45.86185" lon="6.78307">
        <ele>1723.3</ele>
        <time>2017-08-02T13:57:03Z</time>
      </trkpt>
      <trkpt lat="45.86185" lon="6.78306">
        <ele>1722.82</ele>
        <time>2017-08-02T13:57:04Z</time>
      </trkpt>
      <trkpt lat="45.86187" lon="6.78303">
        <ele>1721.86</ele>
        <time>2017-08-02T13:57:07Z</time>
      </trkpt>
      <trkpt lat="45.86189" lon="6.78302">
        <ele>1721.38</ele>
        <time>2017-08-02T13:57:08Z</time>
      </trkpt>
      <trkpt lat="45.8619" lon="6.78301">
        <ele>1720.9</ele>
        <time>2017-08-02T13:57:09Z</time>
      </trkpt>
      <trkpt lat="45.86191" lon="6.78299">
        <ele>1720.42</ele>
        <time>2017-08-02T13:57:11Z</time>
      </trkpt>
      <trkpt lat="45.86194" lon="6.78299">
        <ele>1719.46</ele>
        <time>2017-08-02T13:57:12Z</time>
      </trkpt>
      <trkpt lat="45.86195" lon="6.78297">
        <ele>1718.97</ele>
        <time>2017-08-02T13:57:13Z</time>
      </trkpt>
      <trkpt lat="45.86198" lon="6.78298">
        <ele>1718.49</ele>
        <time>2017-08-02T13:57:14Z</time>
      </trkpt>
      <trkpt lat="45.862" lon="6.78298">
        <ele>1718.01</ele>
        <time>2017-08-02T13:57:15Z</time>
      </trkpt>
      <trkpt lat="45.86201" lon="6.78299">
        <ele>1718.01</ele>
        <time>2017-08-02T13:57:16Z</time>
      </trkpt>
      <trkpt lat="45.86203" lon="6.783">
        <ele>1717.53</ele>
        <time>2017-08-02T13:57:17Z</time>
      </trkpt>
      <trkpt lat="45.86204" lon="6.78301">
        <ele>1717.05</ele>
        <time>2017-08-02T13:57:18Z</time>
      </trkpt>
      <trkpt lat="45.86206" lon="6.78302">
        <ele>1716.57</ele>
        <time>2017-08-02T13:57:19Z</time>
      </trkpt>
      <trkpt lat="45.86206" lon="6.78302">
        <ele>1716.09</ele>
        <time>2017-08-02T13:57:20Z</time>
      </trkpt>
      <trkpt lat="45.86207" lon="6.78302">
        <ele>1715.61</ele>
        <time>2017-08-02T13:57:21Z</time>
      </trkpt>
      <trkpt lat="45.86208" lon="6.783">
        <ele>1715.13</ele>
        <time>2017-08-02T13:57:22Z</time>
      </trkpt>
      <trkpt lat="45.86214" lon="6.78294">
        <ele>1713.21</ele>
        <time>2017-08-02T13:57:26Z</time>
      </trkpt>
      <trkpt lat="45.86217" lon="6.78289">
        <ele>1710.32</ele>
        <time>2017-08-02T13:57:31Z</time>
      </trkpt>
      <trkpt lat="45.86218" lon="6.78289">
        <ele>1709.84</ele>
        <time>2017-08-02T13:57:32Z</time>
      </trkpt>
      <trkpt lat="45.86223" lon="6.78285">
        <ele>1708.4</ele>
        <time>2017-08-02T13:57:36Z</time>
      </trkpt>
      <trkpt lat="45.86226" lon="6.78285">
        <ele>1706.96</ele>
        <time>2017-08-02T13:57:38Z</time>
      </trkpt>
      <trkpt lat="45.86226" lon="6.78286">
        <ele>1706.48</ele>
        <time>2017-08-02T13:57:39Z</time>
      </trkpt>
      <trkpt lat="45.86227" lon="6.78287">
        <ele>1705.52</ele>
        <time>2017-08-02T13:57:40Z</time>
      </trkpt>
      <trkpt lat="45.86228" lon="6.78288">
        <ele>1705.04</ele>
        <time>2017-08-02T13:57:41Z</time>
      </trkpt>
      <trkpt lat="45.86228" lon="6.7829">
        <ele>1704.55</ele>
        <time>2017-08-02T13:57:42Z</time>
      </trkpt>
      <trkpt lat="45.8623" lon="6.78291">
        <ele>1704.07</ele>
        <time>2017-08-02T13:57:47Z</time>
      </trkpt>
      <trkpt lat="45.8623" lon="6.78291">
        <ele>1704.07</ele>
        <time>2017-08-02T13:57:52Z</time>
      </trkpt>
      <trkpt lat="45.86228" lon="6.78291">
        <ele>1704.55</ele>
        <time>2017-08-02T13:57:59Z</time>
      </trkpt>
      <trkpt lat="45.86228" lon="6.78289">
        <ele>1704.55</ele>
        <time>2017-08-02T13:58:08Z</time>
      </trkpt>
      <trkpt lat="45.86228" lon="6.78286">
        <ele>1703.59</ele>
        <time>2017-08-02T13:58:16Z</time>
      </trkpt>
      <trkpt lat="45.86228" lon="6.78284">
        <ele>1703.11</ele>
        <time>2017-08-02T13:58:18Z</time>
      </trkpt>
      <trkpt lat="45.86227" lon="6.78284">
        <ele>1703.11</ele>
        <time>2017-08-02T13:58:24Z</time>
      </trkpt>
      <trkpt lat="45.86225" lon="6.78288">
        <ele>1703.59</ele>
        <time>2017-08-02T13:58:28Z</time>
      </trkpt>
      <trkpt lat="45.86225" lon="6.78302">
        <ele>1703.59</ele>
        <time>2017-08-02T13:58:39Z</time>
      </trkpt>
      <trkpt lat="45.86226" lon="6.78303">
        <ele>1702.63</ele>
        <time>2017-08-02T13:58:40Z</time>
      </trkpt>
      <trkpt lat="45.86229" lon="6.78304">
        <ele>1702.15</ele>
        <time>2017-08-02T13:58:42Z</time>
      </trkpt>
      <trkpt lat="45.8623" lon="6.78306">
        <ele>1701.19</ele>
        <time>2017-08-02T13:58:54Z</time>
      </trkpt>
      <trkpt lat="45.86231" lon="6.78306">
        <ele>1700.71</ele>
        <time>2017-08-02T13:58:56Z</time>
      </trkpt>
      <trkpt lat="45.86234" lon="6.78304">
        <ele>1700.71</ele>
        <time>2017-08-02T13:58:59Z</time>
      </trkpt>
      <trkpt lat="45.86236" lon="6.78304">
        <ele>1700.23</ele>
        <time>2017-08-02T13:59:00Z</time>
      </trkpt>
      <trkpt lat="45.86247" lon="6.78299">
        <ele>1696.86</ele>
        <time>2017-08-02T13:59:07Z</time>
      </trkpt>
      <trkpt lat="45.86252" lon="6.78301">
        <ele>1695.42</ele>
        <time>2017-08-02T13:59:11Z</time>
      </trkpt>
      <trkpt lat="45.86253" lon="6.78303">
        <ele>1694.94</ele>
        <time>2017-08-02T13:59:12Z</time>
      </trkpt>
      <trkpt lat="45.86255" lon="6.78302">
        <ele>1694.94</ele>
        <time>2017-08-02T13:59:16Z</time>
      </trkpt>
      <trkpt lat="45.86256" lon="6.783">
        <ele>1693.98</ele>
        <time>2017-08-02T13:59:17Z</time>
      </trkpt>
      <trkpt lat="45.86257" lon="6.78299">
        <ele>1693.02</ele>
        <time>2017-08-02T13:59:18Z</time>
      </trkpt>
      <trkpt lat="45.86258" lon="6.78296">
        <ele>1692.06</ele>
        <time>2017-08-02T13:59:19Z</time>
      </trkpt>
      <trkpt lat="45.8626" lon="6.78294">
        <ele>1691.1</ele>
        <time>2017-08-02T13:59:20Z</time>
      </trkpt>
      <trkpt lat="45.86261" lon="6.78292">
        <ele>1689.65</ele>
        <time>2017-08-02T13:59:21Z</time>
      </trkpt>
      <trkpt lat="45.86267" lon="6.78287">
        <ele>1687.25</ele>
        <time>2017-08-02T13:59:24Z</time>
      </trkpt>
      <trkpt lat="45.86269" lon="6.78287">
        <ele>1687.25</ele>
        <time>2017-08-02T13:59:25Z</time>
      </trkpt>
      <trkpt lat="45.8627" lon="6.78288">
        <ele>1686.77</ele>
        <time>2017-08-02T13:59:26Z</time>
      </trkpt>
      <trkpt lat="45.86272" lon="6.78289">
        <ele>1686.29</ele>
        <time>2017-08-02T13:59:27Z</time>
      </trkpt>
      <trkpt lat="45.86272" lon="6.78291">
        <ele>1685.81</ele>
        <time>2017-08-02T13:59:31Z</time>
      </trkpt>
      <trkpt lat="45.86275" lon="6.78293">
        <ele>1685.81</ele>
        <time>2017-08-02T13:59:38Z</time>
      </trkpt>
      <trkpt lat="45.86274" lon="6.78298">
        <ele>1684.85</ele>
        <time>2017-08-02T13:59:52Z</time>
      </trkpt>
      <trkpt lat="45.86276" lon="6.783">
        <ele>1684.85</ele>
        <time>2017-08-02T13:59:58Z</time>
      </trkpt>
      <trkpt lat="45.86277" lon="6.78302">
        <ele>1684.85</ele>
        <time>2017-08-02T13:59:59Z</time>
      </trkpt>
      <trkpt lat="45.86278" lon="6.78303">
        <ele>1684.37</ele>
        <time>2017-08-02T14:00:00Z</time>
      </trkpt>
      <trkpt lat="45.8628" lon="6.78305">
        <ele>1683.89</ele>
        <time>2017-08-02T14:00:01Z</time>
      </trkpt>
      <trkpt lat="45.86281" lon="6.78307">
        <ele>1683.41</ele>
        <time>2017-08-02T14:00:02Z</time>
      </trkpt>
      <trkpt lat="45.86283" lon="6.78309">
        <ele>1682.93</ele>
        <time>2017-08-02T14:00:03Z</time>
      </trkpt>
      <trkpt lat="45.86285" lon="6.7831">
        <ele>1682.44</ele>
        <time>2017-08-02T14:00:04Z</time>
      </trkpt>
      <trkpt lat="45.86286" lon="6.78312">
        <ele>1682.44</ele>
        <time>2017-08-02T14:00:05Z</time>
      </trkpt>
      <trkpt lat="45.86288" lon="6.78314">
        <ele>1682.44</ele>
        <time>2017-08-02T14:00:06Z</time>
      </trkpt>
      <trkpt lat="45.86294" lon="6.7832">
        <ele>1683.41</ele>
        <time>2017-08-02T14:00:10Z</time>
      </trkpt>
      <trkpt lat="45.86294" lon="6.78323">
        <ele>1683.89</ele>
        <time>2017-08-02T14:00:11Z</time>
      </trkpt>
      <trkpt lat="45.86294" lon="6.78325">
        <ele>1684.37</ele>
        <time>2017-08-02T14:00:12Z</time>
      </trkpt>
      <trkpt lat="45.86294" lon="6.78327">
        <ele>1684.85</ele>
        <time>2017-08-02T14:00:13Z</time>
      </trkpt>
      <trkpt lat="45.86294" lon="6.7833">
        <ele>1685.81</ele>
        <time>2017-08-02T14:00:14Z</time>
      </trkpt>
      <trkpt lat="45.86294" lon="6.78332">
        <ele>1686.77</ele>
        <time>2017-08-02T14:00:15Z</time>
      </trkpt>
      <trkpt lat="45.86294" lon="6.78334">
        <ele>1687.25</ele>
        <time>2017-08-02T14:00:16Z</time>
      </trkpt>
      <trkpt lat="45.86295" lon="6.78336">
        <ele>1687.73</ele>
        <time>2017-08-02T14:00:17Z</time>
      </trkpt>
      <trkpt lat="45.86295" lon="6.78337">
        <ele>1688.69</ele>
        <time>2017-08-02T14:00:18Z</time>
      </trkpt>
      <trkpt lat="45.86295" lon="6.78339">
        <ele>1689.17</ele>
        <time>2017-08-02T14:00:19Z</time>
      </trkpt>
      <trkpt lat="45.86294" lon="6.78342">
        <ele>1689.65</ele>
        <time>2017-08-02T14:00:21Z</time>
      </trkpt>
      <trkpt lat="45.86296" lon="6.78344">
        <ele>1691.1</ele>
        <time>2017-08-02T14:00:24Z</time>
      </trkpt>
      <trkpt lat="45.86298" lon="6.78344">
        <ele>1691.58</ele>
        <time>2017-08-02T14:00:25Z</time>
      </trkpt>
      <trkpt lat="45.863" lon="6.78344">
        <ele>1692.06</ele>
        <time>2017-08-02T14:00:26Z</time>
      </trkpt>
      <trkpt lat="45.86302" lon="6.78344">
        <ele>1692.54</ele>
        <time>2017-08-02T14:00:27Z</time>
      </trkpt>
      <trkpt lat="45.86304" lon="6.78344">
        <ele>1692.54</ele>
        <time>2017-08-02T14:00:28Z</time>
      </trkpt>
      <trkpt lat="45.86306" lon="6.78345">
        <ele>1692.54</ele>
        <time>2017-08-02T14:00:29Z</time>
      </trkpt>
      <trkpt lat="45.86308" lon="6.78346">
        <ele>1693.02</ele>
        <time>2017-08-02T14:00:30Z</time>
      </trkpt>
      <trkpt lat="45.8631" lon="6.78345">
        <ele>1693.02</ele>
        <time>2017-08-02T14:00:31Z</time>
      </trkpt>
      <trkpt lat="45.86312" lon="6.78346">
        <ele>1693.5</ele>
        <time>2017-08-02T14:00:32Z</time>
      </trkpt>
      <trkpt lat="45.86314" lon="6.78345">
        <ele>1693.5</ele>
        <time>2017-08-02T14:00:33Z</time>
      </trkpt>
      <trkpt lat="45.86315" lon="6.78345">
        <ele>1693.98</ele>
        <time>2017-08-02T14:00:34Z</time>
      </trkpt>
      <trkpt lat="45.86316" lon="6.78346">
        <ele>1693.98</ele>
        <time>2017-08-02T14:00:35Z</time>
      </trkpt>
      <trkpt lat="45.86317" lon="6.78347">
        <ele>1694.46</ele>
        <time>2017-08-02T14:00:36Z</time>
      </trkpt>
      <trkpt lat="45.86318" lon="6.78347">
        <ele>1694.46</ele>
        <time>2017-08-02T14:00:37Z</time>
      </trkpt>
      <trkpt lat="45.86319" lon="6.78349">
        <ele>1694.94</ele>
        <time>2017-08-02T14:00:39Z</time>
      </trkpt>
      <trkpt lat="45.8632" lon="6.78349">
        <ele>1695.42</ele>
        <time>2017-08-02T14:00:40Z</time>
      </trkpt>
      <trkpt lat="45.86321" lon="6.7835">
        <ele>1695.42</ele>
        <time>2017-08-02T14:00:41Z</time>
      </trkpt>
      <trkpt lat="45.86322" lon="6.7835">
        <ele>1695.9</ele>
        <time>2017-08-02T14:00:42Z</time>
      </trkpt>
      <trkpt lat="45.86323" lon="6.78349">
        <ele>1696.86</ele>
        <time>2017-08-02T14:00:43Z</time>
      </trkpt>
      <trkpt lat="45.86325" lon="6.78347">
        <ele>1696.86</ele>
        <time>2017-08-02T14:00:44Z</time>
      </trkpt>
      <trkpt lat="45.86326" lon="6.78346">
        <ele>1697.34</ele>
        <time>2017-08-02T14:00:45Z</time>
      </trkpt>
      <trkpt lat="45.86336" lon="6.78346">
        <ele>1698.79</ele>
        <time>2017-08-02T14:00:55Z</time>
      </trkpt>
      <trkpt lat="45.8634" lon="6.78346">
        <ele>1700.23</ele>
        <time>2017-08-02T14:01:00Z</time>
      </trkpt>
      <trkpt lat="45.86341" lon="6.78346">
        <ele>1700.23</ele>
        <time>2017-08-02T14:01:01Z</time>
      </trkpt>
      <trkpt lat="45.8635" lon="6.7835">
        <ele>1703.11</ele>
        <time>2017-08-02T14:01:12Z</time>
      </trkpt>
      <trkpt lat="45.86351" lon="6.78351">
        <ele>1703.59</ele>
        <time>2017-08-02T14:01:13Z</time>
      </trkpt>
      <trkpt lat="45.86352" lon="6.78358">
        <ele>1705.04</ele>
        <time>2017-08-02T14:01:19Z</time>
      </trkpt>
      <trkpt lat="45.86352" lon="6.7836">
        <ele>1705.04</ele>
        <time>2017-08-02T14:01:20Z</time>
      </trkpt>
      <trkpt lat="45.86353" lon="6.7838">
        <ele>1708.4</ele>
        <time>2017-08-02T14:01:36Z</time>
      </trkpt>
      <trkpt lat="45.86352" lon="6.78385">
        <ele>1708.88</ele>
        <time>2017-08-02T14:01:41Z</time>
      </trkpt>
      <trkpt lat="45.86354" lon="6.78398">
        <ele>1710.8</ele>
        <time>2017-08-02T14:01:53Z</time>
      </trkpt>
      <trkpt lat="45.86355" lon="6.78399">
        <ele>1710.8</ele>
        <time>2017-08-02T14:01:54Z</time>
      </trkpt>
      <trkpt lat="45.86362" lon="6.7841">
        <ele>1713.21</ele>
        <time>2017-08-02T14:02:05Z</time>
      </trkpt>
      <trkpt lat="45.86365" lon="6.78415">
        <ele>1714.17</ele>
        <time>2017-08-02T14:02:10Z</time>
      </trkpt>
      <trkpt lat="45.86366" lon="6.78416">
        <ele>1714.17</ele>
        <time>2017-08-02T14:02:11Z</time>
      </trkpt>
      <trkpt lat="45.86368" lon="6.78426">
        <ele>1716.57</ele>
        <time>2017-08-02T14:02:22Z</time>
      </trkpt>
      <trkpt lat="45.86368" lon="6.78441">
        <ele>1718.97</ele>
        <time>2017-08-02T14:02:35Z</time>
      </trkpt>
      <trkpt lat="45.86367" lon="6.78471">
        <ele>1721.86</ele>
        <time>2017-08-02T14:02:56Z</time>
      </trkpt>
      <trkpt lat="45.86366" lon="6.78472">
        <ele>1722.34</ele>
        <time>2017-08-02T14:02:57Z</time>
      </trkpt>
      <trkpt lat="45.8636" lon="6.78477">
        <ele>1723.3</ele>
        <time>2017-08-02T14:03:03Z</time>
      </trkpt>
      <trkpt lat="45.86359" lon="6.78477">
        <ele>1723.78</ele>
        <time>2017-08-02T14:03:04Z</time>
      </trkpt>
      <trkpt lat="45.86359" lon="6.78484">
        <ele>1726.18</ele>
        <time>2017-08-02T14:03:11Z</time>
      </trkpt>
      <trkpt lat="45.86362" lon="6.78488">
        <ele>1728.11</ele>
        <time>2017-08-02T14:03:17Z</time>
      </trkpt>
      <trkpt lat="45.86366" lon="6.78495">
        <ele>1730.99</ele>
        <time>2017-08-02T14:03:28Z</time>
      </trkpt>
      <trkpt lat="45.86371" lon="6.78503">
        <ele>1734.36</ele>
        <time>2017-08-02T14:03:38Z</time>
      </trkpt>
      <trkpt lat="45.86375" lon="6.78506">
        <ele>1734.84</ele>
        <time>2017-08-02T14:03:42Z</time>
      </trkpt>
      <trkpt lat="45.86387" lon="6.78524">
        <ele>1738.2</ele>
        <time>2017-08-02T14:04:01Z</time>
      </trkpt>
      <trkpt lat="45.86387" lon="6.78527">
        <ele>1738.68</ele>
        <time>2017-08-02T14:04:03Z</time>
      </trkpt>
      <trkpt lat="45.86387" lon="6.78531">
        <ele>1740.12</ele>
        <time>2017-08-02T14:04:07Z</time>
      </trkpt>
      <trkpt lat="45.86387" lon="6.78533">
        <ele>1740.12</ele>
        <time>2017-08-02T14:04:08Z</time>
      </trkpt>
      <trkpt lat="45.86387" lon="6.78535">
        <ele>1740.12</ele>
        <time>2017-08-02T14:04:09Z</time>
      </trkpt>
      <trkpt lat="45.8639" lon="6.78541">
        <ele>1740.6</ele>
        <time>2017-08-02T14:04:13Z</time>
      </trkpt>
      <trkpt lat="45.86388" lon="6.78565">
        <ele>1742.05</ele>
        <time>2017-08-02T14:04:32Z</time>
      </trkpt>
      <trkpt lat="45.86383" lon="6.78578">
        <ele>1742.53</ele>
        <time>2017-08-02T14:04:41Z</time>
      </trkpt>
      <trkpt lat="45.8638" lon="6.78589">
        <ele>1744.93</ele>
        <time>2017-08-02T14:04:51Z</time>
      </trkpt>
      <trkpt lat="45.86378" lon="6.78594">
        <ele>1746.37</ele>
        <time>2017-08-02T14:05:01Z</time>
      </trkpt>
      <trkpt lat="45.86383" lon="6.78593">
        <ele>1749.74</ele>
        <time>2017-08-02T14:05:15Z</time>
      </trkpt>
      <trkpt lat="45.86383" lon="6.78601">
        <ele>1752.62</ele>
        <time>2017-08-02T14:05:25Z</time>
      </trkpt>
      <trkpt lat="45.86381" lon="6.78614">
        <ele>1755.99</ele>
        <time>2017-08-02T14:05:40Z</time>
      </trkpt>
      <trkpt lat="45.86383" lon="6.7862">
        <ele>1759.35</ele>
        <time>2017-08-02T14:05:52Z</time>
      </trkpt>
      <trkpt lat="45.86385" lon="6.78624">
        <ele>1762.23</ele>
        <time>2017-08-02T14:06:09Z</time>
      </trkpt>
      <trkpt lat="45.86387" lon="6.78633">
        <ele>1765.6</ele>
        <time>2017-08-02T14:06:23Z</time>
      </trkpt>
      <trkpt lat="45.86389" lon="6.78638">
        <ele>1767.04</ele>
        <time>2017-08-02T14:06:38Z</time>
      </trkpt>
      <trkpt lat="45.86396" lon="6.7864">
        <ele>1768</ele>
        <time>2017-08-02T14:06:45Z</time>
      </trkpt>
      <trkpt lat="45.86397" lon="6.78642">
        <ele>1768</ele>
        <time>2017-08-02T14:06:46Z</time>
      </trkpt>
      <trkpt lat="45.86397" lon="6.78644">
        <ele>1768</ele>
        <time>2017-08-02T14:06:47Z</time>
      </trkpt>
      <trkpt lat="45.86398" lon="6.78645">
        <ele>1768</ele>
        <time>2017-08-02T14:06:48Z</time>
      </trkpt>
      <trkpt lat="45.86399" lon="6.78647">
        <ele>1768</ele>
        <time>2017-08-02T14:06:49Z</time>
      </trkpt>
      <trkpt lat="45.864" lon="6.78648">
        <ele>1767.52</ele>
        <time>2017-08-02T14:06:50Z</time>
      </trkpt>
      <trkpt lat="45.86403" lon="6.78656">
        <ele>1768.48</ele>
        <time>2017-08-02T14:06:56Z</time>
      </trkpt>
      <trkpt lat="45.86406" lon="6.78657">
        <ele>1768</ele>
        <time>2017-08-02T14:06:59Z</time>
      </trkpt>
      <trkpt lat="45.86407" lon="6.78659">
        <ele>1768</ele>
        <time>2017-08-02T14:07:00Z</time>
      </trkpt>
      <trkpt lat="45.86407" lon="6.78661">
        <ele>1768</ele>
        <time>2017-08-02T14:07:01Z</time>
      </trkpt>
      <trkpt lat="45.86412" lon="6.78667">
        <ele>1768</ele>
        <time>2017-08-02T14:07:09Z</time>
      </trkpt>
      <trkpt lat="45.86415" lon="6.78676">
        <ele>1768</ele>
        <time>2017-08-02T14:07:23Z</time>
      </trkpt>
      <trkpt lat="45.86415" lon="6.78678">
        <ele>1768</ele>
        <time>2017-08-02T14:07:24Z</time>
      </trkpt>
      <trkpt lat="45.86416" lon="6.7868">
        <ele>1767.52</ele>
        <time>2017-08-02T14:07:25Z</time>
      </trkpt>
      <trkpt lat="45.86417" lon="6.78681">
        <ele>1767.52</ele>
        <time>2017-08-02T14:07:26Z</time>
      </trkpt>
      <trkpt lat="45.86418" lon="6.78682">
        <ele>1767.04</ele>
        <time>2017-08-02T14:07:27Z</time>
      </trkpt>
      <trkpt lat="45.8642" lon="6.78684">
        <ele>1767.04</ele>
        <time>2017-08-02T14:07:28Z</time>
      </trkpt>
      <trkpt lat="45.86421" lon="6.78685">
        <ele>1767.04</ele>
        <time>2017-08-02T14:07:29Z</time>
      </trkpt>
      <trkpt lat="45.8643" lon="6.78694">
        <ele>1765.12</ele>
        <time>2017-08-02T14:07:33Z</time>
      </trkpt>
      <trkpt lat="45.86448" lon="6.78707">
        <ele>1764.16</ele>
        <time>2017-08-02T14:07:41Z</time>
      </trkpt>
      <trkpt lat="45.86449" lon="6.78709">
        <ele>1764.16</ele>
        <time>2017-08-02T14:07:42Z</time>
      </trkpt>
      <trkpt lat="45.86451" lon="6.78711">
        <ele>1763.68</ele>
        <time>2017-08-02T14:07:43Z</time>
      </trkpt>
      <trkpt lat="45.86452" lon="6.78713">
        <ele>1763.68</ele>
        <time>2017-08-02T14:07:44Z</time>
      </trkpt>
      <trkpt lat="45.86453" lon="6.78714">
        <ele>1763.68</ele>
        <time>2017-08-02T14:07:45Z</time>
      </trkpt>
      <trkpt lat="45.86455" lon="6.78716">
        <ele>1763.2</ele>
        <time>2017-08-02T14:07:46Z</time>
      </trkpt>
      <trkpt lat="45.86456" lon="6.78718">
        <ele>1762.23</ele>
        <time>2017-08-02T14:07:47Z</time>
      </trkpt>
      <trkpt lat="45.86458" lon="6.78721">
        <ele>1762.23</ele>
        <time>2017-08-02T14:07:48Z</time>
      </trkpt>
      <trkpt lat="45.86475" lon="6.78736">
        <ele>1760.31</ele>
        <time>2017-08-02T14:07:55Z</time>
      </trkpt>
      <trkpt lat="45.86489" lon="6.78754">
        <ele>1759.83</ele>
        <time>2017-08-02T14:08:03Z</time>
      </trkpt>
      <trkpt lat="45.86495" lon="6.78757">
        <ele>1758.87</ele>
        <time>2017-08-02T14:08:06Z</time>
      </trkpt>
      <trkpt lat="45.86497" lon="6.78755">
        <ele>1758.39</ele>
        <time>2017-08-02T14:08:07Z</time>
      </trkpt>
      <trkpt lat="45.86498" lon="6.78752">
        <ele>1758.39</ele>
        <time>2017-08-02T14:08:08Z</time>
      </trkpt>
      <trkpt lat="45.865" lon="6.78749">
        <ele>1758.39</ele>
        <time>2017-08-02T14:08:09Z</time>
      </trkpt>
      <trkpt lat="45.86501" lon="6.78746">
        <ele>1758.39</ele>
        <time>2017-08-02T14:08:10Z</time>
      </trkpt>
      <trkpt lat="45.86506" lon="6.78737">
        <ele>1758.39</ele>
        <time>2017-08-02T14:08:13Z</time>
      </trkpt>
      <trkpt lat="45.86518" lon="6.78711">
        <ele>1757.43</ele>
        <time>2017-08-02T14:08:21Z</time>
      </trkpt>
      <trkpt lat="45.86524" lon="6.78694">
        <ele>1756.95</ele>
        <time>2017-08-02T14:08:26Z</time>
      </trkpt>
      <trkpt lat="45.86525" lon="6.78691">
        <ele>1756.47</ele>
        <time>2017-08-02T14:08:27Z</time>
      </trkpt>
      <trkpt lat="45.86525" lon="6.78688">
        <ele>1756.47</ele>
        <time>2017-08-02T14:08:28Z</time>
      </trkpt>
      <trkpt lat="45.86526" lon="6.78685">
        <ele>1755.99</ele>
        <time>2017-08-02T14:08:29Z</time>
      </trkpt>
      <trkpt lat="45.86526" lon="6.78682">
        <ele>1755.99</ele>
        <time>2017-08-02T14:08:30Z</time>
      </trkpt>
      <trkpt lat="45.86525" lon="6.78679">
        <ele>1755.99</ele>
        <time>2017-08-02T14:08:31Z</time>
      </trkpt>
      <trkpt lat="45.86525" lon="6.78676">
        <ele>1755.5</ele>
        <time>2017-08-02T14:08:32Z</time>
      </trkpt>
      <trkpt lat="45.86525" lon="6.78673">
        <ele>1755.02</ele>
        <time>2017-08-02T14:08:33Z</time>
      </trkpt>
      <trkpt lat="45.86525" lon="6.7867">
        <ele>1754.06</ele>
        <time>2017-08-02T14:08:34Z</time>
      </trkpt>
      <trkpt lat="45.86525" lon="6.78667">
        <ele>1753.58</ele>
        <time>2017-08-02T14:08:35Z</time>
      </trkpt>
      <trkpt lat="45.86526" lon="6.78665">
        <ele>1753.58</ele>
        <time>2017-08-02T14:08:36Z</time>
      </trkpt>
      <trkpt lat="45.86527" lon="6.78662">
        <ele>1753.58</ele>
        <time>2017-08-02T14:08:37Z</time>
      </trkpt>
      <trkpt lat="45.86531" lon="6.78654">
        <ele>1752.14</ele>
        <time>2017-08-02T14:08:41Z</time>
      </trkpt>
      <trkpt lat="45.86542" lon="6.7864">
        <ele>1749.26</ele>
        <time>2017-08-02T14:08:49Z</time>
      </trkpt>
      <trkpt lat="45.86549" lon="6.78635">
        <ele>1748.29</ele>
        <time>2017-08-02T14:08:53Z</time>
      </trkpt>
      <trkpt lat="45.86562" lon="6.7861">
        <ele>1746.37</ele>
        <time>2017-08-02T14:09:01Z</time>
      </trkpt>
      <trkpt lat="45.86573" lon="6.78584">
        <ele>1745.41</ele>
        <time>2017-08-02T14:09:10Z</time>
      </trkpt>
      <trkpt lat="45.86578" lon="6.78573">
        <ele>1747.81</ele>
        <time>2017-08-02T14:09:19Z</time>
      </trkpt>
      <trkpt lat="45.86578" lon="6.78571">
        <ele>1747.81</ele>
        <time>2017-08-02T14:09:20Z</time>
      </trkpt>
      <trkpt lat="45.86579" lon="6.78566">
        <ele>1747.81</ele>
        <time>2017-08-02T14:09:22Z</time>
      </trkpt>
      <trkpt lat="45.86578" lon="6.78563">
        <ele>1747.81</ele>
        <time>2017-08-02T14:09:23Z</time>
      </trkpt>
      <trkpt lat="45.86578" lon="6.7856">
        <ele>1747.81</ele>
        <time>2017-08-02T14:09:24Z</time>
      </trkpt>
      <trkpt lat="45.86579" lon="6.78558">
        <ele>1748.29</ele>
        <time>2017-08-02T14:09:25Z</time>
      </trkpt>
      <trkpt lat="45.86579" lon="6.78556">
        <ele>1748.29</ele>
        <time>2017-08-02T14:09:26Z</time>
      </trkpt>
      <trkpt lat="45.86579" lon="6.78554">
        <ele>1748.78</ele>
        <time>2017-08-02T14:09:27Z</time>
      </trkpt>
      <trkpt lat="45.86585" lon="6.78534">
        <ele>1748.78</ele>
        <time>2017-08-02T14:09:35Z</time>
      </trkpt>
      <trkpt lat="45.86587" lon="6.78533">
        <ele>1748.78</ele>
        <time>2017-08-02T14:09:36Z</time>
      </trkpt>
      <trkpt lat="45.86589" lon="6.78532">
        <ele>1748.78</ele>
        <time>2017-08-02T14:09:37Z</time>
      </trkpt>
      <trkpt lat="45.8659" lon="6.78533">
        <ele>1748.29</ele>
        <time>2017-08-02T14:09:38Z</time>
      </trkpt>
      <trkpt lat="45.86592" lon="6.78534">
        <ele>1748.29</ele>
        <time>2017-08-02T14:09:39Z</time>
      </trkpt>
      <trkpt lat="45.86603" lon="6.78539">
        <ele>1747.81</ele>
        <time>2017-08-02T14:09:45Z</time>
      </trkpt>
      <trkpt lat="45.86605" lon="6.78538">
        <ele>1748.29</ele>
        <time>2017-08-02T14:09:46Z</time>
      </trkpt>
      <trkpt lat="45.86607" lon="6.78538">
        <ele>1748.29</ele>
        <time>2017-08-02T14:09:47Z</time>
      </trkpt>
      <trkpt lat="45.86626" lon="6.78543">
        <ele>1745.89</ele>
        <time>2017-08-02T14:09:56Z</time>
      </trkpt>
      <trkpt lat="45.86631" lon="6.7854">
        <ele>1745.41</ele>
        <time>2017-08-02T14:10:00Z</time>
      </trkpt>
      <trkpt lat="45.8663" lon="6.78537">
        <ele>1746.37</ele>
        <time>2017-08-02T14:10:03Z</time>
      </trkpt>
      <trkpt lat="45.8663" lon="6.78535">
        <ele>1745.89</ele>
        <time>2017-08-02T14:10:05Z</time>
      </trkpt>
      <trkpt lat="45.86632" lon="6.78536">
        <ele>1745.41</ele>
        <time>2017-08-02T14:10:07Z</time>
      </trkpt>
      <trkpt lat="45.86636" lon="6.78526">
        <ele>1743.49</ele>
        <time>2017-08-02T14:10:19Z</time>
      </trkpt>
      <trkpt lat="45.86642" lon="6.78517">
        <ele>1740.12</ele>
        <time>2017-08-02T14:10:26Z</time>
      </trkpt>
      <trkpt lat="45.86645" lon="6.78514">
        <ele>1738.68</ele>
        <time>2017-08-02T14:10:31Z</time>
      </trkpt>
      <trkpt lat="45.86648" lon="6.78511">
        <ele>1737.72</ele>
        <time>2017-08-02T14:10:36Z</time>
      </trkpt>
      <trkpt lat="45.8665" lon="6.78508">
        <ele>1736.28</ele>
        <time>2017-08-02T14:10:43Z</time>
      </trkpt>
      <trkpt lat="45.86648" lon="6.78504">
        <ele>1735.8</ele>
        <time>2017-08-02T14:10:48Z</time>
      </trkpt>
      <trkpt lat="45.86638" lon="6.78498">
        <ele>1733.39</ele>
        <time>2017-08-02T14:10:56Z</time>
      </trkpt>
      <trkpt lat="45.86629" lon="6.78492">
        <ele>1731.47</ele>
        <time>2017-08-02T14:11:02Z</time>
      </trkpt>
      <trkpt lat="45.86629" lon="6.7849">
        <ele>1730.99</ele>
        <time>2017-08-02T14:11:03Z</time>
      </trkpt>
      <trkpt lat="45.86629" lon="6.78488">
        <ele>1730.51</ele>
        <time>2017-08-02T14:11:04Z</time>
      </trkpt>
      <trkpt lat="45.86629" lon="6.78486">
        <ele>1730.03</ele>
        <time>2017-08-02T14:11:05Z</time>
      </trkpt>
      <trkpt lat="45.86629" lon="6.78485">
        <ele>1729.07</ele>
        <time>2017-08-02T14:11:06Z</time>
      </trkpt>
      <trkpt lat="45.8663" lon="6.78483">
        <ele>1728.11</ele>
        <time>2017-08-02T14:11:07Z</time>
      </trkpt>
      <trkpt lat="45.86631" lon="6.78481">
        <ele>1727.63</ele>
        <time>2017-08-02T14:11:09Z</time>
      </trkpt>
      <trkpt lat="45.86635" lon="6.78478">
        <ele>1727.15</ele>
        <time>2017-08-02T14:11:15Z</time>
      </trkpt>
      <trkpt lat="45.86636" lon="6.78478">
        <ele>1726.67</ele>
        <time>2017-08-02T14:11:16Z</time>
      </trkpt>
      <trkpt lat="45.86638" lon="6.78477">
        <ele>1726.67</ele>
        <time>2017-08-02T14:11:17Z</time>
      </trkpt>
      <trkpt lat="45.86639" lon="6.78477">
        <ele>1726.18</ele>
        <time>2017-08-02T14:11:18Z</time>
      </trkpt>
      <trkpt lat="45.8664" lon="6.78476">
        <ele>1726.18</ele>
        <time>2017-08-02T14:11:19Z</time>
      </trkpt>
      <trkpt lat="45.86644" lon="6.78471">
        <ele>1724.26</ele>
        <time>2017-08-02T14:11:23Z</time>
      </trkpt>
      <trkpt lat="45.86653" lon="6.78463">
        <ele>1720.42</ele>
        <time>2017-08-02T14:11:33Z</time>
      </trkpt>
      <trkpt lat="45.86655" lon="6.78461">
        <ele>1719.46</ele>
        <time>2017-08-02T14:11:36Z</time>
      </trkpt>
      <trkpt lat="45.86655" lon="6.78455">
        <ele>1717.53</ele>
        <time>2017-08-02T14:11:43Z</time>
      </trkpt>
      <trkpt lat="45.86654" lon="6.78454">
        <ele>1717.05</ele>
        <time>2017-08-02T14:11:44Z</time>
      </trkpt>
      <trkpt lat="45.86654" lon="6.78453">
        <ele>1716.57</ele>
        <time>2017-08-02T14:11:45Z</time>
      </trkpt>
      <trkpt lat="45.86653" lon="6.78452">
        <ele>1716.09</ele>
        <time>2017-08-02T14:11:47Z</time>
      </trkpt>
      <trkpt lat="45.86652" lon="6.78453">
        <ele>1715.61</ele>
        <time>2017-08-02T14:11:48Z</time>
      </trkpt>
      <trkpt lat="45.86649" lon="6.7845">
        <ele>1714.17</ele>
        <time>2017-08-02T14:11:55Z</time>
      </trkpt>
      <trkpt lat="45.86648" lon="6.78449">
        <ele>1713.69</ele>
        <time>2017-08-02T14:11:56Z</time>
      </trkpt>
      <trkpt lat="45.86647" lon="6.78448">
        <ele>1713.69</ele>
        <time>2017-08-02T14:11:57Z</time>
      </trkpt>
      <trkpt lat="45.86649" lon="6.78444">
        <ele>1711.28</ele>
        <time>2017-08-02T14:12:03Z</time>
      </trkpt>
      <trkpt lat="45.86653" lon="6.78441">
        <ele>1709.36</ele>
        <time>2017-08-02T14:12:09Z</time>
      </trkpt>
      <trkpt lat="45.86654" lon="6.7844">
        <ele>1709.36</ele>
        <time>2017-08-02T14:12:10Z</time>
      </trkpt>
      <trkpt lat="45.86654" lon="6.78439">
        <ele>1708.88</ele>
        <time>2017-08-02T14:12:11Z</time>
      </trkpt>
      <trkpt lat="45.86656" lon="6.78433">
        <ele>1705.52</ele>
        <time>2017-08-02T14:12:19Z</time>
      </trkpt>
      <trkpt lat="45.86659" lon="6.78429">
        <ele>1703.59</ele>
        <time>2017-08-02T14:12:23Z</time>
      </trkpt>
      <trkpt lat="45.8666" lon="6.78429">
        <ele>1703.59</ele>
        <time>2017-08-02T14:12:24Z</time>
      </trkpt>
      <trkpt lat="45.8666" lon="6.78425">
        <ele>1702.63</ele>
        <time>2017-08-02T14:12:26Z</time>
      </trkpt>
      <trkpt lat="45.86662" lon="6.78422">
        <ele>1699.27</ele>
        <time>2017-08-02T14:12:34Z</time>
      </trkpt>
      <trkpt lat="45.86666" lon="6.78418">
        <ele>1698.79</ele>
        <time>2017-08-02T14:12:48Z</time>
      </trkpt>
      <trkpt lat="45.86668" lon="6.78415">
        <ele>1698.79</ele>
        <time>2017-08-02T14:12:57Z</time>
      </trkpt>
      <trkpt lat="45.86674" lon="6.78421">
        <ele>1697.83</ele>
        <time>2017-08-02T14:13:24Z</time>
      </trkpt>
      <trkpt lat="45.86675" lon="6.78421">
        <ele>1697.83</ele>
        <time>2017-08-02T14:13:25Z</time>
      </trkpt>
      <trkpt lat="45.86678" lon="6.78418">
        <ele>1697.34</ele>
        <time>2017-08-02T14:13:28Z</time>
      </trkpt>
      <trkpt lat="45.8668" lon="6.78417">
        <ele>1696.86</ele>
        <time>2017-08-02T14:13:29Z</time>
      </trkpt>
      <trkpt lat="45.86682" lon="6.78416">
        <ele>1696.38</ele>
        <time>2017-08-02T14:13:30Z</time>
      </trkpt>
      <trkpt lat="45.86689" lon="6.78413">
        <ele>1694.46</ele>
        <time>2017-08-02T14:13:34Z</time>
      </trkpt>
      <trkpt lat="45.867" lon="6.78409">
        <ele>1691.58</ele>
        <time>2017-08-02T14:13:40Z</time>
      </trkpt>
      <trkpt lat="45.86702" lon="6.78407">
        <ele>1690.62</ele>
        <time>2017-08-02T14:13:43Z</time>
      </trkpt>
      <trkpt lat="45.86703" lon="6.78406">
        <ele>1690.62</ele>
        <time>2017-08-02T14:13:44Z</time>
      </trkpt>
      <trkpt lat="45.86704" lon="6.78404">
        <ele>1690.14</ele>
        <time>2017-08-02T14:13:45Z</time>
      </trkpt>
      <trkpt lat="45.86708" lon="6.78399">
        <ele>1687.73</ele>
        <time>2017-08-02T14:13:49Z</time>
      </trkpt>
      <trkpt lat="45.86709" lon="6.78398">
        <ele>1687.25</ele>
        <time>2017-08-02T14:13:50Z</time>
      </trkpt>
      <trkpt lat="45.86711" lon="6.78397">
        <ele>1686.77</ele>
        <time>2017-08-02T14:13:51Z</time>
      </trkpt>
      <trkpt lat="45.86712" lon="6.78397">
        <ele>1686.29</ele>
        <time>2017-08-02T14:13:52Z</time>
      </trkpt>
      <trkpt lat="45.86712" lon="6.78396">
        <ele>1686.29</ele>
        <time>2017-08-02T14:13:53Z</time>
      </trkpt>
      <trkpt lat="45.8671" lon="6.78396">
        <ele>1685.81</ele>
        <time>2017-08-02T14:13:54Z</time>
      </trkpt>
      <trkpt lat="45.86709" lon="6.78396">
        <ele>1684.85</ele>
        <time>2017-08-02T14:13:55Z</time>
      </trkpt>
      <trkpt lat="45.86706" lon="6.78395">
        <ele>1684.37</ele>
        <time>2017-08-02T14:13:56Z</time>
      </trkpt>
      <trkpt lat="45.86705" lon="6.78393">
        <ele>1683.89</ele>
        <time>2017-08-02T14:13:57Z</time>
      </trkpt>
      <trkpt lat="45.86703" lon="6.78391">
        <ele>1683.41</ele>
        <time>2017-08-02T14:13:58Z</time>
      </trkpt>
      <trkpt lat="45.86701" lon="6.78389">
        <ele>1682.93</ele>
        <time>2017-08-02T14:13:59Z</time>
      </trkpt>
      <trkpt lat="45.86699" lon="6.78387">
        <ele>1682.44</ele>
        <time>2017-08-02T14:14:00Z</time>
      </trkpt>
      <trkpt lat="45.86697" lon="6.78387">
        <ele>1681.48</ele>
        <time>2017-08-02T14:14:01Z</time>
      </trkpt>
      <trkpt lat="45.86695" lon="6.78387">
        <ele>1681</ele>
        <time>2017-08-02T14:14:02Z</time>
      </trkpt>
      <trkpt lat="45.86693" lon="6.78386">
        <ele>1680.04</ele>
        <time>2017-08-02T14:14:03Z</time>
      </trkpt>
      <trkpt lat="45.86692" lon="6.78384">
        <ele>1679.56</ele>
        <time>2017-08-02T14:14:04Z</time>
      </trkpt>
      <trkpt lat="45.86691" lon="6.78382">
        <ele>1678.6</ele>
        <time>2017-08-02T14:14:05Z</time>
      </trkpt>
      <trkpt lat="45.86692" lon="6.78379">
        <ele>1678.12</ele>
        <time>2017-08-02T14:14:06Z</time>
      </trkpt>
      <trkpt lat="45.86693" lon="6.78377">
        <ele>1677.64</ele>
        <time>2017-08-02T14:14:07Z</time>
      </trkpt>
      <trkpt lat="45.86694" lon="6.78376">
        <ele>1676.68</ele>
        <time>2017-08-02T14:14:08Z</time>
      </trkpt>
      <trkpt lat="45.86695" lon="6.78374">
        <ele>1676.2</ele>
        <time>2017-08-02T14:14:09Z</time>
      </trkpt>
      <trkpt lat="45.86696" lon="6.78372">
        <ele>1675.23</ele>
        <time>2017-08-02T14:14:10Z</time>
      </trkpt>
      <trkpt lat="45.86697" lon="6.7837">
        <ele>1674.27</ele>
        <time>2017-08-02T14:14:11Z</time>
      </trkpt>
      <trkpt lat="45.86698" lon="6.78369">
        <ele>1673.79</ele>
        <time>2017-08-02T14:14:12Z</time>
      </trkpt>
      <trkpt lat="45.86697" lon="6.78367">
        <ele>1673.31</ele>
        <time>2017-08-02T14:14:13Z</time>
      </trkpt>
      <trkpt lat="45.86695" lon="6.78366">
        <ele>1672.83</ele>
        <time>2017-08-02T14:14:14Z</time>
      </trkpt>
      <trkpt lat="45.86693" lon="6.78365">
        <ele>1672.35</ele>
        <time>2017-08-02T14:14:15Z</time>
      </trkpt>
      <trkpt lat="45.86691" lon="6.78364">
        <ele>1671.87</ele>
        <time>2017-08-02T14:14:16Z</time>
      </trkpt>
      <trkpt lat="45.8669" lon="6.78364">
        <ele>1670.43</ele>
        <time>2017-08-02T14:14:17Z</time>
      </trkpt>
      <trkpt lat="45.86681" lon="6.78364">
        <ele>1667.54</ele>
        <time>2017-08-02T14:14:22Z</time>
      </trkpt>
      <trkpt lat="45.86673" lon="6.78364">
        <ele>1665.14</ele>
        <time>2017-08-02T14:14:26Z</time>
      </trkpt>
      <trkpt lat="45.86671" lon="6.78364">
        <ele>1664.18</ele>
        <time>2017-08-02T14:14:27Z</time>
      </trkpt>
      <trkpt lat="45.8667" lon="6.78364">
        <ele>1663.7</ele>
        <time>2017-08-02T14:14:28Z</time>
      </trkpt>
      <trkpt lat="45.86668" lon="6.78364">
        <ele>1663.22</ele>
        <time>2017-08-02T14:14:29Z</time>
      </trkpt>
      <trkpt lat="45.86666" lon="6.78363">
        <ele>1663.22</ele>
        <time>2017-08-02T14:14:30Z</time>
      </trkpt>
      <trkpt lat="45.86665" lon="6.78363">
        <ele>1662.74</ele>
        <time>2017-08-02T14:14:31Z</time>
      </trkpt>
      <trkpt lat="45.86652" lon="6.78356">
        <ele>1659.37</ele>
        <time>2017-08-02T14:14:38Z</time>
      </trkpt>
      <trkpt lat="45.86646" lon="6.78351">
        <ele>1656.97</ele>
        <time>2017-08-02T14:14:42Z</time>
      </trkpt>
      <trkpt lat="45.8665" lon="6.7835">
        <ele>1656.97</ele>
        <time>2017-08-02T14:14:43Z</time>
      </trkpt>
      <trkpt lat="45.86652" lon="6.78349">
        <ele>1656.01</ele>
        <time>2017-08-02T14:14:44Z</time>
      </trkpt>
      <trkpt lat="45.86656" lon="6.78347">
        <ele>1654.57</ele>
        <time>2017-08-02T14:14:46Z</time>
      </trkpt>
      <trkpt lat="45.86657" lon="6.78346">
        <ele>1653.6</ele>
        <time>2017-08-02T14:14:47Z</time>
      </trkpt>
      <trkpt lat="45.86658" lon="6.78346">
        <ele>1653.12</ele>
        <time>2017-08-02T14:14:48Z</time>
      </trkpt>
      <trkpt lat="45.86658" lon="6.78344">
        <ele>1652.16</ele>
        <time>2017-08-02T14:14:49Z</time>
      </trkpt>
      <trkpt lat="45.86659" lon="6.78343">
        <ele>1651.68</ele>
        <time>2017-08-02T14:14:50Z</time>
      </trkpt>
      <trkpt lat="45.86661" lon="6.78341">
        <ele>1651.2</ele>
        <time>2017-08-02T14:14:51Z</time>
      </trkpt>
      <trkpt lat="45.86663" lon="6.78339">
        <ele>1650.72</ele>
        <time>2017-08-02T14:14:52Z</time>
      </trkpt>
      <trkpt lat="45.86672" lon="6.78334">
        <ele>1647.84</ele>
        <time>2017-08-02T14:14:56Z</time>
      </trkpt>
      <trkpt lat="45.86675" lon="6.78332">
        <ele>1646.88</ele>
        <time>2017-08-02T14:14:57Z</time>
      </trkpt>
      <trkpt lat="45.86677" lon="6.7833">
        <ele>1646.4</ele>
        <time>2017-08-02T14:14:58Z</time>
      </trkpt>
      <trkpt lat="45.86686" lon="6.78324">
        <ele>1643.03</ele>
        <time>2017-08-02T14:15:02Z</time>
      </trkpt>
      <trkpt lat="45.86702" lon="6.7832">
        <ele>1639.67</ele>
        <time>2017-08-02T14:15:08Z</time>
      </trkpt>
      <trkpt lat="45.86708" lon="6.78317">
        <ele>1638.7</ele>
        <time>2017-08-02T14:15:11Z</time>
      </trkpt>
      <trkpt lat="45.86711" lon="6.78319">
        <ele>1638.22</ele>
        <time>2017-08-02T14:15:12Z</time>
      </trkpt>
      <trkpt lat="45.86713" lon="6.78319">
        <ele>1638.22</ele>
        <time>2017-08-02T14:15:13Z</time>
      </trkpt>
      <trkpt lat="45.86731" lon="6.78322">
        <ele>1634.86</ele>
        <time>2017-08-02T14:15:20Z</time>
      </trkpt>
      <trkpt lat="45.86738" lon="6.78326">
        <ele>1633.9</ele>
        <time>2017-08-02T14:15:23Z</time>
      </trkpt>
      <trkpt lat="45.8674" lon="6.78326">
        <ele>1633.42</ele>
        <time>2017-08-02T14:15:24Z</time>
      </trkpt>
      <trkpt lat="45.86741" lon="6.78325">
        <ele>1632.94</ele>
        <time>2017-08-02T14:15:25Z</time>
      </trkpt>
      <trkpt lat="45.86743" lon="6.78324">
        <ele>1632.94</ele>
        <time>2017-08-02T14:15:26Z</time>
      </trkpt>
      <trkpt lat="45.86745" lon="6.78323">
        <ele>1632.46</ele>
        <time>2017-08-02T14:15:27Z</time>
      </trkpt>
      <trkpt lat="45.86746" lon="6.78321">
        <ele>1631.49</ele>
        <time>2017-08-02T14:15:28Z</time>
      </trkpt>
      <trkpt lat="45.86748" lon="6.78319">
        <ele>1631.01</ele>
        <time>2017-08-02T14:15:29Z</time>
      </trkpt>
      <trkpt lat="45.8675" lon="6.78317">
        <ele>1631.01</ele>
        <time>2017-08-02T14:15:30Z</time>
      </trkpt>
      <trkpt lat="45.8675" lon="6.78314">
        <ele>1630.53</ele>
        <time>2017-08-02T14:15:31Z</time>
      </trkpt>
      <trkpt lat="45.86751" lon="6.7831">
        <ele>1630.05</ele>
        <time>2017-08-02T14:15:32Z</time>
      </trkpt>
      <trkpt lat="45.86752" lon="6.78305">
        <ele>1629.57</ele>
        <time>2017-08-02T14:15:33Z</time>
      </trkpt>
      <trkpt lat="45.86753" lon="6.783">
        <ele>1629.09</ele>
        <time>2017-08-02T14:15:34Z</time>
      </trkpt>
      <trkpt lat="45.86756" lon="6.78282">
        <ele>1627.65</ele>
        <time>2017-08-02T14:15:38Z</time>
      </trkpt>
      <trkpt lat="45.86759" lon="6.78259">
        <ele>1624.28</ele>
        <time>2017-08-02T14:15:43Z</time>
      </trkpt>
      <trkpt lat="45.86772" lon="6.78238">
        <ele>1620.92</ele>
        <time>2017-08-02T14:15:50Z</time>
      </trkpt>
      <trkpt lat="45.86781" lon="6.78224">
        <ele>1618.04</ele>
        <time>2017-08-02T14:15:55Z</time>
      </trkpt>
      <trkpt lat="45.86784" lon="6.78221">
        <ele>1617.56</ele>
        <time>2017-08-02T14:15:56Z</time>
      </trkpt>
      <trkpt lat="45.86788" lon="6.78217">
        <ele>1617.07</ele>
        <time>2017-08-02T14:15:58Z</time>
      </trkpt>
      <trkpt lat="45.86789" lon="6.78214">
        <ele>1616.59</ele>
        <time>2017-08-02T14:15:59Z</time>
      </trkpt>
      <trkpt lat="45.86789" lon="6.78211">
        <ele>1616.11</ele>
        <time>2017-08-02T14:16:00Z</time>
      </trkpt>
      <trkpt lat="45.8679" lon="6.78209">
        <ele>1615.63</ele>
        <time>2017-08-02T14:16:01Z</time>
      </trkpt>
      <trkpt lat="45.8679" lon="6.78207">
        <ele>1615.63</ele>
        <time>2017-08-02T14:16:02Z</time>
      </trkpt>
      <trkpt lat="45.86789" lon="6.78204">
        <ele>1615.63</ele>
        <time>2017-08-02T14:16:03Z</time>
      </trkpt>
      <trkpt lat="45.86788" lon="6.78202">
        <ele>1614.67</ele>
        <time>2017-08-02T14:16:04Z</time>
      </trkpt>
      <trkpt lat="45.86788" lon="6.78201">
        <ele>1614.19</ele>
        <time>2017-08-02T14:16:05Z</time>
      </trkpt>
      <trkpt lat="45.86787" lon="6.782">
        <ele>1613.23</ele>
        <time>2017-08-02T14:16:06Z</time>
      </trkpt>
      <trkpt lat="45.86787" lon="6.782">
        <ele>1612.27</ele>
        <time>2017-08-02T14:16:07Z</time>
      </trkpt>
      <trkpt lat="45.86787" lon="6.78198">
        <ele>1611.79</ele>
        <time>2017-08-02T14:16:08Z</time>
      </trkpt>
      <trkpt lat="45.86787" lon="6.78196">
        <ele>1611.79</ele>
        <time>2017-08-02T14:16:09Z</time>
      </trkpt>
      <trkpt lat="45.86787" lon="6.78194">
        <ele>1611.31</ele>
        <time>2017-08-02T14:16:10Z</time>
      </trkpt>
      <trkpt lat="45.86786" lon="6.78191">
        <ele>1610.35</ele>
        <time>2017-08-02T14:16:11Z</time>
      </trkpt>
      <trkpt lat="45.86785" lon="6.78189">
        <ele>1609.38</ele>
        <time>2017-08-02T14:16:12Z</time>
      </trkpt>
      <trkpt lat="45.86784" lon="6.78187">
        <ele>1608.9</ele>
        <time>2017-08-02T14:16:13Z</time>
      </trkpt>
      <trkpt lat="45.86784" lon="6.78185">
        <ele>1608.42</ele>
        <time>2017-08-02T14:16:14Z</time>
      </trkpt>
      <trkpt lat="45.86785" lon="6.78182">
        <ele>1607.94</ele>
        <time>2017-08-02T14:16:15Z</time>
      </trkpt>
      <trkpt lat="45.86785" lon="6.7818">
        <ele>1606.98</ele>
        <time>2017-08-02T14:16:16Z</time>
      </trkpt>
      <trkpt lat="45.86784" lon="6.78178">
        <ele>1606.5</ele>
        <time>2017-08-02T14:16:17Z</time>
      </trkpt>
      <trkpt lat="45.86784" lon="6.78175">
        <ele>1606.02</ele>
        <time>2017-08-02T14:16:18Z</time>
      </trkpt>
      <trkpt lat="45.86783" lon="6.78172">
        <ele>1606.02</ele>
        <time>2017-08-02T14:16:19Z</time>
      </trkpt>
      <trkpt lat="45.86778" lon="6.78162">
        <ele>1602.17</ele>
        <time>2017-08-02T14:16:23Z</time>
      </trkpt>
      <trkpt lat="45.86774" lon="6.78156">
        <ele>1599.77</ele>
        <time>2017-08-02T14:16:26Z</time>
      </trkpt>
      <trkpt lat="45.86774" lon="6.78153">
        <ele>1598.81</ele>
        <time>2017-08-02T14:16:27Z</time>
      </trkpt>
      <trkpt lat="45.86769" lon="6.78137">
        <ele>1595.93</ele>
        <time>2017-08-02T14:16:32Z</time>
      </trkpt>
      <trkpt lat="45.86766" lon="6.78122">
        <ele>1592.56</ele>
        <time>2017-08-02T14:16:37Z</time>
      </trkpt>
      <trkpt lat="45.86767" lon="6.78119">
        <ele>1592.56</ele>
        <time>2017-08-02T14:16:38Z</time>
      </trkpt>
      <trkpt lat="45.86768" lon="6.78116">
        <ele>1591.6</ele>
        <time>2017-08-02T14:16:39Z</time>
      </trkpt>
      <trkpt lat="45.86768" lon="6.78112">
        <ele>1591.12</ele>
        <time>2017-08-02T14:16:40Z</time>
      </trkpt>
      <trkpt lat="45.86768" lon="6.78109">
        <ele>1590.64</ele>
        <time>2017-08-02T14:16:41Z</time>
      </trkpt>
      <trkpt lat="45.86769" lon="6.78106">
        <ele>1590.16</ele>
        <time>2017-08-02T14:16:42Z</time>
      </trkpt>
      <trkpt lat="45.8677" lon="6.78103">
        <ele>1589.68</ele>
        <time>2017-08-02T14:16:43Z</time>
      </trkpt>
      <trkpt lat="45.86771" lon="6.78101">
        <ele>1589.2</ele>
        <time>2017-08-02T14:16:44Z</time>
      </trkpt>
      <trkpt lat="45.86777" lon="6.7809">
        <ele>1586.79</ele>
        <time>2017-08-02T14:16:49Z</time>
      </trkpt>
      <trkpt lat="45.86779" lon="6.78089">
        <ele>1586.31</ele>
        <time>2017-08-02T14:16:50Z</time>
      </trkpt>
      <trkpt lat="45.8678" lon="6.78087">
        <ele>1585.83</ele>
        <time>2017-08-02T14:16:51Z</time>
      </trkpt>
      <trkpt lat="45.86781" lon="6.78084">
        <ele>1585.35</ele>
        <time>2017-08-02T14:16:52Z</time>
      </trkpt>
      <trkpt lat="45.86781" lon="6.78081">
        <ele>1584.87</ele>
        <time>2017-08-02T14:16:53Z</time>
      </trkpt>
      <trkpt lat="45.86781" lon="6.78078">
        <ele>1584.39</ele>
        <time>2017-08-02T14:16:54Z</time>
      </trkpt>
      <trkpt lat="45.86782" lon="6.78075">
        <ele>1583.43</ele>
        <time>2017-08-02T14:16:55Z</time>
      </trkpt>
      <trkpt lat="45.86784" lon="6.78065">
        <ele>1581.99</ele>
        <time>2017-08-02T14:16:59Z</time>
      </trkpt>
      <trkpt lat="45.86786" lon="6.78063">
        <ele>1581.03</ele>
        <time>2017-08-02T14:17:00Z</time>
      </trkpt>
      <trkpt lat="45.86787" lon="6.7806">
        <ele>1580.06</ele>
        <time>2017-08-02T14:17:01Z</time>
      </trkpt>
      <trkpt lat="45.86787" lon="6.78058">
        <ele>1579.58</ele>
        <time>2017-08-02T14:17:02Z</time>
      </trkpt>
      <trkpt lat="45.86788" lon="6.78055">
        <ele>1579.58</ele>
        <time>2017-08-02T14:17:03Z</time>
      </trkpt>
      <trkpt lat="45.86789" lon="6.78051">
        <ele>1579.1</ele>
        <time>2017-08-02T14:17:04Z</time>
      </trkpt>
      <trkpt lat="45.86791" lon="6.78048">
        <ele>1578.62</ele>
        <time>2017-08-02T14:17:05Z</time>
      </trkpt>
      <trkpt lat="45.86792" lon="6.78046">
        <ele>1578.14</ele>
        <time>2017-08-02T14:17:06Z</time>
      </trkpt>
      <trkpt lat="45.86805" lon="6.78019">
        <ele>1574.78</ele>
        <time>2017-08-02T14:17:15Z</time>
      </trkpt>
      <trkpt lat="45.86809" lon="6.78012">
        <ele>1573.82</ele>
        <time>2017-08-02T14:17:17Z</time>
      </trkpt>
      <trkpt lat="45.86823" lon="6.77992">
        <ele>1571.41</ele>
        <time>2017-08-02T14:17:24Z</time>
      </trkpt>
      <trkpt lat="45.86833" lon="6.77966">
        <ele>1569.01</ele>
        <time>2017-08-02T14:17:31Z</time>
      </trkpt>
      <trkpt lat="45.86838" lon="6.77936">
        <ele>1568.05</ele>
        <time>2017-08-02T14:17:38Z</time>
      </trkpt>
      <trkpt lat="45.86847" lon="6.77912">
        <ele>1565.16</ele>
        <time>2017-08-02T14:17:44Z</time>
      </trkpt>
      <trkpt lat="45.86848" lon="6.77908">
        <ele>1564.68</ele>
        <time>2017-08-02T14:17:45Z</time>
      </trkpt>
      <trkpt lat="45.86848" lon="6.77903">
        <ele>1564.2</ele>
        <time>2017-08-02T14:17:46Z</time>
      </trkpt>
      <trkpt lat="45.8685" lon="6.77898">
        <ele>1564.2</ele>
        <time>2017-08-02T14:17:47Z</time>
      </trkpt>
      <trkpt lat="45.86851" lon="6.77894">
        <ele>1563.24</ele>
        <time>2017-08-02T14:17:48Z</time>
      </trkpt>
      <trkpt lat="45.86852" lon="6.77889">
        <ele>1562.76</ele>
        <time>2017-08-02T14:17:49Z</time>
      </trkpt>
      <trkpt lat="45.86861" lon="6.77861">
        <ele>1561.32</ele>
        <time>2017-08-02T14:17:56Z</time>
      </trkpt>
      <trkpt lat="45.86866" lon="6.7783">
        <ele>1559.4</ele>
        <time>2017-08-02T14:18:03Z</time>
      </trkpt>
      <trkpt lat="45.86875" lon="6.77812">
        <ele>1556.99</ele>
        <time>2017-08-02T14:18:08Z</time>
      </trkpt>
      <trkpt lat="45.86889" lon="6.77789">
        <ele>1556.03</ele>
        <time>2017-08-02T14:18:15Z</time>
      </trkpt>
      <trkpt lat="45.86899" lon="6.77763">
        <ele>1555.07</ele>
        <time>2017-08-02T14:18:23Z</time>
      </trkpt>
      <trkpt lat="45.86908" lon="6.77736">
        <ele>1553.63</ele>
        <time>2017-08-02T14:18:30Z</time>
      </trkpt>
      <trkpt lat="45.86914" lon="6.77708">
        <ele>1553.15</ele>
        <time>2017-08-02T14:18:38Z</time>
      </trkpt>
      <trkpt lat="45.86913" lon="6.77679">
        <ele>1552.19</ele>
        <time>2017-08-02T14:18:46Z</time>
      </trkpt>
      <trkpt lat="45.86903" lon="6.77655">
        <ele>1550.74</ele>
        <time>2017-08-02T14:18:54Z</time>
      </trkpt>
      <trkpt lat="45.86906" lon="6.77626">
        <ele>1549.3</ele>
        <time>2017-08-02T14:19:03Z</time>
      </trkpt>
      <trkpt lat="45.86906" lon="6.7762">
        <ele>1549.3</ele>
        <time>2017-08-02T14:19:05Z</time>
      </trkpt>
      <trkpt lat="45.86907" lon="6.77616">
        <ele>1549.3</ele>
        <time>2017-08-02T14:19:06Z</time>
      </trkpt>
      <trkpt lat="45.86911" lon="6.77587">
        <ele>1548.82</ele>
        <time>2017-08-02T14:19:15Z</time>
      </trkpt>
      <trkpt lat="45.86912" lon="6.77569">
        <ele>1549.78</ele>
        <time>2017-08-02T14:19:21Z</time>
      </trkpt>
      <trkpt lat="45.86911" lon="6.77555">
        <ele>1548.82</ele>
        <time>2017-08-02T14:19:26Z</time>
      </trkpt>
      <trkpt lat="45.86911" lon="6.77552">
        <ele>1548.82</ele>
        <time>2017-08-02T14:19:27Z</time>
      </trkpt>
      <trkpt lat="45.8691" lon="6.77521">
        <ele>1546.9</ele>
        <time>2017-08-02T14:19:36Z</time>
      </trkpt>
      <trkpt lat="45.86905" lon="6.77489">
        <ele>1546.9</ele>
        <time>2017-08-02T14:19:45Z</time>
      </trkpt>
      <trkpt lat="45.86904" lon="6.77479">
        <ele>1547.38</ele>
        <time>2017-08-02T14:19:48Z</time>
      </trkpt>
      <trkpt lat="45.86904" lon="6.77475">
        <ele>1547.38</ele>
        <time>2017-08-02T14:19:49Z</time>
      </trkpt>
      <trkpt lat="45.86904" lon="6.77472">
        <ele>1547.38</ele>
        <time>2017-08-02T14:19:50Z</time>
      </trkpt>
      <trkpt lat="45.86904" lon="6.77469">
        <ele>1547.86</ele>
        <time>2017-08-02T14:19:51Z</time>
      </trkpt>
      <trkpt lat="45.86904" lon="6.77465">
        <ele>1547.38</ele>
        <time>2017-08-02T14:19:52Z</time>
      </trkpt>
      <trkpt lat="45.86904" lon="6.77461">
        <ele>1547.38</ele>
        <time>2017-08-02T14:19:53Z</time>
      </trkpt>
      <trkpt lat="45.86905" lon="6.77458">
        <ele>1547.86</ele>
        <time>2017-08-02T14:19:54Z</time>
      </trkpt>
      <trkpt lat="45.86905" lon="6.77455">
        <ele>1547.86</ele>
        <time>2017-08-02T14:19:55Z</time>
      </trkpt>
      <trkpt lat="45.86905" lon="6.7745">
        <ele>1547.86</ele>
        <time>2017-08-02T14:19:56Z</time>
      </trkpt>
      <trkpt lat="45.86905" lon="6.77446">
        <ele>1547.38</ele>
        <time>2017-08-02T14:19:57Z</time>
      </trkpt>
      <trkpt lat="45.86906" lon="6.77443">
        <ele>1547.38</ele>
        <time>2017-08-02T14:19:58Z</time>
      </trkpt>
      <trkpt lat="45.86906" lon="6.77409">
        <ele>1546.42</ele>
        <time>2017-08-02T14:20:07Z</time>
      </trkpt>
      <trkpt lat="45.86893" lon="6.77383">
        <ele>1544.01</ele>
        <time>2017-08-02T14:20:15Z</time>
      </trkpt>
      <trkpt lat="45.86891" lon="6.77353">
        <ele>1542.09</ele>
        <time>2017-08-02T14:20:23Z</time>
      </trkpt>
      <trkpt lat="45.86887" lon="6.77322">
        <ele>1541.13</ele>
        <time>2017-08-02T14:20:32Z</time>
      </trkpt>
      <trkpt lat="45.86883" lon="6.77302">
        <ele>1540.17</ele>
        <time>2017-08-02T14:20:38Z</time>
      </trkpt>
      <trkpt lat="45.8688" lon="6.773">
        <ele>1540.17</ele>
        <time>2017-08-02T14:20:39Z</time>
      </trkpt>
      <trkpt lat="45.86878" lon="6.77297">
        <ele>1540.17</ele>
        <time>2017-08-02T14:20:40Z</time>
      </trkpt>
      <trkpt lat="45.86875" lon="6.77295">
        <ele>1539.69</ele>
        <time>2017-08-02T14:20:41Z</time>
      </trkpt>
      <trkpt lat="45.86873" lon="6.77291">
        <ele>1539.69</ele>
        <time>2017-08-02T14:20:42Z</time>
      </trkpt>
      <trkpt lat="45.86872" lon="6.77288">
        <ele>1539.69</ele>
        <time>2017-08-02T14:20:43Z</time>
      </trkpt>
      <trkpt lat="45.8687" lon="6.77285">
        <ele>1539.21</ele>
        <time>2017-08-02T14:20:44Z</time>
      </trkpt>
      <trkpt lat="45.86859" lon="6.7726">
        <ele>1537.77</ele>
        <time>2017-08-02T14:20:52Z</time>
      </trkpt>
      <trkpt lat="45.86852" lon="6.77232">
        <ele>1535.84</ele>
        <time>2017-08-02T14:21:00Z</time>
      </trkpt>
      <trkpt lat="45.86847" lon="6.77202">
        <ele>1534.4</ele>
        <time>2017-08-02T14:21:09Z</time>
      </trkpt>
      <trkpt lat="45.86842" lon="6.77173">
        <ele>1532</ele>
        <time>2017-08-02T14:21:17Z</time>
      </trkpt>
      <trkpt lat="45.8684" lon="6.7714">
        <ele>1529.59</ele>
        <time>2017-08-02T14:21:25Z</time>
      </trkpt>
      <trkpt lat="45.86838" lon="6.77131">
        <ele>1529.59</ele>
        <time>2017-08-02T14:21:28Z</time>
      </trkpt>
      <trkpt lat="45.86837" lon="6.77127">
        <ele>1529.59</ele>
        <time>2017-08-02T14:21:29Z</time>
      </trkpt>
      <trkpt lat="45.86836" lon="6.77124">
        <ele>1529.11</ele>
        <time>2017-08-02T14:21:30Z</time>
      </trkpt>
      <trkpt lat="45.86836" lon="6.7712">
        <ele>1528.63</ele>
        <time>2017-08-02T14:21:31Z</time>
      </trkpt>
      <trkpt lat="45.86836" lon="6.77116">
        <ele>1528.63</ele>
        <time>2017-08-02T14:21:32Z</time>
      </trkpt>
      <trkpt lat="45.86835" lon="6.77113">
        <ele>1528.15</ele>
        <time>2017-08-02T14:21:33Z</time>
      </trkpt>
      <trkpt lat="45.86834" lon="6.77109">
        <ele>1527.67</ele>
        <time>2017-08-02T14:21:34Z</time>
      </trkpt>
      <trkpt lat="45.86821" lon="6.77081">
        <ele>1525.27</ele>
        <time>2017-08-02T14:21:43Z</time>
      </trkpt>
      <trkpt lat="45.86807" lon="6.77054">
        <ele>1524.31</ele>
        <time>2017-08-02T14:21:51Z</time>
      </trkpt>
      <trkpt lat="45.86797" lon="6.77031">
        <ele>1521.42</ele>
        <time>2017-08-02T14:21:58Z</time>
      </trkpt>
      <trkpt lat="45.86793" lon="6.77013">
        <ele>1518.06</ele>
        <time>2017-08-02T14:22:03Z</time>
      </trkpt>
      <trkpt lat="45.86788" lon="6.76993">
        <ele>1514.69</ele>
        <time>2017-08-02T14:22:09Z</time>
      </trkpt>
      <trkpt lat="45.86787" lon="6.76987">
        <ele>1513.73</ele>
        <time>2017-08-02T14:22:11Z</time>
      </trkpt>
      <trkpt lat="45.86786" lon="6.76984">
        <ele>1513.73</ele>
        <time>2017-08-02T14:22:12Z</time>
      </trkpt>
      <trkpt lat="45.86785" lon="6.76982">
        <ele>1513.73</ele>
        <time>2017-08-02T14:22:13Z</time>
      </trkpt>
      <trkpt lat="45.86784" lon="6.76979">
        <ele>1513.25</ele>
        <time>2017-08-02T14:22:14Z</time>
      </trkpt>
      <trkpt lat="45.86783" lon="6.76976">
        <ele>1512.77</ele>
        <time>2017-08-02T14:22:15Z</time>
      </trkpt>
      <trkpt lat="45.86782" lon="6.76973">
        <ele>1512.77</ele>
        <time>2017-08-02T14:22:16Z</time>
      </trkpt>
      <trkpt lat="45.86782" lon="6.7697">
        <ele>1512.29</ele>
        <time>2017-08-02T14:22:17Z</time>
      </trkpt>
      <trkpt lat="45.86782" lon="6.76967">
        <ele>1511.81</ele>
        <time>2017-08-02T14:22:18Z</time>
      </trkpt>
      <trkpt lat="45.86781" lon="6.76964">
        <ele>1511.33</ele>
        <time>2017-08-02T14:22:19Z</time>
      </trkpt>
      <trkpt lat="45.86781" lon="6.76961">
        <ele>1510.85</ele>
        <time>2017-08-02T14:22:20Z</time>
      </trkpt>
      <trkpt lat="45.86779" lon="6.76946">
        <ele>1508.45</ele>
        <time>2017-08-02T14:22:26Z</time>
      </trkpt>
      <trkpt lat="45.86781" lon="6.76927">
        <ele>1505.08</ele>
        <time>2017-08-02T14:22:32Z</time>
      </trkpt>
      <trkpt lat="45.86786" lon="6.76915">
        <ele>1503.16</ele>
        <time>2017-08-02T14:22:36Z</time>
      </trkpt>
      <trkpt lat="45.86787" lon="6.76912">
        <ele>1502.68</ele>
        <time>2017-08-02T14:22:37Z</time>
      </trkpt>
      <trkpt lat="45.86789" lon="6.76909">
        <ele>1502.2</ele>
        <time>2017-08-02T14:22:38Z</time>
      </trkpt>
      <trkpt lat="45.86789" lon="6.76906">
        <ele>1502.2</ele>
        <time>2017-08-02T14:22:39Z</time>
      </trkpt>
      <trkpt lat="45.8679" lon="6.76903">
        <ele>1501.72</ele>
        <time>2017-08-02T14:22:40Z</time>
      </trkpt>
      <trkpt lat="45.86791" lon="6.76901">
        <ele>1501.24</ele>
        <time>2017-08-02T14:22:41Z</time>
      </trkpt>
      <trkpt lat="45.86792" lon="6.76898">
        <ele>1500.27</ele>
        <time>2017-08-02T14:22:42Z</time>
      </trkpt>
      <trkpt lat="45.86793" lon="6.76894">
        <ele>1499.79</ele>
        <time>2017-08-02T14:22:43Z</time>
      </trkpt>
      <trkpt lat="45.86794" lon="6.76891">
        <ele>1499.31</ele>
        <time>2017-08-02T14:22:44Z</time>
      </trkpt>
      <trkpt lat="45.86794" lon="6.76887">
        <ele>1498.83</ele>
        <time>2017-08-02T14:22:45Z</time>
      </trkpt>
      <trkpt lat="45.86793" lon="6.76884">
        <ele>1497.87</ele>
        <time>2017-08-02T14:22:46Z</time>
      </trkpt>
      <trkpt lat="45.86794" lon="6.76881">
        <ele>1497.39</ele>
        <time>2017-08-02T14:22:47Z</time>
      </trkpt>
      <trkpt lat="45.86794" lon="6.76879">
        <ele>1496.91</ele>
        <time>2017-08-02T14:22:48Z</time>
      </trkpt>
      <trkpt lat="45.86794" lon="6.76876">
        <ele>1496.43</ele>
        <time>2017-08-02T14:22:49Z</time>
      </trkpt>
      <trkpt lat="45.86794" lon="6.76873">
        <ele>1495.95</ele>
        <time>2017-08-02T14:22:50Z</time>
      </trkpt>
      <trkpt lat="45.86794" lon="6.76871">
        <ele>1495.47</ele>
        <time>2017-08-02T14:22:51Z</time>
      </trkpt>
      <trkpt lat="45.86795" lon="6.76846">
        <ele>1491.62</ele>
        <time>2017-08-02T14:22:58Z</time>
      </trkpt>
      <trkpt lat="45.86794" lon="6.7682">
        <ele>1488.26</ele>
        <time>2017-08-02T14:23:04Z</time>
      </trkpt>
      <trkpt lat="45.86797" lon="6.76792">
        <ele>1484.89</ele>
        <time>2017-08-02T14:23:10Z</time>
      </trkpt>
      <trkpt lat="45.86804" lon="6.76758">
        <ele>1482.49</ele>
        <time>2017-08-02T14:23:18Z</time>
      </trkpt>
      <trkpt lat="45.86807" lon="6.76729">
        <ele>1480.57</ele>
        <time>2017-08-02T14:23:26Z</time>
      </trkpt>
      <trkpt lat="45.86807" lon="6.76697">
        <ele>1477.2</ele>
        <time>2017-08-02T14:23:34Z</time>
      </trkpt>
      <trkpt lat="45.86808" lon="6.76666">
        <ele>1474.8</ele>
        <time>2017-08-02T14:23:42Z</time>
      </trkpt>
      <trkpt lat="45.8681" lon="6.76634">
        <ele>1472.88</ele>
        <time>2017-08-02T14:23:50Z</time>
      </trkpt>
      <trkpt lat="45.86804" lon="6.7661">
        <ele>1469.03</ele>
        <time>2017-08-02T14:23:58Z</time>
      </trkpt>
      <trkpt lat="45.86804" lon="6.766">
        <ele>1467.59</ele>
        <time>2017-08-02T14:24:01Z</time>
      </trkpt>
      <trkpt lat="45.86805" lon="6.76596">
        <ele>1467.11</ele>
        <time>2017-08-02T14:24:02Z</time>
      </trkpt>
      <trkpt lat="45.86805" lon="6.76593">
        <ele>1466.63</ele>
        <time>2017-08-02T14:24:03Z</time>
      </trkpt>
      <trkpt lat="45.86804" lon="6.76589">
        <ele>1466.15</ele>
        <time>2017-08-02T14:24:04Z</time>
      </trkpt>
      <trkpt lat="45.86805" lon="6.76586">
        <ele>1465.67</ele>
        <time>2017-08-02T14:24:05Z</time>
      </trkpt>
      <trkpt lat="45.86805" lon="6.76582">
        <ele>1465.67</ele>
        <time>2017-08-02T14:24:06Z</time>
      </trkpt>
      <trkpt lat="45.86805" lon="6.76579">
        <ele>1464.71</ele>
        <time>2017-08-02T14:24:07Z</time>
      </trkpt>
      <trkpt lat="45.86804" lon="6.76576">
        <ele>1464.23</ele>
        <time>2017-08-02T14:24:08Z</time>
      </trkpt>
      <trkpt lat="45.86804" lon="6.76559">
        <ele>1464.23</ele>
        <time>2017-08-02T14:24:13Z</time>
      </trkpt>
      <trkpt lat="45.86804" lon="6.76555">
        <ele>1463.74</ele>
        <time>2017-08-02T14:24:14Z</time>
      </trkpt>
      <trkpt lat="45.86806" lon="6.76545">
        <ele>1460.38</ele>
        <time>2017-08-02T14:24:17Z</time>
      </trkpt>
      <trkpt lat="45.86811" lon="6.76527">
        <ele>1457.98</ele>
        <time>2017-08-02T14:24:22Z</time>
      </trkpt>
      <trkpt lat="45.86816" lon="6.76495">
        <ele>1457.02</ele>
        <time>2017-08-02T14:24:30Z</time>
      </trkpt>
      <trkpt lat="45.86819" lon="6.76481">
        <ele>1455.09</ele>
        <time>2017-08-02T14:24:34Z</time>
      </trkpt>
      <trkpt lat="45.86819" lon="6.76478">
        <ele>1454.61</ele>
        <time>2017-08-02T14:24:35Z</time>
      </trkpt>
      <trkpt lat="45.86821" lon="6.76466">
        <ele>1452.21</ele>
        <time>2017-08-02T14:24:39Z</time>
      </trkpt>
      <trkpt lat="45.86821" lon="6.76449">
        <ele>1450.29</ele>
        <time>2017-08-02T14:24:44Z</time>
      </trkpt>
      <trkpt lat="45.86818" lon="6.76418">
        <ele>1447.4</ele>
        <time>2017-08-02T14:24:51Z</time>
      </trkpt>
      <trkpt lat="45.86824" lon="6.76386">
        <ele>1445.48</ele>
        <time>2017-08-02T14:25:00Z</time>
      </trkpt>
      <trkpt lat="45.86827" lon="6.76357">
        <ele>1442.6</ele>
        <time>2017-08-02T14:25:09Z</time>
      </trkpt>
      <trkpt lat="45.86828" lon="6.76324">
        <ele>1440.19</ele>
        <time>2017-08-02T14:25:18Z</time>
      </trkpt>
      <trkpt lat="45.86831" lon="6.76292">
        <ele>1437.31</ele>
        <time>2017-08-02T14:25:27Z</time>
      </trkpt>
      <trkpt lat="45.86839" lon="6.76266">
        <ele>1433.94</ele>
        <time>2017-08-02T14:25:36Z</time>
      </trkpt>
      <trkpt lat="45.86838" lon="6.76263">
        <ele>1433.46</ele>
        <time>2017-08-02T14:25:37Z</time>
      </trkpt>
      <trkpt lat="45.86837" lon="6.76259">
        <ele>1433.46</ele>
        <time>2017-08-02T14:25:38Z</time>
      </trkpt>
      <trkpt lat="45.86834" lon="6.76256">
        <ele>1432.98</ele>
        <time>2017-08-02T14:25:39Z</time>
      </trkpt>
      <trkpt lat="45.86833" lon="6.76252">
        <ele>1432.5</ele>
        <time>2017-08-02T14:25:40Z</time>
      </trkpt>
      <trkpt lat="45.86832" lon="6.7625">
        <ele>1432.02</ele>
        <time>2017-08-02T14:25:41Z</time>
      </trkpt>
      <trkpt lat="45.86831" lon="6.76244">
        <ele>1432.02</ele>
        <time>2017-08-02T14:25:43Z</time>
      </trkpt>
      <trkpt lat="45.86831" lon="6.76242">
        <ele>1431.54</ele>
        <time>2017-08-02T14:25:44Z</time>
      </trkpt>
      <trkpt lat="45.86831" lon="6.76239">
        <ele>1431.54</ele>
        <time>2017-08-02T14:25:45Z</time>
      </trkpt>
      <trkpt lat="45.86831" lon="6.76237">
        <ele>1431.54</ele>
        <time>2017-08-02T14:25:46Z</time>
      </trkpt>
      <trkpt lat="45.86832" lon="6.76234">
        <ele>1431.06</ele>
        <time>2017-08-02T14:25:47Z</time>
      </trkpt>
      <trkpt lat="45.86833" lon="6.76231">
        <ele>1430.58</ele>
        <time>2017-08-02T14:25:48Z</time>
      </trkpt>
      <trkpt lat="45.86831" lon="6.76228">
        <ele>1430.58</ele>
        <time>2017-08-02T14:25:49Z</time>
      </trkpt>
      <trkpt lat="45.86832" lon="6.76225">
        <ele>1430.58</ele>
        <time>2017-08-02T14:25:50Z</time>
      </trkpt>
      <trkpt lat="45.86832" lon="6.76222">
        <ele>1430.1</ele>
        <time>2017-08-02T14:25:51Z</time>
      </trkpt>
      <trkpt lat="45.86832" lon="6.76219">
        <ele>1429.62</ele>
        <time>2017-08-02T14:25:52Z</time>
      </trkpt>
      <trkpt lat="45.86828" lon="6.76182">
        <ele>1426.73</ele>
        <time>2017-08-02T14:26:04Z</time>
      </trkpt>
      <trkpt lat="45.86823" lon="6.76172">
        <ele>1426.73</ele>
        <time>2017-08-02T14:26:08Z</time>
      </trkpt>
      <trkpt lat="45.86822" lon="6.7617">
        <ele>1426.25</ele>
        <time>2017-08-02T14:26:09Z</time>
      </trkpt>
      <trkpt lat="45.86822" lon="6.76167">
        <ele>1426.25</ele>
        <time>2017-08-02T14:26:10Z</time>
      </trkpt>
      <trkpt lat="45.86824" lon="6.76163">
        <ele>1425.77</ele>
        <time>2017-08-02T14:26:11Z</time>
      </trkpt>
      <trkpt lat="45.86825" lon="6.7616">
        <ele>1425.29</ele>
        <time>2017-08-02T14:26:12Z</time>
      </trkpt>
      <trkpt lat="45.86823" lon="6.76155">
        <ele>1425.29</ele>
        <time>2017-08-02T14:26:13Z</time>
      </trkpt>
      <trkpt lat="45.86822" lon="6.7615">
        <ele>1424.81</ele>
        <time>2017-08-02T14:26:14Z</time>
      </trkpt>
      <trkpt lat="45.86821" lon="6.76147">
        <ele>1424.81</ele>
        <time>2017-08-02T14:26:15Z</time>
      </trkpt>
      <trkpt lat="45.86822" lon="6.76144">
        <ele>1424.33</ele>
        <time>2017-08-02T14:26:16Z</time>
      </trkpt>
      <trkpt lat="45.86822" lon="6.7614">
        <ele>1424.33</ele>
        <time>2017-08-02T14:26:17Z</time>
      </trkpt>
      <trkpt lat="45.86823" lon="6.76137">
        <ele>1424.33</ele>
        <time>2017-08-02T14:26:18Z</time>
      </trkpt>
      <trkpt lat="45.86824" lon="6.76134">
        <ele>1423.37</ele>
        <time>2017-08-02T14:26:19Z</time>
      </trkpt>
      <trkpt lat="45.86821" lon="6.76129">
        <ele>1423.37</ele>
        <time>2017-08-02T14:26:20Z</time>
      </trkpt>
      <trkpt lat="45.8682" lon="6.76126">
        <ele>1422.89</ele>
        <time>2017-08-02T14:26:21Z</time>
      </trkpt>
      <trkpt lat="45.86822" lon="6.76125">
        <ele>1422.41</ele>
        <time>2017-08-02T14:26:22Z</time>
      </trkpt>
      <trkpt lat="45.86823" lon="6.76124">
        <ele>1421.45</ele>
        <time>2017-08-02T14:26:23Z</time>
      </trkpt>
      <trkpt lat="45.86824" lon="6.76124">
        <ele>1420.97</ele>
        <time>2017-08-02T14:26:24Z</time>
      </trkpt>
      <trkpt lat="45.86825" lon="6.76123">
        <ele>1420.97</ele>
        <time>2017-08-02T14:26:25Z</time>
      </trkpt>
      <trkpt lat="45.86826" lon="6.7612">
        <ele>1420.49</ele>
        <time>2017-08-02T14:26:26Z</time>
      </trkpt>
      <trkpt lat="45.86827" lon="6.76118">
        <ele>1419.52</ele>
        <time>2017-08-02T14:26:27Z</time>
      </trkpt>
      <trkpt lat="45.86828" lon="6.76117">
        <ele>1418.56</ele>
        <time>2017-08-02T14:26:28Z</time>
      </trkpt>
      <trkpt lat="45.86829" lon="6.76116">
        <ele>1418.56</ele>
        <time>2017-08-02T14:26:29Z</time>
      </trkpt>
      <trkpt lat="45.8683" lon="6.76114">
        <ele>1418.08</ele>
        <time>2017-08-02T14:26:30Z</time>
      </trkpt>
      <trkpt lat="45.86832" lon="6.76113">
        <ele>1418.08</ele>
        <time>2017-08-02T14:26:31Z</time>
      </trkpt>
      <trkpt lat="45.86834" lon="6.76105">
        <ele>1418.56</ele>
        <time>2017-08-02T14:26:36Z</time>
      </trkpt>
      <trkpt lat="45.86835" lon="6.76106">
        <ele>1418.56</ele>
        <time>2017-08-02T14:26:37Z</time>
      </trkpt>
      <trkpt lat="45.86835" lon="6.76107">
        <ele>1418.56</ele>
        <time>2017-08-02T14:26:38Z</time>
      </trkpt>
      <trkpt lat="45.86834" lon="6.76109">
        <ele>1418.56</ele>
        <time>2017-08-02T14:26:40Z</time>
      </trkpt>
    </trkseg>
  </trk>
</gpx>